<?xml version="1.0" encoding="UTF-8" standalone="no" ?>
<gpx xmlns="http://www.topografix.com/GPX/1/1" xmlns:xsi="http://www.w3.org/2001/XMLSchema-instance" xsi:schemaLocation="http://www.topografix.com/GPX/1/1 http://www.topografix.com/GPX/1/1/gpx.xsd" version="1.1" creator="VisuGPX - https://www.visugpx.com">
  <metadata>
    <name>Hardangervidda 2019</name>
  </metadata>
  <trk>
    <name><![CDATA[2019-04-06]]></name>
    <trkseg>
      <trkpt lat="60.41824" lon="7.68598">
        <ele>1151.8</ele>
        <time>2019-04-06T08:02:56Z</time>
      </trkpt>
      <trkpt lat="60.41824" lon="7.68597">
        <ele>1151.8</ele>
        <time>2019-04-06T08:02:57Z</time>
      </trkpt>
      <trkpt lat="60.41824" lon="7.68588">
        <ele>1151.8</ele>
        <time>2019-04-06T08:03:08Z</time>
      </trkpt>
      <trkpt lat="60.41823" lon="7.68577">
        <ele>1151.32</ele>
        <time>2019-04-06T08:03:14Z</time>
      </trkpt>
      <trkpt lat="60.41824" lon="7.68562">
        <ele>1154.2</ele>
        <time>2019-04-06T08:03:22Z</time>
      </trkpt>
      <trkpt lat="60.41823" lon="7.68561">
        <ele>1151.32</ele>
        <time>2019-04-06T08:03:34Z</time>
      </trkpt>
      <trkpt lat="60.41825" lon="7.68553">
        <ele>1151.32</ele>
        <time>2019-04-06T08:03:50Z</time>
      </trkpt>
      <trkpt lat="60.41825" lon="7.68552">
        <ele>1151.32</ele>
        <time>2019-04-06T08:04:07Z</time>
      </trkpt>
      <trkpt lat="60.41826" lon="7.68541">
        <ele>1151.32</ele>
        <time>2019-04-06T08:04:25Z</time>
      </trkpt>
      <trkpt lat="60.41823" lon="7.68531">
        <ele>1151.32</ele>
        <time>2019-04-06T08:04:42Z</time>
      </trkpt>
      <trkpt lat="60.41824" lon="7.68526">
        <ele>1150.84</ele>
        <time>2019-04-06T08:05:01Z</time>
      </trkpt>
      <trkpt lat="60.41826" lon="7.68522">
        <ele>1150.84</ele>
        <time>2019-04-06T08:05:30Z</time>
      </trkpt>
      <trkpt lat="60.41826" lon="7.68523">
        <ele>1150.84</ele>
        <time>2019-04-06T08:06:02Z</time>
      </trkpt>
      <trkpt lat="60.41824" lon="7.68521">
        <ele>1150.84</ele>
        <time>2019-04-06T08:06:36Z</time>
      </trkpt>
      <trkpt lat="60.41827" lon="7.68516">
        <ele>1150.84</ele>
        <time>2019-04-06T08:06:47Z</time>
      </trkpt>
      <trkpt lat="60.4183" lon="7.68511">
        <ele>1151.8</ele>
        <time>2019-04-06T08:06:56Z</time>
      </trkpt>
      <trkpt lat="60.41831" lon="7.68504">
        <ele>1151.8</ele>
        <time>2019-04-06T08:07:07Z</time>
      </trkpt>
      <trkpt lat="60.41832" lon="7.68504">
        <ele>1151.32</ele>
        <time>2019-04-06T08:07:18Z</time>
      </trkpt>
      <trkpt lat="60.41829" lon="7.68501">
        <ele>1151.32</ele>
        <time>2019-04-06T08:07:49Z</time>
      </trkpt>
      <trkpt lat="60.41828" lon="7.68503">
        <ele>1151.32</ele>
        <time>2019-04-06T08:08:18Z</time>
      </trkpt>
      <trkpt lat="60.41828" lon="7.68505">
        <ele>1150.84</ele>
        <time>2019-04-06T08:08:46Z</time>
      </trkpt>
      <trkpt lat="60.41829" lon="7.68502">
        <ele>1150.84</ele>
        <time>2019-04-06T08:09:20Z</time>
      </trkpt>
      <trkpt lat="60.4183" lon="7.68502">
        <ele>1150.84</ele>
        <time>2019-04-06T08:09:43Z</time>
      </trkpt>
      <trkpt lat="60.41828" lon="7.68496">
        <ele>1150.84</ele>
        <time>2019-04-06T08:10:12Z</time>
      </trkpt>
      <trkpt lat="60.41829" lon="7.68498">
        <ele>1152.28</ele>
        <time>2019-04-06T08:10:33Z</time>
      </trkpt>
      <trkpt lat="60.41827" lon="7.68505">
        <ele>1152.28</ele>
        <time>2019-04-06T08:10:54Z</time>
      </trkpt>
      <trkpt lat="60.41828" lon="7.68505">
        <ele>1152.28</ele>
        <time>2019-04-06T08:11:16Z</time>
      </trkpt>
      <trkpt lat="60.41827" lon="7.68504">
        <ele>1152.28</ele>
        <time>2019-04-06T08:11:38Z</time>
      </trkpt>
      <trkpt lat="60.41826" lon="7.68507">
        <ele>1152.28</ele>
        <time>2019-04-06T08:12:07Z</time>
      </trkpt>
      <trkpt lat="60.4183" lon="7.68505">
        <ele>1150.84</ele>
        <time>2019-04-06T08:12:41Z</time>
      </trkpt>
      <trkpt lat="60.4183" lon="7.68504">
        <ele>1150.84</ele>
        <time>2019-04-06T08:12:42Z</time>
      </trkpt>
      <trkpt lat="60.41831" lon="7.68502">
        <ele>1150.84</ele>
        <time>2019-04-06T08:13:14Z</time>
      </trkpt>
      <trkpt lat="60.41831" lon="7.68502">
        <ele>1150.84</ele>
        <time>2019-04-06T08:13:43Z</time>
      </trkpt>
      <trkpt lat="60.4183" lon="7.68502">
        <ele>1151.8</ele>
        <time>2019-04-06T08:14:09Z</time>
      </trkpt>
      <trkpt lat="60.41831" lon="7.68502">
        <ele>1150.84</ele>
        <time>2019-04-06T08:14:33Z</time>
      </trkpt>
      <trkpt lat="60.41831" lon="7.68501">
        <ele>1151.8</ele>
        <time>2019-04-06T08:14:38Z</time>
      </trkpt>
      <trkpt lat="60.41829" lon="7.68502">
        <ele>1150.84</ele>
        <time>2019-04-06T08:15:15Z</time>
      </trkpt>
      <trkpt lat="60.4183" lon="7.685">
        <ele>1152.28</ele>
        <time>2019-04-06T08:15:41Z</time>
      </trkpt>
      <trkpt lat="60.4183" lon="7.685">
        <ele>1150.84</ele>
        <time>2019-04-06T08:15:48Z</time>
      </trkpt>
      <trkpt lat="60.41834" lon="7.6849">
        <ele>1150.35</ele>
        <time>2019-04-06T08:16:06Z</time>
      </trkpt>
      <trkpt lat="60.4184" lon="7.68473">
        <ele>1152.28</ele>
        <time>2019-04-06T08:16:23Z</time>
      </trkpt>
      <trkpt lat="60.41847" lon="7.68453">
        <ele>1153.72</ele>
        <time>2019-04-06T08:16:38Z</time>
      </trkpt>
      <trkpt lat="60.41856" lon="7.6843">
        <ele>1155.16</ele>
        <time>2019-04-06T08:16:57Z</time>
      </trkpt>
      <trkpt lat="60.41862" lon="7.68412">
        <ele>1157.08</ele>
        <time>2019-04-06T08:17:13Z</time>
      </trkpt>
      <trkpt lat="60.41867" lon="7.68402">
        <ele>1158.53</ele>
        <time>2019-04-06T08:17:26Z</time>
      </trkpt>
      <trkpt lat="60.41875" lon="7.68387">
        <ele>1159.97</ele>
        <time>2019-04-06T08:17:43Z</time>
      </trkpt>
      <trkpt lat="60.41888" lon="7.68371">
        <ele>1161.41</ele>
        <time>2019-04-06T08:18:00Z</time>
      </trkpt>
      <trkpt lat="60.41896" lon="7.68353">
        <ele>1162.85</ele>
        <time>2019-04-06T08:18:15Z</time>
      </trkpt>
      <trkpt lat="60.41901" lon="7.68333">
        <ele>1165.26</ele>
        <time>2019-04-06T08:18:31Z</time>
      </trkpt>
      <trkpt lat="60.41903" lon="7.68325">
        <ele>1165.74</ele>
        <time>2019-04-06T08:18:46Z</time>
      </trkpt>
      <trkpt lat="60.41905" lon="7.68324">
        <ele>1166.22</ele>
        <time>2019-04-06T08:19:18Z</time>
      </trkpt>
      <trkpt lat="60.41905" lon="7.68323">
        <ele>1165.26</ele>
        <time>2019-04-06T08:19:38Z</time>
      </trkpt>
      <trkpt lat="60.41904" lon="7.68318">
        <ele>1166.22</ele>
        <time>2019-04-06T08:19:56Z</time>
      </trkpt>
      <trkpt lat="60.41909" lon="7.68301">
        <ele>1167.66</ele>
        <time>2019-04-06T08:20:11Z</time>
      </trkpt>
      <trkpt lat="60.41905" lon="7.68303">
        <ele>1167.18</ele>
        <time>2019-04-06T08:20:23Z</time>
      </trkpt>
      <trkpt lat="60.41904" lon="7.68295">
        <ele>1168.62</ele>
        <time>2019-04-06T08:20:37Z</time>
      </trkpt>
      <trkpt lat="60.41904" lon="7.68297">
        <ele>1167.18</ele>
        <time>2019-04-06T08:20:43Z</time>
      </trkpt>
      <trkpt lat="60.41905" lon="7.68297">
        <ele>1169.1</ele>
        <time>2019-04-06T08:20:45Z</time>
      </trkpt>
      <trkpt lat="60.4191" lon="7.68286">
        <ele>1169.1</ele>
        <time>2019-04-06T08:20:57Z</time>
      </trkpt>
      <trkpt lat="60.41913" lon="7.68272">
        <ele>1170.54</ele>
        <time>2019-04-06T08:21:10Z</time>
      </trkpt>
      <trkpt lat="60.4192" lon="7.68255">
        <ele>1172.95</ele>
        <time>2019-04-06T08:21:27Z</time>
      </trkpt>
      <trkpt lat="60.41924" lon="7.68244">
        <ele>1175.83</ele>
        <time>2019-04-06T08:21:41Z</time>
      </trkpt>
      <trkpt lat="60.41927" lon="7.68239">
        <ele>1175.83</ele>
        <time>2019-04-06T08:21:48Z</time>
      </trkpt>
      <trkpt lat="60.41931" lon="7.68233">
        <ele>1175.83</ele>
        <time>2019-04-06T08:21:58Z</time>
      </trkpt>
      <trkpt lat="60.41933" lon="7.68232">
        <ele>1177.27</ele>
        <time>2019-04-06T08:22:01Z</time>
      </trkpt>
      <trkpt lat="60.41934" lon="7.6823">
        <ele>1176.79</ele>
        <time>2019-04-06T08:22:08Z</time>
      </trkpt>
      <trkpt lat="60.41934" lon="7.68228">
        <ele>1177.75</ele>
        <time>2019-04-06T08:22:25Z</time>
      </trkpt>
      <trkpt lat="60.41936" lon="7.68226">
        <ele>1177.75</ele>
        <time>2019-04-06T08:22:48Z</time>
      </trkpt>
      <trkpt lat="60.41938" lon="7.68225">
        <ele>1177.75</ele>
        <time>2019-04-06T08:23:09Z</time>
      </trkpt>
      <trkpt lat="60.41937" lon="7.68227">
        <ele>1178.23</ele>
        <time>2019-04-06T08:23:34Z</time>
      </trkpt>
      <trkpt lat="60.41939" lon="7.68222">
        <ele>1177.27</ele>
        <time>2019-04-06T08:23:50Z</time>
      </trkpt>
      <trkpt lat="60.41941" lon="7.68218">
        <ele>1178.71</ele>
        <time>2019-04-06T08:23:54Z</time>
      </trkpt>
      <trkpt lat="60.41952" lon="7.68201">
        <ele>1178.71</ele>
        <time>2019-04-06T08:24:08Z</time>
      </trkpt>
      <trkpt lat="60.4196" lon="7.68186">
        <ele>1179.67</ele>
        <time>2019-04-06T08:24:24Z</time>
      </trkpt>
      <trkpt lat="60.41965" lon="7.68176">
        <ele>1181.12</ele>
        <time>2019-04-06T08:24:39Z</time>
      </trkpt>
      <trkpt lat="60.41972" lon="7.68161">
        <ele>1183.04</ele>
        <time>2019-04-06T08:24:55Z</time>
      </trkpt>
      <trkpt lat="60.41977" lon="7.68152">
        <ele>1184</ele>
        <time>2019-04-06T08:25:08Z</time>
      </trkpt>
      <trkpt lat="60.41986" lon="7.68144">
        <ele>1186.4</ele>
        <time>2019-04-06T08:25:22Z</time>
      </trkpt>
      <trkpt lat="60.41984" lon="7.68146">
        <ele>1185.44</ele>
        <time>2019-04-06T08:25:44Z</time>
      </trkpt>
      <trkpt lat="60.41993" lon="7.68134">
        <ele>1187.37</ele>
        <time>2019-04-06T08:26:02Z</time>
      </trkpt>
      <trkpt lat="60.42003" lon="7.68119">
        <ele>1188.33</ele>
        <time>2019-04-06T08:26:18Z</time>
      </trkpt>
      <trkpt lat="60.42013" lon="7.68108">
        <ele>1189.29</ele>
        <time>2019-04-06T08:26:34Z</time>
      </trkpt>
      <trkpt lat="60.42021" lon="7.681">
        <ele>1189.77</ele>
        <time>2019-04-06T08:26:50Z</time>
      </trkpt>
      <trkpt lat="60.42033" lon="7.68086">
        <ele>1190.25</ele>
        <time>2019-04-06T08:27:06Z</time>
      </trkpt>
      <trkpt lat="60.4204" lon="7.68081">
        <ele>1191.69</ele>
        <time>2019-04-06T08:27:22Z</time>
      </trkpt>
      <trkpt lat="60.42037" lon="7.68082">
        <ele>1190.73</ele>
        <time>2019-04-06T08:27:42Z</time>
      </trkpt>
      <trkpt lat="60.42038" lon="7.68085">
        <ele>1192.65</ele>
        <time>2019-04-06T08:27:57Z</time>
      </trkpt>
      <trkpt lat="60.42037" lon="7.68086">
        <ele>1191.21</ele>
        <time>2019-04-06T08:28:09Z</time>
      </trkpt>
      <trkpt lat="60.42036" lon="7.68085">
        <ele>1192.17</ele>
        <time>2019-04-06T08:28:23Z</time>
      </trkpt>
      <trkpt lat="60.42035" lon="7.68083">
        <ele>1190.73</ele>
        <time>2019-04-06T08:28:32Z</time>
      </trkpt>
      <trkpt lat="60.42039" lon="7.6808">
        <ele>1191.69</ele>
        <time>2019-04-06T08:28:50Z</time>
      </trkpt>
      <trkpt lat="60.42046" lon="7.68072">
        <ele>1191.69</ele>
        <time>2019-04-06T08:28:58Z</time>
      </trkpt>
      <trkpt lat="60.42049" lon="7.68068">
        <ele>1190.25</ele>
        <time>2019-04-06T08:29:01Z</time>
      </trkpt>
      <trkpt lat="60.42067" lon="7.68052">
        <ele>1188.81</ele>
        <time>2019-04-06T08:29:15Z</time>
      </trkpt>
      <trkpt lat="60.42085" lon="7.68033">
        <ele>1189.29</ele>
        <time>2019-04-06T08:29:32Z</time>
      </trkpt>
      <trkpt lat="60.42094" lon="7.68018">
        <ele>1190.25</ele>
        <time>2019-04-06T08:29:44Z</time>
      </trkpt>
      <trkpt lat="60.42103" lon="7.67995">
        <ele>1192.17</ele>
        <time>2019-04-06T08:30:00Z</time>
      </trkpt>
      <trkpt lat="60.42113" lon="7.67977">
        <ele>1193.61</ele>
        <time>2019-04-06T08:30:16Z</time>
      </trkpt>
      <trkpt lat="60.42123" lon="7.67961">
        <ele>1194.58</ele>
        <time>2019-04-06T08:30:32Z</time>
      </trkpt>
      <trkpt lat="60.42132" lon="7.67941">
        <ele>1195.06</ele>
        <time>2019-04-06T08:30:48Z</time>
      </trkpt>
      <trkpt lat="60.42141" lon="7.67923">
        <ele>1195.06</ele>
        <time>2019-04-06T08:31:04Z</time>
      </trkpt>
      <trkpt lat="60.42139" lon="7.67922">
        <ele>1195.06</ele>
        <time>2019-04-06T08:31:21Z</time>
      </trkpt>
      <trkpt lat="60.42139" lon="7.67919">
        <ele>1195.06</ele>
        <time>2019-04-06T08:31:43Z</time>
      </trkpt>
      <trkpt lat="60.42145" lon="7.67911">
        <ele>1195.54</ele>
        <time>2019-04-06T08:31:57Z</time>
      </trkpt>
      <trkpt lat="60.42156" lon="7.67886">
        <ele>1195.06</ele>
        <time>2019-04-06T08:32:13Z</time>
      </trkpt>
      <trkpt lat="60.42168" lon="7.6786">
        <ele>1196.5</ele>
        <time>2019-04-06T08:32:30Z</time>
      </trkpt>
      <trkpt lat="60.42174" lon="7.67847">
        <ele>1197.94</ele>
        <time>2019-04-06T08:32:41Z</time>
      </trkpt>
      <trkpt lat="60.42176" lon="7.67842">
        <ele>1197.94</ele>
        <time>2019-04-06T08:32:44Z</time>
      </trkpt>
      <trkpt lat="60.42177" lon="7.67834">
        <ele>1197.46</ele>
        <time>2019-04-06T08:33:02Z</time>
      </trkpt>
      <trkpt lat="60.42177" lon="7.67835">
        <ele>1196.98</ele>
        <time>2019-04-06T08:33:12Z</time>
      </trkpt>
      <trkpt lat="60.42177" lon="7.67834">
        <ele>1198.42</ele>
        <time>2019-04-06T08:33:15Z</time>
      </trkpt>
      <trkpt lat="60.42175" lon="7.67831">
        <ele>1196.98</ele>
        <time>2019-04-06T08:33:43Z</time>
      </trkpt>
      <trkpt lat="60.42175" lon="7.67831">
        <ele>1196.98</ele>
        <time>2019-04-06T08:34:18Z</time>
      </trkpt>
      <trkpt lat="60.42179" lon="7.6783">
        <ele>1196.5</ele>
        <time>2019-04-06T08:34:41Z</time>
      </trkpt>
      <trkpt lat="60.4218" lon="7.67829">
        <ele>1196.98</ele>
        <time>2019-04-06T08:35:12Z</time>
      </trkpt>
      <trkpt lat="60.42179" lon="7.67827">
        <ele>1196.5</ele>
        <time>2019-04-06T08:35:36Z</time>
      </trkpt>
      <trkpt lat="60.42179" lon="7.67828">
        <ele>1196.02</ele>
        <time>2019-04-06T08:36:08Z</time>
      </trkpt>
      <trkpt lat="60.4218" lon="7.67826">
        <ele>1195.54</ele>
        <time>2019-04-06T08:36:51Z</time>
      </trkpt>
      <trkpt lat="60.42182" lon="7.6783">
        <ele>1195.54</ele>
        <time>2019-04-06T08:37:27Z</time>
      </trkpt>
      <trkpt lat="60.42181" lon="7.67828">
        <ele>1195.54</ele>
        <time>2019-04-06T08:37:52Z</time>
      </trkpt>
      <trkpt lat="60.42182" lon="7.67832">
        <ele>1195.54</ele>
        <time>2019-04-06T08:38:21Z</time>
      </trkpt>
      <trkpt lat="60.42183" lon="7.67833">
        <ele>1195.06</ele>
        <time>2019-04-06T08:38:48Z</time>
      </trkpt>
      <trkpt lat="60.42183" lon="7.67832">
        <ele>1195.06</ele>
        <time>2019-04-06T08:39:08Z</time>
      </trkpt>
      <trkpt lat="60.42182" lon="7.67832">
        <ele>1196.5</ele>
        <time>2019-04-06T08:39:17Z</time>
      </trkpt>
      <trkpt lat="60.42184" lon="7.67826">
        <ele>1196.5</ele>
        <time>2019-04-06T08:39:42Z</time>
      </trkpt>
      <trkpt lat="60.42186" lon="7.67828">
        <ele>1196.5</ele>
        <time>2019-04-06T08:40:24Z</time>
      </trkpt>
      <trkpt lat="60.42182" lon="7.67833">
        <ele>1196.02</ele>
        <time>2019-04-06T08:40:50Z</time>
      </trkpt>
      <trkpt lat="60.42182" lon="7.67833">
        <ele>1196.98</ele>
        <time>2019-04-06T08:40:53Z</time>
      </trkpt>
      <trkpt lat="60.42184" lon="7.67834">
        <ele>1196.02</ele>
        <time>2019-04-06T08:41:14Z</time>
      </trkpt>
      <trkpt lat="60.42185" lon="7.67831">
        <ele>1195.54</ele>
        <time>2019-04-06T08:41:33Z</time>
      </trkpt>
      <trkpt lat="60.42186" lon="7.6783">
        <ele>1196.98</ele>
        <time>2019-04-06T08:41:52Z</time>
      </trkpt>
      <trkpt lat="60.42186" lon="7.67826">
        <ele>1196.98</ele>
        <time>2019-04-06T08:42:18Z</time>
      </trkpt>
      <trkpt lat="60.42185" lon="7.67826">
        <ele>1196.98</ele>
        <time>2019-04-06T08:42:53Z</time>
      </trkpt>
      <trkpt lat="60.42184" lon="7.6783">
        <ele>1196.5</ele>
        <time>2019-04-06T08:43:24Z</time>
      </trkpt>
      <trkpt lat="60.42184" lon="7.67831">
        <ele>1196.5</ele>
        <time>2019-04-06T08:44:02Z</time>
      </trkpt>
      <trkpt lat="60.42183" lon="7.67831">
        <ele>1196.02</ele>
        <time>2019-04-06T08:44:27Z</time>
      </trkpt>
      <trkpt lat="60.42183" lon="7.67831">
        <ele>1195.06</ele>
        <time>2019-04-06T08:44:29Z</time>
      </trkpt>
      <trkpt lat="60.42183" lon="7.67831">
        <ele>1197.46</ele>
        <time>2019-04-06T08:44:31Z</time>
      </trkpt>
      <trkpt lat="60.42182" lon="7.67831">
        <ele>1195.54</ele>
        <time>2019-04-06T08:44:43Z</time>
      </trkpt>
      <trkpt lat="60.42183" lon="7.6783">
        <ele>1195.54</ele>
        <time>2019-04-06T08:45:09Z</time>
      </trkpt>
      <trkpt lat="60.42184" lon="7.6783">
        <ele>1195.54</ele>
        <time>2019-04-06T08:45:10Z</time>
      </trkpt>
      <trkpt lat="60.42198" lon="7.6783">
        <ele>1196.02</ele>
        <time>2019-04-06T08:45:23Z</time>
      </trkpt>
      <trkpt lat="60.42215" lon="7.67832">
        <ele>1196.02</ele>
        <time>2019-04-06T08:45:38Z</time>
      </trkpt>
      <trkpt lat="60.4223" lon="7.67839">
        <ele>1195.54</ele>
        <time>2019-04-06T08:45:53Z</time>
      </trkpt>
      <trkpt lat="60.42246" lon="7.67851">
        <ele>1196.98</ele>
        <time>2019-04-06T08:46:08Z</time>
      </trkpt>
      <trkpt lat="60.42264" lon="7.67861">
        <ele>1197.94</ele>
        <time>2019-04-06T08:46:25Z</time>
      </trkpt>
      <trkpt lat="60.4228" lon="7.67868">
        <ele>1198.9</ele>
        <time>2019-04-06T08:46:41Z</time>
      </trkpt>
      <trkpt lat="60.42296" lon="7.67876">
        <ele>1199.86</ele>
        <time>2019-04-06T08:46:56Z</time>
      </trkpt>
      <trkpt lat="60.42312" lon="7.67888">
        <ele>1200.82</ele>
        <time>2019-04-06T08:47:12Z</time>
      </trkpt>
      <trkpt lat="60.42327" lon="7.67902">
        <ele>1201.3</ele>
        <time>2019-04-06T08:47:28Z</time>
      </trkpt>
      <trkpt lat="60.42343" lon="7.67914">
        <ele>1202.27</ele>
        <time>2019-04-06T08:47:43Z</time>
      </trkpt>
      <trkpt lat="60.42361" lon="7.67917">
        <ele>1200.82</ele>
        <time>2019-04-06T08:47:57Z</time>
      </trkpt>
      <trkpt lat="60.42363" lon="7.67915">
        <ele>1200.34</ele>
        <time>2019-04-06T08:47:59Z</time>
      </trkpt>
      <trkpt lat="60.42383" lon="7.67905">
        <ele>1200.34</ele>
        <time>2019-04-06T08:48:17Z</time>
      </trkpt>
      <trkpt lat="60.42396" lon="7.67898">
        <ele>1203.23</ele>
        <time>2019-04-06T08:48:32Z</time>
      </trkpt>
      <trkpt lat="60.42407" lon="7.67888">
        <ele>1205.15</ele>
        <time>2019-04-06T08:48:46Z</time>
      </trkpt>
      <trkpt lat="60.42424" lon="7.67866">
        <ele>1206.11</ele>
        <time>2019-04-06T08:49:04Z</time>
      </trkpt>
      <trkpt lat="60.42435" lon="7.67852">
        <ele>1208.03</ele>
        <time>2019-04-06T08:49:20Z</time>
      </trkpt>
      <trkpt lat="60.42447" lon="7.67839">
        <ele>1209</ele>
        <time>2019-04-06T08:49:35Z</time>
      </trkpt>
      <trkpt lat="60.42463" lon="7.67822">
        <ele>1209.96</ele>
        <time>2019-04-06T08:49:51Z</time>
      </trkpt>
      <trkpt lat="60.42476" lon="7.67804">
        <ele>1210.92</ele>
        <time>2019-04-06T08:50:06Z</time>
      </trkpt>
      <trkpt lat="60.4249" lon="7.67792">
        <ele>1213.8</ele>
        <time>2019-04-06T08:50:24Z</time>
      </trkpt>
      <trkpt lat="60.42502" lon="7.67781">
        <ele>1215.72</ele>
        <time>2019-04-06T08:50:40Z</time>
      </trkpt>
      <trkpt lat="60.42516" lon="7.67773">
        <ele>1217.65</ele>
        <time>2019-04-06T08:51:00Z</time>
      </trkpt>
      <trkpt lat="60.42533" lon="7.67766">
        <ele>1219.57</ele>
        <time>2019-04-06T08:51:19Z</time>
      </trkpt>
      <trkpt lat="60.42547" lon="7.67762">
        <ele>1220.53</ele>
        <time>2019-04-06T08:51:36Z</time>
      </trkpt>
      <trkpt lat="60.42565" lon="7.67759">
        <ele>1221.01</ele>
        <time>2019-04-06T08:51:53Z</time>
      </trkpt>
      <trkpt lat="60.42584" lon="7.67757">
        <ele>1221.01</ele>
        <time>2019-04-06T08:52:11Z</time>
      </trkpt>
      <trkpt lat="60.42602" lon="7.67759">
        <ele>1221.01</ele>
        <time>2019-04-06T08:52:26Z</time>
      </trkpt>
      <trkpt lat="60.42619" lon="7.67759">
        <ele>1221.97</ele>
        <time>2019-04-06T08:52:42Z</time>
      </trkpt>
      <trkpt lat="60.42637" lon="7.67761">
        <ele>1222.93</ele>
        <time>2019-04-06T08:52:59Z</time>
      </trkpt>
      <trkpt lat="60.42655" lon="7.67763">
        <ele>1224.38</ele>
        <time>2019-04-06T08:53:17Z</time>
      </trkpt>
      <trkpt lat="60.4267" lon="7.67767">
        <ele>1225.34</ele>
        <time>2019-04-06T08:53:32Z</time>
      </trkpt>
      <trkpt lat="60.42685" lon="7.67774">
        <ele>1226.3</ele>
        <time>2019-04-06T08:53:48Z</time>
      </trkpt>
      <trkpt lat="60.427" lon="7.67782">
        <ele>1227.74</ele>
        <time>2019-04-06T08:54:04Z</time>
      </trkpt>
      <trkpt lat="60.42716" lon="7.67798">
        <ele>1229.18</ele>
        <time>2019-04-06T08:54:22Z</time>
      </trkpt>
      <trkpt lat="60.42731" lon="7.67823">
        <ele>1230.62</ele>
        <time>2019-04-06T08:54:41Z</time>
      </trkpt>
      <trkpt lat="60.42748" lon="7.67845">
        <ele>1231.59</ele>
        <time>2019-04-06T08:55:00Z</time>
      </trkpt>
      <trkpt lat="60.42761" lon="7.67865">
        <ele>1233.03</ele>
        <time>2019-04-06T08:55:17Z</time>
      </trkpt>
      <trkpt lat="60.42775" lon="7.6789">
        <ele>1234.47</ele>
        <time>2019-04-06T08:55:36Z</time>
      </trkpt>
      <trkpt lat="60.42786" lon="7.67908">
        <ele>1235.43</ele>
        <time>2019-04-06T08:55:50Z</time>
      </trkpt>
      <trkpt lat="60.42799" lon="7.67929">
        <ele>1236.87</ele>
        <time>2019-04-06T08:56:06Z</time>
      </trkpt>
      <trkpt lat="60.4281" lon="7.67949">
        <ele>1237.83</ele>
        <time>2019-04-06T08:56:22Z</time>
      </trkpt>
      <trkpt lat="60.42821" lon="7.67971">
        <ele>1239.28</ele>
        <time>2019-04-06T08:56:38Z</time>
      </trkpt>
      <trkpt lat="60.42832" lon="7.67995">
        <ele>1241.2</ele>
        <time>2019-04-06T08:56:55Z</time>
      </trkpt>
      <trkpt lat="60.42845" lon="7.68023">
        <ele>1243.12</ele>
        <time>2019-04-06T08:57:14Z</time>
      </trkpt>
      <trkpt lat="60.42858" lon="7.68045">
        <ele>1244.08</ele>
        <time>2019-04-06T08:57:30Z</time>
      </trkpt>
      <trkpt lat="60.42868" lon="7.68072">
        <ele>1244.56</ele>
        <time>2019-04-06T08:57:47Z</time>
      </trkpt>
      <trkpt lat="60.42879" lon="7.68098">
        <ele>1246.01</ele>
        <time>2019-04-06T08:58:03Z</time>
      </trkpt>
      <trkpt lat="60.42888" lon="7.68125">
        <ele>1246.49</ele>
        <time>2019-04-06T08:58:18Z</time>
      </trkpt>
      <trkpt lat="60.42896" lon="7.68147">
        <ele>1246.49</ele>
        <time>2019-04-06T08:58:31Z</time>
      </trkpt>
      <trkpt lat="60.42905" lon="7.68169">
        <ele>1247.45</ele>
        <time>2019-04-06T08:58:45Z</time>
      </trkpt>
      <trkpt lat="60.42914" lon="7.68195">
        <ele>1247.93</ele>
        <time>2019-04-06T08:59:00Z</time>
      </trkpt>
      <trkpt lat="60.42922" lon="7.6822">
        <ele>1248.41</ele>
        <time>2019-04-06T08:59:14Z</time>
      </trkpt>
      <trkpt lat="60.42933" lon="7.68251">
        <ele>1249.37</ele>
        <time>2019-04-06T08:59:31Z</time>
      </trkpt>
      <trkpt lat="60.4294" lon="7.68277">
        <ele>1249.37</ele>
        <time>2019-04-06T08:59:45Z</time>
      </trkpt>
      <trkpt lat="60.4295" lon="7.6831">
        <ele>1249.85</ele>
        <time>2019-04-06T09:00:01Z</time>
      </trkpt>
      <trkpt lat="60.42959" lon="7.68343">
        <ele>1249.85</ele>
        <time>2019-04-06T09:00:16Z</time>
      </trkpt>
      <trkpt lat="60.4297" lon="7.68372">
        <ele>1249.85</ele>
        <time>2019-04-06T09:00:31Z</time>
      </trkpt>
      <trkpt lat="60.42978" lon="7.68398">
        <ele>1248.89</ele>
        <time>2019-04-06T09:00:44Z</time>
      </trkpt>
      <trkpt lat="60.4298" lon="7.68403">
        <ele>1248.89</ele>
        <time>2019-04-06T09:00:56Z</time>
      </trkpt>
      <trkpt lat="60.42985" lon="7.68424">
        <ele>1248.41</ele>
        <time>2019-04-06T09:01:11Z</time>
      </trkpt>
      <trkpt lat="60.42995" lon="7.68455">
        <ele>1248.41</ele>
        <time>2019-04-06T09:01:28Z</time>
      </trkpt>
      <trkpt lat="60.43009" lon="7.68485">
        <ele>1248.41</ele>
        <time>2019-04-06T09:01:45Z</time>
      </trkpt>
      <trkpt lat="60.43021" lon="7.68512">
        <ele>1248.41</ele>
        <time>2019-04-06T09:02:01Z</time>
      </trkpt>
      <trkpt lat="60.43031" lon="7.68538">
        <ele>1249.37</ele>
        <time>2019-04-06T09:02:16Z</time>
      </trkpt>
      <trkpt lat="60.43044" lon="7.68566">
        <ele>1249.85</ele>
        <time>2019-04-06T09:02:31Z</time>
      </trkpt>
      <trkpt lat="60.43057" lon="7.68593">
        <ele>1250.33</ele>
        <time>2019-04-06T09:02:49Z</time>
      </trkpt>
      <trkpt lat="60.43068" lon="7.68617">
        <ele>1251.77</ele>
        <time>2019-04-06T09:03:07Z</time>
      </trkpt>
      <trkpt lat="60.4308" lon="7.68644">
        <ele>1253.22</ele>
        <time>2019-04-06T09:03:25Z</time>
      </trkpt>
      <trkpt lat="60.43092" lon="7.68667">
        <ele>1254.18</ele>
        <time>2019-04-06T09:03:42Z</time>
      </trkpt>
      <trkpt lat="60.43105" lon="7.68691">
        <ele>1255.62</ele>
        <time>2019-04-06T09:04:00Z</time>
      </trkpt>
      <trkpt lat="60.43117" lon="7.68714">
        <ele>1258.02</ele>
        <time>2019-04-06T09:04:18Z</time>
      </trkpt>
      <trkpt lat="60.43129" lon="7.6874">
        <ele>1258.5</ele>
        <time>2019-04-06T09:04:35Z</time>
      </trkpt>
      <trkpt lat="60.43143" lon="7.68767">
        <ele>1259.94</ele>
        <time>2019-04-06T09:04:54Z</time>
      </trkpt>
      <trkpt lat="60.43155" lon="7.68791">
        <ele>1261.39</ele>
        <time>2019-04-06T09:05:11Z</time>
      </trkpt>
      <trkpt lat="60.43167" lon="7.68816">
        <ele>1262.35</ele>
        <time>2019-04-06T09:05:28Z</time>
      </trkpt>
      <trkpt lat="60.4318" lon="7.68842">
        <ele>1262.83</ele>
        <time>2019-04-06T09:05:46Z</time>
      </trkpt>
      <trkpt lat="60.43194" lon="7.68872">
        <ele>1263.79</ele>
        <time>2019-04-06T09:06:05Z</time>
      </trkpt>
      <trkpt lat="60.43203" lon="7.6889">
        <ele>1264.27</ele>
        <time>2019-04-06T09:06:20Z</time>
      </trkpt>
      <trkpt lat="60.43219" lon="7.68923">
        <ele>1265.23</ele>
        <time>2019-04-06T09:06:40Z</time>
      </trkpt>
      <trkpt lat="60.43233" lon="7.68951">
        <ele>1265.23</ele>
        <time>2019-04-06T09:06:57Z</time>
      </trkpt>
      <trkpt lat="60.43245" lon="7.68974">
        <ele>1265.23</ele>
        <time>2019-04-06T09:07:13Z</time>
      </trkpt>
      <trkpt lat="60.43262" lon="7.69013">
        <ele>1264.27</ele>
        <time>2019-04-06T09:07:32Z</time>
      </trkpt>
      <trkpt lat="60.43276" lon="7.69067">
        <ele>1261.39</ele>
        <time>2019-04-06T09:07:49Z</time>
      </trkpt>
      <trkpt lat="60.4329" lon="7.69117">
        <ele>1259.46</ele>
        <time>2019-04-06T09:08:06Z</time>
      </trkpt>
      <trkpt lat="60.43296" lon="7.69151">
        <ele>1258.98</ele>
        <time>2019-04-06T09:08:21Z</time>
      </trkpt>
      <trkpt lat="60.43305" lon="7.69178">
        <ele>1259.94</ele>
        <time>2019-04-06T09:08:37Z</time>
      </trkpt>
      <trkpt lat="60.43316" lon="7.69212">
        <ele>1261.39</ele>
        <time>2019-04-06T09:08:58Z</time>
      </trkpt>
      <trkpt lat="60.43324" lon="7.69233">
        <ele>1262.35</ele>
        <time>2019-04-06T09:09:14Z</time>
      </trkpt>
      <trkpt lat="60.43332" lon="7.69253">
        <ele>1264.27</ele>
        <time>2019-04-06T09:09:30Z</time>
      </trkpt>
      <trkpt lat="60.4334" lon="7.69274">
        <ele>1266.19</ele>
        <time>2019-04-06T09:09:47Z</time>
      </trkpt>
      <trkpt lat="60.43348" lon="7.69289">
        <ele>1267.64</ele>
        <time>2019-04-06T09:10:01Z</time>
      </trkpt>
      <trkpt lat="60.43358" lon="7.693">
        <ele>1269.56</ele>
        <time>2019-04-06T09:10:16Z</time>
      </trkpt>
      <trkpt lat="60.4336" lon="7.69303">
        <ele>1269.56</ele>
        <time>2019-04-06T09:10:19Z</time>
      </trkpt>
      <trkpt lat="60.43369" lon="7.69327">
        <ele>1271.48</ele>
        <time>2019-04-06T09:10:35Z</time>
      </trkpt>
      <trkpt lat="60.4338" lon="7.69354">
        <ele>1271.48</ele>
        <time>2019-04-06T09:10:52Z</time>
      </trkpt>
      <trkpt lat="60.43389" lon="7.69387">
        <ele>1272.44</ele>
        <time>2019-04-06T09:11:09Z</time>
      </trkpt>
      <trkpt lat="60.43404" lon="7.69422">
        <ele>1272.44</ele>
        <time>2019-04-06T09:11:27Z</time>
      </trkpt>
      <trkpt lat="60.4342" lon="7.69449">
        <ele>1271.96</ele>
        <time>2019-04-06T09:11:46Z</time>
      </trkpt>
      <trkpt lat="60.43437" lon="7.69482">
        <ele>1271.96</ele>
        <time>2019-04-06T09:12:08Z</time>
      </trkpt>
      <trkpt lat="60.43448" lon="7.69502">
        <ele>1272.44</ele>
        <time>2019-04-06T09:12:23Z</time>
      </trkpt>
      <trkpt lat="60.43461" lon="7.69527">
        <ele>1273.4</ele>
        <time>2019-04-06T09:12:40Z</time>
      </trkpt>
      <trkpt lat="60.43477" lon="7.69551">
        <ele>1273.4</ele>
        <time>2019-04-06T09:12:57Z</time>
      </trkpt>
      <trkpt lat="60.43495" lon="7.69575">
        <ele>1271.96</ele>
        <time>2019-04-06T09:13:14Z</time>
      </trkpt>
      <trkpt lat="60.43517" lon="7.69605">
        <ele>1269.56</ele>
        <time>2019-04-06T09:13:30Z</time>
      </trkpt>
      <trkpt lat="60.43531" lon="7.69618">
        <ele>1269.56</ele>
        <time>2019-04-06T09:13:43Z</time>
      </trkpt>
      <trkpt lat="60.4355" lon="7.69631">
        <ele>1269.56</ele>
        <time>2019-04-06T09:13:59Z</time>
      </trkpt>
      <trkpt lat="60.43566" lon="7.69639">
        <ele>1269.56</ele>
        <time>2019-04-06T09:14:13Z</time>
      </trkpt>
      <trkpt lat="60.43584" lon="7.6965">
        <ele>1269.56</ele>
        <time>2019-04-06T09:14:29Z</time>
      </trkpt>
      <trkpt lat="60.43587" lon="7.6965">
        <ele>1271</ele>
        <time>2019-04-06T09:14:32Z</time>
      </trkpt>
      <trkpt lat="60.43604" lon="7.69664">
        <ele>1271.48</ele>
        <time>2019-04-06T09:14:50Z</time>
      </trkpt>
      <trkpt lat="60.43622" lon="7.69674">
        <ele>1272.44</ele>
        <time>2019-04-06T09:15:07Z</time>
      </trkpt>
      <trkpt lat="60.43636" lon="7.69682">
        <ele>1273.4</ele>
        <time>2019-04-06T09:15:21Z</time>
      </trkpt>
      <trkpt lat="60.43653" lon="7.69689">
        <ele>1274.36</ele>
        <time>2019-04-06T09:15:36Z</time>
      </trkpt>
      <trkpt lat="60.43669" lon="7.69697">
        <ele>1275.81</ele>
        <time>2019-04-06T09:15:51Z</time>
      </trkpt>
      <trkpt lat="60.43683" lon="7.6971">
        <ele>1277.25</ele>
        <time>2019-04-06T09:16:06Z</time>
      </trkpt>
      <trkpt lat="60.43695" lon="7.69726">
        <ele>1278.69</ele>
        <time>2019-04-06T09:16:21Z</time>
      </trkpt>
      <trkpt lat="60.4371" lon="7.69734">
        <ele>1280.61</ele>
        <time>2019-04-06T09:16:35Z</time>
      </trkpt>
      <trkpt lat="60.43724" lon="7.69748">
        <ele>1282.06</ele>
        <time>2019-04-06T09:16:51Z</time>
      </trkpt>
      <trkpt lat="60.43737" lon="7.69764">
        <ele>1281.09</ele>
        <time>2019-04-06T09:17:03Z</time>
      </trkpt>
      <trkpt lat="60.43761" lon="7.69799">
        <ele>1278.21</ele>
        <time>2019-04-06T09:17:14Z</time>
      </trkpt>
      <trkpt lat="60.43784" lon="7.69835">
        <ele>1275.33</ele>
        <time>2019-04-06T09:17:28Z</time>
      </trkpt>
      <trkpt lat="60.43805" lon="7.69866">
        <ele>1274.36</ele>
        <time>2019-04-06T09:17:44Z</time>
      </trkpt>
      <trkpt lat="60.43825" lon="7.69893">
        <ele>1272.92</ele>
        <time>2019-04-06T09:17:59Z</time>
      </trkpt>
      <trkpt lat="60.43846" lon="7.69924">
        <ele>1272.44</ele>
        <time>2019-04-06T09:18:17Z</time>
      </trkpt>
      <trkpt lat="60.43866" lon="7.69947">
        <ele>1271.96</ele>
        <time>2019-04-06T09:18:34Z</time>
      </trkpt>
      <trkpt lat="60.43875" lon="7.69955">
        <ele>1271.96</ele>
        <time>2019-04-06T09:18:42Z</time>
      </trkpt>
      <trkpt lat="60.43877" lon="7.69955">
        <ele>1271</ele>
        <time>2019-04-06T09:18:58Z</time>
      </trkpt>
      <trkpt lat="60.4388" lon="7.69952">
        <ele>1271</ele>
        <time>2019-04-06T09:19:25Z</time>
      </trkpt>
      <trkpt lat="60.43879" lon="7.69951">
        <ele>1270.52</ele>
        <time>2019-04-06T09:19:57Z</time>
      </trkpt>
      <trkpt lat="60.43879" lon="7.69957">
        <ele>1270.52</ele>
        <time>2019-04-06T09:20:23Z</time>
      </trkpt>
      <trkpt lat="60.43881" lon="7.69956">
        <ele>1271.96</ele>
        <time>2019-04-06T09:20:47Z</time>
      </trkpt>
      <trkpt lat="60.43881" lon="7.69956">
        <ele>1270.52</ele>
        <time>2019-04-06T09:20:50Z</time>
      </trkpt>
      <trkpt lat="60.43882" lon="7.69953">
        <ele>1271.48</ele>
        <time>2019-04-06T09:21:14Z</time>
      </trkpt>
      <trkpt lat="60.43881" lon="7.69952">
        <ele>1271.48</ele>
        <time>2019-04-06T09:21:48Z</time>
      </trkpt>
      <trkpt lat="60.4388" lon="7.69957">
        <ele>1271.96</ele>
        <time>2019-04-06T09:22:17Z</time>
      </trkpt>
      <trkpt lat="60.4388" lon="7.69957">
        <ele>1272.44</ele>
        <time>2019-04-06T09:22:35Z</time>
      </trkpt>
      <trkpt lat="60.4388" lon="7.69952">
        <ele>1270.52</ele>
        <time>2019-04-06T09:22:56Z</time>
      </trkpt>
      <trkpt lat="60.4388" lon="7.69952">
        <ele>1271</ele>
        <time>2019-04-06T09:23:19Z</time>
      </trkpt>
      <trkpt lat="60.43879" lon="7.69953">
        <ele>1271</ele>
        <time>2019-04-06T09:23:52Z</time>
      </trkpt>
      <trkpt lat="60.4388" lon="7.69952">
        <ele>1271</ele>
        <time>2019-04-06T09:24:21Z</time>
      </trkpt>
      <trkpt lat="60.43881" lon="7.69953">
        <ele>1271.48</ele>
        <time>2019-04-06T09:24:42Z</time>
      </trkpt>
      <trkpt lat="60.43881" lon="7.69953">
        <ele>1271.48</ele>
        <time>2019-04-06T09:25:07Z</time>
      </trkpt>
      <trkpt lat="60.43881" lon="7.69955">
        <ele>1272.44</ele>
        <time>2019-04-06T09:25:30Z</time>
      </trkpt>
      <trkpt lat="60.43881" lon="7.69955">
        <ele>1267.64</ele>
        <time>2019-04-06T09:25:35Z</time>
      </trkpt>
      <trkpt lat="60.43881" lon="7.69956">
        <ele>1271</ele>
        <time>2019-04-06T09:25:50Z</time>
      </trkpt>
      <trkpt lat="60.43881" lon="7.69953">
        <ele>1271.48</ele>
        <time>2019-04-06T09:26:16Z</time>
      </trkpt>
      <trkpt lat="60.43881" lon="7.69954">
        <ele>1272.92</ele>
        <time>2019-04-06T09:26:35Z</time>
      </trkpt>
      <trkpt lat="60.43881" lon="7.69954">
        <ele>1272.92</ele>
        <time>2019-04-06T09:27:05Z</time>
      </trkpt>
      <trkpt lat="60.43881" lon="7.69955">
        <ele>1272.44</ele>
        <time>2019-04-06T09:27:33Z</time>
      </trkpt>
      <trkpt lat="60.43881" lon="7.69954">
        <ele>1271</ele>
        <time>2019-04-06T09:27:43Z</time>
      </trkpt>
      <trkpt lat="60.43879" lon="7.69958">
        <ele>1271</ele>
        <time>2019-04-06T09:28:16Z</time>
      </trkpt>
      <trkpt lat="60.43879" lon="7.69958">
        <ele>1272.44</ele>
        <time>2019-04-06T09:28:20Z</time>
      </trkpt>
      <trkpt lat="60.43881" lon="7.69955">
        <ele>1271</ele>
        <time>2019-04-06T09:28:35Z</time>
      </trkpt>
      <trkpt lat="60.43879" lon="7.69955">
        <ele>1271.48</ele>
        <time>2019-04-06T09:29:10Z</time>
      </trkpt>
      <trkpt lat="60.43881" lon="7.69955">
        <ele>1271.48</ele>
        <time>2019-04-06T09:29:18Z</time>
      </trkpt>
      <trkpt lat="60.43881" lon="7.69954">
        <ele>1272.44</ele>
        <time>2019-04-06T09:29:46Z</time>
      </trkpt>
      <trkpt lat="60.43883" lon="7.69957">
        <ele>1272.44</ele>
        <time>2019-04-06T09:30:20Z</time>
      </trkpt>
      <trkpt lat="60.43885" lon="7.69954">
        <ele>1272.44</ele>
        <time>2019-04-06T09:30:39Z</time>
      </trkpt>
      <trkpt lat="60.43891" lon="7.69951">
        <ele>1271</ele>
        <time>2019-04-06T09:30:44Z</time>
      </trkpt>
      <trkpt lat="60.43905" lon="7.69938">
        <ele>1271</ele>
        <time>2019-04-06T09:30:58Z</time>
      </trkpt>
      <trkpt lat="60.43924" lon="7.69918">
        <ele>1270.04</ele>
        <time>2019-04-06T09:31:12Z</time>
      </trkpt>
      <trkpt lat="60.43944" lon="7.69903">
        <ele>1266.67</ele>
        <time>2019-04-06T09:31:23Z</time>
      </trkpt>
      <trkpt lat="60.43957" lon="7.69892">
        <ele>1267.16</ele>
        <time>2019-04-06T09:31:36Z</time>
      </trkpt>
      <trkpt lat="60.43969" lon="7.69882">
        <ele>1268.12</ele>
        <time>2019-04-06T09:31:51Z</time>
      </trkpt>
      <trkpt lat="60.43969" lon="7.69882">
        <ele>1268.12</ele>
        <time>2019-04-06T09:31:52Z</time>
      </trkpt>
      <trkpt lat="60.43979" lon="7.69873">
        <ele>1267.16</ele>
        <time>2019-04-06T09:31:59Z</time>
      </trkpt>
      <trkpt lat="60.44004" lon="7.69865">
        <ele>1264.75</ele>
        <time>2019-04-06T09:32:12Z</time>
      </trkpt>
      <trkpt lat="60.44024" lon="7.69848">
        <ele>1260.91</ele>
        <time>2019-04-06T09:32:21Z</time>
      </trkpt>
      <trkpt lat="60.44033" lon="7.69832">
        <ele>1260.43</ele>
        <time>2019-04-06T09:32:30Z</time>
      </trkpt>
      <trkpt lat="60.44036" lon="7.69807">
        <ele>1257.54</ele>
        <time>2019-04-06T09:32:36Z</time>
      </trkpt>
      <trkpt lat="60.4404" lon="7.69785">
        <ele>1255.14</ele>
        <time>2019-04-06T09:32:39Z</time>
      </trkpt>
      <trkpt lat="60.44053" lon="7.69766">
        <ele>1250.33</ele>
        <time>2019-04-06T09:32:43Z</time>
      </trkpt>
      <trkpt lat="60.44056" lon="7.69764">
        <ele>1250.33</ele>
        <time>2019-04-06T09:32:44Z</time>
      </trkpt>
      <trkpt lat="60.44061" lon="7.69761">
        <ele>1250.33</ele>
        <time>2019-04-06T09:32:46Z</time>
      </trkpt>
      <trkpt lat="60.44085" lon="7.69748">
        <ele>1249.37</ele>
        <time>2019-04-06T09:33:04Z</time>
      </trkpt>
      <trkpt lat="60.44098" lon="7.69739">
        <ele>1248.89</ele>
        <time>2019-04-06T09:33:20Z</time>
      </trkpt>
      <trkpt lat="60.44111" lon="7.69735">
        <ele>1248.89</ele>
        <time>2019-04-06T09:33:40Z</time>
      </trkpt>
      <trkpt lat="60.44133" lon="7.69714">
        <ele>1247.45</ele>
        <time>2019-04-06T09:33:56Z</time>
      </trkpt>
      <trkpt lat="60.44146" lon="7.69696">
        <ele>1247.45</ele>
        <time>2019-04-06T09:34:10Z</time>
      </trkpt>
      <trkpt lat="60.44153" lon="7.69688">
        <ele>1248.89</ele>
        <time>2019-04-06T09:34:17Z</time>
      </trkpt>
      <trkpt lat="60.44169" lon="7.69675">
        <ele>1250.33</ele>
        <time>2019-04-06T09:34:33Z</time>
      </trkpt>
      <trkpt lat="60.44185" lon="7.69662">
        <ele>1250.81</ele>
        <time>2019-04-06T09:34:48Z</time>
      </trkpt>
      <trkpt lat="60.44206" lon="7.69649">
        <ele>1249.37</ele>
        <time>2019-04-06T09:35:04Z</time>
      </trkpt>
      <trkpt lat="60.44222" lon="7.6964">
        <ele>1249.37</ele>
        <time>2019-04-06T09:35:19Z</time>
      </trkpt>
      <trkpt lat="60.44237" lon="7.69629">
        <ele>1249.37</ele>
        <time>2019-04-06T09:35:34Z</time>
      </trkpt>
      <trkpt lat="60.44252" lon="7.6962">
        <ele>1250.81</ele>
        <time>2019-04-06T09:35:49Z</time>
      </trkpt>
      <trkpt lat="60.44265" lon="7.69612">
        <ele>1251.29</ele>
        <time>2019-04-06T09:36:04Z</time>
      </trkpt>
      <trkpt lat="60.4427" lon="7.69607">
        <ele>1250.81</ele>
        <time>2019-04-06T09:36:17Z</time>
      </trkpt>
      <trkpt lat="60.44286" lon="7.69592">
        <ele>1250.81</ele>
        <time>2019-04-06T09:36:33Z</time>
      </trkpt>
      <trkpt lat="60.44297" lon="7.69583">
        <ele>1249.37</ele>
        <time>2019-04-06T09:36:43Z</time>
      </trkpt>
      <trkpt lat="60.44302" lon="7.69582">
        <ele>1248.89</ele>
        <time>2019-04-06T09:36:46Z</time>
      </trkpt>
      <trkpt lat="60.44319" lon="7.69577">
        <ele>1245.53</ele>
        <time>2019-04-06T09:36:51Z</time>
      </trkpt>
      <trkpt lat="60.44323" lon="7.69576">
        <ele>1245.53</ele>
        <time>2019-04-06T09:36:52Z</time>
      </trkpt>
      <trkpt lat="60.44341" lon="7.6957">
        <ele>1244.08</ele>
        <time>2019-04-06T09:37:03Z</time>
      </trkpt>
      <trkpt lat="60.4436" lon="7.69559">
        <ele>1244.08</ele>
        <time>2019-04-06T09:37:20Z</time>
      </trkpt>
      <trkpt lat="60.44369" lon="7.69554">
        <ele>1244.56</ele>
        <time>2019-04-06T09:37:30Z</time>
      </trkpt>
      <trkpt lat="60.44381" lon="7.69542">
        <ele>1245.53</ele>
        <time>2019-04-06T09:37:45Z</time>
      </trkpt>
      <trkpt lat="60.44395" lon="7.69533">
        <ele>1246.01</ele>
        <time>2019-04-06T09:38:01Z</time>
      </trkpt>
      <trkpt lat="60.44404" lon="7.69529">
        <ele>1244.56</ele>
        <time>2019-04-06T09:38:10Z</time>
      </trkpt>
      <trkpt lat="60.4442" lon="7.69523">
        <ele>1243.6</ele>
        <time>2019-04-06T09:38:25Z</time>
      </trkpt>
      <trkpt lat="60.44434" lon="7.69513">
        <ele>1242.64</ele>
        <time>2019-04-06T09:38:39Z</time>
      </trkpt>
      <trkpt lat="60.44452" lon="7.69503">
        <ele>1241.68</ele>
        <time>2019-04-06T09:38:53Z</time>
      </trkpt>
      <trkpt lat="60.44471" lon="7.69493">
        <ele>1240.72</ele>
        <time>2019-04-06T09:39:07Z</time>
      </trkpt>
      <trkpt lat="60.44492" lon="7.69483">
        <ele>1238.8</ele>
        <time>2019-04-06T09:39:23Z</time>
      </trkpt>
      <trkpt lat="60.44514" lon="7.69473">
        <ele>1236.87</ele>
        <time>2019-04-06T09:39:37Z</time>
      </trkpt>
      <trkpt lat="60.44529" lon="7.69469">
        <ele>1236.39</ele>
        <time>2019-04-06T09:39:51Z</time>
      </trkpt>
      <trkpt lat="60.44549" lon="7.69463">
        <ele>1234.95</ele>
        <time>2019-04-06T09:40:07Z</time>
      </trkpt>
      <trkpt lat="60.44573" lon="7.69454">
        <ele>1232.07</ele>
        <time>2019-04-06T09:40:23Z</time>
      </trkpt>
      <trkpt lat="60.44599" lon="7.69444">
        <ele>1229.18</ele>
        <time>2019-04-06T09:40:36Z</time>
      </trkpt>
      <trkpt lat="60.44604" lon="7.69441">
        <ele>1228.7</ele>
        <time>2019-04-06T09:40:40Z</time>
      </trkpt>
      <trkpt lat="60.44625" lon="7.69434">
        <ele>1225.82</ele>
        <time>2019-04-06T09:40:50Z</time>
      </trkpt>
      <trkpt lat="60.44628" lon="7.69433">
        <ele>1225.82</ele>
        <time>2019-04-06T09:40:51Z</time>
      </trkpt>
      <trkpt lat="60.44653" lon="7.69434">
        <ele>1222.45</ele>
        <time>2019-04-06T09:40:59Z</time>
      </trkpt>
      <trkpt lat="60.4467" lon="7.69434">
        <ele>1218.61</ele>
        <time>2019-04-06T09:41:02Z</time>
      </trkpt>
      <trkpt lat="60.44682" lon="7.69435">
        <ele>1215.24</ele>
        <time>2019-04-06T09:41:04Z</time>
      </trkpt>
      <trkpt lat="60.44711" lon="7.69434">
        <ele>1211.88</ele>
        <time>2019-04-06T09:41:10Z</time>
      </trkpt>
      <trkpt lat="60.44717" lon="7.69433">
        <ele>1210.92</ele>
        <time>2019-04-06T09:41:12Z</time>
      </trkpt>
      <trkpt lat="60.44733" lon="7.69428">
        <ele>1208.03</ele>
        <time>2019-04-06T09:41:18Z</time>
      </trkpt>
      <trkpt lat="60.44742" lon="7.69422">
        <ele>1207.55</ele>
        <time>2019-04-06T09:41:22Z</time>
      </trkpt>
      <trkpt lat="60.44766" lon="7.69404">
        <ele>1204.19</ele>
        <time>2019-04-06T09:41:30Z</time>
      </trkpt>
      <trkpt lat="60.44773" lon="7.694">
        <ele>1203.71</ele>
        <time>2019-04-06T09:41:32Z</time>
      </trkpt>
      <trkpt lat="60.44785" lon="7.69394">
        <ele>1202.27</ele>
        <time>2019-04-06T09:41:36Z</time>
      </trkpt>
      <trkpt lat="60.4481" lon="7.69375">
        <ele>1198.9</ele>
        <time>2019-04-06T09:41:46Z</time>
      </trkpt>
      <trkpt lat="60.44817" lon="7.69376">
        <ele>1197.94</ele>
        <time>2019-04-06T09:41:48Z</time>
      </trkpt>
      <trkpt lat="60.4482" lon="7.69378">
        <ele>1197.46</ele>
        <time>2019-04-06T09:41:49Z</time>
      </trkpt>
      <trkpt lat="60.44847" lon="7.69376">
        <ele>1192.65</ele>
        <time>2019-04-06T09:41:55Z</time>
      </trkpt>
      <trkpt lat="60.44852" lon="7.69375">
        <ele>1192.65</ele>
        <time>2019-04-06T09:41:56Z</time>
      </trkpt>
      <trkpt lat="60.44872" lon="7.69369">
        <ele>1188.81</ele>
        <time>2019-04-06T09:42:00Z</time>
      </trkpt>
      <trkpt lat="60.4489" lon="7.69363">
        <ele>1185.92</ele>
        <time>2019-04-06T09:42:03Z</time>
      </trkpt>
      <trkpt lat="60.44899" lon="7.69357">
        <ele>1184</ele>
        <time>2019-04-06T09:42:05Z</time>
      </trkpt>
      <trkpt lat="60.44909" lon="7.6935">
        <ele>1183.04</ele>
        <time>2019-04-06T09:42:08Z</time>
      </trkpt>
      <trkpt lat="60.44925" lon="7.69339">
        <ele>1182.56</ele>
        <time>2019-04-06T09:42:20Z</time>
      </trkpt>
      <trkpt lat="60.44948" lon="7.69347">
        <ele>1178.71</ele>
        <time>2019-04-06T09:42:30Z</time>
      </trkpt>
      <trkpt lat="60.44969" lon="7.69346">
        <ele>1175.83</ele>
        <time>2019-04-06T09:42:36Z</time>
      </trkpt>
      <trkpt lat="60.44985" lon="7.69347">
        <ele>1176.79</ele>
        <time>2019-04-06T09:42:48Z</time>
      </trkpt>
      <trkpt lat="60.45007" lon="7.69344">
        <ele>1176.79</ele>
        <time>2019-04-06T09:43:05Z</time>
      </trkpt>
      <trkpt lat="60.45026" lon="7.69346">
        <ele>1176.79</ele>
        <time>2019-04-06T09:43:20Z</time>
      </trkpt>
      <trkpt lat="60.45031" lon="7.69347">
        <ele>1175.83</ele>
        <time>2019-04-06T09:43:23Z</time>
      </trkpt>
      <trkpt lat="60.45051" lon="7.69351">
        <ele>1174.39</ele>
        <time>2019-04-06T09:43:38Z</time>
      </trkpt>
      <trkpt lat="60.4506" lon="7.69352">
        <ele>1175.83</ele>
        <time>2019-04-06T09:43:46Z</time>
      </trkpt>
      <trkpt lat="60.4508" lon="7.69355">
        <ele>1175.83</ele>
        <time>2019-04-06T09:44:03Z</time>
      </trkpt>
      <trkpt lat="60.45096" lon="7.69356">
        <ele>1175.83</ele>
        <time>2019-04-06T09:44:17Z</time>
      </trkpt>
      <trkpt lat="60.45107" lon="7.69357">
        <ele>1175.83</ele>
        <time>2019-04-06T09:44:26Z</time>
      </trkpt>
      <trkpt lat="60.45123" lon="7.69357">
        <ele>1175.83</ele>
        <time>2019-04-06T09:44:40Z</time>
      </trkpt>
      <trkpt lat="60.45142" lon="7.6936">
        <ele>1175.83</ele>
        <time>2019-04-06T09:44:57Z</time>
      </trkpt>
      <trkpt lat="60.45149" lon="7.69358">
        <ele>1173.91</ele>
        <time>2019-04-06T09:45:03Z</time>
      </trkpt>
      <trkpt lat="60.45153" lon="7.69356">
        <ele>1175.35</ele>
        <time>2019-04-06T09:45:07Z</time>
      </trkpt>
      <trkpt lat="60.45172" lon="7.69357">
        <ele>1175.83</ele>
        <time>2019-04-06T09:45:24Z</time>
      </trkpt>
      <trkpt lat="60.45188" lon="7.69356">
        <ele>1175.83</ele>
        <time>2019-04-06T09:45:38Z</time>
      </trkpt>
      <trkpt lat="60.45207" lon="7.69352">
        <ele>1175.83</ele>
        <time>2019-04-06T09:45:55Z</time>
      </trkpt>
      <trkpt lat="60.45228" lon="7.69346">
        <ele>1174.87</ele>
        <time>2019-04-06T09:46:13Z</time>
      </trkpt>
      <trkpt lat="60.45244" lon="7.69344">
        <ele>1174.87</ele>
        <time>2019-04-06T09:46:28Z</time>
      </trkpt>
      <trkpt lat="60.45258" lon="7.6934">
        <ele>1174.87</ele>
        <time>2019-04-06T09:46:42Z</time>
      </trkpt>
      <trkpt lat="60.45273" lon="7.6934">
        <ele>1174.87</ele>
        <time>2019-04-06T09:46:56Z</time>
      </trkpt>
      <trkpt lat="60.45278" lon="7.6934">
        <ele>1174.87</ele>
        <time>2019-04-06T09:47:00Z</time>
      </trkpt>
      <trkpt lat="60.45294" lon="7.69337">
        <ele>1174.39</ele>
        <time>2019-04-06T09:47:15Z</time>
      </trkpt>
      <trkpt lat="60.45308" lon="7.69336">
        <ele>1174.39</ele>
        <time>2019-04-06T09:47:29Z</time>
      </trkpt>
      <trkpt lat="60.45322" lon="7.69335">
        <ele>1174.39</ele>
        <time>2019-04-06T09:47:44Z</time>
      </trkpt>
      <trkpt lat="60.45337" lon="7.69329">
        <ele>1174.39</ele>
        <time>2019-04-06T09:47:59Z</time>
      </trkpt>
      <trkpt lat="60.45352" lon="7.69326">
        <ele>1175.83</ele>
        <time>2019-04-06T09:48:13Z</time>
      </trkpt>
      <trkpt lat="60.45362" lon="7.69323">
        <ele>1173.91</ele>
        <time>2019-04-06T09:48:22Z</time>
      </trkpt>
      <trkpt lat="60.45372" lon="7.69319">
        <ele>1175.35</ele>
        <time>2019-04-06T09:48:31Z</time>
      </trkpt>
      <trkpt lat="60.45386" lon="7.69315">
        <ele>1175.35</ele>
        <time>2019-04-06T09:48:47Z</time>
      </trkpt>
      <trkpt lat="60.45389" lon="7.69315">
        <ele>1176.79</ele>
        <time>2019-04-06T09:49:03Z</time>
      </trkpt>
      <trkpt lat="60.45391" lon="7.69314">
        <ele>1175.35</ele>
        <time>2019-04-06T09:49:08Z</time>
      </trkpt>
      <trkpt lat="60.45407" lon="7.69309">
        <ele>1174.87</ele>
        <time>2019-04-06T09:49:23Z</time>
      </trkpt>
      <trkpt lat="60.45416" lon="7.69304">
        <ele>1176.31</ele>
        <time>2019-04-06T09:49:31Z</time>
      </trkpt>
      <trkpt lat="60.45428" lon="7.693">
        <ele>1175.83</ele>
        <time>2019-04-06T09:49:42Z</time>
      </trkpt>
      <trkpt lat="60.45444" lon="7.69295">
        <ele>1175.83</ele>
        <time>2019-04-06T09:49:57Z</time>
      </trkpt>
      <trkpt lat="60.45448" lon="7.69295">
        <ele>1177.27</ele>
        <time>2019-04-06T09:50:00Z</time>
      </trkpt>
      <trkpt lat="60.45468" lon="7.69287">
        <ele>1175.35</ele>
        <time>2019-04-06T09:50:17Z</time>
      </trkpt>
      <trkpt lat="60.4548" lon="7.6928">
        <ele>1176.31</ele>
        <time>2019-04-06T09:50:28Z</time>
      </trkpt>
      <trkpt lat="60.45495" lon="7.69277">
        <ele>1176.79</ele>
        <time>2019-04-06T09:50:43Z</time>
      </trkpt>
      <trkpt lat="60.45514" lon="7.69272">
        <ele>1176.79</ele>
        <time>2019-04-06T09:51:00Z</time>
      </trkpt>
      <trkpt lat="60.45531" lon="7.69265">
        <ele>1175.35</ele>
        <time>2019-04-06T09:51:16Z</time>
      </trkpt>
      <trkpt lat="60.45537" lon="7.6926">
        <ele>1175.83</ele>
        <time>2019-04-06T09:51:23Z</time>
      </trkpt>
      <trkpt lat="60.45553" lon="7.69252">
        <ele>1174.87</ele>
        <time>2019-04-06T09:51:38Z</time>
      </trkpt>
      <trkpt lat="60.45569" lon="7.69245">
        <ele>1175.83</ele>
        <time>2019-04-06T09:51:53Z</time>
      </trkpt>
      <trkpt lat="60.45582" lon="7.69238">
        <ele>1176.31</ele>
        <time>2019-04-06T09:52:08Z</time>
      </trkpt>
      <trkpt lat="60.45588" lon="7.69233">
        <ele>1175.35</ele>
        <time>2019-04-06T09:52:14Z</time>
      </trkpt>
      <trkpt lat="60.45603" lon="7.69216">
        <ele>1174.39</ele>
        <time>2019-04-06T09:52:30Z</time>
      </trkpt>
      <trkpt lat="60.4561" lon="7.69211">
        <ele>1175.83</ele>
        <time>2019-04-06T09:52:37Z</time>
      </trkpt>
      <trkpt lat="60.45625" lon="7.69203">
        <ele>1174.39</ele>
        <time>2019-04-06T09:52:54Z</time>
      </trkpt>
      <trkpt lat="60.45626" lon="7.69201">
        <ele>1174.39</ele>
        <time>2019-04-06T09:52:55Z</time>
      </trkpt>
      <trkpt lat="60.45639" lon="7.69188">
        <ele>1174.39</ele>
        <time>2019-04-06T09:53:08Z</time>
      </trkpt>
      <trkpt lat="60.45651" lon="7.69176">
        <ele>1175.83</ele>
        <time>2019-04-06T09:53:21Z</time>
      </trkpt>
      <trkpt lat="60.45657" lon="7.69167">
        <ele>1175.83</ele>
        <time>2019-04-06T09:53:36Z</time>
      </trkpt>
      <trkpt lat="60.45659" lon="7.69165">
        <ele>1176.31</ele>
        <time>2019-04-06T09:54:07Z</time>
      </trkpt>
      <trkpt lat="60.45667" lon="7.69159">
        <ele>1176.31</ele>
        <time>2019-04-06T09:54:25Z</time>
      </trkpt>
      <trkpt lat="60.45683" lon="7.69147">
        <ele>1176.31</ele>
        <time>2019-04-06T09:54:40Z</time>
      </trkpt>
      <trkpt lat="60.45697" lon="7.69133">
        <ele>1174.87</ele>
        <time>2019-04-06T09:54:53Z</time>
      </trkpt>
      <trkpt lat="60.45711" lon="7.69116">
        <ele>1174.87</ele>
        <time>2019-04-06T09:55:07Z</time>
      </trkpt>
      <trkpt lat="60.45725" lon="7.69101">
        <ele>1174.87</ele>
        <time>2019-04-06T09:55:22Z</time>
      </trkpt>
      <trkpt lat="60.45742" lon="7.69084">
        <ele>1174.87</ele>
        <time>2019-04-06T09:55:39Z</time>
      </trkpt>
      <trkpt lat="60.45756" lon="7.69063">
        <ele>1174.87</ele>
        <time>2019-04-06T09:55:56Z</time>
      </trkpt>
      <trkpt lat="60.45774" lon="7.69041">
        <ele>1174.39</ele>
        <time>2019-04-06T09:56:14Z</time>
      </trkpt>
      <trkpt lat="60.45788" lon="7.69021">
        <ele>1174.39</ele>
        <time>2019-04-06T09:56:29Z</time>
      </trkpt>
      <trkpt lat="60.45791" lon="7.69016">
        <ele>1175.35</ele>
        <time>2019-04-06T09:56:34Z</time>
      </trkpt>
      <trkpt lat="60.45803" lon="7.69004">
        <ele>1176.31</ele>
        <time>2019-04-06T09:56:50Z</time>
      </trkpt>
      <trkpt lat="60.45815" lon="7.68995">
        <ele>1176.79</ele>
        <time>2019-04-06T09:57:05Z</time>
      </trkpt>
      <trkpt lat="60.45831" lon="7.68982">
        <ele>1176.79</ele>
        <time>2019-04-06T09:57:21Z</time>
      </trkpt>
      <trkpt lat="60.45846" lon="7.68961">
        <ele>1176.79</ele>
        <time>2019-04-06T09:57:38Z</time>
      </trkpt>
      <trkpt lat="60.45857" lon="7.68941">
        <ele>1175.83</ele>
        <time>2019-04-06T09:57:52Z</time>
      </trkpt>
      <trkpt lat="60.45868" lon="7.68919">
        <ele>1175.35</ele>
        <time>2019-04-06T09:58:06Z</time>
      </trkpt>
      <trkpt lat="60.4588" lon="7.68898">
        <ele>1175.35</ele>
        <time>2019-04-06T09:58:22Z</time>
      </trkpt>
      <trkpt lat="60.45893" lon="7.68877">
        <ele>1174.87</ele>
        <time>2019-04-06T09:58:37Z</time>
      </trkpt>
      <trkpt lat="60.45909" lon="7.68858">
        <ele>1174.39</ele>
        <time>2019-04-06T09:58:53Z</time>
      </trkpt>
      <trkpt lat="60.45922" lon="7.68835">
        <ele>1173.43</ele>
        <time>2019-04-06T09:59:08Z</time>
      </trkpt>
      <trkpt lat="60.45935" lon="7.68815">
        <ele>1175.35</ele>
        <time>2019-04-06T09:59:22Z</time>
      </trkpt>
      <trkpt lat="60.45948" lon="7.68794">
        <ele>1174.87</ele>
        <time>2019-04-06T09:59:38Z</time>
      </trkpt>
      <trkpt lat="60.45962" lon="7.68776">
        <ele>1174.87</ele>
        <time>2019-04-06T09:59:53Z</time>
      </trkpt>
      <trkpt lat="60.45975" lon="7.6876">
        <ele>1174.87</ele>
        <time>2019-04-06T10:00:08Z</time>
      </trkpt>
      <trkpt lat="60.45987" lon="7.68741">
        <ele>1174.87</ele>
        <time>2019-04-06T10:00:23Z</time>
      </trkpt>
      <trkpt lat="60.45988" lon="7.68739">
        <ele>1173.91</ele>
        <time>2019-04-06T10:00:25Z</time>
      </trkpt>
      <trkpt lat="60.46001" lon="7.6872">
        <ele>1173.43</ele>
        <time>2019-04-06T10:00:40Z</time>
      </trkpt>
      <trkpt lat="60.46017" lon="7.68697">
        <ele>1175.35</ele>
        <time>2019-04-06T10:00:57Z</time>
      </trkpt>
      <trkpt lat="60.46032" lon="7.68677">
        <ele>1175.83</ele>
        <time>2019-04-06T10:01:13Z</time>
      </trkpt>
      <trkpt lat="60.46046" lon="7.6866">
        <ele>1173.91</ele>
        <time>2019-04-06T10:01:28Z</time>
      </trkpt>
      <trkpt lat="60.46052" lon="7.68652">
        <ele>1175.35</ele>
        <time>2019-04-06T10:01:35Z</time>
      </trkpt>
      <trkpt lat="60.46067" lon="7.68634">
        <ele>1173.91</ele>
        <time>2019-04-06T10:01:51Z</time>
      </trkpt>
      <trkpt lat="60.46079" lon="7.68615">
        <ele>1175.35</ele>
        <time>2019-04-06T10:02:06Z</time>
      </trkpt>
      <trkpt lat="60.46091" lon="7.686">
        <ele>1173.43</ele>
        <time>2019-04-06T10:02:19Z</time>
      </trkpt>
      <trkpt lat="60.46095" lon="7.68595">
        <ele>1176.31</ele>
        <time>2019-04-06T10:02:24Z</time>
      </trkpt>
      <trkpt lat="60.46097" lon="7.68592">
        <ele>1174.87</ele>
        <time>2019-04-06T10:02:26Z</time>
      </trkpt>
      <trkpt lat="60.461" lon="7.68588">
        <ele>1173.43</ele>
        <time>2019-04-06T10:02:29Z</time>
      </trkpt>
      <trkpt lat="60.46106" lon="7.68576">
        <ele>1174.87</ele>
        <time>2019-04-06T10:02:38Z</time>
      </trkpt>
      <trkpt lat="60.4611" lon="7.6857">
        <ele>1174.87</ele>
        <time>2019-04-06T10:02:42Z</time>
      </trkpt>
      <trkpt lat="60.46127" lon="7.6855">
        <ele>1173.43</ele>
        <time>2019-04-06T10:03:00Z</time>
      </trkpt>
      <trkpt lat="60.46128" lon="7.68549">
        <ele>1173.43</ele>
        <time>2019-04-06T10:03:01Z</time>
      </trkpt>
      <trkpt lat="60.46141" lon="7.68532">
        <ele>1174.87</ele>
        <time>2019-04-06T10:03:16Z</time>
      </trkpt>
      <trkpt lat="60.46153" lon="7.68511">
        <ele>1174.39</ele>
        <time>2019-04-06T10:03:31Z</time>
      </trkpt>
      <trkpt lat="60.46168" lon="7.6849">
        <ele>1174.39</ele>
        <time>2019-04-06T10:03:47Z</time>
      </trkpt>
      <trkpt lat="60.46178" lon="7.68475">
        <ele>1173.91</ele>
        <time>2019-04-06T10:03:58Z</time>
      </trkpt>
      <trkpt lat="60.46194" lon="7.68451">
        <ele>1175.35</ele>
        <time>2019-04-06T10:04:15Z</time>
      </trkpt>
      <trkpt lat="60.46206" lon="7.68432">
        <ele>1174.87</ele>
        <time>2019-04-06T10:04:30Z</time>
      </trkpt>
      <trkpt lat="60.46213" lon="7.68424">
        <ele>1173.43</ele>
        <time>2019-04-06T10:04:37Z</time>
      </trkpt>
      <trkpt lat="60.46228" lon="7.68405">
        <ele>1174.87</ele>
        <time>2019-04-06T10:04:54Z</time>
      </trkpt>
      <trkpt lat="60.46229" lon="7.68404">
        <ele>1174.87</ele>
        <time>2019-04-06T10:04:55Z</time>
      </trkpt>
      <trkpt lat="60.46243" lon="7.68388">
        <ele>1174.39</ele>
        <time>2019-04-06T10:05:10Z</time>
      </trkpt>
      <trkpt lat="60.46245" lon="7.68387">
        <ele>1175.83</ele>
        <time>2019-04-06T10:05:14Z</time>
      </trkpt>
      <trkpt lat="60.46245" lon="7.68386">
        <ele>1173.43</ele>
        <time>2019-04-06T10:05:30Z</time>
      </trkpt>
      <trkpt lat="60.46247" lon="7.68382">
        <ele>1173.43</ele>
        <time>2019-04-06T10:05:46Z</time>
      </trkpt>
      <trkpt lat="60.46247" lon="7.68382">
        <ele>1174.39</ele>
        <time>2019-04-06T10:06:05Z</time>
      </trkpt>
      <trkpt lat="60.46247" lon="7.68382">
        <ele>1172.47</ele>
        <time>2019-04-06T10:06:09Z</time>
      </trkpt>
      <trkpt lat="60.46247" lon="7.68382">
        <ele>1174.39</ele>
        <time>2019-04-06T10:06:46Z</time>
      </trkpt>
      <trkpt lat="60.46245" lon="7.68381">
        <ele>1172.95</ele>
        <time>2019-04-06T10:07:16Z</time>
      </trkpt>
      <trkpt lat="60.46246" lon="7.68381">
        <ele>1174.39</ele>
        <time>2019-04-06T10:07:20Z</time>
      </trkpt>
      <trkpt lat="60.46245" lon="7.68382">
        <ele>1172.95</ele>
        <time>2019-04-06T10:07:34Z</time>
      </trkpt>
      <trkpt lat="60.46245" lon="7.6838">
        <ele>1174.87</ele>
        <time>2019-04-06T10:07:58Z</time>
      </trkpt>
      <trkpt lat="60.46246" lon="7.6838">
        <ele>1173.43</ele>
        <time>2019-04-06T10:08:00Z</time>
      </trkpt>
      <trkpt lat="60.46247" lon="7.68382">
        <ele>1175.35</ele>
        <time>2019-04-06T10:08:17Z</time>
      </trkpt>
      <trkpt lat="60.46248" lon="7.6838">
        <ele>1172.95</ele>
        <time>2019-04-06T10:08:29Z</time>
      </trkpt>
      <trkpt lat="60.46254" lon="7.68375">
        <ele>1174.87</ele>
        <time>2019-04-06T10:08:43Z</time>
      </trkpt>
      <trkpt lat="60.46256" lon="7.68372">
        <ele>1173.43</ele>
        <time>2019-04-06T10:08:45Z</time>
      </trkpt>
      <trkpt lat="60.46271" lon="7.68355">
        <ele>1173.43</ele>
        <time>2019-04-06T10:09:00Z</time>
      </trkpt>
      <trkpt lat="60.46277" lon="7.6835">
        <ele>1174.87</ele>
        <time>2019-04-06T10:09:06Z</time>
      </trkpt>
      <trkpt lat="60.46289" lon="7.68333">
        <ele>1174.87</ele>
        <time>2019-04-06T10:09:22Z</time>
      </trkpt>
      <trkpt lat="60.46292" lon="7.68329">
        <ele>1173.43</ele>
        <time>2019-04-06T10:09:25Z</time>
      </trkpt>
      <trkpt lat="60.46295" lon="7.68325">
        <ele>1174.87</ele>
        <time>2019-04-06T10:09:29Z</time>
      </trkpt>
      <trkpt lat="60.46301" lon="7.68318">
        <ele>1173.43</ele>
        <time>2019-04-06T10:09:46Z</time>
      </trkpt>
      <trkpt lat="60.46302" lon="7.68317">
        <ele>1172.47</ele>
        <time>2019-04-06T10:10:06Z</time>
      </trkpt>
      <trkpt lat="60.46302" lon="7.68318">
        <ele>1173.91</ele>
        <time>2019-04-06T10:10:15Z</time>
      </trkpt>
      <trkpt lat="60.46302" lon="7.68318">
        <ele>1172.47</ele>
        <time>2019-04-06T10:10:17Z</time>
      </trkpt>
      <trkpt lat="60.46304" lon="7.68312">
        <ele>1173.91</ele>
        <time>2019-04-06T10:10:22Z</time>
      </trkpt>
      <trkpt lat="60.46318" lon="7.68283">
        <ele>1174.39</ele>
        <time>2019-04-06T10:10:38Z</time>
      </trkpt>
      <trkpt lat="60.46321" lon="7.68277">
        <ele>1172.95</ele>
        <time>2019-04-06T10:10:41Z</time>
      </trkpt>
      <trkpt lat="60.46322" lon="7.68274">
        <ele>1172.95</ele>
        <time>2019-04-06T10:10:54Z</time>
      </trkpt>
      <trkpt lat="60.46322" lon="7.68274">
        <ele>1172.95</ele>
        <time>2019-04-06T10:11:04Z</time>
      </trkpt>
      <trkpt lat="60.46322" lon="7.68271">
        <ele>1172.95</ele>
        <time>2019-04-06T10:11:08Z</time>
      </trkpt>
      <trkpt lat="60.46321" lon="7.68273">
        <ele>1174.39</ele>
        <time>2019-04-06T10:11:39Z</time>
      </trkpt>
      <trkpt lat="60.46321" lon="7.68272">
        <ele>1173.43</ele>
        <time>2019-04-06T10:12:12Z</time>
      </trkpt>
      <trkpt lat="60.46321" lon="7.68272">
        <ele>1174.39</ele>
        <time>2019-04-06T10:12:37Z</time>
      </trkpt>
      <trkpt lat="60.46322" lon="7.68272">
        <ele>1172.95</ele>
        <time>2019-04-06T10:12:44Z</time>
      </trkpt>
      <trkpt lat="60.46322" lon="7.68273">
        <ele>1172.95</ele>
        <time>2019-04-06T10:13:16Z</time>
      </trkpt>
      <trkpt lat="60.46322" lon="7.68272">
        <ele>1172.95</ele>
        <time>2019-04-06T10:13:50Z</time>
      </trkpt>
      <trkpt lat="60.46322" lon="7.68272">
        <ele>1172.95</ele>
        <time>2019-04-06T10:14:24Z</time>
      </trkpt>
      <trkpt lat="60.46321" lon="7.68274">
        <ele>1173.91</ele>
        <time>2019-04-06T10:14:57Z</time>
      </trkpt>
      <trkpt lat="60.46321" lon="7.68274">
        <ele>1173.91</ele>
        <time>2019-04-06T10:15:31Z</time>
      </trkpt>
      <trkpt lat="60.46321" lon="7.68275">
        <ele>1173.91</ele>
        <time>2019-04-06T10:16:06Z</time>
      </trkpt>
      <trkpt lat="60.46321" lon="7.68273">
        <ele>1173.91</ele>
        <time>2019-04-06T10:16:45Z</time>
      </trkpt>
      <trkpt lat="60.46321" lon="7.68275">
        <ele>1173.91</ele>
        <time>2019-04-06T10:17:15Z</time>
      </trkpt>
      <trkpt lat="60.46322" lon="7.6827">
        <ele>1173.91</ele>
        <time>2019-04-06T10:17:52Z</time>
      </trkpt>
      <trkpt lat="60.46321" lon="7.68269">
        <ele>1173.91</ele>
        <time>2019-04-06T10:18:31Z</time>
      </trkpt>
      <trkpt lat="60.46322" lon="7.68272">
        <ele>1172.95</ele>
        <time>2019-04-06T10:19:09Z</time>
      </trkpt>
      <trkpt lat="60.46322" lon="7.68271">
        <ele>1173.91</ele>
        <time>2019-04-06T10:19:31Z</time>
      </trkpt>
      <trkpt lat="60.46322" lon="7.6827">
        <ele>1173.91</ele>
        <time>2019-04-06T10:20:04Z</time>
      </trkpt>
      <trkpt lat="60.46322" lon="7.6827">
        <ele>1172.95</ele>
        <time>2019-04-06T10:20:45Z</time>
      </trkpt>
      <trkpt lat="60.46322" lon="7.6827">
        <ele>1172.95</ele>
        <time>2019-04-06T10:21:25Z</time>
      </trkpt>
      <trkpt lat="60.46322" lon="7.68269">
        <ele>1173.43</ele>
        <time>2019-04-06T10:22:04Z</time>
      </trkpt>
      <trkpt lat="60.46322" lon="7.68269">
        <ele>1174.39</ele>
        <time>2019-04-06T10:22:07Z</time>
      </trkpt>
      <trkpt lat="60.46322" lon="7.68269">
        <ele>1172.95</ele>
        <time>2019-04-06T10:22:53Z</time>
      </trkpt>
      <trkpt lat="60.46321" lon="7.68269">
        <ele>1172.95</ele>
        <time>2019-04-06T10:23:34Z</time>
      </trkpt>
      <trkpt lat="60.46321" lon="7.68268">
        <ele>1172.95</ele>
        <time>2019-04-06T10:24:13Z</time>
      </trkpt>
      <trkpt lat="60.46322" lon="7.68269">
        <ele>1172.95</ele>
        <time>2019-04-06T10:24:45Z</time>
      </trkpt>
      <trkpt lat="60.46321" lon="7.68268">
        <ele>1172.95</ele>
        <time>2019-04-06T10:25:24Z</time>
      </trkpt>
      <trkpt lat="60.46322" lon="7.68268">
        <ele>1173.43</ele>
        <time>2019-04-06T10:26:03Z</time>
      </trkpt>
      <trkpt lat="60.46322" lon="7.68268">
        <ele>1173.43</ele>
        <time>2019-04-06T10:26:39Z</time>
      </trkpt>
      <trkpt lat="60.46321" lon="7.68269">
        <ele>1173.43</ele>
        <time>2019-04-06T10:27:14Z</time>
      </trkpt>
      <trkpt lat="60.46321" lon="7.6827">
        <ele>1173.43</ele>
        <time>2019-04-06T10:27:50Z</time>
      </trkpt>
      <trkpt lat="60.46321" lon="7.6827">
        <ele>1173.43</ele>
        <time>2019-04-06T10:28:00Z</time>
      </trkpt>
      <trkpt lat="60.46321" lon="7.68269">
        <ele>1175.35</ele>
        <time>2019-04-06T10:28:03Z</time>
      </trkpt>
      <trkpt lat="60.46321" lon="7.68269">
        <ele>1173.91</ele>
        <time>2019-04-06T10:28:06Z</time>
      </trkpt>
      <trkpt lat="60.46323" lon="7.68272">
        <ele>1173.91</ele>
        <time>2019-04-06T10:28:31Z</time>
      </trkpt>
      <trkpt lat="60.46323" lon="7.68271">
        <ele>1173.91</ele>
        <time>2019-04-06T10:28:55Z</time>
      </trkpt>
      <trkpt lat="60.46322" lon="7.68271">
        <ele>1173.91</ele>
        <time>2019-04-06T10:29:22Z</time>
      </trkpt>
      <trkpt lat="60.46321" lon="7.68274">
        <ele>1175.35</ele>
        <time>2019-04-06T10:29:27Z</time>
      </trkpt>
      <trkpt lat="60.46321" lon="7.68275">
        <ele>1171.5</ele>
        <time>2019-04-06T10:29:28Z</time>
      </trkpt>
      <trkpt lat="60.46321" lon="7.68276">
        <ele>1176.31</ele>
        <time>2019-04-06T10:29:29Z</time>
      </trkpt>
      <trkpt lat="60.46321" lon="7.68276">
        <ele>1174.87</ele>
        <time>2019-04-06T10:29:32Z</time>
      </trkpt>
      <trkpt lat="60.46321" lon="7.68276">
        <ele>1173.43</ele>
        <time>2019-04-06T10:29:47Z</time>
      </trkpt>
      <trkpt lat="60.46322" lon="7.68277">
        <ele>1172.95</ele>
        <time>2019-04-06T10:30:09Z</time>
      </trkpt>
      <trkpt lat="60.46322" lon="7.68277">
        <ele>1174.39</ele>
        <time>2019-04-06T10:30:11Z</time>
      </trkpt>
      <trkpt lat="60.46326" lon="7.68277">
        <ele>1175.35</ele>
        <time>2019-04-06T10:30:16Z</time>
      </trkpt>
      <trkpt lat="60.46336" lon="7.68281">
        <ele>1174.39</ele>
        <time>2019-04-06T10:30:28Z</time>
      </trkpt>
      <trkpt lat="60.46337" lon="7.68281">
        <ele>1175.83</ele>
        <time>2019-04-06T10:30:32Z</time>
      </trkpt>
      <trkpt lat="60.46336" lon="7.6828">
        <ele>1175.35</ele>
        <time>2019-04-06T10:30:57Z</time>
      </trkpt>
      <trkpt lat="60.46336" lon="7.68273">
        <ele>1173.91</ele>
        <time>2019-04-06T10:31:13Z</time>
      </trkpt>
      <trkpt lat="60.46338" lon="7.68264">
        <ele>1175.35</ele>
        <time>2019-04-06T10:31:25Z</time>
      </trkpt>
      <trkpt lat="60.46342" lon="7.68263">
        <ele>1175.35</ele>
        <time>2019-04-06T10:31:33Z</time>
      </trkpt>
      <trkpt lat="60.4635" lon="7.68262">
        <ele>1175.35</ele>
        <time>2019-04-06T10:31:37Z</time>
      </trkpt>
      <trkpt lat="60.46375" lon="7.6825">
        <ele>1175.35</ele>
        <time>2019-04-06T10:31:45Z</time>
      </trkpt>
      <trkpt lat="60.46389" lon="7.6823">
        <ele>1173.43</ele>
        <time>2019-04-06T10:31:49Z</time>
      </trkpt>
      <trkpt lat="60.46398" lon="7.68216">
        <ele>1173.43</ele>
        <time>2019-04-06T10:31:51Z</time>
      </trkpt>
      <trkpt lat="60.46416" lon="7.68174">
        <ele>1171.02</ele>
        <time>2019-04-06T10:31:55Z</time>
      </trkpt>
      <trkpt lat="60.46454" lon="7.68097">
        <ele>1170.06</ele>
        <time>2019-04-06T10:32:02Z</time>
      </trkpt>
      <trkpt lat="60.46468" lon="7.68064">
        <ele>1171.98</ele>
        <time>2019-04-06T10:32:05Z</time>
      </trkpt>
      <trkpt lat="60.46483" lon="7.68036">
        <ele>1173.91</ele>
        <time>2019-04-06T10:32:08Z</time>
      </trkpt>
      <trkpt lat="60.46492" lon="7.68021">
        <ele>1174.87</ele>
        <time>2019-04-06T10:32:10Z</time>
      </trkpt>
      <trkpt lat="60.465" lon="7.68005">
        <ele>1175.83</ele>
        <time>2019-04-06T10:32:12Z</time>
      </trkpt>
      <trkpt lat="60.46532" lon="7.67941">
        <ele>1174.87</ele>
        <time>2019-04-06T10:32:19Z</time>
      </trkpt>
      <trkpt lat="60.4656" lon="7.67889">
        <ele>1172.95</ele>
        <time>2019-04-06T10:32:24Z</time>
      </trkpt>
      <trkpt lat="60.46596" lon="7.67816">
        <ele>1174.39</ele>
        <time>2019-04-06T10:32:31Z</time>
      </trkpt>
      <trkpt lat="60.46615" lon="7.67789">
        <ele>1176.79</ele>
        <time>2019-04-06T10:32:35Z</time>
      </trkpt>
      <trkpt lat="60.46634" lon="7.67761">
        <ele>1177.27</ele>
        <time>2019-04-06T10:32:39Z</time>
      </trkpt>
      <trkpt lat="60.46647" lon="7.67742">
        <ele>1179.19</ele>
        <time>2019-04-06T10:32:42Z</time>
      </trkpt>
      <trkpt lat="60.46651" lon="7.67734">
        <ele>1179.19</ele>
        <time>2019-04-06T10:32:43Z</time>
      </trkpt>
      <trkpt lat="60.46667" lon="7.67693">
        <ele>1180.16</ele>
        <time>2019-04-06T10:32:48Z</time>
      </trkpt>
      <trkpt lat="60.46689" lon="7.67635">
        <ele>1176.79</ele>
        <time>2019-04-06T10:32:54Z</time>
      </trkpt>
      <trkpt lat="60.46694" lon="7.67625">
        <ele>1176.79</ele>
        <time>2019-04-06T10:32:55Z</time>
      </trkpt>
      <trkpt lat="60.46732" lon="7.67531">
        <ele>1174.87</ele>
        <time>2019-04-06T10:33:04Z</time>
      </trkpt>
      <trkpt lat="60.46775" lon="7.6745">
        <ele>1177.75</ele>
        <time>2019-04-06T10:33:14Z</time>
      </trkpt>
      <trkpt lat="60.46779" lon="7.67443">
        <ele>1177.75</ele>
        <time>2019-04-06T10:33:15Z</time>
      </trkpt>
      <trkpt lat="60.46789" lon="7.67422">
        <ele>1179.19</ele>
        <time>2019-04-06T10:33:18Z</time>
      </trkpt>
      <trkpt lat="60.46797" lon="7.67412">
        <ele>1180.64</ele>
        <time>2019-04-06T10:33:20Z</time>
      </trkpt>
      <trkpt lat="60.46851" lon="7.67335">
        <ele>1176.79</ele>
        <time>2019-04-06T10:33:30Z</time>
      </trkpt>
      <trkpt lat="60.46857" lon="7.67327">
        <ele>1176.79</ele>
        <time>2019-04-06T10:33:31Z</time>
      </trkpt>
      <trkpt lat="60.46905" lon="7.67262">
        <ele>1176.31</ele>
        <time>2019-04-06T10:33:41Z</time>
      </trkpt>
      <trkpt lat="60.46934" lon="7.67229">
        <ele>1174.39</ele>
        <time>2019-04-06T10:33:46Z</time>
      </trkpt>
      <trkpt lat="60.46957" lon="7.672">
        <ele>1175.35</ele>
        <time>2019-04-06T10:33:50Z</time>
      </trkpt>
      <trkpt lat="60.46962" lon="7.67193">
        <ele>1175.35</ele>
        <time>2019-04-06T10:33:51Z</time>
      </trkpt>
      <trkpt lat="60.46984" lon="7.6717">
        <ele>1177.75</ele>
        <time>2019-04-06T10:33:55Z</time>
      </trkpt>
      <trkpt lat="60.46992" lon="7.67157">
        <ele>1178.23</ele>
        <time>2019-04-06T10:33:57Z</time>
      </trkpt>
      <trkpt lat="60.47014" lon="7.67121">
        <ele>1178.71</ele>
        <time>2019-04-06T10:34:02Z</time>
      </trkpt>
      <trkpt lat="60.47037" lon="7.67085">
        <ele>1177.75</ele>
        <time>2019-04-06T10:34:07Z</time>
      </trkpt>
      <trkpt lat="60.47061" lon="7.67048">
        <ele>1177.75</ele>
        <time>2019-04-06T10:34:12Z</time>
      </trkpt>
      <trkpt lat="60.47074" lon="7.67023">
        <ele>1177.75</ele>
        <time>2019-04-06T10:34:15Z</time>
      </trkpt>
      <trkpt lat="60.47084" lon="7.67008">
        <ele>1179.67</ele>
        <time>2019-04-06T10:34:17Z</time>
      </trkpt>
      <trkpt lat="60.47088" lon="7.67001">
        <ele>1179.67</ele>
        <time>2019-04-06T10:34:18Z</time>
      </trkpt>
      <trkpt lat="60.47099" lon="7.66988">
        <ele>1180.16</ele>
        <time>2019-04-06T10:34:20Z</time>
      </trkpt>
      <trkpt lat="60.47118" lon="7.66968">
        <ele>1178.23</ele>
        <time>2019-04-06T10:34:23Z</time>
      </trkpt>
      <trkpt lat="60.4713" lon="7.66953">
        <ele>1177.75</ele>
        <time>2019-04-06T10:34:25Z</time>
      </trkpt>
      <trkpt lat="60.47143" lon="7.66934">
        <ele>1172.47</ele>
        <time>2019-04-06T10:34:27Z</time>
      </trkpt>
      <trkpt lat="60.47163" lon="7.66906">
        <ele>1171.02</ele>
        <time>2019-04-06T10:34:30Z</time>
      </trkpt>
      <trkpt lat="60.47181" lon="7.66883">
        <ele>1172.47</ele>
        <time>2019-04-06T10:34:33Z</time>
      </trkpt>
      <trkpt lat="60.47192" lon="7.66869">
        <ele>1173.43</ele>
        <time>2019-04-06T10:34:35Z</time>
      </trkpt>
      <trkpt lat="60.47237" lon="7.66818">
        <ele>1171.02</ele>
        <time>2019-04-06T10:34:42Z</time>
      </trkpt>
      <trkpt lat="60.47292" lon="7.66756">
        <ele>1171.98</ele>
        <time>2019-04-06T10:34:51Z</time>
      </trkpt>
      <trkpt lat="60.47317" lon="7.66712">
        <ele>1171.98</ele>
        <time>2019-04-06T10:34:56Z</time>
      </trkpt>
      <trkpt lat="60.47331" lon="7.66682">
        <ele>1173.91</ele>
        <time>2019-04-06T10:35:00Z</time>
      </trkpt>
      <trkpt lat="60.47338" lon="7.66669">
        <ele>1172.47</ele>
        <time>2019-04-06T10:35:02Z</time>
      </trkpt>
      <trkpt lat="60.47347" lon="7.6666">
        <ele>1174.87</ele>
        <time>2019-04-06T10:35:05Z</time>
      </trkpt>
      <trkpt lat="60.4737" lon="7.6664">
        <ele>1174.87</ele>
        <time>2019-04-06T10:35:11Z</time>
      </trkpt>
      <trkpt lat="60.47398" lon="7.66631">
        <ele>1174.87</ele>
        <time>2019-04-06T10:35:19Z</time>
      </trkpt>
      <trkpt lat="60.4741" lon="7.66625">
        <ele>1173.43</ele>
        <time>2019-04-06T10:35:22Z</time>
      </trkpt>
      <trkpt lat="60.47415" lon="7.66622">
        <ele>1172.95</ele>
        <time>2019-04-06T10:35:23Z</time>
      </trkpt>
      <trkpt lat="60.47443" lon="7.66595">
        <ele>1172.95</ele>
        <time>2019-04-06T10:35:30Z</time>
      </trkpt>
      <trkpt lat="60.47451" lon="7.6659">
        <ele>1174.39</ele>
        <time>2019-04-06T10:35:32Z</time>
      </trkpt>
      <trkpt lat="60.47465" lon="7.66579">
        <ele>1172.47</ele>
        <time>2019-04-06T10:35:35Z</time>
      </trkpt>
      <trkpt lat="60.47477" lon="7.66575">
        <ele>1175.35</ele>
        <time>2019-04-06T10:35:38Z</time>
      </trkpt>
      <trkpt lat="60.47481" lon="7.66574">
        <ele>1175.35</ele>
        <time>2019-04-06T10:35:39Z</time>
      </trkpt>
      <trkpt lat="60.475" lon="7.66568">
        <ele>1176.79</ele>
        <time>2019-04-06T10:35:44Z</time>
      </trkpt>
      <trkpt lat="60.47514" lon="7.66562">
        <ele>1173.91</ele>
        <time>2019-04-06T10:35:47Z</time>
      </trkpt>
      <trkpt lat="60.47533" lon="7.66547">
        <ele>1175.35</ele>
        <time>2019-04-06T10:35:51Z</time>
      </trkpt>
      <trkpt lat="60.47554" lon="7.66532">
        <ele>1174.39</ele>
        <time>2019-04-06T10:35:55Z</time>
      </trkpt>
      <trkpt lat="60.47564" lon="7.66522">
        <ele>1173.43</ele>
        <time>2019-04-06T10:35:57Z</time>
      </trkpt>
      <trkpt lat="60.47581" lon="7.66514">
        <ele>1175.83</ele>
        <time>2019-04-06T10:36:01Z</time>
      </trkpt>
      <trkpt lat="60.47591" lon="7.66511">
        <ele>1177.27</ele>
        <time>2019-04-06T10:36:04Z</time>
      </trkpt>
      <trkpt lat="60.47607" lon="7.665">
        <ele>1176.79</ele>
        <time>2019-04-06T10:36:09Z</time>
      </trkpt>
      <trkpt lat="60.4761" lon="7.66497">
        <ele>1176.79</ele>
        <time>2019-04-06T10:36:10Z</time>
      </trkpt>
      <trkpt lat="60.47635" lon="7.66489">
        <ele>1178.71</ele>
        <time>2019-04-06T10:36:16Z</time>
      </trkpt>
      <trkpt lat="60.47641" lon="7.66488">
        <ele>1179.19</ele>
        <time>2019-04-06T10:36:18Z</time>
      </trkpt>
      <trkpt lat="60.47677" lon="7.66474">
        <ele>1176.79</ele>
        <time>2019-04-06T10:36:26Z</time>
      </trkpt>
      <trkpt lat="60.47685" lon="7.6647">
        <ele>1179.19</ele>
        <time>2019-04-06T10:36:28Z</time>
      </trkpt>
      <trkpt lat="60.4769" lon="7.66469">
        <ele>1178.71</ele>
        <time>2019-04-06T10:36:29Z</time>
      </trkpt>
      <trkpt lat="60.47722" lon="7.6645">
        <ele>1171.5</ele>
        <time>2019-04-06T10:36:34Z</time>
      </trkpt>
      <trkpt lat="60.4773" lon="7.66446">
        <ele>1171.5</ele>
        <time>2019-04-06T10:36:35Z</time>
      </trkpt>
      <trkpt lat="60.4775" lon="7.66435">
        <ele>1174.87</ele>
        <time>2019-04-06T10:36:38Z</time>
      </trkpt>
      <trkpt lat="60.47768" lon="7.66428">
        <ele>1177.75</ele>
        <time>2019-04-06T10:36:41Z</time>
      </trkpt>
      <trkpt lat="60.4778" lon="7.66424">
        <ele>1178.71</ele>
        <time>2019-04-06T10:36:43Z</time>
      </trkpt>
      <trkpt lat="60.47791" lon="7.66419">
        <ele>1179.67</ele>
        <time>2019-04-06T10:36:45Z</time>
      </trkpt>
      <trkpt lat="60.4781" lon="7.66414">
        <ele>1184.96</ele>
        <time>2019-04-06T10:36:50Z</time>
      </trkpt>
      <trkpt lat="60.47819" lon="7.66415">
        <ele>1186.88</ele>
        <time>2019-04-06T10:36:53Z</time>
      </trkpt>
      <trkpt lat="60.47827" lon="7.66414">
        <ele>1188.33</ele>
        <time>2019-04-06T10:36:56Z</time>
      </trkpt>
      <trkpt lat="60.47844" lon="7.66418">
        <ele>1191.21</ele>
        <time>2019-04-06T10:37:04Z</time>
      </trkpt>
      <trkpt lat="60.47854" lon="7.66417">
        <ele>1192.65</ele>
        <time>2019-04-06T10:37:09Z</time>
      </trkpt>
      <trkpt lat="60.47862" lon="7.66416">
        <ele>1194.09</ele>
        <time>2019-04-06T10:37:13Z</time>
      </trkpt>
      <trkpt lat="60.47865" lon="7.66416">
        <ele>1195.06</ele>
        <time>2019-04-06T10:37:15Z</time>
      </trkpt>
      <trkpt lat="60.47876" lon="7.66413">
        <ele>1196.98</ele>
        <time>2019-04-06T10:37:21Z</time>
      </trkpt>
      <trkpt lat="60.47892" lon="7.66404">
        <ele>1199.38</ele>
        <time>2019-04-06T10:37:32Z</time>
      </trkpt>
      <trkpt lat="60.47917" lon="7.66381">
        <ele>1200.34</ele>
        <time>2019-04-06T10:37:43Z</time>
      </trkpt>
      <trkpt lat="60.47945" lon="7.66349">
        <ele>1202.27</ele>
        <time>2019-04-06T10:37:54Z</time>
      </trkpt>
      <trkpt lat="60.47952" lon="7.66342">
        <ele>1202.75</ele>
        <time>2019-04-06T10:37:57Z</time>
      </trkpt>
      <trkpt lat="60.47984" lon="7.66327">
        <ele>1205.63</ele>
        <time>2019-04-06T10:38:08Z</time>
      </trkpt>
      <trkpt lat="60.48001" lon="7.66321">
        <ele>1207.55</ele>
        <time>2019-04-06T10:38:13Z</time>
      </trkpt>
      <trkpt lat="60.48015" lon="7.66311">
        <ele>1209</ele>
        <time>2019-04-06T10:38:17Z</time>
      </trkpt>
      <trkpt lat="60.48024" lon="7.66303">
        <ele>1210.44</ele>
        <time>2019-04-06T10:38:20Z</time>
      </trkpt>
      <trkpt lat="60.48038" lon="7.66294">
        <ele>1213.8</ele>
        <time>2019-04-06T10:38:25Z</time>
      </trkpt>
      <trkpt lat="60.48042" lon="7.66292">
        <ele>1213.8</ele>
        <time>2019-04-06T10:38:26Z</time>
      </trkpt>
      <trkpt lat="60.48051" lon="7.66287">
        <ele>1215.24</ele>
        <time>2019-04-06T10:38:30Z</time>
      </trkpt>
      <trkpt lat="60.48056" lon="7.66282">
        <ele>1216.69</ele>
        <time>2019-04-06T10:38:41Z</time>
      </trkpt>
      <trkpt lat="60.48063" lon="7.66273">
        <ele>1214.76</ele>
        <time>2019-04-06T10:38:50Z</time>
      </trkpt>
      <trkpt lat="60.48074" lon="7.66251">
        <ele>1215.24</ele>
        <time>2019-04-06T10:38:56Z</time>
      </trkpt>
      <trkpt lat="60.48084" lon="7.66242">
        <ele>1216.21</ele>
        <time>2019-04-06T10:39:00Z</time>
      </trkpt>
      <trkpt lat="60.4812" lon="7.662">
        <ele>1219.09</ele>
        <time>2019-04-06T10:39:13Z</time>
      </trkpt>
      <trkpt lat="60.4814" lon="7.66184">
        <ele>1220.05</ele>
        <time>2019-04-06T10:39:19Z</time>
      </trkpt>
      <trkpt lat="60.48161" lon="7.66161">
        <ele>1220.05</ele>
        <time>2019-04-06T10:39:24Z</time>
      </trkpt>
      <trkpt lat="60.48182" lon="7.66133">
        <ele>1223.42</ele>
        <time>2019-04-06T10:39:30Z</time>
      </trkpt>
      <trkpt lat="60.48193" lon="7.66121">
        <ele>1223.42</ele>
        <time>2019-04-06T10:39:34Z</time>
      </trkpt>
      <trkpt lat="60.48201" lon="7.66127">
        <ele>1225.82</ele>
        <time>2019-04-06T10:39:46Z</time>
      </trkpt>
      <trkpt lat="60.48202" lon="7.6613">
        <ele>1226.3</ele>
        <time>2019-04-06T10:40:14Z</time>
      </trkpt>
      <trkpt lat="60.48203" lon="7.66132">
        <ele>1226.3</ele>
        <time>2019-04-06T10:40:19Z</time>
      </trkpt>
      <trkpt lat="60.48194" lon="7.66133">
        <ele>1226.3</ele>
        <time>2019-04-06T10:40:22Z</time>
      </trkpt>
      <trkpt lat="60.48177" lon="7.66118">
        <ele>1227.26</ele>
        <time>2019-04-06T10:40:26Z</time>
      </trkpt>
      <trkpt lat="60.4816" lon="7.66094">
        <ele>1227.26</ele>
        <time>2019-04-06T10:40:30Z</time>
      </trkpt>
      <trkpt lat="60.48105" lon="7.6599">
        <ele>1223.9</ele>
        <time>2019-04-06T10:40:44Z</time>
      </trkpt>
      <trkpt lat="60.48101" lon="7.65981">
        <ele>1223.9</ele>
        <time>2019-04-06T10:40:45Z</time>
      </trkpt>
      <trkpt lat="60.48088" lon="7.65968">
        <ele>1220.05</ele>
        <time>2019-04-06T10:40:50Z</time>
      </trkpt>
      <trkpt lat="60.4809" lon="7.65971">
        <ele>1220.05</ele>
        <time>2019-04-06T10:40:51Z</time>
      </trkpt>
      <trkpt lat="60.48099" lon="7.65965">
        <ele>1218.61</ele>
        <time>2019-04-06T10:40:54Z</time>
      </trkpt>
      <trkpt lat="60.48112" lon="7.65946">
        <ele>1218.61</ele>
        <time>2019-04-06T10:40:58Z</time>
      </trkpt>
      <trkpt lat="60.48119" lon="7.65933">
        <ele>1218.61</ele>
        <time>2019-04-06T10:41:00Z</time>
      </trkpt>
      <trkpt lat="60.48129" lon="7.65917">
        <ele>1221.01</ele>
        <time>2019-04-06T10:41:03Z</time>
      </trkpt>
      <trkpt lat="60.48162" lon="7.65881">
        <ele>1224.38</ele>
        <time>2019-04-06T10:41:13Z</time>
      </trkpt>
      <trkpt lat="60.48166" lon="7.65878">
        <ele>1224.38</ele>
        <time>2019-04-06T10:41:14Z</time>
      </trkpt>
      <trkpt lat="60.48178" lon="7.65865">
        <ele>1224.38</ele>
        <time>2019-04-06T10:41:17Z</time>
      </trkpt>
      <trkpt lat="60.48237" lon="7.65804">
        <ele>1223.9</ele>
        <time>2019-04-06T10:41:28Z</time>
      </trkpt>
      <trkpt lat="60.48253" lon="7.65784">
        <ele>1226.78</ele>
        <time>2019-04-06T10:41:31Z</time>
      </trkpt>
      <trkpt lat="60.48271" lon="7.65766">
        <ele>1230.14</ele>
        <time>2019-04-06T10:41:36Z</time>
      </trkpt>
      <trkpt lat="60.48296" lon="7.65744">
        <ele>1232.55</ele>
        <time>2019-04-06T10:41:46Z</time>
      </trkpt>
      <trkpt lat="60.48316" lon="7.65729">
        <ele>1233.99</ele>
        <time>2019-04-06T10:41:53Z</time>
      </trkpt>
      <trkpt lat="60.48352" lon="7.65703">
        <ele>1235.43</ele>
        <time>2019-04-06T10:42:02Z</time>
      </trkpt>
      <trkpt lat="60.48394" lon="7.65668">
        <ele>1237.83</ele>
        <time>2019-04-06T10:42:14Z</time>
      </trkpt>
      <trkpt lat="60.48424" lon="7.65632">
        <ele>1239.76</ele>
        <time>2019-04-06T10:42:23Z</time>
      </trkpt>
      <trkpt lat="60.48442" lon="7.65611">
        <ele>1241.2</ele>
        <time>2019-04-06T10:42:29Z</time>
      </trkpt>
      <trkpt lat="60.48446" lon="7.65627">
        <ele>1242.16</ele>
        <time>2019-04-06T10:42:35Z</time>
      </trkpt>
      <trkpt lat="60.48438" lon="7.65623">
        <ele>1242.64</ele>
        <time>2019-04-06T10:42:37Z</time>
      </trkpt>
      <trkpt lat="60.48425" lon="7.65613">
        <ele>1244.08</ele>
        <time>2019-04-06T10:42:40Z</time>
      </trkpt>
      <trkpt lat="60.4839" lon="7.65582">
        <ele>1245.04</ele>
        <time>2019-04-06T10:42:49Z</time>
      </trkpt>
      <trkpt lat="60.48381" lon="7.65576">
        <ele>1246.01</ele>
        <time>2019-04-06T10:42:51Z</time>
      </trkpt>
      <trkpt lat="60.4834" lon="7.65529">
        <ele>1249.37</ele>
        <time>2019-04-06T10:43:02Z</time>
      </trkpt>
      <trkpt lat="60.48302" lon="7.65487">
        <ele>1250.81</ele>
        <time>2019-04-06T10:43:15Z</time>
      </trkpt>
      <trkpt lat="60.48287" lon="7.65469">
        <ele>1251.77</ele>
        <time>2019-04-06T10:43:20Z</time>
      </trkpt>
      <trkpt lat="60.4828" lon="7.6546">
        <ele>1251.77</ele>
        <time>2019-04-06T10:43:22Z</time>
      </trkpt>
      <trkpt lat="60.48243" lon="7.65431">
        <ele>1254.66</ele>
        <time>2019-04-06T10:43:33Z</time>
      </trkpt>
      <trkpt lat="60.48241" lon="7.65429">
        <ele>1254.66</ele>
        <time>2019-04-06T10:43:34Z</time>
      </trkpt>
      <trkpt lat="60.48222" lon="7.65418">
        <ele>1257.54</ele>
        <time>2019-04-06T10:43:42Z</time>
      </trkpt>
      <trkpt lat="60.48211" lon="7.65419">
        <ele>1259.46</ele>
        <time>2019-04-06T10:43:47Z</time>
      </trkpt>
      <trkpt lat="60.48219" lon="7.6542">
        <ele>1256.1</ele>
        <time>2019-04-06T10:43:53Z</time>
      </trkpt>
      <trkpt lat="60.48231" lon="7.65401">
        <ele>1255.14</ele>
        <time>2019-04-06T10:43:57Z</time>
      </trkpt>
      <trkpt lat="60.48243" lon="7.6538">
        <ele>1255.14</ele>
        <time>2019-04-06T10:44:01Z</time>
      </trkpt>
      <trkpt lat="60.48267" lon="7.6534">
        <ele>1256.1</ele>
        <time>2019-04-06T10:44:08Z</time>
      </trkpt>
      <trkpt lat="60.48315" lon="7.65265">
        <ele>1257.06</ele>
        <time>2019-04-06T10:44:20Z</time>
      </trkpt>
      <trkpt lat="60.48338" lon="7.65222">
        <ele>1257.06</ele>
        <time>2019-04-06T10:44:27Z</time>
      </trkpt>
      <trkpt lat="60.48367" lon="7.65168">
        <ele>1258.02</ele>
        <time>2019-04-06T10:44:36Z</time>
      </trkpt>
      <trkpt lat="60.48375" lon="7.65144">
        <ele>1255.14</ele>
        <time>2019-04-06T10:44:39Z</time>
      </trkpt>
      <trkpt lat="60.48383" lon="7.65114">
        <ele>1251.77</ele>
        <time>2019-04-06T10:44:42Z</time>
      </trkpt>
      <trkpt lat="60.48395" lon="7.65076">
        <ele>1253.22</ele>
        <time>2019-04-06T10:44:51Z</time>
      </trkpt>
      <trkpt lat="60.484" lon="7.65066">
        <ele>1251.77</ele>
        <time>2019-04-06T10:44:54Z</time>
      </trkpt>
      <trkpt lat="60.48402" lon="7.65063">
        <ele>1253.22</ele>
        <time>2019-04-06T10:45:04Z</time>
      </trkpt>
      <trkpt lat="60.48427" lon="7.6506">
        <ele>1250.33</ele>
        <time>2019-04-06T10:45:10Z</time>
      </trkpt>
      <trkpt lat="60.48443" lon="7.6505">
        <ele>1249.85</ele>
        <time>2019-04-06T10:45:13Z</time>
      </trkpt>
      <trkpt lat="60.48463" lon="7.65034">
        <ele>1249.85</ele>
        <time>2019-04-06T10:45:17Z</time>
      </trkpt>
      <trkpt lat="60.4849" lon="7.65008">
        <ele>1249.85</ele>
        <time>2019-04-06T10:45:22Z</time>
      </trkpt>
      <trkpt lat="60.48502" lon="7.64998">
        <ele>1251.29</ele>
        <time>2019-04-06T10:45:24Z</time>
      </trkpt>
      <trkpt lat="60.48513" lon="7.64986">
        <ele>1249.85</ele>
        <time>2019-04-06T10:45:26Z</time>
      </trkpt>
      <trkpt lat="60.4855" lon="7.6493">
        <ele>1252.74</ele>
        <time>2019-04-06T10:45:34Z</time>
      </trkpt>
      <trkpt lat="60.48569" lon="7.649">
        <ele>1253.22</ele>
        <time>2019-04-06T10:45:39Z</time>
      </trkpt>
      <trkpt lat="60.48581" lon="7.64884">
        <ele>1253.22</ele>
        <time>2019-04-06T10:45:42Z</time>
      </trkpt>
      <trkpt lat="60.48603" lon="7.64853">
        <ele>1255.14</ele>
        <time>2019-04-06T10:45:48Z</time>
      </trkpt>
      <trkpt lat="60.48622" lon="7.64829">
        <ele>1256.58</ele>
        <time>2019-04-06T10:45:54Z</time>
      </trkpt>
      <trkpt lat="60.48639" lon="7.64814">
        <ele>1257.54</ele>
        <time>2019-04-06T10:45:59Z</time>
      </trkpt>
      <trkpt lat="60.4867" lon="7.64784">
        <ele>1259.46</ele>
        <time>2019-04-06T10:46:09Z</time>
      </trkpt>
      <trkpt lat="60.48702" lon="7.64756">
        <ele>1260.43</ele>
        <time>2019-04-06T10:46:19Z</time>
      </trkpt>
      <trkpt lat="60.48703" lon="7.64756">
        <ele>1262.35</ele>
        <time>2019-04-06T10:46:21Z</time>
      </trkpt>
      <trkpt lat="60.48712" lon="7.64757">
        <ele>1260.43</ele>
        <time>2019-04-06T10:46:26Z</time>
      </trkpt>
      <trkpt lat="60.48726" lon="7.64751">
        <ele>1256.58</ele>
        <time>2019-04-06T10:46:31Z</time>
      </trkpt>
      <trkpt lat="60.48729" lon="7.64773">
        <ele>1257.06</ele>
        <time>2019-04-06T10:46:38Z</time>
      </trkpt>
      <trkpt lat="60.48727" lon="7.6478">
        <ele>1257.06</ele>
        <time>2019-04-06T10:46:40Z</time>
      </trkpt>
      <trkpt lat="60.48728" lon="7.64792">
        <ele>1257.06</ele>
        <time>2019-04-06T10:46:43Z</time>
      </trkpt>
      <trkpt lat="60.48739" lon="7.64806">
        <ele>1254.18</ele>
        <time>2019-04-06T10:46:47Z</time>
      </trkpt>
      <trkpt lat="60.48767" lon="7.64811">
        <ele>1250.33</ele>
        <time>2019-04-06T10:46:57Z</time>
      </trkpt>
      <trkpt lat="60.4877" lon="7.64812">
        <ele>1250.33</ele>
        <time>2019-04-06T10:46:58Z</time>
      </trkpt>
      <trkpt lat="60.48779" lon="7.64814">
        <ele>1249.37</ele>
        <time>2019-04-06T10:47:00Z</time>
      </trkpt>
      <trkpt lat="60.48792" lon="7.6481">
        <ele>1246.49</ele>
        <time>2019-04-06T10:47:03Z</time>
      </trkpt>
      <trkpt lat="60.488" lon="7.64795">
        <ele>1245.04</ele>
        <time>2019-04-06T10:47:06Z</time>
      </trkpt>
      <trkpt lat="60.48803" lon="7.64783">
        <ele>1244.08</ele>
        <time>2019-04-06T10:47:08Z</time>
      </trkpt>
      <trkpt lat="60.48808" lon="7.64768">
        <ele>1242.16</ele>
        <time>2019-04-06T10:47:11Z</time>
      </trkpt>
      <trkpt lat="60.48816" lon="7.64736">
        <ele>1238.8</ele>
        <time>2019-04-06T10:47:18Z</time>
      </trkpt>
      <trkpt lat="60.48819" lon="7.64721">
        <ele>1235.43</ele>
        <time>2019-04-06T10:47:21Z</time>
      </trkpt>
      <trkpt lat="60.4882" lon="7.64716">
        <ele>1235.43</ele>
        <time>2019-04-06T10:47:22Z</time>
      </trkpt>
      <trkpt lat="60.48824" lon="7.64695">
        <ele>1231.11</ele>
        <time>2019-04-06T10:47:26Z</time>
      </trkpt>
      <trkpt lat="60.48825" lon="7.6469">
        <ele>1231.11</ele>
        <time>2019-04-06T10:47:27Z</time>
      </trkpt>
      <trkpt lat="60.48831" lon="7.64673">
        <ele>1228.22</ele>
        <time>2019-04-06T10:47:31Z</time>
      </trkpt>
      <trkpt lat="60.48837" lon="7.6466">
        <ele>1224.86</ele>
        <time>2019-04-06T10:47:34Z</time>
      </trkpt>
      <trkpt lat="60.48842" lon="7.64648">
        <ele>1221.49</ele>
        <time>2019-04-06T10:47:36Z</time>
      </trkpt>
      <trkpt lat="60.48849" lon="7.64627">
        <ele>1217.65</ele>
        <time>2019-04-06T10:47:39Z</time>
      </trkpt>
      <trkpt lat="60.48853" lon="7.64612">
        <ele>1214.28</ele>
        <time>2019-04-06T10:47:41Z</time>
      </trkpt>
      <trkpt lat="60.48859" lon="7.64587">
        <ele>1209</ele>
        <time>2019-04-06T10:47:44Z</time>
      </trkpt>
      <trkpt lat="60.48865" lon="7.64563">
        <ele>1204.67</ele>
        <time>2019-04-06T10:47:46Z</time>
      </trkpt>
      <trkpt lat="60.4887" lon="7.64538">
        <ele>1203.71</ele>
        <time>2019-04-06T10:47:48Z</time>
      </trkpt>
      <trkpt lat="60.48874" lon="7.64518">
        <ele>1202.75</ele>
        <time>2019-04-06T10:47:50Z</time>
      </trkpt>
      <trkpt lat="60.4888" lon="7.64489">
        <ele>1202.75</ele>
        <time>2019-04-06T10:47:55Z</time>
      </trkpt>
      <trkpt lat="60.48882" lon="7.64477">
        <ele>1202.75</ele>
        <time>2019-04-06T10:47:58Z</time>
      </trkpt>
      <trkpt lat="60.48886" lon="7.6446">
        <ele>1202.27</ele>
        <time>2019-04-06T10:48:10Z</time>
      </trkpt>
      <trkpt lat="60.48887" lon="7.64459">
        <ele>1201.79</ele>
        <time>2019-04-06T10:48:12Z</time>
      </trkpt>
      <trkpt lat="60.48892" lon="7.64451">
        <ele>1201.3</ele>
        <time>2019-04-06T10:48:26Z</time>
      </trkpt>
      <trkpt lat="60.48894" lon="7.6445">
        <ele>1201.3</ele>
        <time>2019-04-06T10:48:42Z</time>
      </trkpt>
      <trkpt lat="60.48894" lon="7.64453">
        <ele>1201.3</ele>
        <time>2019-04-06T10:49:03Z</time>
      </trkpt>
      <trkpt lat="60.48893" lon="7.6445">
        <ele>1200.34</ele>
        <time>2019-04-06T10:49:18Z</time>
      </trkpt>
      <trkpt lat="60.48892" lon="7.64451">
        <ele>1200.34</ele>
        <time>2019-04-06T10:49:58Z</time>
      </trkpt>
      <trkpt lat="60.48891" lon="7.6445">
        <ele>1200.34</ele>
        <time>2019-04-06T10:50:27Z</time>
      </trkpt>
      <trkpt lat="60.48891" lon="7.6445">
        <ele>1200.34</ele>
        <time>2019-04-06T10:50:53Z</time>
      </trkpt>
      <trkpt lat="60.48891" lon="7.6445">
        <ele>1200.34</ele>
        <time>2019-04-06T10:51:18Z</time>
      </trkpt>
      <trkpt lat="60.48891" lon="7.6445">
        <ele>1200.34</ele>
        <time>2019-04-06T10:51:39Z</time>
      </trkpt>
      <trkpt lat="60.48891" lon="7.6445">
        <ele>1200.34</ele>
        <time>2019-04-06T10:52:08Z</time>
      </trkpt>
      <trkpt lat="60.48891" lon="7.6445">
        <ele>1200.34</ele>
        <time>2019-04-06T10:52:36Z</time>
      </trkpt>
      <trkpt lat="60.4889" lon="7.6445">
        <ele>1200.34</ele>
        <time>2019-04-06T10:53:11Z</time>
      </trkpt>
      <trkpt lat="60.4889" lon="7.64449">
        <ele>1200.34</ele>
        <time>2019-04-06T10:53:33Z</time>
      </trkpt>
      <trkpt lat="60.4889" lon="7.64449">
        <ele>1200.34</ele>
        <time>2019-04-06T10:54:01Z</time>
      </trkpt>
      <trkpt lat="60.4889" lon="7.64449">
        <ele>1200.34</ele>
        <time>2019-04-06T10:54:26Z</time>
      </trkpt>
      <trkpt lat="60.4889" lon="7.64448">
        <ele>1200.34</ele>
        <time>2019-04-06T10:54:48Z</time>
      </trkpt>
      <trkpt lat="60.48891" lon="7.64447">
        <ele>1200.34</ele>
        <time>2019-04-06T10:55:10Z</time>
      </trkpt>
      <trkpt lat="60.4889" lon="7.64448">
        <ele>1200.34</ele>
        <time>2019-04-06T10:55:32Z</time>
      </trkpt>
      <trkpt lat="60.48891" lon="7.64448">
        <ele>1200.34</ele>
        <time>2019-04-06T10:55:55Z</time>
      </trkpt>
      <trkpt lat="60.48891" lon="7.64448">
        <ele>1199.86</ele>
        <time>2019-04-06T10:56:19Z</time>
      </trkpt>
      <trkpt lat="60.48891" lon="7.64448">
        <ele>1199.86</ele>
        <time>2019-04-06T10:56:41Z</time>
      </trkpt>
      <trkpt lat="60.48891" lon="7.64448">
        <ele>1199.86</ele>
        <time>2019-04-06T10:57:08Z</time>
      </trkpt>
      <trkpt lat="60.48892" lon="7.64447">
        <ele>1199.86</ele>
        <time>2019-04-06T10:57:31Z</time>
      </trkpt>
      <trkpt lat="60.48893" lon="7.64448">
        <ele>1199.86</ele>
        <time>2019-04-06T10:57:50Z</time>
      </trkpt>
      <trkpt lat="60.48891" lon="7.64449">
        <ele>1199.86</ele>
        <time>2019-04-06T10:58:21Z</time>
      </trkpt>
      <trkpt lat="60.4889" lon="7.64447">
        <ele>1199.86</ele>
        <time>2019-04-06T10:58:52Z</time>
      </trkpt>
      <trkpt lat="60.4889" lon="7.64447">
        <ele>1199.86</ele>
        <time>2019-04-06T10:59:21Z</time>
      </trkpt>
      <trkpt lat="60.48889" lon="7.64447">
        <ele>1199.86</ele>
        <time>2019-04-06T10:59:49Z</time>
      </trkpt>
      <trkpt lat="60.48888" lon="7.64448">
        <ele>1199.86</ele>
        <time>2019-04-06T11:00:15Z</time>
      </trkpt>
      <trkpt lat="60.48889" lon="7.64448">
        <ele>1199.86</ele>
        <time>2019-04-06T11:00:37Z</time>
      </trkpt>
      <trkpt lat="60.48889" lon="7.64448">
        <ele>1199.86</ele>
        <time>2019-04-06T11:01:05Z</time>
      </trkpt>
      <trkpt lat="60.4889" lon="7.64447">
        <ele>1199.86</ele>
        <time>2019-04-06T11:01:42Z</time>
      </trkpt>
      <trkpt lat="60.4889" lon="7.64449">
        <ele>1199.86</ele>
        <time>2019-04-06T11:02:15Z</time>
      </trkpt>
      <trkpt lat="60.48889" lon="7.64449">
        <ele>1199.86</ele>
        <time>2019-04-06T11:02:36Z</time>
      </trkpt>
      <trkpt lat="60.48891" lon="7.64447">
        <ele>1199.86</ele>
        <time>2019-04-06T11:03:10Z</time>
      </trkpt>
      <trkpt lat="60.48891" lon="7.64446">
        <ele>1199.86</ele>
        <time>2019-04-06T11:03:50Z</time>
      </trkpt>
      <trkpt lat="60.48889" lon="7.64448">
        <ele>1200.82</ele>
        <time>2019-04-06T11:04:26Z</time>
      </trkpt>
      <trkpt lat="60.48889" lon="7.64452">
        <ele>1200.82</ele>
        <time>2019-04-06T11:05:03Z</time>
      </trkpt>
      <trkpt lat="60.48889" lon="7.64451">
        <ele>1200.82</ele>
        <time>2019-04-06T11:05:14Z</time>
      </trkpt>
      <trkpt lat="60.48892" lon="7.64448">
        <ele>1201.3</ele>
        <time>2019-04-06T11:05:24Z</time>
      </trkpt>
      <trkpt lat="60.48893" lon="7.64446">
        <ele>1201.3</ele>
        <time>2019-04-06T11:05:34Z</time>
      </trkpt>
      <trkpt lat="60.48899" lon="7.6444">
        <ele>1201.3</ele>
        <time>2019-04-06T11:05:40Z</time>
      </trkpt>
      <trkpt lat="60.48918" lon="7.6441">
        <ele>1197.94</ele>
        <time>2019-04-06T11:05:51Z</time>
      </trkpt>
      <trkpt lat="60.48941" lon="7.64382">
        <ele>1194.58</ele>
        <time>2019-04-06T11:06:01Z</time>
      </trkpt>
      <trkpt lat="60.48958" lon="7.6436">
        <ele>1192.17</ele>
        <time>2019-04-06T11:06:11Z</time>
      </trkpt>
      <trkpt lat="60.48968" lon="7.64355">
        <ele>1192.17</ele>
        <time>2019-04-06T11:06:19Z</time>
      </trkpt>
      <trkpt lat="60.4897" lon="7.64356">
        <ele>1192.65</ele>
        <time>2019-04-06T11:06:21Z</time>
      </trkpt>
      <trkpt lat="60.48973" lon="7.64355">
        <ele>1192.65</ele>
        <time>2019-04-06T11:06:24Z</time>
      </trkpt>
      <trkpt lat="60.48981" lon="7.64346">
        <ele>1192.65</ele>
        <time>2019-04-06T11:06:37Z</time>
      </trkpt>
      <trkpt lat="60.4898" lon="7.64346">
        <ele>1192.65</ele>
        <time>2019-04-06T11:06:39Z</time>
      </trkpt>
      <trkpt lat="60.4898" lon="7.64352">
        <ele>1191.69</ele>
        <time>2019-04-06T11:06:51Z</time>
      </trkpt>
      <trkpt lat="60.48979" lon="7.64354">
        <ele>1191.69</ele>
        <time>2019-04-06T11:07:19Z</time>
      </trkpt>
      <trkpt lat="60.48979" lon="7.64352">
        <ele>1191.69</ele>
        <time>2019-04-06T11:07:44Z</time>
      </trkpt>
      <trkpt lat="60.48979" lon="7.64354">
        <ele>1191.69</ele>
        <time>2019-04-06T11:08:09Z</time>
      </trkpt>
      <trkpt lat="60.4898" lon="7.64354">
        <ele>1191.69</ele>
        <time>2019-04-06T11:08:33Z</time>
      </trkpt>
      <trkpt lat="60.4898" lon="7.64354">
        <ele>1191.69</ele>
        <time>2019-04-06T11:09:00Z</time>
      </trkpt>
      <trkpt lat="60.4898" lon="7.64353">
        <ele>1191.69</ele>
        <time>2019-04-06T11:09:27Z</time>
      </trkpt>
      <trkpt lat="60.4898" lon="7.64353">
        <ele>1191.69</ele>
        <time>2019-04-06T11:09:57Z</time>
      </trkpt>
      <trkpt lat="60.48981" lon="7.64351">
        <ele>1191.69</ele>
        <time>2019-04-06T11:10:16Z</time>
      </trkpt>
      <trkpt lat="60.48981" lon="7.64351">
        <ele>1191.69</ele>
        <time>2019-04-06T11:10:28Z</time>
      </trkpt>
      <trkpt lat="60.48978" lon="7.6435">
        <ele>1191.69</ele>
        <time>2019-04-06T11:10:55Z</time>
      </trkpt>
      <trkpt lat="60.48978" lon="7.64351">
        <ele>1191.69</ele>
        <time>2019-04-06T11:11:17Z</time>
      </trkpt>
      <trkpt lat="60.48978" lon="7.64352">
        <ele>1191.69</ele>
        <time>2019-04-06T11:11:44Z</time>
      </trkpt>
      <trkpt lat="60.48979" lon="7.64351">
        <ele>1191.69</ele>
        <time>2019-04-06T11:12:08Z</time>
      </trkpt>
      <trkpt lat="60.48979" lon="7.6435">
        <ele>1191.69</ele>
        <time>2019-04-06T11:12:33Z</time>
      </trkpt>
      <trkpt lat="60.48979" lon="7.64351">
        <ele>1191.69</ele>
        <time>2019-04-06T11:12:58Z</time>
      </trkpt>
      <trkpt lat="60.48978" lon="7.64352">
        <ele>1191.21</ele>
        <time>2019-04-06T11:13:27Z</time>
      </trkpt>
      <trkpt lat="60.48978" lon="7.64352">
        <ele>1191.21</ele>
        <time>2019-04-06T11:13:54Z</time>
      </trkpt>
      <trkpt lat="60.48978" lon="7.64353">
        <ele>1191.21</ele>
        <time>2019-04-06T11:14:23Z</time>
      </trkpt>
      <trkpt lat="60.48979" lon="7.64355">
        <ele>1191.21</ele>
        <time>2019-04-06T11:14:53Z</time>
      </trkpt>
      <trkpt lat="60.4898" lon="7.64357">
        <ele>1191.21</ele>
        <time>2019-04-06T11:15:22Z</time>
      </trkpt>
      <trkpt lat="60.48979" lon="7.64356">
        <ele>1191.21</ele>
        <time>2019-04-06T11:15:57Z</time>
      </trkpt>
      <trkpt lat="60.4898" lon="7.64356">
        <ele>1191.21</ele>
        <time>2019-04-06T11:16:24Z</time>
      </trkpt>
      <trkpt lat="60.48981" lon="7.64353">
        <ele>1191.69</ele>
        <time>2019-04-06T11:16:50Z</time>
      </trkpt>
      <trkpt lat="60.48981" lon="7.64354">
        <ele>1191.69</ele>
        <time>2019-04-06T11:17:26Z</time>
      </trkpt>
      <trkpt lat="60.48981" lon="7.64355">
        <ele>1191.69</ele>
        <time>2019-04-06T11:18:08Z</time>
      </trkpt>
      <trkpt lat="60.4898" lon="7.64352">
        <ele>1191.69</ele>
        <time>2019-04-06T11:18:36Z</time>
      </trkpt>
      <trkpt lat="60.48979" lon="7.64352">
        <ele>1191.69</ele>
        <time>2019-04-06T11:19:15Z</time>
      </trkpt>
      <trkpt lat="60.48978" lon="7.64352">
        <ele>1191.69</ele>
        <time>2019-04-06T11:19:30Z</time>
      </trkpt>
      <trkpt lat="60.48979" lon="7.64351">
        <ele>1191.21</ele>
        <time>2019-04-06T11:19:42Z</time>
      </trkpt>
      <trkpt lat="60.48979" lon="7.6435">
        <ele>1191.21</ele>
        <time>2019-04-06T11:20:17Z</time>
      </trkpt>
      <trkpt lat="60.4898" lon="7.64353">
        <ele>1191.21</ele>
        <time>2019-04-06T11:20:46Z</time>
      </trkpt>
      <trkpt lat="60.4898" lon="7.64354">
        <ele>1191.21</ele>
        <time>2019-04-06T11:21:17Z</time>
      </trkpt>
      <trkpt lat="60.48981" lon="7.64353">
        <ele>1191.21</ele>
        <time>2019-04-06T11:21:51Z</time>
      </trkpt>
      <trkpt lat="60.4898" lon="7.64353">
        <ele>1191.21</ele>
        <time>2019-04-06T11:22:06Z</time>
      </trkpt>
      <trkpt lat="60.48981" lon="7.64353">
        <ele>1191.21</ele>
        <time>2019-04-06T11:22:31Z</time>
      </trkpt>
      <trkpt lat="60.48981" lon="7.64351">
        <ele>1192.17</ele>
        <time>2019-04-06T11:22:54Z</time>
      </trkpt>
      <trkpt lat="60.48982" lon="7.64353">
        <ele>1192.17</ele>
        <time>2019-04-06T11:23:35Z</time>
      </trkpt>
      <trkpt lat="60.48981" lon="7.64354">
        <ele>1192.17</ele>
        <time>2019-04-06T11:23:49Z</time>
      </trkpt>
      <trkpt lat="60.48981" lon="7.64353">
        <ele>1192.17</ele>
        <time>2019-04-06T11:23:51Z</time>
      </trkpt>
      <trkpt lat="60.48983" lon="7.64348">
        <ele>1192.17</ele>
        <time>2019-04-06T11:24:04Z</time>
      </trkpt>
      <trkpt lat="60.48982" lon="7.64346">
        <ele>1192.17</ele>
        <time>2019-04-06T11:24:26Z</time>
      </trkpt>
      <trkpt lat="60.48983" lon="7.64344">
        <ele>1193.13</ele>
        <time>2019-04-06T11:24:45Z</time>
      </trkpt>
      <trkpt lat="60.48985" lon="7.64342">
        <ele>1191.69</ele>
        <time>2019-04-06T11:24:58Z</time>
      </trkpt>
      <trkpt lat="60.4899" lon="7.64326">
        <ele>1192.65</ele>
        <time>2019-04-06T11:25:23Z</time>
      </trkpt>
      <trkpt lat="60.48991" lon="7.64318">
        <ele>1192.65</ele>
        <time>2019-04-06T11:25:36Z</time>
      </trkpt>
      <trkpt lat="60.48991" lon="7.64316">
        <ele>1193.13</ele>
        <time>2019-04-06T11:25:59Z</time>
      </trkpt>
      <trkpt lat="60.49001" lon="7.64294">
        <ele>1191.69</ele>
        <time>2019-04-06T11:26:10Z</time>
      </trkpt>
      <trkpt lat="60.49019" lon="7.64249">
        <ele>1189.77</ele>
        <time>2019-04-06T11:26:23Z</time>
      </trkpt>
      <trkpt lat="60.49033" lon="7.64207">
        <ele>1188.81</ele>
        <time>2019-04-06T11:26:37Z</time>
      </trkpt>
      <trkpt lat="60.49045" lon="7.64175">
        <ele>1188.81</ele>
        <time>2019-04-06T11:26:52Z</time>
      </trkpt>
      <trkpt lat="60.49053" lon="7.64147">
        <ele>1188.81</ele>
        <time>2019-04-06T11:27:06Z</time>
      </trkpt>
      <trkpt lat="60.49064" lon="7.64121">
        <ele>1188.81</ele>
        <time>2019-04-06T11:27:20Z</time>
      </trkpt>
      <trkpt lat="60.49065" lon="7.64118">
        <ele>1188.81</ele>
        <time>2019-04-06T11:27:21Z</time>
      </trkpt>
      <trkpt lat="60.49075" lon="7.64092">
        <ele>1188.81</ele>
        <time>2019-04-06T11:27:35Z</time>
      </trkpt>
      <trkpt lat="60.49083" lon="7.64069">
        <ele>1188.81</ele>
        <time>2019-04-06T11:27:47Z</time>
      </trkpt>
      <trkpt lat="60.4909" lon="7.6405">
        <ele>1188.81</ele>
        <time>2019-04-06T11:28:00Z</time>
      </trkpt>
      <trkpt lat="60.4909" lon="7.64048">
        <ele>1188.81</ele>
        <time>2019-04-06T11:28:08Z</time>
      </trkpt>
      <trkpt lat="60.49093" lon="7.64042">
        <ele>1188.81</ele>
        <time>2019-04-06T11:28:12Z</time>
      </trkpt>
      <trkpt lat="60.49096" lon="7.64025">
        <ele>1188.81</ele>
        <time>2019-04-06T11:28:27Z</time>
      </trkpt>
      <trkpt lat="60.49097" lon="7.64021">
        <ele>1189.77</ele>
        <time>2019-04-06T11:28:48Z</time>
      </trkpt>
      <trkpt lat="60.49099" lon="7.64009">
        <ele>1186.4</ele>
        <time>2019-04-06T11:28:55Z</time>
      </trkpt>
      <trkpt lat="60.49099" lon="7.6401">
        <ele>1190.73</ele>
        <time>2019-04-06T11:28:56Z</time>
      </trkpt>
      <trkpt lat="60.49106" lon="7.63988">
        <ele>1188.81</ele>
        <time>2019-04-06T11:29:10Z</time>
      </trkpt>
      <trkpt lat="60.49121" lon="7.63956">
        <ele>1188.81</ele>
        <time>2019-04-06T11:29:27Z</time>
      </trkpt>
      <trkpt lat="60.49127" lon="7.6394">
        <ele>1188.81</ele>
        <time>2019-04-06T11:29:35Z</time>
      </trkpt>
      <trkpt lat="60.49131" lon="7.63925">
        <ele>1188.81</ele>
        <time>2019-04-06T11:29:40Z</time>
      </trkpt>
      <trkpt lat="60.49143" lon="7.63885">
        <ele>1188.81</ele>
        <time>2019-04-06T11:29:57Z</time>
      </trkpt>
      <trkpt lat="60.49155" lon="7.63851">
        <ele>1188.81</ele>
        <time>2019-04-06T11:30:13Z</time>
      </trkpt>
      <trkpt lat="60.49164" lon="7.63829">
        <ele>1188.81</ele>
        <time>2019-04-06T11:30:26Z</time>
      </trkpt>
      <trkpt lat="60.49174" lon="7.638">
        <ele>1188.81</ele>
        <time>2019-04-06T11:30:40Z</time>
      </trkpt>
      <trkpt lat="60.49185" lon="7.63771">
        <ele>1188.81</ele>
        <time>2019-04-06T11:30:55Z</time>
      </trkpt>
      <trkpt lat="60.49198" lon="7.63737">
        <ele>1189.77</ele>
        <time>2019-04-06T11:31:12Z</time>
      </trkpt>
      <trkpt lat="60.492" lon="7.63734">
        <ele>1189.77</ele>
        <time>2019-04-06T11:31:15Z</time>
      </trkpt>
      <trkpt lat="60.49205" lon="7.63721">
        <ele>1189.77</ele>
        <time>2019-04-06T11:31:22Z</time>
      </trkpt>
      <trkpt lat="60.49216" lon="7.63688">
        <ele>1189.77</ele>
        <time>2019-04-06T11:31:39Z</time>
      </trkpt>
      <trkpt lat="60.49226" lon="7.63663">
        <ele>1189.77</ele>
        <time>2019-04-06T11:31:53Z</time>
      </trkpt>
      <trkpt lat="60.49235" lon="7.63639">
        <ele>1189.77</ele>
        <time>2019-04-06T11:32:07Z</time>
      </trkpt>
      <trkpt lat="60.49245" lon="7.6361">
        <ele>1189.77</ele>
        <time>2019-04-06T11:32:22Z</time>
      </trkpt>
      <trkpt lat="60.49254" lon="7.63586">
        <ele>1189.77</ele>
        <time>2019-04-06T11:32:35Z</time>
      </trkpt>
      <trkpt lat="60.49264" lon="7.63554">
        <ele>1189.77</ele>
        <time>2019-04-06T11:32:51Z</time>
      </trkpt>
      <trkpt lat="60.49274" lon="7.63524">
        <ele>1189.77</ele>
        <time>2019-04-06T11:33:07Z</time>
      </trkpt>
      <trkpt lat="60.49285" lon="7.63495">
        <ele>1189.77</ele>
        <time>2019-04-06T11:33:23Z</time>
      </trkpt>
      <trkpt lat="60.49294" lon="7.6347">
        <ele>1189.77</ele>
        <time>2019-04-06T11:33:36Z</time>
      </trkpt>
      <trkpt lat="60.49305" lon="7.63436">
        <ele>1189.77</ele>
        <time>2019-04-06T11:33:53Z</time>
      </trkpt>
      <trkpt lat="60.49307" lon="7.63432">
        <ele>1189.77</ele>
        <time>2019-04-06T11:33:55Z</time>
      </trkpt>
      <trkpt lat="60.4931" lon="7.63426">
        <ele>1189.77</ele>
        <time>2019-04-06T11:33:59Z</time>
      </trkpt>
      <trkpt lat="60.49321" lon="7.63398">
        <ele>1189.29</ele>
        <time>2019-04-06T11:34:14Z</time>
      </trkpt>
      <trkpt lat="60.49332" lon="7.63371">
        <ele>1189.29</ele>
        <time>2019-04-06T11:34:28Z</time>
      </trkpt>
      <trkpt lat="60.49343" lon="7.63341">
        <ele>1189.29</ele>
        <time>2019-04-06T11:34:44Z</time>
      </trkpt>
      <trkpt lat="60.49353" lon="7.63313">
        <ele>1189.29</ele>
        <time>2019-04-06T11:35:00Z</time>
      </trkpt>
      <trkpt lat="60.49361" lon="7.63288">
        <ele>1189.29</ele>
        <time>2019-04-06T11:35:13Z</time>
      </trkpt>
      <trkpt lat="60.49372" lon="7.63259">
        <ele>1189.29</ele>
        <time>2019-04-06T11:35:28Z</time>
      </trkpt>
      <trkpt lat="60.49375" lon="7.6325">
        <ele>1189.29</ele>
        <time>2019-04-06T11:35:33Z</time>
      </trkpt>
      <trkpt lat="60.49386" lon="7.63223">
        <ele>1189.29</ele>
        <time>2019-04-06T11:35:47Z</time>
      </trkpt>
      <trkpt lat="60.49395" lon="7.63198">
        <ele>1189.29</ele>
        <time>2019-04-06T11:36:01Z</time>
      </trkpt>
      <trkpt lat="60.49404" lon="7.63173">
        <ele>1189.29</ele>
        <time>2019-04-06T11:36:15Z</time>
      </trkpt>
      <trkpt lat="60.49415" lon="7.63144">
        <ele>1189.29</ele>
        <time>2019-04-06T11:36:31Z</time>
      </trkpt>
      <trkpt lat="60.49424" lon="7.63118">
        <ele>1189.77</ele>
        <time>2019-04-06T11:36:45Z</time>
      </trkpt>
      <trkpt lat="60.49432" lon="7.63095">
        <ele>1189.77</ele>
        <time>2019-04-06T11:36:58Z</time>
      </trkpt>
      <trkpt lat="60.49442" lon="7.63067">
        <ele>1189.77</ele>
        <time>2019-04-06T11:37:13Z</time>
      </trkpt>
      <trkpt lat="60.49451" lon="7.63042">
        <ele>1188.33</ele>
        <time>2019-04-06T11:37:27Z</time>
      </trkpt>
      <trkpt lat="60.49456" lon="7.6303">
        <ele>1189.29</ele>
        <time>2019-04-06T11:37:42Z</time>
      </trkpt>
      <trkpt lat="60.49466" lon="7.63004">
        <ele>1189.29</ele>
        <time>2019-04-06T11:37:56Z</time>
      </trkpt>
      <trkpt lat="60.49476" lon="7.62976">
        <ele>1188.81</ele>
        <time>2019-04-06T11:38:12Z</time>
      </trkpt>
      <trkpt lat="60.49485" lon="7.62951">
        <ele>1188.33</ele>
        <time>2019-04-06T11:38:26Z</time>
      </trkpt>
      <trkpt lat="60.49496" lon="7.62926">
        <ele>1188.33</ele>
        <time>2019-04-06T11:38:41Z</time>
      </trkpt>
      <trkpt lat="60.49503" lon="7.62905">
        <ele>1188.33</ele>
        <time>2019-04-06T11:38:54Z</time>
      </trkpt>
      <trkpt lat="60.49512" lon="7.62882">
        <ele>1189.29</ele>
        <time>2019-04-06T11:39:07Z</time>
      </trkpt>
      <trkpt lat="60.4952" lon="7.62856">
        <ele>1189.29</ele>
        <time>2019-04-06T11:39:21Z</time>
      </trkpt>
      <trkpt lat="60.49523" lon="7.62847">
        <ele>1188.33</ele>
        <time>2019-04-06T11:39:25Z</time>
      </trkpt>
      <trkpt lat="60.49531" lon="7.62825">
        <ele>1188.33</ele>
        <time>2019-04-06T11:39:38Z</time>
      </trkpt>
      <trkpt lat="60.49548" lon="7.62809">
        <ele>1187.37</ele>
        <time>2019-04-06T11:39:52Z</time>
      </trkpt>
      <trkpt lat="60.49565" lon="7.62792">
        <ele>1187.37</ele>
        <time>2019-04-06T11:40:07Z</time>
      </trkpt>
      <trkpt lat="60.4958" lon="7.62774">
        <ele>1187.37</ele>
        <time>2019-04-06T11:40:23Z</time>
      </trkpt>
      <trkpt lat="60.49594" lon="7.62756">
        <ele>1187.37</ele>
        <time>2019-04-06T11:40:37Z</time>
      </trkpt>
      <trkpt lat="60.49607" lon="7.62736">
        <ele>1187.37</ele>
        <time>2019-04-06T11:40:53Z</time>
      </trkpt>
      <trkpt lat="60.49621" lon="7.62714">
        <ele>1187.37</ele>
        <time>2019-04-06T11:41:10Z</time>
      </trkpt>
      <trkpt lat="60.49626" lon="7.62706">
        <ele>1188.81</ele>
        <time>2019-04-06T11:41:16Z</time>
      </trkpt>
      <trkpt lat="60.4964" lon="7.62683">
        <ele>1188.81</ele>
        <time>2019-04-06T11:41:31Z</time>
      </trkpt>
      <trkpt lat="60.49655" lon="7.62657">
        <ele>1189.29</ele>
        <time>2019-04-06T11:41:50Z</time>
      </trkpt>
      <trkpt lat="60.49666" lon="7.62634">
        <ele>1189.77</ele>
        <time>2019-04-06T11:42:04Z</time>
      </trkpt>
      <trkpt lat="60.49675" lon="7.6262">
        <ele>1189.77</ele>
        <time>2019-04-06T11:42:15Z</time>
      </trkpt>
      <trkpt lat="60.49684" lon="7.62601">
        <ele>1191.21</ele>
        <time>2019-04-06T11:42:29Z</time>
      </trkpt>
      <trkpt lat="60.49694" lon="7.62577">
        <ele>1192.17</ele>
        <time>2019-04-06T11:42:45Z</time>
      </trkpt>
      <trkpt lat="60.49701" lon="7.62554">
        <ele>1193.61</ele>
        <time>2019-04-06T11:42:59Z</time>
      </trkpt>
      <trkpt lat="60.49706" lon="7.62533">
        <ele>1196.02</ele>
        <time>2019-04-06T11:43:14Z</time>
      </trkpt>
      <trkpt lat="60.49713" lon="7.6251">
        <ele>1196.98</ele>
        <time>2019-04-06T11:43:30Z</time>
      </trkpt>
      <trkpt lat="60.49716" lon="7.62488">
        <ele>1199.38</ele>
        <time>2019-04-06T11:43:45Z</time>
      </trkpt>
      <trkpt lat="60.49716" lon="7.62467">
        <ele>1201.79</ele>
        <time>2019-04-06T11:43:58Z</time>
      </trkpt>
      <trkpt lat="60.49714" lon="7.62444">
        <ele>1202.75</ele>
        <time>2019-04-06T11:44:14Z</time>
      </trkpt>
      <trkpt lat="60.49713" lon="7.62435">
        <ele>1203.71</ele>
        <time>2019-04-06T11:44:19Z</time>
      </trkpt>
      <trkpt lat="60.49712" lon="7.62416">
        <ele>1205.15</ele>
        <time>2019-04-06T11:44:32Z</time>
      </trkpt>
      <trkpt lat="60.49711" lon="7.62401">
        <ele>1204.19</ele>
        <time>2019-04-06T11:44:44Z</time>
      </trkpt>
      <trkpt lat="60.49711" lon="7.62397">
        <ele>1205.15</ele>
        <time>2019-04-06T11:44:50Z</time>
      </trkpt>
      <trkpt lat="60.4971" lon="7.62376">
        <ele>1207.55</ele>
        <time>2019-04-06T11:45:04Z</time>
      </trkpt>
      <trkpt lat="60.4971" lon="7.62366">
        <ele>1208.03</ele>
        <time>2019-04-06T11:45:10Z</time>
      </trkpt>
      <trkpt lat="60.49717" lon="7.62343">
        <ele>1209</ele>
        <time>2019-04-06T11:45:27Z</time>
      </trkpt>
      <trkpt lat="60.49723" lon="7.62321">
        <ele>1210.92</ele>
        <time>2019-04-06T11:45:45Z</time>
      </trkpt>
      <trkpt lat="60.49727" lon="7.62303">
        <ele>1213.8</ele>
        <time>2019-04-06T11:46:02Z</time>
      </trkpt>
      <trkpt lat="60.49723" lon="7.62285">
        <ele>1215.72</ele>
        <time>2019-04-06T11:46:18Z</time>
      </trkpt>
      <trkpt lat="60.49718" lon="7.62262">
        <ele>1217.65</ele>
        <time>2019-04-06T11:46:34Z</time>
      </trkpt>
      <trkpt lat="60.49716" lon="7.62242">
        <ele>1218.61</ele>
        <time>2019-04-06T11:46:48Z</time>
      </trkpt>
      <trkpt lat="60.49716" lon="7.62217">
        <ele>1220.05</ele>
        <time>2019-04-06T11:47:03Z</time>
      </trkpt>
      <trkpt lat="60.49717" lon="7.62212">
        <ele>1219.57</ele>
        <time>2019-04-06T11:47:21Z</time>
      </trkpt>
      <trkpt lat="60.49717" lon="7.62211">
        <ele>1219.57</ele>
        <time>2019-04-06T11:47:22Z</time>
      </trkpt>
      <trkpt lat="60.49724" lon="7.62186">
        <ele>1220.05</ele>
        <time>2019-04-06T11:47:37Z</time>
      </trkpt>
      <trkpt lat="60.49732" lon="7.62159">
        <ele>1220.05</ele>
        <time>2019-04-06T11:47:53Z</time>
      </trkpt>
      <trkpt lat="60.49741" lon="7.62138">
        <ele>1221.01</ele>
        <time>2019-04-06T11:48:11Z</time>
      </trkpt>
      <trkpt lat="60.4975" lon="7.62116">
        <ele>1223.42</ele>
        <time>2019-04-06T11:48:28Z</time>
      </trkpt>
      <trkpt lat="60.49756" lon="7.62098">
        <ele>1225.34</ele>
        <time>2019-04-06T11:48:43Z</time>
      </trkpt>
      <trkpt lat="60.49765" lon="7.62074">
        <ele>1227.26</ele>
        <time>2019-04-06T11:48:59Z</time>
      </trkpt>
      <trkpt lat="60.49773" lon="7.62043">
        <ele>1228.22</ele>
        <time>2019-04-06T11:49:18Z</time>
      </trkpt>
      <trkpt lat="60.49783" lon="7.62018">
        <ele>1228.22</ele>
        <time>2019-04-06T11:49:33Z</time>
      </trkpt>
      <trkpt lat="60.49792" lon="7.61999">
        <ele>1228.22</ele>
        <time>2019-04-06T11:49:46Z</time>
      </trkpt>
      <trkpt lat="60.49805" lon="7.61971">
        <ele>1228.7</ele>
        <time>2019-04-06T11:50:04Z</time>
      </trkpt>
      <trkpt lat="60.49817" lon="7.61948">
        <ele>1229.66</ele>
        <time>2019-04-06T11:50:21Z</time>
      </trkpt>
      <trkpt lat="60.49829" lon="7.61925">
        <ele>1229.66</ele>
        <time>2019-04-06T11:50:37Z</time>
      </trkpt>
      <trkpt lat="60.49837" lon="7.61915">
        <ele>1228.22</ele>
        <time>2019-04-06T11:50:51Z</time>
      </trkpt>
      <trkpt lat="60.49839" lon="7.61912">
        <ele>1228.22</ele>
        <time>2019-04-06T11:51:16Z</time>
      </trkpt>
      <trkpt lat="60.49855" lon="7.61915">
        <ele>1227.74</ele>
        <time>2019-04-06T11:51:30Z</time>
      </trkpt>
      <trkpt lat="60.49856" lon="7.61915">
        <ele>1229.66</ele>
        <time>2019-04-06T11:51:33Z</time>
      </trkpt>
      <trkpt lat="60.49855" lon="7.61915">
        <ele>1228.22</ele>
        <time>2019-04-06T11:51:50Z</time>
      </trkpt>
      <trkpt lat="60.49856" lon="7.61915">
        <ele>1230.62</ele>
        <time>2019-04-06T11:51:59Z</time>
      </trkpt>
      <trkpt lat="60.49857" lon="7.61913">
        <ele>1228.7</ele>
        <time>2019-04-06T11:52:02Z</time>
      </trkpt>
      <trkpt lat="60.49856" lon="7.61913">
        <ele>1228.7</ele>
        <time>2019-04-06T11:52:33Z</time>
      </trkpt>
      <trkpt lat="60.49856" lon="7.61914">
        <ele>1228.7</ele>
        <time>2019-04-06T11:53:11Z</time>
      </trkpt>
      <trkpt lat="60.49856" lon="7.61914">
        <ele>1228.7</ele>
        <time>2019-04-06T11:53:52Z</time>
      </trkpt>
      <trkpt lat="60.49857" lon="7.61913">
        <ele>1228.7</ele>
        <time>2019-04-06T11:54:31Z</time>
      </trkpt>
      <trkpt lat="60.49857" lon="7.61914">
        <ele>1228.22</ele>
        <time>2019-04-06T11:54:49Z</time>
      </trkpt>
      <trkpt lat="60.49856" lon="7.61916">
        <ele>1228.22</ele>
        <time>2019-04-06T11:55:08Z</time>
      </trkpt>
      <trkpt lat="60.49857" lon="7.61916">
        <ele>1228.22</ele>
        <time>2019-04-06T11:55:43Z</time>
      </trkpt>
      <trkpt lat="60.49857" lon="7.61917">
        <ele>1228.22</ele>
        <time>2019-04-06T11:56:24Z</time>
      </trkpt>
      <trkpt lat="60.49856" lon="7.61916">
        <ele>1228.22</ele>
        <time>2019-04-06T11:56:52Z</time>
      </trkpt>
      <trkpt lat="60.49857" lon="7.61916">
        <ele>1228.22</ele>
        <time>2019-04-06T11:57:24Z</time>
      </trkpt>
      <trkpt lat="60.49857" lon="7.61917">
        <ele>1228.22</ele>
        <time>2019-04-06T11:58:00Z</time>
      </trkpt>
      <trkpt lat="60.49858" lon="7.61918">
        <ele>1228.22</ele>
        <time>2019-04-06T11:58:31Z</time>
      </trkpt>
      <trkpt lat="60.49857" lon="7.61919">
        <ele>1228.22</ele>
        <time>2019-04-06T11:59:09Z</time>
      </trkpt>
      <trkpt lat="60.49856" lon="7.61918">
        <ele>1228.22</ele>
        <time>2019-04-06T11:59:34Z</time>
      </trkpt>
      <trkpt lat="60.49856" lon="7.61917">
        <ele>1228.22</ele>
        <time>2019-04-06T12:00:05Z</time>
      </trkpt>
      <trkpt lat="60.49857" lon="7.61917">
        <ele>1228.22</ele>
        <time>2019-04-06T12:00:37Z</time>
      </trkpt>
      <trkpt lat="60.49856" lon="7.61918">
        <ele>1228.22</ele>
        <time>2019-04-06T12:01:08Z</time>
      </trkpt>
      <trkpt lat="60.49856" lon="7.61917">
        <ele>1228.22</ele>
        <time>2019-04-06T12:01:41Z</time>
      </trkpt>
      <trkpt lat="60.49856" lon="7.61917">
        <ele>1228.22</ele>
        <time>2019-04-06T12:02:09Z</time>
      </trkpt>
      <trkpt lat="60.49856" lon="7.61917">
        <ele>1228.22</ele>
        <time>2019-04-06T12:02:44Z</time>
      </trkpt>
      <trkpt lat="60.49857" lon="7.61917">
        <ele>1228.22</ele>
        <time>2019-04-06T12:03:22Z</time>
      </trkpt>
      <trkpt lat="60.49857" lon="7.61918">
        <ele>1228.22</ele>
        <time>2019-04-06T12:03:40Z</time>
      </trkpt>
      <trkpt lat="60.49854" lon="7.61918">
        <ele>1229.66</ele>
        <time>2019-04-06T12:03:42Z</time>
      </trkpt>
      <trkpt lat="60.49855" lon="7.61915">
        <ele>1227.74</ele>
        <time>2019-04-06T12:03:46Z</time>
      </trkpt>
      <trkpt lat="60.49856" lon="7.61916">
        <ele>1228.7</ele>
        <time>2019-04-06T12:04:06Z</time>
      </trkpt>
      <trkpt lat="60.49857" lon="7.61915">
        <ele>1228.7</ele>
        <time>2019-04-06T12:04:25Z</time>
      </trkpt>
      <trkpt lat="60.49859" lon="7.61916">
        <ele>1229.18</ele>
        <time>2019-04-06T12:04:39Z</time>
      </trkpt>
      <trkpt lat="60.49861" lon="7.61913">
        <ele>1229.18</ele>
        <time>2019-04-06T12:04:42Z</time>
      </trkpt>
      <trkpt lat="60.49862" lon="7.61911">
        <ele>1229.18</ele>
        <time>2019-04-06T12:04:45Z</time>
      </trkpt>
      <trkpt lat="60.49863" lon="7.61909">
        <ele>1227.26</ele>
        <time>2019-04-06T12:04:55Z</time>
      </trkpt>
      <trkpt lat="60.49864" lon="7.61911">
        <ele>1230.62</ele>
        <time>2019-04-06T12:05:00Z</time>
      </trkpt>
      <trkpt lat="60.49862" lon="7.61907">
        <ele>1230.62</ele>
        <time>2019-04-06T12:05:28Z</time>
      </trkpt>
      <trkpt lat="60.49865" lon="7.61903">
        <ele>1230.62</ele>
        <time>2019-04-06T12:05:47Z</time>
      </trkpt>
      <trkpt lat="60.49865" lon="7.61901">
        <ele>1231.11</ele>
        <time>2019-04-06T12:06:05Z</time>
      </trkpt>
      <trkpt lat="60.49867" lon="7.61905">
        <ele>1230.62</ele>
        <time>2019-04-06T12:06:22Z</time>
      </trkpt>
      <trkpt lat="60.49872" lon="7.61909">
        <ele>1230.62</ele>
        <time>2019-04-06T12:06:35Z</time>
      </trkpt>
      <trkpt lat="60.49873" lon="7.6191">
        <ele>1230.62</ele>
        <time>2019-04-06T12:06:42Z</time>
      </trkpt>
      <trkpt lat="60.49893" lon="7.61909">
        <ele>1228.7</ele>
        <time>2019-04-06T12:06:52Z</time>
      </trkpt>
      <trkpt lat="60.49917" lon="7.61886">
        <ele>1230.62</ele>
        <time>2019-04-06T12:07:00Z</time>
      </trkpt>
      <trkpt lat="60.49936" lon="7.61861">
        <ele>1233.03</ele>
        <time>2019-04-06T12:07:06Z</time>
      </trkpt>
      <trkpt lat="60.49945" lon="7.61853">
        <ele>1233.03</ele>
        <time>2019-04-06T12:07:09Z</time>
      </trkpt>
      <trkpt lat="60.49972" lon="7.61841">
        <ele>1234.95</ele>
        <time>2019-04-06T12:07:18Z</time>
      </trkpt>
      <trkpt lat="60.49989" lon="7.61829">
        <ele>1232.55</ele>
        <time>2019-04-06T12:07:22Z</time>
      </trkpt>
      <trkpt lat="60.49999" lon="7.61819">
        <ele>1233.99</ele>
        <time>2019-04-06T12:07:25Z</time>
      </trkpt>
      <trkpt lat="60.50002" lon="7.61816">
        <ele>1233.99</ele>
        <time>2019-04-06T12:07:26Z</time>
      </trkpt>
      <trkpt lat="60.50014" lon="7.61805">
        <ele>1232.55</ele>
        <time>2019-04-06T12:07:29Z</time>
      </trkpt>
      <trkpt lat="60.50027" lon="7.61796">
        <ele>1231.11</ele>
        <time>2019-04-06T12:07:32Z</time>
      </trkpt>
      <trkpt lat="60.50052" lon="7.61779">
        <ele>1231.11</ele>
        <time>2019-04-06T12:07:37Z</time>
      </trkpt>
      <trkpt lat="60.50063" lon="7.61772">
        <ele>1229.66</ele>
        <time>2019-04-06T12:07:39Z</time>
      </trkpt>
      <trkpt lat="60.50071" lon="7.61769">
        <ele>1234.47</ele>
        <time>2019-04-06T12:07:41Z</time>
      </trkpt>
      <trkpt lat="60.50076" lon="7.61768">
        <ele>1234.47</ele>
        <time>2019-04-06T12:07:42Z</time>
      </trkpt>
      <trkpt lat="60.50081" lon="7.61765">
        <ele>1234.47</ele>
        <time>2019-04-06T12:07:43Z</time>
      </trkpt>
      <trkpt lat="60.50097" lon="7.61752">
        <ele>1237.83</ele>
        <time>2019-04-06T12:07:47Z</time>
      </trkpt>
      <trkpt lat="60.50117" lon="7.61745">
        <ele>1241.2</ele>
        <time>2019-04-06T12:07:53Z</time>
      </trkpt>
      <trkpt lat="60.50125" lon="7.61742">
        <ele>1243.12</ele>
        <time>2019-04-06T12:07:56Z</time>
      </trkpt>
      <trkpt lat="60.50142" lon="7.61736">
        <ele>1245.53</ele>
        <time>2019-04-06T12:08:01Z</time>
      </trkpt>
      <trkpt lat="60.50158" lon="7.61727">
        <ele>1245.53</ele>
        <time>2019-04-06T12:08:05Z</time>
      </trkpt>
      <trkpt lat="60.50174" lon="7.61707">
        <ele>1246.01</ele>
        <time>2019-04-06T12:08:10Z</time>
      </trkpt>
      <trkpt lat="60.50184" lon="7.61701">
        <ele>1247.45</ele>
        <time>2019-04-06T12:08:13Z</time>
      </trkpt>
      <trkpt lat="60.50214" lon="7.61671">
        <ele>1247.45</ele>
        <time>2019-04-06T12:08:21Z</time>
      </trkpt>
      <trkpt lat="60.50237" lon="7.61648">
        <ele>1246.49</ele>
        <time>2019-04-06T12:08:26Z</time>
      </trkpt>
      <trkpt lat="60.50241" lon="7.61641">
        <ele>1246.49</ele>
        <time>2019-04-06T12:08:27Z</time>
      </trkpt>
      <trkpt lat="60.50254" lon="7.61621">
        <ele>1249.37</ele>
        <time>2019-04-06T12:08:31Z</time>
      </trkpt>
      <trkpt lat="60.50258" lon="7.61617">
        <ele>1249.37</ele>
        <time>2019-04-06T12:08:32Z</time>
      </trkpt>
      <trkpt lat="60.50295" lon="7.61575">
        <ele>1251.29</ele>
        <time>2019-04-06T12:08:43Z</time>
      </trkpt>
      <trkpt lat="60.503" lon="7.61572">
        <ele>1251.29</ele>
        <time>2019-04-06T12:08:44Z</time>
      </trkpt>
      <trkpt lat="60.50315" lon="7.61569">
        <ele>1252.74</ele>
        <time>2019-04-06T12:08:47Z</time>
      </trkpt>
      <trkpt lat="60.50321" lon="7.61566">
        <ele>1251.29</ele>
        <time>2019-04-06T12:08:48Z</time>
      </trkpt>
      <trkpt lat="60.50363" lon="7.61565">
        <ele>1252.74</ele>
        <time>2019-04-06T12:08:55Z</time>
      </trkpt>
      <trkpt lat="60.50387" lon="7.61558">
        <ele>1249.37</ele>
        <time>2019-04-06T12:08:58Z</time>
      </trkpt>
      <trkpt lat="60.50395" lon="7.61555">
        <ele>1249.37</ele>
        <time>2019-04-06T12:08:59Z</time>
      </trkpt>
      <trkpt lat="60.5043" lon="7.61542">
        <ele>1254.18</ele>
        <time>2019-04-06T12:09:04Z</time>
      </trkpt>
      <trkpt lat="60.50448" lon="7.61532">
        <ele>1258.5</ele>
        <time>2019-04-06T12:09:08Z</time>
      </trkpt>
      <trkpt lat="60.50457" lon="7.61523">
        <ele>1260.43</ele>
        <time>2019-04-06T12:09:11Z</time>
      </trkpt>
      <trkpt lat="60.50462" lon="7.61518">
        <ele>1260.43</ele>
        <time>2019-04-06T12:09:13Z</time>
      </trkpt>
      <trkpt lat="60.50469" lon="7.61517">
        <ele>1262.35</ele>
        <time>2019-04-06T12:09:16Z</time>
      </trkpt>
      <trkpt lat="60.50485" lon="7.61503">
        <ele>1263.31</ele>
        <time>2019-04-06T12:09:23Z</time>
      </trkpt>
      <trkpt lat="60.5049" lon="7.61501">
        <ele>1264.75</ele>
        <time>2019-04-06T12:09:26Z</time>
      </trkpt>
      <trkpt lat="60.50499" lon="7.6149">
        <ele>1265.71</ele>
        <time>2019-04-06T12:09:32Z</time>
      </trkpt>
      <trkpt lat="60.50517" lon="7.61487">
        <ele>1269.08</ele>
        <time>2019-04-06T12:09:42Z</time>
      </trkpt>
      <trkpt lat="60.50524" lon="7.61476">
        <ele>1267.16</ele>
        <time>2019-04-06T12:09:45Z</time>
      </trkpt>
      <trkpt lat="60.50557" lon="7.61435">
        <ele>1267.16</ele>
        <time>2019-04-06T12:09:56Z</time>
      </trkpt>
      <trkpt lat="60.50567" lon="7.61423">
        <ele>1265.23</ele>
        <time>2019-04-06T12:09:58Z</time>
      </trkpt>
      <trkpt lat="60.50602" lon="7.61396">
        <ele>1268.6</ele>
        <time>2019-04-06T12:10:05Z</time>
      </trkpt>
      <trkpt lat="60.50607" lon="7.61396">
        <ele>1268.6</ele>
        <time>2019-04-06T12:10:06Z</time>
      </trkpt>
      <trkpt lat="60.50622" lon="7.61387">
        <ele>1270.04</ele>
        <time>2019-04-06T12:10:10Z</time>
      </trkpt>
      <trkpt lat="60.50637" lon="7.6138">
        <ele>1272.44</ele>
        <time>2019-04-06T12:10:16Z</time>
      </trkpt>
      <trkpt lat="60.50655" lon="7.61368">
        <ele>1273.88</ele>
        <time>2019-04-06T12:10:25Z</time>
      </trkpt>
      <trkpt lat="60.50658" lon="7.61368">
        <ele>1274.36</ele>
        <time>2019-04-06T12:10:29Z</time>
      </trkpt>
      <trkpt lat="60.50672" lon="7.61365">
        <ele>1274.36</ele>
        <time>2019-04-06T12:10:35Z</time>
      </trkpt>
      <trkpt lat="60.50692" lon="7.61351">
        <ele>1275.33</ele>
        <time>2019-04-06T12:10:42Z</time>
      </trkpt>
      <trkpt lat="60.50703" lon="7.61337">
        <ele>1275.33</ele>
        <time>2019-04-06T12:10:45Z</time>
      </trkpt>
      <trkpt lat="60.50716" lon="7.61328">
        <ele>1276.29</ele>
        <time>2019-04-06T12:10:48Z</time>
      </trkpt>
      <trkpt lat="60.50735" lon="7.61312">
        <ele>1277.73</ele>
        <time>2019-04-06T12:10:53Z</time>
      </trkpt>
      <trkpt lat="60.50738" lon="7.61308">
        <ele>1277.73</ele>
        <time>2019-04-06T12:10:54Z</time>
      </trkpt>
      <trkpt lat="60.50751" lon="7.61301">
        <ele>1282.06</ele>
        <time>2019-04-06T12:11:00Z</time>
      </trkpt>
      <trkpt lat="60.5076" lon="7.613">
        <ele>1282.54</ele>
        <time>2019-04-06T12:11:04Z</time>
      </trkpt>
      <trkpt lat="60.50767" lon="7.61299">
        <ele>1284.46</ele>
        <time>2019-04-06T12:11:07Z</time>
      </trkpt>
      <trkpt lat="60.50785" lon="7.61294">
        <ele>1288.3</ele>
        <time>2019-04-06T12:11:16Z</time>
      </trkpt>
      <trkpt lat="60.50789" lon="7.61292">
        <ele>1288.78</ele>
        <time>2019-04-06T12:11:18Z</time>
      </trkpt>
      <trkpt lat="60.50815" lon="7.61286">
        <ele>1291.19</ele>
        <time>2019-04-06T12:11:28Z</time>
      </trkpt>
      <trkpt lat="60.50828" lon="7.61279">
        <ele>1293.59</ele>
        <time>2019-04-06T12:11:33Z</time>
      </trkpt>
      <trkpt lat="60.50849" lon="7.6127">
        <ele>1296.96</ele>
        <time>2019-04-06T12:11:42Z</time>
      </trkpt>
      <trkpt lat="60.50866" lon="7.61264">
        <ele>1298.88</ele>
        <time>2019-04-06T12:11:50Z</time>
      </trkpt>
      <trkpt lat="60.50862" lon="7.61274">
        <ele>1299.84</ele>
        <time>2019-04-06T12:11:56Z</time>
      </trkpt>
      <trkpt lat="60.50856" lon="7.61268">
        <ele>1299.84</ele>
        <time>2019-04-06T12:11:58Z</time>
      </trkpt>
      <trkpt lat="60.50809" lon="7.61249">
        <ele>1299.36</ele>
        <time>2019-04-06T12:12:13Z</time>
      </trkpt>
      <trkpt lat="60.50777" lon="7.61211">
        <ele>1296.48</ele>
        <time>2019-04-06T12:12:24Z</time>
      </trkpt>
      <trkpt lat="60.50764" lon="7.61183">
        <ele>1293.11</ele>
        <time>2019-04-06T12:12:33Z</time>
      </trkpt>
      <trkpt lat="60.50763" lon="7.61182">
        <ele>1293.11</ele>
        <time>2019-04-06T12:12:34Z</time>
      </trkpt>
      <trkpt lat="60.50773" lon="7.61192">
        <ele>1293.59</ele>
        <time>2019-04-06T12:12:42Z</time>
      </trkpt>
      <trkpt lat="60.50783" lon="7.61193">
        <ele>1295.99</ele>
        <time>2019-04-06T12:12:47Z</time>
      </trkpt>
      <trkpt lat="60.50794" lon="7.61197">
        <ele>1298.88</ele>
        <time>2019-04-06T12:12:54Z</time>
      </trkpt>
      <trkpt lat="60.50808" lon="7.61196">
        <ele>1301.28</ele>
        <time>2019-04-06T12:13:00Z</time>
      </trkpt>
      <trkpt lat="60.50821" lon="7.61193">
        <ele>1303.69</ele>
        <time>2019-04-06T12:13:05Z</time>
      </trkpt>
      <trkpt lat="60.50849" lon="7.61169">
        <ele>1307.53</ele>
        <time>2019-04-06T12:13:15Z</time>
      </trkpt>
      <trkpt lat="60.50867" lon="7.61157">
        <ele>1309.93</ele>
        <time>2019-04-06T12:13:21Z</time>
      </trkpt>
      <trkpt lat="60.50877" lon="7.61156">
        <ele>1312.34</ele>
        <time>2019-04-06T12:13:33Z</time>
      </trkpt>
      <trkpt lat="60.50887" lon="7.61152">
        <ele>1309.45</ele>
        <time>2019-04-06T12:13:38Z</time>
      </trkpt>
      <trkpt lat="60.50914" lon="7.61109">
        <ele>1309.45</ele>
        <time>2019-04-06T12:13:49Z</time>
      </trkpt>
      <trkpt lat="60.50932" lon="7.61068">
        <ele>1308.97</ele>
        <time>2019-04-06T12:13:55Z</time>
      </trkpt>
      <trkpt lat="60.50982" lon="7.60976">
        <ele>1308.01</ele>
        <time>2019-04-06T12:14:08Z</time>
      </trkpt>
      <trkpt lat="60.51003" lon="7.60944">
        <ele>1309.93</ele>
        <time>2019-04-06T12:14:13Z</time>
      </trkpt>
      <trkpt lat="60.51031" lon="7.6091">
        <ele>1312.82</ele>
        <time>2019-04-06T12:14:20Z</time>
      </trkpt>
      <trkpt lat="60.51035" lon="7.60905">
        <ele>1312.82</ele>
        <time>2019-04-06T12:14:21Z</time>
      </trkpt>
      <trkpt lat="60.51055" lon="7.60883">
        <ele>1313.78</ele>
        <time>2019-04-06T12:14:25Z</time>
      </trkpt>
      <trkpt lat="60.51065" lon="7.60872">
        <ele>1314.74</ele>
        <time>2019-04-06T12:14:27Z</time>
      </trkpt>
      <trkpt lat="60.51103" lon="7.60824">
        <ele>1318.1</ele>
        <time>2019-04-06T12:14:35Z</time>
      </trkpt>
      <trkpt lat="60.51131" lon="7.60781">
        <ele>1322.43</ele>
        <time>2019-04-06T12:14:42Z</time>
      </trkpt>
      <trkpt lat="60.51135" lon="7.60775">
        <ele>1322.43</ele>
        <time>2019-04-06T12:14:43Z</time>
      </trkpt>
      <trkpt lat="60.51138" lon="7.60769">
        <ele>1320.99</ele>
        <time>2019-04-06T12:14:44Z</time>
      </trkpt>
      <trkpt lat="60.51148" lon="7.60749">
        <ele>1320.51</ele>
        <time>2019-04-06T12:14:47Z</time>
      </trkpt>
      <trkpt lat="60.51162" lon="7.60702">
        <ele>1318.59</ele>
        <time>2019-04-06T12:14:52Z</time>
      </trkpt>
      <trkpt lat="60.51171" lon="7.6067">
        <ele>1317.14</ele>
        <time>2019-04-06T12:14:55Z</time>
      </trkpt>
      <trkpt lat="60.51174" lon="7.6066">
        <ele>1317.14</ele>
        <time>2019-04-06T12:14:56Z</time>
      </trkpt>
      <trkpt lat="60.51178" lon="7.60642">
        <ele>1318.59</ele>
        <time>2019-04-06T12:14:58Z</time>
      </trkpt>
      <trkpt lat="60.51183" lon="7.60625">
        <ele>1318.59</ele>
        <time>2019-04-06T12:15:00Z</time>
      </trkpt>
      <trkpt lat="60.5119" lon="7.60595">
        <ele>1318.59</ele>
        <time>2019-04-06T12:15:04Z</time>
      </trkpt>
      <trkpt lat="60.51193" lon="7.60602">
        <ele>1321.47</ele>
        <time>2019-04-06T12:15:07Z</time>
      </trkpt>
      <trkpt lat="60.51181" lon="7.60605">
        <ele>1323.39</ele>
        <time>2019-04-06T12:15:10Z</time>
      </trkpt>
      <trkpt lat="60.51158" lon="7.606">
        <ele>1323.39</ele>
        <time>2019-04-06T12:15:14Z</time>
      </trkpt>
      <trkpt lat="60.51112" lon="7.60589">
        <ele>1324.83</ele>
        <time>2019-04-06T12:15:21Z</time>
      </trkpt>
      <trkpt lat="60.51081" lon="7.60583">
        <ele>1329.16</ele>
        <time>2019-04-06T12:15:26Z</time>
      </trkpt>
      <trkpt lat="60.51076" lon="7.60581">
        <ele>1329.16</ele>
        <time>2019-04-06T12:15:27Z</time>
      </trkpt>
      <trkpt lat="60.5106" lon="7.60579">
        <ele>1330.6</ele>
        <time>2019-04-06T12:15:30Z</time>
      </trkpt>
      <trkpt lat="60.51031" lon="7.60578">
        <ele>1333.97</ele>
        <time>2019-04-06T12:15:35Z</time>
      </trkpt>
      <trkpt lat="60.51005" lon="7.60579">
        <ele>1337.81</ele>
        <time>2019-04-06T12:15:40Z</time>
      </trkpt>
      <trkpt lat="60.51" lon="7.60579">
        <ele>1338.29</ele>
        <time>2019-04-06T12:15:41Z</time>
      </trkpt>
      <trkpt lat="60.50992" lon="7.60576">
        <ele>1338.77</ele>
        <time>2019-04-06T12:15:43Z</time>
      </trkpt>
      <trkpt lat="60.50979" lon="7.60569">
        <ele>1341.66</ele>
        <time>2019-04-06T12:15:47Z</time>
      </trkpt>
      <trkpt lat="60.50981" lon="7.60571">
        <ele>1338.77</ele>
        <time>2019-04-06T12:15:53Z</time>
      </trkpt>
      <trkpt lat="60.50982" lon="7.60569">
        <ele>1338.77</ele>
        <time>2019-04-06T12:15:54Z</time>
      </trkpt>
      <trkpt lat="60.51007" lon="7.60518">
        <ele>1335.89</ele>
        <time>2019-04-06T12:16:08Z</time>
      </trkpt>
      <trkpt lat="60.51036" lon="7.60452">
        <ele>1333.01</ele>
        <time>2019-04-06T12:16:17Z</time>
      </trkpt>
      <trkpt lat="60.51071" lon="7.60373">
        <ele>1329.64</ele>
        <time>2019-04-06T12:16:26Z</time>
      </trkpt>
      <trkpt lat="60.51087" lon="7.60337">
        <ele>1325.8</ele>
        <time>2019-04-06T12:16:29Z</time>
      </trkpt>
      <trkpt lat="60.51092" lon="7.60325">
        <ele>1325.31</ele>
        <time>2019-04-06T12:16:30Z</time>
      </trkpt>
      <trkpt lat="60.51112" lon="7.60285">
        <ele>1326.76</ele>
        <time>2019-04-06T12:16:34Z</time>
      </trkpt>
      <trkpt lat="60.51132" lon="7.60244">
        <ele>1328.68</ele>
        <time>2019-04-06T12:16:39Z</time>
      </trkpt>
      <trkpt lat="60.51167" lon="7.60165">
        <ele>1330.6</ele>
        <time>2019-04-06T12:16:50Z</time>
      </trkpt>
      <trkpt lat="60.5118" lon="7.60141">
        <ele>1329.16</ele>
        <time>2019-04-06T12:16:54Z</time>
      </trkpt>
      <trkpt lat="60.51191" lon="7.60119">
        <ele>1329.16</ele>
        <time>2019-04-06T12:16:57Z</time>
      </trkpt>
      <trkpt lat="60.51207" lon="7.60083">
        <ele>1330.12</ele>
        <time>2019-04-06T12:17:02Z</time>
      </trkpt>
      <trkpt lat="60.51238" lon="7.60015">
        <ele>1330.12</ele>
        <time>2019-04-06T12:17:10Z</time>
      </trkpt>
      <trkpt lat="60.51241" lon="7.60009">
        <ele>1330.6</ele>
        <time>2019-04-06T12:17:11Z</time>
      </trkpt>
      <trkpt lat="60.51252" lon="7.5997">
        <ele>1326.28</ele>
        <time>2019-04-06T12:17:15Z</time>
      </trkpt>
      <trkpt lat="60.51261" lon="7.59932">
        <ele>1324.35</ele>
        <time>2019-04-06T12:17:18Z</time>
      </trkpt>
      <trkpt lat="60.51266" lon="7.5991">
        <ele>1325.8</ele>
        <time>2019-04-06T12:17:20Z</time>
      </trkpt>
      <trkpt lat="60.51273" lon="7.59881">
        <ele>1325.8</ele>
        <time>2019-04-06T12:17:23Z</time>
      </trkpt>
      <trkpt lat="60.51294" lon="7.59819">
        <ele>1324.83</ele>
        <time>2019-04-06T12:17:30Z</time>
      </trkpt>
      <trkpt lat="60.51307" lon="7.59783">
        <ele>1322.91</ele>
        <time>2019-04-06T12:17:34Z</time>
      </trkpt>
      <trkpt lat="60.51333" lon="7.59698">
        <ele>1322.43</ele>
        <time>2019-04-06T12:17:42Z</time>
      </trkpt>
      <trkpt lat="60.51371" lon="7.59576">
        <ele>1321.95</ele>
        <time>2019-04-06T12:17:55Z</time>
      </trkpt>
      <trkpt lat="60.51376" lon="7.59575">
        <ele>1325.8</ele>
        <time>2019-04-06T12:17:58Z</time>
      </trkpt>
      <trkpt lat="60.5138" lon="7.59576">
        <ele>1325.8</ele>
        <time>2019-04-06T12:18:06Z</time>
      </trkpt>
      <trkpt lat="60.51393" lon="7.59549">
        <ele>1322.91</ele>
        <time>2019-04-06T12:18:12Z</time>
      </trkpt>
      <trkpt lat="60.51414" lon="7.59495">
        <ele>1323.87</ele>
        <time>2019-04-06T12:18:23Z</time>
      </trkpt>
      <trkpt lat="60.51431" lon="7.5945">
        <ele>1322.43</ele>
        <time>2019-04-06T12:18:31Z</time>
      </trkpt>
      <trkpt lat="60.51436" lon="7.59435">
        <ele>1321.95</ele>
        <time>2019-04-06T12:18:33Z</time>
      </trkpt>
      <trkpt lat="60.51459" lon="7.59376">
        <ele>1321.47</ele>
        <time>2019-04-06T12:18:40Z</time>
      </trkpt>
      <trkpt lat="60.51466" lon="7.59362">
        <ele>1323.39</ele>
        <time>2019-04-06T12:18:42Z</time>
      </trkpt>
      <trkpt lat="60.51483" lon="7.59332">
        <ele>1325.8</ele>
        <time>2019-04-06T12:18:51Z</time>
      </trkpt>
      <trkpt lat="60.51486" lon="7.59333">
        <ele>1326.76</ele>
        <time>2019-04-06T12:19:07Z</time>
      </trkpt>
      <trkpt lat="60.51486" lon="7.59333">
        <ele>1326.76</ele>
        <time>2019-04-06T12:19:09Z</time>
      </trkpt>
      <trkpt lat="60.51489" lon="7.59327">
        <ele>1325.31</ele>
        <time>2019-04-06T12:19:12Z</time>
      </trkpt>
      <trkpt lat="60.51496" lon="7.59309">
        <ele>1325.31</ele>
        <time>2019-04-06T12:19:17Z</time>
      </trkpt>
      <trkpt lat="60.51505" lon="7.59282">
        <ele>1328.68</ele>
        <time>2019-04-06T12:19:28Z</time>
      </trkpt>
      <trkpt lat="60.51506" lon="7.59282">
        <ele>1329.16</ele>
        <time>2019-04-06T12:19:47Z</time>
      </trkpt>
      <trkpt lat="60.51508" lon="7.59283">
        <ele>1329.16</ele>
        <time>2019-04-06T12:20:02Z</time>
      </trkpt>
      <trkpt lat="60.5151" lon="7.59282">
        <ele>1329.16</ele>
        <time>2019-04-06T12:20:07Z</time>
      </trkpt>
      <trkpt lat="60.51514" lon="7.59275">
        <ele>1329.16</ele>
        <time>2019-04-06T12:20:11Z</time>
      </trkpt>
      <trkpt lat="60.51518" lon="7.59265">
        <ele>1327.72</ele>
        <time>2019-04-06T12:20:16Z</time>
      </trkpt>
      <trkpt lat="60.51519" lon="7.59259">
        <ele>1329.64</ele>
        <time>2019-04-06T12:20:19Z</time>
      </trkpt>
      <trkpt lat="60.51522" lon="7.59259">
        <ele>1330.12</ele>
        <time>2019-04-06T12:20:35Z</time>
      </trkpt>
      <trkpt lat="60.51523" lon="7.59258">
        <ele>1330.12</ele>
        <time>2019-04-06T12:20:53Z</time>
      </trkpt>
      <trkpt lat="60.51516" lon="7.59268">
        <ele>1330.12</ele>
        <time>2019-04-06T12:20:57Z</time>
      </trkpt>
      <trkpt lat="60.51478" lon="7.59264">
        <ele>1330.6</ele>
        <time>2019-04-06T12:21:07Z</time>
      </trkpt>
      <trkpt lat="60.51464" lon="7.59272">
        <ele>1329.16</ele>
        <time>2019-04-06T12:21:13Z</time>
      </trkpt>
      <trkpt lat="60.51466" lon="7.59275">
        <ele>1329.16</ele>
        <time>2019-04-06T12:21:15Z</time>
      </trkpt>
      <trkpt lat="60.51472" lon="7.59266">
        <ele>1327.24</ele>
        <time>2019-04-06T12:21:18Z</time>
      </trkpt>
      <trkpt lat="60.51478" lon="7.59256">
        <ele>1328.68</ele>
        <time>2019-04-06T12:21:21Z</time>
      </trkpt>
      <trkpt lat="60.51484" lon="7.59241">
        <ele>1329.64</ele>
        <time>2019-04-06T12:21:25Z</time>
      </trkpt>
      <trkpt lat="60.51503" lon="7.59204">
        <ele>1330.12</ele>
        <time>2019-04-06T12:21:37Z</time>
      </trkpt>
      <trkpt lat="60.51523" lon="7.59149">
        <ele>1326.76</ele>
        <time>2019-04-06T12:21:45Z</time>
      </trkpt>
      <trkpt lat="60.51555" lon="7.59041">
        <ele>1323.87</ele>
        <time>2019-04-06T12:21:55Z</time>
      </trkpt>
      <trkpt lat="60.51602" lon="7.58932">
        <ele>1326.28</ele>
        <time>2019-04-06T12:22:06Z</time>
      </trkpt>
      <trkpt lat="60.51605" lon="7.58924">
        <ele>1326.28</ele>
        <time>2019-04-06T12:22:07Z</time>
      </trkpt>
      <trkpt lat="60.51611" lon="7.58905">
        <ele>1322.91</ele>
        <time>2019-04-06T12:22:09Z</time>
      </trkpt>
      <trkpt lat="60.51621" lon="7.58868">
        <ele>1320.03</ele>
        <time>2019-04-06T12:22:12Z</time>
      </trkpt>
      <trkpt lat="60.51632" lon="7.58821">
        <ele>1320.03</ele>
        <time>2019-04-06T12:22:16Z</time>
      </trkpt>
      <trkpt lat="60.51654" lon="7.58742">
        <ele>1319.55</ele>
        <time>2019-04-06T12:22:23Z</time>
      </trkpt>
      <trkpt lat="60.51665" lon="7.587">
        <ele>1321.95</ele>
        <time>2019-04-06T12:22:27Z</time>
      </trkpt>
      <trkpt lat="60.51678" lon="7.58645">
        <ele>1320.99</ele>
        <time>2019-04-06T12:22:32Z</time>
      </trkpt>
      <trkpt lat="60.51683" lon="7.58621">
        <ele>1320.51</ele>
        <time>2019-04-06T12:22:34Z</time>
      </trkpt>
      <trkpt lat="60.51692" lon="7.58591">
        <ele>1321.95</ele>
        <time>2019-04-06T12:22:37Z</time>
      </trkpt>
      <trkpt lat="60.51696" lon="7.5858">
        <ele>1321.95</ele>
        <time>2019-04-06T12:22:38Z</time>
      </trkpt>
      <trkpt lat="60.51712" lon="7.58521">
        <ele>1320.51</ele>
        <time>2019-04-06T12:22:43Z</time>
      </trkpt>
      <trkpt lat="60.51742" lon="7.5841">
        <ele>1320.51</ele>
        <time>2019-04-06T12:22:52Z</time>
      </trkpt>
      <trkpt lat="60.51757" lon="7.58359">
        <ele>1319.55</ele>
        <time>2019-04-06T12:22:56Z</time>
      </trkpt>
      <trkpt lat="60.51813" lon="7.58216">
        <ele>1319.07</ele>
        <time>2019-04-06T12:23:08Z</time>
      </trkpt>
      <trkpt lat="60.5183" lon="7.58167">
        <ele>1323.39</ele>
        <time>2019-04-06T12:23:12Z</time>
      </trkpt>
      <trkpt lat="60.51833" lon="7.58155">
        <ele>1323.87</ele>
        <time>2019-04-06T12:23:13Z</time>
      </trkpt>
      <trkpt lat="60.51838" lon="7.58134">
        <ele>1324.35</ele>
        <time>2019-04-06T12:23:15Z</time>
      </trkpt>
      <trkpt lat="60.51848" lon="7.58066">
        <ele>1325.31</ele>
        <time>2019-04-06T12:23:21Z</time>
      </trkpt>
      <trkpt lat="60.51858" lon="7.58018">
        <ele>1323.39</ele>
        <time>2019-04-06T12:23:25Z</time>
      </trkpt>
      <trkpt lat="60.51874" lon="7.57948">
        <ele>1321.95</ele>
        <time>2019-04-06T12:23:30Z</time>
      </trkpt>
      <trkpt lat="60.51882" lon="7.57904">
        <ele>1320.51</ele>
        <time>2019-04-06T12:23:33Z</time>
      </trkpt>
      <trkpt lat="60.51901" lon="7.57777">
        <ele>1319.07</ele>
        <time>2019-04-06T12:23:42Z</time>
      </trkpt>
      <trkpt lat="60.5191" lon="7.57721">
        <ele>1320.51</ele>
        <time>2019-04-06T12:23:47Z</time>
      </trkpt>
      <trkpt lat="60.51915" lon="7.577">
        <ele>1321.47</ele>
        <time>2019-04-06T12:23:49Z</time>
      </trkpt>
      <trkpt lat="60.51925" lon="7.57661">
        <ele>1321.95</ele>
        <time>2019-04-06T12:23:53Z</time>
      </trkpt>
      <trkpt lat="60.51935" lon="7.57628">
        <ele>1321.95</ele>
        <time>2019-04-06T12:23:56Z</time>
      </trkpt>
      <trkpt lat="60.51971" lon="7.5749">
        <ele>1320.51</ele>
        <time>2019-04-06T12:24:07Z</time>
      </trkpt>
      <trkpt lat="60.5201" lon="7.57331">
        <ele>1319.55</ele>
        <time>2019-04-06T12:24:18Z</time>
      </trkpt>
      <trkpt lat="60.52023" lon="7.57278">
        <ele>1323.87</ele>
        <time>2019-04-06T12:24:22Z</time>
      </trkpt>
      <trkpt lat="60.52035" lon="7.57244">
        <ele>1326.76</ele>
        <time>2019-04-06T12:24:27Z</time>
      </trkpt>
      <trkpt lat="60.52042" lon="7.57231">
        <ele>1328.68</ele>
        <time>2019-04-06T12:24:31Z</time>
      </trkpt>
      <trkpt lat="60.52061" lon="7.5718">
        <ele>1328.68</ele>
        <time>2019-04-06T12:24:41Z</time>
      </trkpt>
      <trkpt lat="60.52069" lon="7.57157">
        <ele>1329.16</ele>
        <time>2019-04-06T12:24:45Z</time>
      </trkpt>
      <trkpt lat="60.52079" lon="7.5712">
        <ele>1327.72</ele>
        <time>2019-04-06T12:24:49Z</time>
      </trkpt>
      <trkpt lat="60.52095" lon="7.57051">
        <ele>1323.87</ele>
        <time>2019-04-06T12:24:54Z</time>
      </trkpt>
      <trkpt lat="60.52102" lon="7.57013">
        <ele>1320.03</ele>
        <time>2019-04-06T12:24:56Z</time>
      </trkpt>
      <trkpt lat="60.52106" lon="7.56994">
        <ele>1320.03</ele>
        <time>2019-04-06T12:24:57Z</time>
      </trkpt>
      <trkpt lat="60.52147" lon="7.56804">
        <ele>1318.59</ele>
        <time>2019-04-06T12:25:08Z</time>
      </trkpt>
      <trkpt lat="60.52153" lon="7.56771">
        <ele>1319.07</ele>
        <time>2019-04-06T12:25:10Z</time>
      </trkpt>
      <trkpt lat="60.52163" lon="7.56725">
        <ele>1320.51</ele>
        <time>2019-04-06T12:25:13Z</time>
      </trkpt>
      <trkpt lat="60.52201" lon="7.56558">
        <ele>1321.47</ele>
        <time>2019-04-06T12:25:25Z</time>
      </trkpt>
      <trkpt lat="60.5221" lon="7.56528">
        <ele>1320.51</ele>
        <time>2019-04-06T12:25:27Z</time>
      </trkpt>
      <trkpt lat="60.52229" lon="7.56468">
        <ele>1321.47</ele>
        <time>2019-04-06T12:25:31Z</time>
      </trkpt>
      <trkpt lat="60.52248" lon="7.56397">
        <ele>1321.95</ele>
        <time>2019-04-06T12:25:36Z</time>
      </trkpt>
      <trkpt lat="60.52267" lon="7.5636">
        <ele>1323.87</ele>
        <time>2019-04-06T12:25:40Z</time>
      </trkpt>
      <trkpt lat="60.52281" lon="7.56331">
        <ele>1321.95</ele>
        <time>2019-04-06T12:25:43Z</time>
      </trkpt>
      <trkpt lat="60.523" lon="7.56303">
        <ele>1321.47</ele>
        <time>2019-04-06T12:25:46Z</time>
      </trkpt>
      <trkpt lat="60.52328" lon="7.56229">
        <ele>1322.91</ele>
        <time>2019-04-06T12:25:52Z</time>
      </trkpt>
      <trkpt lat="60.52344" lon="7.562">
        <ele>1323.87</ele>
        <time>2019-04-06T12:25:55Z</time>
      </trkpt>
      <trkpt lat="60.52363" lon="7.5617">
        <ele>1326.76</ele>
        <time>2019-04-06T12:25:59Z</time>
      </trkpt>
      <trkpt lat="60.52383" lon="7.56146">
        <ele>1330.12</ele>
        <time>2019-04-06T12:26:04Z</time>
      </trkpt>
      <trkpt lat="60.52386" lon="7.56144">
        <ele>1330.12</ele>
        <time>2019-04-06T12:26:05Z</time>
      </trkpt>
      <trkpt lat="60.52405" lon="7.56124">
        <ele>1332.04</ele>
        <time>2019-04-06T12:26:11Z</time>
      </trkpt>
      <trkpt lat="60.52419" lon="7.56106">
        <ele>1333.97</ele>
        <time>2019-04-06T12:26:15Z</time>
      </trkpt>
      <trkpt lat="60.52429" lon="7.56092">
        <ele>1333.97</ele>
        <time>2019-04-06T12:26:18Z</time>
      </trkpt>
      <trkpt lat="60.52444" lon="7.56071">
        <ele>1334.45</ele>
        <time>2019-04-06T12:26:22Z</time>
      </trkpt>
      <trkpt lat="60.52453" lon="7.56054">
        <ele>1332.52</ele>
        <time>2019-04-06T12:26:24Z</time>
      </trkpt>
      <trkpt lat="60.52467" lon="7.56029">
        <ele>1335.41</ele>
        <time>2019-04-06T12:26:28Z</time>
      </trkpt>
      <trkpt lat="60.52476" lon="7.55995">
        <ele>1335.89</ele>
        <time>2019-04-06T12:26:34Z</time>
      </trkpt>
      <trkpt lat="60.52484" lon="7.5598">
        <ele>1336.85</ele>
        <time>2019-04-06T12:26:39Z</time>
      </trkpt>
      <trkpt lat="60.52503" lon="7.55936">
        <ele>1338.29</ele>
        <time>2019-04-06T12:26:48Z</time>
      </trkpt>
      <trkpt lat="60.52508" lon="7.55927">
        <ele>1339.25</ele>
        <time>2019-04-06T12:26:50Z</time>
      </trkpt>
      <trkpt lat="60.52516" lon="7.55895">
        <ele>1337.81</ele>
        <time>2019-04-06T12:26:54Z</time>
      </trkpt>
      <trkpt lat="60.5252" lon="7.55885">
        <ele>1340.7</ele>
        <time>2019-04-06T12:26:56Z</time>
      </trkpt>
      <trkpt lat="60.52536" lon="7.55858">
        <ele>1341.18</ele>
        <time>2019-04-06T12:27:03Z</time>
      </trkpt>
      <trkpt lat="60.52556" lon="7.55811">
        <ele>1343.1</ele>
        <time>2019-04-06T12:27:09Z</time>
      </trkpt>
      <trkpt lat="60.52565" lon="7.55781">
        <ele>1341.66</ele>
        <time>2019-04-06T12:27:12Z</time>
      </trkpt>
      <trkpt lat="60.52569" lon="7.55774">
        <ele>1343.1</ele>
        <time>2019-04-06T12:27:13Z</time>
      </trkpt>
      <trkpt lat="60.52577" lon="7.55759">
        <ele>1343.1</ele>
        <time>2019-04-06T12:27:15Z</time>
      </trkpt>
      <trkpt lat="60.52593" lon="7.55725">
        <ele>1343.58</ele>
        <time>2019-04-06T12:27:19Z</time>
      </trkpt>
      <trkpt lat="60.526" lon="7.55708">
        <ele>1344.54</ele>
        <time>2019-04-06T12:27:21Z</time>
      </trkpt>
      <trkpt lat="60.52614" lon="7.55684">
        <ele>1347.43</ele>
        <time>2019-04-06T12:27:26Z</time>
      </trkpt>
      <trkpt lat="60.52623" lon="7.55671">
        <ele>1348.87</ele>
        <time>2019-04-06T12:27:29Z</time>
      </trkpt>
      <trkpt lat="60.5263" lon="7.55661">
        <ele>1349.35</ele>
        <time>2019-04-06T12:27:31Z</time>
      </trkpt>
      <trkpt lat="60.52644" lon="7.55634">
        <ele>1351.27</ele>
        <time>2019-04-06T12:27:35Z</time>
      </trkpt>
      <trkpt lat="60.52654" lon="7.55615">
        <ele>1353.19</ele>
        <time>2019-04-06T12:27:39Z</time>
      </trkpt>
      <trkpt lat="60.52672" lon="7.55605">
        <ele>1356.08</ele>
        <time>2019-04-06T12:27:47Z</time>
      </trkpt>
      <trkpt lat="60.52697" lon="7.55585">
        <ele>1359.92</ele>
        <time>2019-04-06T12:27:56Z</time>
      </trkpt>
      <trkpt lat="60.52708" lon="7.55579">
        <ele>1361.84</ele>
        <time>2019-04-06T12:28:03Z</time>
      </trkpt>
      <trkpt lat="60.52723" lon="7.55575">
        <ele>1362.33</ele>
        <time>2019-04-06T12:28:10Z</time>
      </trkpt>
      <trkpt lat="60.52736" lon="7.55562">
        <ele>1363.29</ele>
        <time>2019-04-06T12:28:16Z</time>
      </trkpt>
      <trkpt lat="60.52763" lon="7.55544">
        <ele>1366.65</ele>
        <time>2019-04-06T12:28:26Z</time>
      </trkpt>
      <trkpt lat="60.52766" lon="7.55541">
        <ele>1367.13</ele>
        <time>2019-04-06T12:28:27Z</time>
      </trkpt>
      <trkpt lat="60.5277" lon="7.55538">
        <ele>1367.13</ele>
        <time>2019-04-06T12:28:28Z</time>
      </trkpt>
      <trkpt lat="60.52779" lon="7.5552">
        <ele>1367.13</ele>
        <time>2019-04-06T12:28:31Z</time>
      </trkpt>
      <trkpt lat="60.52786" lon="7.55511">
        <ele>1368.57</ele>
        <time>2019-04-06T12:28:33Z</time>
      </trkpt>
      <trkpt lat="60.52806" lon="7.55481">
        <ele>1370.5</ele>
        <time>2019-04-06T12:28:40Z</time>
      </trkpt>
      <trkpt lat="60.52814" lon="7.55468">
        <ele>1370.98</ele>
        <time>2019-04-06T12:28:43Z</time>
      </trkpt>
      <trkpt lat="60.5282" lon="7.55465">
        <ele>1371.94</ele>
        <time>2019-04-06T12:28:45Z</time>
      </trkpt>
      <trkpt lat="60.52838" lon="7.55457">
        <ele>1372.9</ele>
        <time>2019-04-06T12:28:50Z</time>
      </trkpt>
      <trkpt lat="60.52844" lon="7.55458">
        <ele>1374.34</ele>
        <time>2019-04-06T12:28:52Z</time>
      </trkpt>
      <trkpt lat="60.52873" lon="7.55446">
        <ele>1376.26</ele>
        <time>2019-04-06T12:29:02Z</time>
      </trkpt>
      <trkpt lat="60.52895" lon="7.55437">
        <ele>1377.71</ele>
        <time>2019-04-06T12:29:12Z</time>
      </trkpt>
      <trkpt lat="60.52904" lon="7.55432">
        <ele>1377.71</ele>
        <time>2019-04-06T12:29:15Z</time>
      </trkpt>
      <trkpt lat="60.52914" lon="7.55419">
        <ele>1376.26</ele>
        <time>2019-04-06T12:29:18Z</time>
      </trkpt>
      <trkpt lat="60.52924" lon="7.55404">
        <ele>1377.71</ele>
        <time>2019-04-06T12:29:21Z</time>
      </trkpt>
      <trkpt lat="60.52941" lon="7.55388">
        <ele>1379.63</ele>
        <time>2019-04-06T12:29:27Z</time>
      </trkpt>
      <trkpt lat="60.5296" lon="7.55353">
        <ele>1381.07</ele>
        <time>2019-04-06T12:29:39Z</time>
      </trkpt>
      <trkpt lat="60.52969" lon="7.55331">
        <ele>1378.67</ele>
        <time>2019-04-06T12:29:44Z</time>
      </trkpt>
      <trkpt lat="60.52979" lon="7.55307">
        <ele>1378.67</ele>
        <time>2019-04-06T12:29:49Z</time>
      </trkpt>
      <trkpt lat="60.52987" lon="7.55307">
        <ele>1380.11</ele>
        <time>2019-04-06T12:29:51Z</time>
      </trkpt>
      <trkpt lat="60.52992" lon="7.55308">
        <ele>1380.11</ele>
        <time>2019-04-06T12:29:52Z</time>
      </trkpt>
      <trkpt lat="60.53005" lon="7.55308">
        <ele>1378.67</ele>
        <time>2019-04-06T12:29:54Z</time>
      </trkpt>
      <trkpt lat="60.53026" lon="7.55303">
        <ele>1378.19</ele>
        <time>2019-04-06T12:29:57Z</time>
      </trkpt>
      <trkpt lat="60.53047" lon="7.5529">
        <ele>1378.19</ele>
        <time>2019-04-06T12:30:00Z</time>
      </trkpt>
      <trkpt lat="60.5306" lon="7.55285">
        <ele>1379.63</ele>
        <time>2019-04-06T12:30:02Z</time>
      </trkpt>
      <trkpt lat="60.53072" lon="7.55279">
        <ele>1379.63</ele>
        <time>2019-04-06T12:30:04Z</time>
      </trkpt>
      <trkpt lat="60.53087" lon="7.55281">
        <ele>1383.96</ele>
        <time>2019-04-06T12:30:08Z</time>
      </trkpt>
      <trkpt lat="60.53093" lon="7.55285">
        <ele>1384.92</ele>
        <time>2019-04-06T12:30:12Z</time>
      </trkpt>
      <trkpt lat="60.53104" lon="7.55291">
        <ele>1386.84</ele>
        <time>2019-04-06T12:30:21Z</time>
      </trkpt>
      <trkpt lat="60.53104" lon="7.55291">
        <ele>1386.84</ele>
        <time>2019-04-06T12:30:22Z</time>
      </trkpt>
      <trkpt lat="60.53116" lon="7.55298">
        <ele>1386.84</ele>
        <time>2019-04-06T12:30:32Z</time>
      </trkpt>
      <trkpt lat="60.53101" lon="7.55301">
        <ele>1386.84</ele>
        <time>2019-04-06T12:30:38Z</time>
      </trkpt>
      <trkpt lat="60.53079" lon="7.5528">
        <ele>1385.4</ele>
        <time>2019-04-06T12:30:43Z</time>
      </trkpt>
      <trkpt lat="60.53074" lon="7.55275">
        <ele>1385.4</ele>
        <time>2019-04-06T12:30:44Z</time>
      </trkpt>
      <trkpt lat="60.53062" lon="7.55265">
        <ele>1382.99</ele>
        <time>2019-04-06T12:30:46Z</time>
      </trkpt>
      <trkpt lat="60.53005" lon="7.55252">
        <ele>1382.03</ele>
        <time>2019-04-06T12:30:55Z</time>
      </trkpt>
      <trkpt lat="60.5298" lon="7.5525">
        <ele>1383.47</ele>
        <time>2019-04-06T12:30:59Z</time>
      </trkpt>
      <trkpt lat="60.52974" lon="7.55249">
        <ele>1383.47</ele>
        <time>2019-04-06T12:31:00Z</time>
      </trkpt>
      <trkpt lat="60.52955" lon="7.55244">
        <ele>1384.44</ele>
        <time>2019-04-06T12:31:04Z</time>
      </trkpt>
      <trkpt lat="60.52948" lon="7.55246">
        <ele>1382.99</ele>
        <time>2019-04-06T12:31:06Z</time>
      </trkpt>
      <trkpt lat="60.52923" lon="7.55244">
        <ele>1382.99</ele>
        <time>2019-04-06T12:31:15Z</time>
      </trkpt>
      <trkpt lat="60.52903" lon="7.5524">
        <ele>1381.55</ele>
        <time>2019-04-06T12:31:21Z</time>
      </trkpt>
      <trkpt lat="60.52885" lon="7.55233">
        <ele>1380.59</ele>
        <time>2019-04-06T12:31:25Z</time>
      </trkpt>
      <trkpt lat="60.52871" lon="7.55225">
        <ele>1378.67</ele>
        <time>2019-04-06T12:31:28Z</time>
      </trkpt>
      <trkpt lat="60.5284" lon="7.55219">
        <ele>1377.71</ele>
        <time>2019-04-06T12:31:36Z</time>
      </trkpt>
      <trkpt lat="60.52831" lon="7.55217">
        <ele>1377.23</ele>
        <time>2019-04-06T12:31:38Z</time>
      </trkpt>
      <trkpt lat="60.52814" lon="7.55217">
        <ele>1375.78</ele>
        <time>2019-04-06T12:31:42Z</time>
      </trkpt>
      <trkpt lat="60.52795" lon="7.55218">
        <ele>1375.78</ele>
        <time>2019-04-06T12:31:47Z</time>
      </trkpt>
      <trkpt lat="60.52794" lon="7.5522">
        <ele>1375.3</ele>
        <time>2019-04-06T12:31:49Z</time>
      </trkpt>
      <trkpt lat="60.528" lon="7.55217">
        <ele>1373.86</ele>
        <time>2019-04-06T12:31:53Z</time>
      </trkpt>
      <trkpt lat="60.52823" lon="7.55171">
        <ele>1376.26</ele>
        <time>2019-04-06T12:32:02Z</time>
      </trkpt>
      <trkpt lat="60.52831" lon="7.55157">
        <ele>1376.26</ele>
        <time>2019-04-06T12:32:05Z</time>
      </trkpt>
      <trkpt lat="60.52838" lon="7.55146">
        <ele>1379.15</ele>
        <time>2019-04-06T12:32:09Z</time>
      </trkpt>
      <trkpt lat="60.52846" lon="7.55132">
        <ele>1380.59</ele>
        <time>2019-04-06T12:32:14Z</time>
      </trkpt>
      <trkpt lat="60.52857" lon="7.55118">
        <ele>1381.07</ele>
        <time>2019-04-06T12:32:21Z</time>
      </trkpt>
      <trkpt lat="60.52861" lon="7.55116">
        <ele>1381.55</ele>
        <time>2019-04-06T12:32:24Z</time>
      </trkpt>
      <trkpt lat="60.52865" lon="7.55115">
        <ele>1381.55</ele>
        <time>2019-04-06T12:32:33Z</time>
      </trkpt>
      <trkpt lat="60.52845" lon="7.55128">
        <ele>1382.03</ele>
        <time>2019-04-06T12:32:42Z</time>
      </trkpt>
      <trkpt lat="60.52806" lon="7.55139">
        <ele>1382.03</ele>
        <time>2019-04-06T12:32:55Z</time>
      </trkpt>
      <trkpt lat="60.52772" lon="7.55152">
        <ele>1382.03</ele>
        <time>2019-04-06T12:33:04Z</time>
      </trkpt>
      <trkpt lat="60.52742" lon="7.55158">
        <ele>1382.03</ele>
        <time>2019-04-06T12:33:11Z</time>
      </trkpt>
      <trkpt lat="60.52713" lon="7.55167">
        <ele>1380.59</ele>
        <time>2019-04-06T12:33:17Z</time>
      </trkpt>
      <trkpt lat="60.52698" lon="7.55171">
        <ele>1380.59</ele>
        <time>2019-04-06T12:33:21Z</time>
      </trkpt>
      <trkpt lat="60.52707" lon="7.55162">
        <ele>1378.19</ele>
        <time>2019-04-06T12:33:27Z</time>
      </trkpt>
      <trkpt lat="60.52716" lon="7.55142">
        <ele>1379.63</ele>
        <time>2019-04-06T12:33:30Z</time>
      </trkpt>
      <trkpt lat="60.52741" lon="7.55064">
        <ele>1382.03</ele>
        <time>2019-04-06T12:33:40Z</time>
      </trkpt>
      <trkpt lat="60.5275" lon="7.55032">
        <ele>1384.44</ele>
        <time>2019-04-06T12:33:44Z</time>
      </trkpt>
      <trkpt lat="60.5276" lon="7.55009">
        <ele>1386.36</ele>
        <time>2019-04-06T12:33:48Z</time>
      </trkpt>
      <trkpt lat="60.52767" lon="7.54994">
        <ele>1387.32</ele>
        <time>2019-04-06T12:33:51Z</time>
      </trkpt>
      <trkpt lat="60.52787" lon="7.5497">
        <ele>1390.68</ele>
        <time>2019-04-06T12:34:00Z</time>
      </trkpt>
      <trkpt lat="60.52796" lon="7.54956">
        <ele>1391.65</ele>
        <time>2019-04-06T12:34:04Z</time>
      </trkpt>
      <trkpt lat="60.52818" lon="7.54941">
        <ele>1393.57</ele>
        <time>2019-04-06T12:34:16Z</time>
      </trkpt>
      <trkpt lat="60.52825" lon="7.54937">
        <ele>1394.53</ele>
        <time>2019-04-06T12:34:21Z</time>
      </trkpt>
      <trkpt lat="60.5284" lon="7.54928">
        <ele>1395.01</ele>
        <time>2019-04-06T12:34:28Z</time>
      </trkpt>
      <trkpt lat="60.52852" lon="7.54911">
        <ele>1396.93</ele>
        <time>2019-04-06T12:34:40Z</time>
      </trkpt>
      <trkpt lat="60.52869" lon="7.54888">
        <ele>1396.93</ele>
        <time>2019-04-06T12:34:52Z</time>
      </trkpt>
      <trkpt lat="60.52874" lon="7.5488">
        <ele>1396.93</ele>
        <time>2019-04-06T12:34:54Z</time>
      </trkpt>
      <trkpt lat="60.52882" lon="7.54859">
        <ele>1395.01</ele>
        <time>2019-04-06T12:34:57Z</time>
      </trkpt>
      <trkpt lat="60.52894" lon="7.54831">
        <ele>1394.05</ele>
        <time>2019-04-06T12:35:01Z</time>
      </trkpt>
      <trkpt lat="60.52913" lon="7.54788">
        <ele>1393.57</ele>
        <time>2019-04-06T12:35:07Z</time>
      </trkpt>
      <trkpt lat="60.52919" lon="7.54777">
        <ele>1393.57</ele>
        <time>2019-04-06T12:35:09Z</time>
      </trkpt>
      <trkpt lat="60.52933" lon="7.54743">
        <ele>1395.01</ele>
        <time>2019-04-06T12:35:15Z</time>
      </trkpt>
      <trkpt lat="60.52937" lon="7.54741">
        <ele>1395.49</ele>
        <time>2019-04-06T12:35:17Z</time>
      </trkpt>
      <trkpt lat="60.52924" lon="7.54755">
        <ele>1397.89</ele>
        <time>2019-04-06T12:35:23Z</time>
      </trkpt>
      <trkpt lat="60.52921" lon="7.54757">
        <ele>1397.89</ele>
        <time>2019-04-06T12:35:24Z</time>
      </trkpt>
      <trkpt lat="60.52902" lon="7.54771">
        <ele>1398.86</ele>
        <time>2019-04-06T12:35:34Z</time>
      </trkpt>
      <trkpt lat="60.52895" lon="7.54774">
        <ele>1399.82</ele>
        <time>2019-04-06T12:35:37Z</time>
      </trkpt>
      <trkpt lat="60.5289" lon="7.54781">
        <ele>1399.82</ele>
        <time>2019-04-06T12:35:41Z</time>
      </trkpt>
      <trkpt lat="60.52878" lon="7.54785">
        <ele>1400.78</ele>
        <time>2019-04-06T12:35:45Z</time>
      </trkpt>
      <trkpt lat="60.52854" lon="7.5479">
        <ele>1402.7</ele>
        <time>2019-04-06T12:35:54Z</time>
      </trkpt>
      <trkpt lat="60.5285" lon="7.54793">
        <ele>1402.22</ele>
        <time>2019-04-06T12:35:56Z</time>
      </trkpt>
      <trkpt lat="60.52863" lon="7.54802">
        <ele>1399.34</ele>
        <time>2019-04-06T12:36:02Z</time>
      </trkpt>
      <trkpt lat="60.52866" lon="7.54797">
        <ele>1399.34</ele>
        <time>2019-04-06T12:36:03Z</time>
      </trkpt>
      <trkpt lat="60.52874" lon="7.54785">
        <ele>1399.34</ele>
        <time>2019-04-06T12:36:05Z</time>
      </trkpt>
      <trkpt lat="60.52901" lon="7.54747">
        <ele>1397.89</ele>
        <time>2019-04-06T12:36:11Z</time>
      </trkpt>
      <trkpt lat="60.52928" lon="7.5472">
        <ele>1393.09</ele>
        <time>2019-04-06T12:36:15Z</time>
      </trkpt>
      <trkpt lat="60.52958" lon="7.54691">
        <ele>1391.17</ele>
        <time>2019-04-06T12:36:19Z</time>
      </trkpt>
      <trkpt lat="60.52965" lon="7.54683">
        <ele>1390.2</ele>
        <time>2019-04-06T12:36:20Z</time>
      </trkpt>
      <trkpt lat="60.53011" lon="7.54656">
        <ele>1392.61</ele>
        <time>2019-04-06T12:36:26Z</time>
      </trkpt>
      <trkpt lat="60.53022" lon="7.54647">
        <ele>1394.53</ele>
        <time>2019-04-06T12:36:28Z</time>
      </trkpt>
      <trkpt lat="60.53032" lon="7.54642">
        <ele>1395.49</ele>
        <time>2019-04-06T12:36:30Z</time>
      </trkpt>
      <trkpt lat="60.53041" lon="7.54638">
        <ele>1396.45</ele>
        <time>2019-04-06T12:36:32Z</time>
      </trkpt>
      <trkpt lat="60.53054" lon="7.54635">
        <ele>1398.37</ele>
        <time>2019-04-06T12:36:35Z</time>
      </trkpt>
      <trkpt lat="60.53062" lon="7.54632">
        <ele>1398.86</ele>
        <time>2019-04-06T12:36:37Z</time>
      </trkpt>
      <trkpt lat="60.53074" lon="7.54629">
        <ele>1400.3</ele>
        <time>2019-04-06T12:36:40Z</time>
      </trkpt>
      <trkpt lat="60.5309" lon="7.54619">
        <ele>1401.74</ele>
        <time>2019-04-06T12:36:44Z</time>
      </trkpt>
      <trkpt lat="60.531" lon="7.54614">
        <ele>1403.66</ele>
        <time>2019-04-06T12:36:47Z</time>
      </trkpt>
      <trkpt lat="60.53114" lon="7.54606">
        <ele>1403.66</ele>
        <time>2019-04-06T12:36:51Z</time>
      </trkpt>
      <trkpt lat="60.53121" lon="7.54598">
        <ele>1403.66</ele>
        <time>2019-04-06T12:36:53Z</time>
      </trkpt>
      <trkpt lat="60.53131" lon="7.54584">
        <ele>1403.66</ele>
        <time>2019-04-06T12:36:56Z</time>
      </trkpt>
      <trkpt lat="60.53151" lon="7.54552">
        <ele>1402.22</ele>
        <time>2019-04-06T12:37:02Z</time>
      </trkpt>
      <trkpt lat="60.53165" lon="7.54531">
        <ele>1399.34</ele>
        <time>2019-04-06T12:37:05Z</time>
      </trkpt>
      <trkpt lat="60.53219" lon="7.54455">
        <ele>1397.89</ele>
        <time>2019-04-06T12:37:16Z</time>
      </trkpt>
      <trkpt lat="60.53228" lon="7.54444">
        <ele>1397.89</ele>
        <time>2019-04-06T12:37:18Z</time>
      </trkpt>
      <trkpt lat="60.5325" lon="7.54411">
        <ele>1396.45</ele>
        <time>2019-04-06T12:37:24Z</time>
      </trkpt>
      <trkpt lat="60.53265" lon="7.54383">
        <ele>1394.05</ele>
        <time>2019-04-06T12:37:28Z</time>
      </trkpt>
      <trkpt lat="60.53278" lon="7.54372">
        <ele>1393.09</ele>
        <time>2019-04-06T12:37:30Z</time>
      </trkpt>
      <trkpt lat="60.53301" lon="7.54351">
        <ele>1385.88</ele>
        <time>2019-04-06T12:37:33Z</time>
      </trkpt>
      <trkpt lat="60.53318" lon="7.54332">
        <ele>1382.03</ele>
        <time>2019-04-06T12:37:35Z</time>
      </trkpt>
      <trkpt lat="60.5337" lon="7.54278">
        <ele>1378.67</ele>
        <time>2019-04-06T12:37:42Z</time>
      </trkpt>
      <trkpt lat="60.53406" lon="7.54248">
        <ele>1376.26</ele>
        <time>2019-04-06T12:37:47Z</time>
      </trkpt>
      <trkpt lat="60.5342" lon="7.54236">
        <ele>1376.26</ele>
        <time>2019-04-06T12:37:49Z</time>
      </trkpt>
      <trkpt lat="60.53444" lon="7.54219">
        <ele>1378.19</ele>
        <time>2019-04-06T12:37:53Z</time>
      </trkpt>
      <trkpt lat="60.53482" lon="7.54194">
        <ele>1378.19</ele>
        <time>2019-04-06T12:37:59Z</time>
      </trkpt>
      <trkpt lat="60.53504" lon="7.54173">
        <ele>1379.15</ele>
        <time>2019-04-06T12:38:03Z</time>
      </trkpt>
      <trkpt lat="60.53521" lon="7.54163">
        <ele>1379.63</ele>
        <time>2019-04-06T12:38:06Z</time>
      </trkpt>
      <trkpt lat="60.53545" lon="7.54148">
        <ele>1379.63</ele>
        <time>2019-04-06T12:38:10Z</time>
      </trkpt>
      <trkpt lat="60.53559" lon="7.54135">
        <ele>1379.63</ele>
        <time>2019-04-06T12:38:13Z</time>
      </trkpt>
      <trkpt lat="60.53586" lon="7.54116">
        <ele>1379.63</ele>
        <time>2019-04-06T12:38:18Z</time>
      </trkpt>
      <trkpt lat="60.536" lon="7.54103">
        <ele>1379.63</ele>
        <time>2019-04-06T12:38:21Z</time>
      </trkpt>
      <trkpt lat="60.53626" lon="7.54079">
        <ele>1380.59</ele>
        <time>2019-04-06T12:38:27Z</time>
      </trkpt>
      <trkpt lat="60.53624" lon="7.54084">
        <ele>1382.99</ele>
        <time>2019-04-06T12:38:34Z</time>
      </trkpt>
      <trkpt lat="60.53615" lon="7.54077">
        <ele>1383.47</ele>
        <time>2019-04-06T12:38:36Z</time>
      </trkpt>
      <trkpt lat="60.53594" lon="7.54056">
        <ele>1384.92</ele>
        <time>2019-04-06T12:38:40Z</time>
      </trkpt>
      <trkpt lat="60.53541" lon="7.53987">
        <ele>1384.92</ele>
        <time>2019-04-06T12:38:51Z</time>
      </trkpt>
      <trkpt lat="60.53527" lon="7.53971">
        <ele>1384.44</ele>
        <time>2019-04-06T12:38:54Z</time>
      </trkpt>
      <trkpt lat="60.53516" lon="7.53958">
        <ele>1384.44</ele>
        <time>2019-04-06T12:38:56Z</time>
      </trkpt>
      <trkpt lat="60.53493" lon="7.53938">
        <ele>1384.44</ele>
        <time>2019-04-06T12:39:00Z</time>
      </trkpt>
      <trkpt lat="60.53448" lon="7.5389">
        <ele>1384.92</ele>
        <time>2019-04-06T12:39:08Z</time>
      </trkpt>
      <trkpt lat="60.53437" lon="7.53907">
        <ele>1382.03</ele>
        <time>2019-04-06T12:39:12Z</time>
      </trkpt>
      <trkpt lat="60.53454" lon="7.53911">
        <ele>1379.15</ele>
        <time>2019-04-06T12:39:16Z</time>
      </trkpt>
      <trkpt lat="60.53465" lon="7.53902">
        <ele>1377.71</ele>
        <time>2019-04-06T12:39:18Z</time>
      </trkpt>
      <trkpt lat="60.5347" lon="7.53896">
        <ele>1377.23</ele>
        <time>2019-04-06T12:39:19Z</time>
      </trkpt>
      <trkpt lat="60.53487" lon="7.53876">
        <ele>1378.67</ele>
        <time>2019-04-06T12:39:23Z</time>
      </trkpt>
      <trkpt lat="60.53501" lon="7.53862">
        <ele>1378.67</ele>
        <time>2019-04-06T12:39:26Z</time>
      </trkpt>
      <trkpt lat="60.53543" lon="7.53815">
        <ele>1378.67</ele>
        <time>2019-04-06T12:39:35Z</time>
      </trkpt>
      <trkpt lat="60.53551" lon="7.53807">
        <ele>1379.15</ele>
        <time>2019-04-06T12:39:37Z</time>
      </trkpt>
      <trkpt lat="60.5356" lon="7.53798">
        <ele>1379.15</ele>
        <time>2019-04-06T12:39:39Z</time>
      </trkpt>
      <trkpt lat="60.53613" lon="7.53751">
        <ele>1377.71</ele>
        <time>2019-04-06T12:39:49Z</time>
      </trkpt>
      <trkpt lat="60.53628" lon="7.53738">
        <ele>1379.15</ele>
        <time>2019-04-06T12:39:52Z</time>
      </trkpt>
      <trkpt lat="60.53646" lon="7.53719">
        <ele>1380.11</ele>
        <time>2019-04-06T12:39:56Z</time>
      </trkpt>
      <trkpt lat="60.53673" lon="7.53694">
        <ele>1380.11</ele>
        <time>2019-04-06T12:40:02Z</time>
      </trkpt>
      <trkpt lat="60.53708" lon="7.53665">
        <ele>1378.67</ele>
        <time>2019-04-06T12:40:09Z</time>
      </trkpt>
      <trkpt lat="60.53739" lon="7.53642">
        <ele>1379.63</ele>
        <time>2019-04-06T12:40:15Z</time>
      </trkpt>
      <trkpt lat="60.53753" lon="7.53632">
        <ele>1379.63</ele>
        <time>2019-04-06T12:40:18Z</time>
      </trkpt>
      <trkpt lat="60.53784" lon="7.53612">
        <ele>1378.67</ele>
        <time>2019-04-06T12:40:24Z</time>
      </trkpt>
      <trkpt lat="60.5379" lon="7.53609">
        <ele>1378.67</ele>
        <time>2019-04-06T12:40:25Z</time>
      </trkpt>
      <trkpt lat="60.53826" lon="7.53582">
        <ele>1380.11</ele>
        <time>2019-04-06T12:40:32Z</time>
      </trkpt>
      <trkpt lat="60.5385" lon="7.53556">
        <ele>1380.11</ele>
        <time>2019-04-06T12:40:38Z</time>
      </trkpt>
      <trkpt lat="60.53866" lon="7.53539">
        <ele>1380.11</ele>
        <time>2019-04-06T12:40:42Z</time>
      </trkpt>
      <trkpt lat="60.53889" lon="7.53525">
        <ele>1382.03</ele>
        <time>2019-04-06T12:40:50Z</time>
      </trkpt>
      <trkpt lat="60.53868" lon="7.53515">
        <ele>1383.47</ele>
        <time>2019-04-06T12:40:55Z</time>
      </trkpt>
      <trkpt lat="60.53853" lon="7.535">
        <ele>1385.4</ele>
        <time>2019-04-06T12:40:58Z</time>
      </trkpt>
      <trkpt lat="60.53833" lon="7.53477">
        <ele>1385.4</ele>
        <time>2019-04-06T12:41:02Z</time>
      </trkpt>
      <trkpt lat="60.53817" lon="7.53452">
        <ele>1386.84</ele>
        <time>2019-04-06T12:41:06Z</time>
      </trkpt>
      <trkpt lat="60.53803" lon="7.53425">
        <ele>1386.84</ele>
        <time>2019-04-06T12:41:11Z</time>
      </trkpt>
      <trkpt lat="60.53779" lon="7.53365">
        <ele>1385.88</ele>
        <time>2019-04-06T12:41:23Z</time>
      </trkpt>
      <trkpt lat="60.53776" lon="7.53362">
        <ele>1385.88</ele>
        <time>2019-04-06T12:41:24Z</time>
      </trkpt>
      <trkpt lat="60.53773" lon="7.53359">
        <ele>1385.88</ele>
        <time>2019-04-06T12:41:25Z</time>
      </trkpt>
      <trkpt lat="60.5376" lon="7.53335">
        <ele>1385.88</ele>
        <time>2019-04-06T12:41:30Z</time>
      </trkpt>
      <trkpt lat="60.53742" lon="7.53299">
        <ele>1386.84</ele>
        <time>2019-04-06T12:41:38Z</time>
      </trkpt>
      <trkpt lat="60.53748" lon="7.53306">
        <ele>1383.47</ele>
        <time>2019-04-06T12:41:44Z</time>
      </trkpt>
      <trkpt lat="60.53776" lon="7.53295">
        <ele>1381.07</ele>
        <time>2019-04-06T12:41:50Z</time>
      </trkpt>
      <trkpt lat="60.53831" lon="7.53276">
        <ele>1377.23</ele>
        <time>2019-04-06T12:41:59Z</time>
      </trkpt>
      <trkpt lat="60.53856" lon="7.53268">
        <ele>1375.78</ele>
        <time>2019-04-06T12:42:02Z</time>
      </trkpt>
      <trkpt lat="60.53878" lon="7.53257">
        <ele>1377.71</ele>
        <time>2019-04-06T12:42:05Z</time>
      </trkpt>
      <trkpt lat="60.53892" lon="7.53255">
        <ele>1378.67</ele>
        <time>2019-04-06T12:42:07Z</time>
      </trkpt>
      <trkpt lat="60.53939" lon="7.5326">
        <ele>1377.23</ele>
        <time>2019-04-06T12:42:13Z</time>
      </trkpt>
      <trkpt lat="60.53971" lon="7.53267">
        <ele>1379.15</ele>
        <time>2019-04-06T12:42:17Z</time>
      </trkpt>
      <trkpt lat="60.54015" lon="7.53271">
        <ele>1382.51</ele>
        <time>2019-04-06T12:42:23Z</time>
      </trkpt>
      <trkpt lat="60.54031" lon="7.53272">
        <ele>1385.88</ele>
        <time>2019-04-06T12:42:26Z</time>
      </trkpt>
      <trkpt lat="60.54042" lon="7.53276">
        <ele>1386.36</ele>
        <time>2019-04-06T12:42:28Z</time>
      </trkpt>
      <trkpt lat="60.54058" lon="7.53279">
        <ele>1387.8</ele>
        <time>2019-04-06T12:42:31Z</time>
      </trkpt>
      <trkpt lat="60.54065" lon="7.53279">
        <ele>1387.8</ele>
        <time>2019-04-06T12:42:32Z</time>
      </trkpt>
      <trkpt lat="60.54086" lon="7.53282">
        <ele>1387.8</ele>
        <time>2019-04-06T12:42:35Z</time>
      </trkpt>
      <trkpt lat="60.54111" lon="7.53286">
        <ele>1385.4</ele>
        <time>2019-04-06T12:42:38Z</time>
      </trkpt>
      <trkpt lat="60.54127" lon="7.53287">
        <ele>1385.4</ele>
        <time>2019-04-06T12:42:40Z</time>
      </trkpt>
      <trkpt lat="60.54151" lon="7.5329">
        <ele>1384.92</ele>
        <time>2019-04-06T12:42:43Z</time>
      </trkpt>
      <trkpt lat="60.54189" lon="7.5329">
        <ele>1386.36</ele>
        <time>2019-04-06T12:42:48Z</time>
      </trkpt>
      <trkpt lat="60.54197" lon="7.53291">
        <ele>1388.28</ele>
        <time>2019-04-06T12:42:50Z</time>
      </trkpt>
      <trkpt lat="60.54202" lon="7.53295">
        <ele>1389.72</ele>
        <time>2019-04-06T12:42:53Z</time>
      </trkpt>
      <trkpt lat="60.54211" lon="7.53314">
        <ele>1390.2</ele>
        <time>2019-04-06T12:42:59Z</time>
      </trkpt>
      <trkpt lat="60.54215" lon="7.53316">
        <ele>1391.65</ele>
        <time>2019-04-06T12:43:03Z</time>
      </trkpt>
      <trkpt lat="60.54233" lon="7.53344">
        <ele>1392.61</ele>
        <time>2019-04-06T12:43:12Z</time>
      </trkpt>
      <trkpt lat="60.54241" lon="7.53358">
        <ele>1393.09</ele>
        <time>2019-04-06T12:43:15Z</time>
      </trkpt>
      <trkpt lat="60.54263" lon="7.53391">
        <ele>1395.01</ele>
        <time>2019-04-06T12:43:24Z</time>
      </trkpt>
      <trkpt lat="60.54282" lon="7.53413">
        <ele>1396.45</ele>
        <time>2019-04-06T12:43:32Z</time>
      </trkpt>
      <trkpt lat="60.54294" lon="7.53424">
        <ele>1396.45</ele>
        <time>2019-04-06T12:43:38Z</time>
      </trkpt>
      <trkpt lat="60.54302" lon="7.53432">
        <ele>1397.41</ele>
        <time>2019-04-06T12:43:43Z</time>
      </trkpt>
      <trkpt lat="60.54329" lon="7.53435">
        <ele>1396.45</ele>
        <time>2019-04-06T12:43:52Z</time>
      </trkpt>
      <trkpt lat="60.54347" lon="7.53426">
        <ele>1395.49</ele>
        <time>2019-04-06T12:43:56Z</time>
      </trkpt>
      <trkpt lat="60.54357" lon="7.53417">
        <ele>1395.01</ele>
        <time>2019-04-06T12:43:58Z</time>
      </trkpt>
      <trkpt lat="60.54378" lon="7.53403">
        <ele>1394.05</ele>
        <time>2019-04-06T12:44:02Z</time>
      </trkpt>
      <trkpt lat="60.54394" lon="7.53396">
        <ele>1393.09</ele>
        <time>2019-04-06T12:44:05Z</time>
      </trkpt>
      <trkpt lat="60.54412" lon="7.53386">
        <ele>1391.17</ele>
        <time>2019-04-06T12:44:08Z</time>
      </trkpt>
      <trkpt lat="60.54424" lon="7.53376">
        <ele>1391.17</ele>
        <time>2019-04-06T12:44:10Z</time>
      </trkpt>
      <trkpt lat="60.54446" lon="7.53369">
        <ele>1391.17</ele>
        <time>2019-04-06T12:44:14Z</time>
      </trkpt>
      <trkpt lat="60.54456" lon="7.53367">
        <ele>1390.2</ele>
        <time>2019-04-06T12:44:16Z</time>
      </trkpt>
      <trkpt lat="60.54467" lon="7.53371">
        <ele>1389.72</ele>
        <time>2019-04-06T12:44:18Z</time>
      </trkpt>
      <trkpt lat="60.5449" lon="7.53372">
        <ele>1386.84</ele>
        <time>2019-04-06T12:44:22Z</time>
      </trkpt>
      <trkpt lat="60.54497" lon="7.53372">
        <ele>1386.36</ele>
        <time>2019-04-06T12:44:23Z</time>
      </trkpt>
      <trkpt lat="60.54531" lon="7.53363">
        <ele>1382.03</ele>
        <time>2019-04-06T12:44:28Z</time>
      </trkpt>
      <trkpt lat="60.5455" lon="7.53355">
        <ele>1381.55</ele>
        <time>2019-04-06T12:44:31Z</time>
      </trkpt>
      <trkpt lat="60.54563" lon="7.53353">
        <ele>1385.4</ele>
        <time>2019-04-06T12:44:35Z</time>
      </trkpt>
      <trkpt lat="60.54568" lon="7.53354">
        <ele>1385.4</ele>
        <time>2019-04-06T12:44:37Z</time>
      </trkpt>
      <trkpt lat="60.5457" lon="7.53357">
        <ele>1386.84</ele>
        <time>2019-04-06T12:44:40Z</time>
      </trkpt>
      <trkpt lat="60.54573" lon="7.53363">
        <ele>1386.84</ele>
        <time>2019-04-06T12:44:43Z</time>
      </trkpt>
      <trkpt lat="60.54578" lon="7.53369">
        <ele>1386.84</ele>
        <time>2019-04-06T12:44:45Z</time>
      </trkpt>
      <trkpt lat="60.54637" lon="7.53358">
        <ele>1381.55</ele>
        <time>2019-04-06T12:44:56Z</time>
      </trkpt>
      <trkpt lat="60.54663" lon="7.53353">
        <ele>1380.59</ele>
        <time>2019-04-06T12:45:00Z</time>
      </trkpt>
      <trkpt lat="60.54688" lon="7.53348">
        <ele>1380.59</ele>
        <time>2019-04-06T12:45:05Z</time>
      </trkpt>
      <trkpt lat="60.54714" lon="7.53348">
        <ele>1377.23</ele>
        <time>2019-04-06T12:45:11Z</time>
      </trkpt>
      <trkpt lat="60.54717" lon="7.53346">
        <ele>1377.23</ele>
        <time>2019-04-06T12:45:12Z</time>
      </trkpt>
      <trkpt lat="60.54737" lon="7.53342">
        <ele>1374.34</ele>
        <time>2019-04-06T12:45:16Z</time>
      </trkpt>
      <trkpt lat="60.54748" lon="7.53342">
        <ele>1371.94</ele>
        <time>2019-04-06T12:45:18Z</time>
      </trkpt>
      <trkpt lat="60.54758" lon="7.53341">
        <ele>1372.42</ele>
        <time>2019-04-06T12:45:20Z</time>
      </trkpt>
      <trkpt lat="60.5478" lon="7.53336">
        <ele>1370.98</ele>
        <time>2019-04-06T12:45:24Z</time>
      </trkpt>
      <trkpt lat="60.54798" lon="7.53322">
        <ele>1365.21</ele>
        <time>2019-04-06T12:45:27Z</time>
      </trkpt>
      <trkpt lat="60.54804" lon="7.53316">
        <ele>1364.73</ele>
        <time>2019-04-06T12:45:28Z</time>
      </trkpt>
      <trkpt lat="60.54825" lon="7.53299">
        <ele>1366.65</ele>
        <time>2019-04-06T12:45:32Z</time>
      </trkpt>
      <trkpt lat="60.54834" lon="7.53289">
        <ele>1365.21</ele>
        <time>2019-04-06T12:45:34Z</time>
      </trkpt>
      <trkpt lat="60.54855" lon="7.5327">
        <ele>1362.33</ele>
        <time>2019-04-06T12:45:38Z</time>
      </trkpt>
      <trkpt lat="60.5486" lon="7.53264">
        <ele>1362.33</ele>
        <time>2019-04-06T12:45:39Z</time>
      </trkpt>
      <trkpt lat="60.54874" lon="7.53249">
        <ele>1362.81</ele>
        <time>2019-04-06T12:45:42Z</time>
      </trkpt>
      <trkpt lat="60.54889" lon="7.5324">
        <ele>1360.88</ele>
        <time>2019-04-06T12:45:45Z</time>
      </trkpt>
      <trkpt lat="60.54911" lon="7.53221">
        <ele>1359.44</ele>
        <time>2019-04-06T12:45:49Z</time>
      </trkpt>
      <trkpt lat="60.54931" lon="7.53202">
        <ele>1358.96</ele>
        <time>2019-04-06T12:45:53Z</time>
      </trkpt>
      <trkpt lat="60.54949" lon="7.53192">
        <ele>1355.6</ele>
        <time>2019-04-06T12:45:56Z</time>
      </trkpt>
      <trkpt lat="60.54955" lon="7.53189">
        <ele>1355.6</ele>
        <time>2019-04-06T12:45:57Z</time>
      </trkpt>
      <trkpt lat="60.54983" lon="7.53179">
        <ele>1352.23</ele>
        <time>2019-04-06T12:46:02Z</time>
      </trkpt>
      <trkpt lat="60.54989" lon="7.53179">
        <ele>1352.23</ele>
        <time>2019-04-06T12:46:03Z</time>
      </trkpt>
      <trkpt lat="60.54995" lon="7.53178">
        <ele>1352.23</ele>
        <time>2019-04-06T12:46:04Z</time>
      </trkpt>
      <trkpt lat="60.55041" lon="7.53164">
        <ele>1348.87</ele>
        <time>2019-04-06T12:46:10Z</time>
      </trkpt>
      <trkpt lat="60.55067" lon="7.53155">
        <ele>1345.98</ele>
        <time>2019-04-06T12:46:13Z</time>
      </trkpt>
      <trkpt lat="60.55082" lon="7.53155">
        <ele>1345.5</ele>
        <time>2019-04-06T12:46:15Z</time>
      </trkpt>
      <trkpt lat="60.55115" lon="7.53155">
        <ele>1343.1</ele>
        <time>2019-04-06T12:46:19Z</time>
      </trkpt>
      <trkpt lat="60.55143" lon="7.53154">
        <ele>1343.1</ele>
        <time>2019-04-06T12:46:23Z</time>
      </trkpt>
      <trkpt lat="60.55172" lon="7.53157">
        <ele>1343.1</ele>
        <time>2019-04-06T12:46:27Z</time>
      </trkpt>
      <trkpt lat="60.55201" lon="7.53158">
        <ele>1341.18</ele>
        <time>2019-04-06T12:46:31Z</time>
      </trkpt>
      <trkpt lat="60.55222" lon="7.53153">
        <ele>1343.1</ele>
        <time>2019-04-06T12:46:34Z</time>
      </trkpt>
      <trkpt lat="60.55234" lon="7.53149">
        <ele>1341.18</ele>
        <time>2019-04-06T12:46:36Z</time>
      </trkpt>
      <trkpt lat="60.55249" lon="7.53151">
        <ele>1344.06</ele>
        <time>2019-04-06T12:46:39Z</time>
      </trkpt>
      <trkpt lat="60.55272" lon="7.53153">
        <ele>1342.14</ele>
        <time>2019-04-06T12:46:43Z</time>
      </trkpt>
      <trkpt lat="60.55278" lon="7.53153">
        <ele>1342.14</ele>
        <time>2019-04-06T12:46:44Z</time>
      </trkpt>
      <trkpt lat="60.55303" lon="7.53152">
        <ele>1341.18</ele>
        <time>2019-04-06T12:46:48Z</time>
      </trkpt>
      <trkpt lat="60.55328" lon="7.53144">
        <ele>1343.1</ele>
        <time>2019-04-06T12:46:53Z</time>
      </trkpt>
      <trkpt lat="60.55343" lon="7.53138">
        <ele>1343.1</ele>
        <time>2019-04-06T12:46:56Z</time>
      </trkpt>
      <trkpt lat="60.55371" lon="7.53129">
        <ele>1340.7</ele>
        <time>2019-04-06T12:47:02Z</time>
      </trkpt>
      <trkpt lat="60.55414" lon="7.53096">
        <ele>1338.77</ele>
        <time>2019-04-06T12:47:09Z</time>
      </trkpt>
      <trkpt lat="60.55425" lon="7.53086">
        <ele>1334.93</ele>
        <time>2019-04-06T12:47:11Z</time>
      </trkpt>
      <trkpt lat="60.55442" lon="7.5307">
        <ele>1331.08</ele>
        <time>2019-04-06T12:47:14Z</time>
      </trkpt>
      <trkpt lat="60.55449" lon="7.53065">
        <ele>1331.08</ele>
        <time>2019-04-06T12:47:15Z</time>
      </trkpt>
      <trkpt lat="60.55462" lon="7.53054">
        <ele>1329.16</ele>
        <time>2019-04-06T12:47:17Z</time>
      </trkpt>
      <trkpt lat="60.55481" lon="7.53038">
        <ele>1328.2</ele>
        <time>2019-04-06T12:47:20Z</time>
      </trkpt>
      <trkpt lat="60.55514" lon="7.53012">
        <ele>1327.24</ele>
        <time>2019-04-06T12:47:27Z</time>
      </trkpt>
      <trkpt lat="60.55528" lon="7.53006">
        <ele>1328.68</ele>
        <time>2019-04-06T12:47:30Z</time>
      </trkpt>
      <trkpt lat="60.5555" lon="7.52997">
        <ele>1326.76</ele>
        <time>2019-04-06T12:47:34Z</time>
      </trkpt>
      <trkpt lat="60.55592" lon="7.52989">
        <ele>1326.28</ele>
        <time>2019-04-06T12:47:41Z</time>
      </trkpt>
      <trkpt lat="60.55613" lon="7.52989">
        <ele>1324.35</ele>
        <time>2019-04-06T12:47:45Z</time>
      </trkpt>
      <trkpt lat="60.55617" lon="7.52993">
        <ele>1327.72</ele>
        <time>2019-04-06T12:47:46Z</time>
      </trkpt>
      <trkpt lat="60.55617" lon="7.52997">
        <ele>1329.16</ele>
        <time>2019-04-06T12:47:49Z</time>
      </trkpt>
      <trkpt lat="60.55616" lon="7.53002">
        <ele>1329.16</ele>
        <time>2019-04-06T12:47:53Z</time>
      </trkpt>
      <trkpt lat="60.55607" lon="7.53007">
        <ele>1329.16</ele>
        <time>2019-04-06T12:47:59Z</time>
      </trkpt>
      <trkpt lat="60.55611" lon="7.53026">
        <ele>1326.76</ele>
        <time>2019-04-06T12:48:04Z</time>
      </trkpt>
      <trkpt lat="60.55617" lon="7.53029">
        <ele>1326.28</ele>
        <time>2019-04-06T12:48:06Z</time>
      </trkpt>
      <trkpt lat="60.55626" lon="7.53032">
        <ele>1324.83</ele>
        <time>2019-04-06T12:48:08Z</time>
      </trkpt>
      <trkpt lat="60.55636" lon="7.53035">
        <ele>1326.28</ele>
        <time>2019-04-06T12:48:10Z</time>
      </trkpt>
      <trkpt lat="60.55667" lon="7.53045">
        <ele>1326.28</ele>
        <time>2019-04-06T12:48:16Z</time>
      </trkpt>
      <trkpt lat="60.55683" lon="7.53055">
        <ele>1325.31</ele>
        <time>2019-04-06T12:48:19Z</time>
      </trkpt>
      <trkpt lat="60.55696" lon="7.53063">
        <ele>1325.31</ele>
        <time>2019-04-06T12:48:21Z</time>
      </trkpt>
      <trkpt lat="60.55734" lon="7.53085">
        <ele>1325.8</ele>
        <time>2019-04-06T12:48:27Z</time>
      </trkpt>
      <trkpt lat="60.55748" lon="7.53095">
        <ele>1324.35</ele>
        <time>2019-04-06T12:48:29Z</time>
      </trkpt>
      <trkpt lat="60.55769" lon="7.53107">
        <ele>1324.35</ele>
        <time>2019-04-06T12:48:32Z</time>
      </trkpt>
      <trkpt lat="60.55797" lon="7.53115">
        <ele>1324.35</ele>
        <time>2019-04-06T12:48:36Z</time>
      </trkpt>
      <trkpt lat="60.55811" lon="7.53119">
        <ele>1325.8</ele>
        <time>2019-04-06T12:48:38Z</time>
      </trkpt>
      <trkpt lat="60.55846" lon="7.53134">
        <ele>1322.43</ele>
        <time>2019-04-06T12:48:43Z</time>
      </trkpt>
      <trkpt lat="60.55873" lon="7.53147">
        <ele>1324.83</ele>
        <time>2019-04-06T12:48:47Z</time>
      </trkpt>
      <trkpt lat="60.55891" lon="7.53161">
        <ele>1324.35</ele>
        <time>2019-04-06T12:48:50Z</time>
      </trkpt>
      <trkpt lat="60.55914" lon="7.53174">
        <ele>1322.91</ele>
        <time>2019-04-06T12:48:53Z</time>
      </trkpt>
      <trkpt lat="60.55922" lon="7.53178">
        <ele>1322.91</ele>
        <time>2019-04-06T12:48:54Z</time>
      </trkpt>
      <trkpt lat="60.55958" lon="7.53196">
        <ele>1323.87</ele>
        <time>2019-04-06T12:48:59Z</time>
      </trkpt>
      <trkpt lat="60.55976" lon="7.53203">
        <ele>1325.31</ele>
        <time>2019-04-06T12:49:02Z</time>
      </trkpt>
      <trkpt lat="60.55989" lon="7.53205">
        <ele>1325.31</ele>
        <time>2019-04-06T12:49:04Z</time>
      </trkpt>
      <trkpt lat="60.56023" lon="7.532">
        <ele>1329.16</ele>
        <time>2019-04-06T12:49:11Z</time>
      </trkpt>
      <trkpt lat="60.56027" lon="7.532">
        <ele>1329.16</ele>
        <time>2019-04-06T12:49:12Z</time>
      </trkpt>
      <trkpt lat="60.56038" lon="7.53201">
        <ele>1329.64</ele>
        <time>2019-04-06T12:49:15Z</time>
      </trkpt>
      <trkpt lat="60.5605" lon="7.53196">
        <ele>1328.2</ele>
        <time>2019-04-06T12:49:18Z</time>
      </trkpt>
      <trkpt lat="60.56091" lon="7.53163">
        <ele>1324.83</ele>
        <time>2019-04-06T12:49:27Z</time>
      </trkpt>
      <trkpt lat="60.56117" lon="7.53138">
        <ele>1325.31</ele>
        <time>2019-04-06T12:49:32Z</time>
      </trkpt>
      <trkpt lat="60.56146" lon="7.53114">
        <ele>1326.76</ele>
        <time>2019-04-06T12:49:40Z</time>
      </trkpt>
      <trkpt lat="60.5616" lon="7.53091">
        <ele>1325.31</ele>
        <time>2019-04-06T12:49:46Z</time>
      </trkpt>
      <trkpt lat="60.56166" lon="7.53081">
        <ele>1324.83</ele>
        <time>2019-04-06T12:49:48Z</time>
      </trkpt>
      <trkpt lat="60.56189" lon="7.53038">
        <ele>1323.39</ele>
        <time>2019-04-06T12:49:57Z</time>
      </trkpt>
      <trkpt lat="60.56195" lon="7.53029">
        <ele>1322.91</ele>
        <time>2019-04-06T12:49:59Z</time>
      </trkpt>
      <trkpt lat="60.56226" lon="7.52982">
        <ele>1320.51</ele>
        <time>2019-04-06T12:50:08Z</time>
      </trkpt>
      <trkpt lat="60.56248" lon="7.52962">
        <ele>1318.59</ele>
        <time>2019-04-06T12:50:12Z</time>
      </trkpt>
      <trkpt lat="60.56265" lon="7.52956">
        <ele>1318.1</ele>
        <time>2019-04-06T12:50:15Z</time>
      </trkpt>
      <trkpt lat="60.56334" lon="7.52927">
        <ele>1317.62</ele>
        <time>2019-04-06T12:50:26Z</time>
      </trkpt>
      <trkpt lat="60.5636" lon="7.52902">
        <ele>1318.1</ele>
        <time>2019-04-06T12:50:31Z</time>
      </trkpt>
      <trkpt lat="60.56379" lon="7.52879">
        <ele>1319.55</ele>
        <time>2019-04-06T12:50:35Z</time>
      </trkpt>
      <trkpt lat="60.56387" lon="7.52869">
        <ele>1320.51</ele>
        <time>2019-04-06T12:50:37Z</time>
      </trkpt>
      <trkpt lat="60.56408" lon="7.52842">
        <ele>1316.18</ele>
        <time>2019-04-06T12:50:42Z</time>
      </trkpt>
      <trkpt lat="60.56419" lon="7.5283">
        <ele>1315.22</ele>
        <time>2019-04-06T12:50:44Z</time>
      </trkpt>
      <trkpt lat="60.56444" lon="7.52804">
        <ele>1312.82</ele>
        <time>2019-04-06T12:50:49Z</time>
      </trkpt>
      <trkpt lat="60.56453" lon="7.52791">
        <ele>1312.34</ele>
        <time>2019-04-06T12:50:51Z</time>
      </trkpt>
      <trkpt lat="60.56471" lon="7.52777">
        <ele>1312.34</ele>
        <time>2019-04-06T12:50:54Z</time>
      </trkpt>
      <trkpt lat="60.56499" lon="7.52759">
        <ele>1307.05</ele>
        <time>2019-04-06T12:50:58Z</time>
      </trkpt>
      <trkpt lat="60.56532" lon="7.52742">
        <ele>1307.05</ele>
        <time>2019-04-06T12:51:03Z</time>
      </trkpt>
      <trkpt lat="60.56568" lon="7.52726">
        <ele>1309.93</ele>
        <time>2019-04-06T12:51:10Z</time>
      </trkpt>
      <trkpt lat="60.56604" lon="7.52699">
        <ele>1310.9</ele>
        <time>2019-04-06T12:51:18Z</time>
      </trkpt>
      <trkpt lat="60.56628" lon="7.52687">
        <ele>1310.9</ele>
        <time>2019-04-06T12:51:24Z</time>
      </trkpt>
      <trkpt lat="60.56646" lon="7.52677">
        <ele>1308.97</ele>
        <time>2019-04-06T12:51:28Z</time>
      </trkpt>
      <trkpt lat="60.5667" lon="7.52645">
        <ele>1308.01</ele>
        <time>2019-04-06T12:51:36Z</time>
      </trkpt>
      <trkpt lat="60.56672" lon="7.52645">
        <ele>1308.01</ele>
        <time>2019-04-06T12:51:38Z</time>
      </trkpt>
      <trkpt lat="60.56675" lon="7.52657">
        <ele>1309.45</ele>
        <time>2019-04-06T12:51:41Z</time>
      </trkpt>
      <trkpt lat="60.56671" lon="7.52681">
        <ele>1308.01</ele>
        <time>2019-04-06T12:51:45Z</time>
      </trkpt>
      <trkpt lat="60.56666" lon="7.52722">
        <ele>1306.09</ele>
        <time>2019-04-06T12:51:57Z</time>
      </trkpt>
      <trkpt lat="60.5668" lon="7.52759">
        <ele>1301.76</ele>
        <time>2019-04-06T12:52:06Z</time>
      </trkpt>
      <trkpt lat="60.56696" lon="7.52761">
        <ele>1297.44</ele>
        <time>2019-04-06T12:52:10Z</time>
      </trkpt>
      <trkpt lat="60.56703" lon="7.52759">
        <ele>1296.48</ele>
        <time>2019-04-06T12:52:12Z</time>
      </trkpt>
      <trkpt lat="60.56716" lon="7.52753">
        <ele>1293.11</ele>
        <time>2019-04-06T12:52:15Z</time>
      </trkpt>
      <trkpt lat="60.56726" lon="7.52747">
        <ele>1290.23</ele>
        <time>2019-04-06T12:52:17Z</time>
      </trkpt>
      <trkpt lat="60.56731" lon="7.52743">
        <ele>1288.3</ele>
        <time>2019-04-06T12:52:18Z</time>
      </trkpt>
      <trkpt lat="60.5675" lon="7.52729">
        <ele>1283.02</ele>
        <time>2019-04-06T12:52:21Z</time>
      </trkpt>
      <trkpt lat="60.56764" lon="7.52715">
        <ele>1279.17</ele>
        <time>2019-04-06T12:52:23Z</time>
      </trkpt>
      <trkpt lat="60.56792" lon="7.52688">
        <ele>1275.81</ele>
        <time>2019-04-06T12:52:27Z</time>
      </trkpt>
      <trkpt lat="60.56805" lon="7.52679">
        <ele>1275.81</ele>
        <time>2019-04-06T12:52:29Z</time>
      </trkpt>
      <trkpt lat="60.56814" lon="7.52675">
        <ele>1277.73</ele>
        <time>2019-04-06T12:52:31Z</time>
      </trkpt>
      <trkpt lat="60.5682" lon="7.52674">
        <ele>1281.09</ele>
        <time>2019-04-06T12:52:34Z</time>
      </trkpt>
      <trkpt lat="60.56823" lon="7.52677">
        <ele>1281.57</ele>
        <time>2019-04-06T12:52:36Z</time>
      </trkpt>
      <trkpt lat="60.56837" lon="7.52678">
        <ele>1282.06</ele>
        <time>2019-04-06T12:52:45Z</time>
      </trkpt>
      <trkpt lat="60.56838" lon="7.52679">
        <ele>1282.06</ele>
        <time>2019-04-06T12:52:52Z</time>
      </trkpt>
      <trkpt lat="60.56849" lon="7.52689">
        <ele>1280.61</ele>
        <time>2019-04-06T12:52:57Z</time>
      </trkpt>
      <trkpt lat="60.56861" lon="7.52696">
        <ele>1278.69</ele>
        <time>2019-04-06T12:53:01Z</time>
      </trkpt>
      <trkpt lat="60.56865" lon="7.52694">
        <ele>1278.21</ele>
        <time>2019-04-06T12:53:02Z</time>
      </trkpt>
      <trkpt lat="60.56893" lon="7.52678">
        <ele>1274.85</ele>
        <time>2019-04-06T12:53:09Z</time>
      </trkpt>
      <trkpt lat="60.56917" lon="7.52661">
        <ele>1271</ele>
        <time>2019-04-06T12:53:14Z</time>
      </trkpt>
      <trkpt lat="60.56922" lon="7.52658">
        <ele>1270.04</ele>
        <time>2019-04-06T12:53:15Z</time>
      </trkpt>
      <trkpt lat="60.56942" lon="7.52655">
        <ele>1270.04</ele>
        <time>2019-04-06T12:53:19Z</time>
      </trkpt>
      <trkpt lat="60.56967" lon="7.52681">
        <ele>1268.12</ele>
        <time>2019-04-06T12:53:27Z</time>
      </trkpt>
      <trkpt lat="60.56977" lon="7.52691">
        <ele>1266.19</ele>
        <time>2019-04-06T12:53:29Z</time>
      </trkpt>
      <trkpt lat="60.57008" lon="7.52705">
        <ele>1266.19</ele>
        <time>2019-04-06T12:53:35Z</time>
      </trkpt>
      <trkpt lat="60.57029" lon="7.52713">
        <ele>1265.71</ele>
        <time>2019-04-06T12:53:39Z</time>
      </trkpt>
      <trkpt lat="60.57044" lon="7.52722">
        <ele>1265.23</ele>
        <time>2019-04-06T12:53:42Z</time>
      </trkpt>
      <trkpt lat="60.57057" lon="7.52736">
        <ele>1265.23</ele>
        <time>2019-04-06T12:53:45Z</time>
      </trkpt>
      <trkpt lat="60.57075" lon="7.52758">
        <ele>1264.27</ele>
        <time>2019-04-06T12:53:49Z</time>
      </trkpt>
      <trkpt lat="60.57088" lon="7.52777">
        <ele>1263.79</ele>
        <time>2019-04-06T12:53:52Z</time>
      </trkpt>
      <trkpt lat="60.57103" lon="7.52801">
        <ele>1263.79</ele>
        <time>2019-04-06T12:53:56Z</time>
      </trkpt>
      <trkpt lat="60.5711" lon="7.52812">
        <ele>1265.23</ele>
        <time>2019-04-06T12:53:58Z</time>
      </trkpt>
      <trkpt lat="60.57113" lon="7.52817">
        <ele>1265.23</ele>
        <time>2019-04-06T12:53:59Z</time>
      </trkpt>
      <trkpt lat="60.57115" lon="7.52837">
        <ele>1268.6</ele>
        <time>2019-04-06T12:54:06Z</time>
      </trkpt>
      <trkpt lat="60.5711" lon="7.52796">
        <ele>1268.6</ele>
        <time>2019-04-06T12:54:10Z</time>
      </trkpt>
      <trkpt lat="60.57106" lon="7.52661">
        <ele>1268.6</ele>
        <time>2019-04-06T12:54:22Z</time>
      </trkpt>
      <trkpt lat="60.57105" lon="7.52642">
        <ele>1267.16</ele>
        <time>2019-04-06T12:54:24Z</time>
      </trkpt>
      <trkpt lat="60.57106" lon="7.52623">
        <ele>1267.16</ele>
        <time>2019-04-06T12:54:26Z</time>
      </trkpt>
      <trkpt lat="60.57106" lon="7.52604">
        <ele>1266.67</ele>
        <time>2019-04-06T12:54:28Z</time>
      </trkpt>
      <trkpt lat="60.57113" lon="7.52525">
        <ele>1265.71</ele>
        <time>2019-04-06T12:54:37Z</time>
      </trkpt>
      <trkpt lat="60.57117" lon="7.5253">
        <ele>1262.83</ele>
        <time>2019-04-06T12:54:44Z</time>
      </trkpt>
      <trkpt lat="60.57146" lon="7.52563">
        <ele>1263.31</ele>
        <time>2019-04-06T12:54:52Z</time>
      </trkpt>
      <trkpt lat="60.57153" lon="7.52573">
        <ele>1263.31</ele>
        <time>2019-04-06T12:54:54Z</time>
      </trkpt>
      <trkpt lat="60.57185" lon="7.52623">
        <ele>1264.75</ele>
        <time>2019-04-06T12:55:03Z</time>
      </trkpt>
      <trkpt lat="60.57194" lon="7.52642">
        <ele>1265.71</ele>
        <time>2019-04-06T12:55:06Z</time>
      </trkpt>
      <trkpt lat="60.57225" lon="7.52695">
        <ele>1265.71</ele>
        <time>2019-04-06T12:55:14Z</time>
      </trkpt>
      <trkpt lat="60.57243" lon="7.52727">
        <ele>1267.64</ele>
        <time>2019-04-06T12:55:19Z</time>
      </trkpt>
      <trkpt lat="60.57247" lon="7.52734">
        <ele>1267.64</ele>
        <time>2019-04-06T12:55:20Z</time>
      </trkpt>
      <trkpt lat="60.57248" lon="7.52747">
        <ele>1269.56</ele>
        <time>2019-04-06T12:55:24Z</time>
      </trkpt>
      <trkpt lat="60.57243" lon="7.52718">
        <ele>1270.52</ele>
        <time>2019-04-06T12:55:28Z</time>
      </trkpt>
      <trkpt lat="60.57242" lon="7.52684">
        <ele>1270.52</ele>
        <time>2019-04-06T12:55:31Z</time>
      </trkpt>
      <trkpt lat="60.57244" lon="7.52638">
        <ele>1268.6</ele>
        <time>2019-04-06T12:55:35Z</time>
      </trkpt>
      <trkpt lat="60.57245" lon="7.5252">
        <ele>1266.19</ele>
        <time>2019-04-06T12:55:46Z</time>
      </trkpt>
      <trkpt lat="60.57248" lon="7.5244">
        <ele>1265.71</ele>
        <time>2019-04-06T12:55:55Z</time>
      </trkpt>
      <trkpt lat="60.57256" lon="7.5238">
        <ele>1262.35</ele>
        <time>2019-04-06T12:56:01Z</time>
      </trkpt>
      <trkpt lat="60.57257" lon="7.52368">
        <ele>1262.35</ele>
        <time>2019-04-06T12:56:02Z</time>
      </trkpt>
      <trkpt lat="60.57265" lon="7.52286">
        <ele>1258.98</ele>
        <time>2019-04-06T12:56:09Z</time>
      </trkpt>
      <trkpt lat="60.57269" lon="7.52237">
        <ele>1257.54</ele>
        <time>2019-04-06T12:56:13Z</time>
      </trkpt>
      <trkpt lat="60.5727" lon="7.52177">
        <ele>1256.58</ele>
        <time>2019-04-06T12:56:19Z</time>
      </trkpt>
      <trkpt lat="60.57267" lon="7.52123">
        <ele>1256.1</ele>
        <time>2019-04-06T12:56:26Z</time>
      </trkpt>
      <trkpt lat="60.57272" lon="7.52141">
        <ele>1253.22</ele>
        <time>2019-04-06T12:56:33Z</time>
      </trkpt>
      <trkpt lat="60.57294" lon="7.5217">
        <ele>1254.66</ele>
        <time>2019-04-06T12:56:43Z</time>
      </trkpt>
      <trkpt lat="60.57311" lon="7.52181">
        <ele>1253.7</ele>
        <time>2019-04-06T12:56:49Z</time>
      </trkpt>
      <trkpt lat="60.57338" lon="7.52211">
        <ele>1254.66</ele>
        <time>2019-04-06T12:57:00Z</time>
      </trkpt>
      <trkpt lat="60.5734" lon="7.52215">
        <ele>1255.14</ele>
        <time>2019-04-06T12:57:01Z</time>
      </trkpt>
      <trkpt lat="60.57342" lon="7.52219">
        <ele>1255.14</ele>
        <time>2019-04-06T12:57:02Z</time>
      </trkpt>
      <trkpt lat="60.57357" lon="7.52235">
        <ele>1255.14</ele>
        <time>2019-04-06T12:57:08Z</time>
      </trkpt>
      <trkpt lat="60.57367" lon="7.52242">
        <ele>1255.14</ele>
        <time>2019-04-06T12:57:12Z</time>
      </trkpt>
      <trkpt lat="60.5736" lon="7.52233">
        <ele>1256.58</ele>
        <time>2019-04-06T12:57:19Z</time>
      </trkpt>
      <trkpt lat="60.57359" lon="7.52226">
        <ele>1256.58</ele>
        <time>2019-04-06T12:57:20Z</time>
      </trkpt>
      <trkpt lat="60.57346" lon="7.52147">
        <ele>1256.58</ele>
        <time>2019-04-06T12:57:33Z</time>
      </trkpt>
      <trkpt lat="60.57344" lon="7.52134">
        <ele>1255.14</ele>
        <time>2019-04-06T12:57:35Z</time>
      </trkpt>
      <trkpt lat="60.57338" lon="7.52087">
        <ele>1253.7</ele>
        <time>2019-04-06T12:57:43Z</time>
      </trkpt>
      <trkpt lat="60.57335" lon="7.52086">
        <ele>1253.22</ele>
        <time>2019-04-06T12:57:46Z</time>
      </trkpt>
      <trkpt lat="60.57343" lon="7.521">
        <ele>1252.74</ele>
        <time>2019-04-06T12:57:50Z</time>
      </trkpt>
      <trkpt lat="60.57388" lon="7.5212">
        <ele>1251.29</ele>
        <time>2019-04-06T12:58:04Z</time>
      </trkpt>
      <trkpt lat="60.57412" lon="7.52128">
        <ele>1249.85</ele>
        <time>2019-04-06T12:58:11Z</time>
      </trkpt>
      <trkpt lat="60.57418" lon="7.52141">
        <ele>1251.29</ele>
        <time>2019-04-06T12:58:14Z</time>
      </trkpt>
      <trkpt lat="60.57421" lon="7.52165">
        <ele>1252.74</ele>
        <time>2019-04-06T12:58:21Z</time>
      </trkpt>
      <trkpt lat="60.57407" lon="7.5213">
        <ele>1252.74</ele>
        <time>2019-04-06T12:58:26Z</time>
      </trkpt>
      <trkpt lat="60.57403" lon="7.52111">
        <ele>1252.74</ele>
        <time>2019-04-06T12:58:28Z</time>
      </trkpt>
      <trkpt lat="60.57401" lon="7.52046">
        <ele>1251.29</ele>
        <time>2019-04-06T12:58:34Z</time>
      </trkpt>
      <trkpt lat="60.57418" lon="7.51915">
        <ele>1247.93</ele>
        <time>2019-04-06T12:58:48Z</time>
      </trkpt>
      <trkpt lat="60.57426" lon="7.51848">
        <ele>1245.04</ele>
        <time>2019-04-06T12:58:56Z</time>
      </trkpt>
      <trkpt lat="60.57429" lon="7.51812">
        <ele>1244.08</ele>
        <time>2019-04-06T12:59:01Z</time>
      </trkpt>
      <trkpt lat="60.57428" lon="7.51809">
        <ele>1242.64</ele>
        <time>2019-04-06T12:59:04Z</time>
      </trkpt>
      <trkpt lat="60.57428" lon="7.51812">
        <ele>1242.64</ele>
        <time>2019-04-06T12:59:06Z</time>
      </trkpt>
      <trkpt lat="60.57434" lon="7.5183">
        <ele>1243.12</ele>
        <time>2019-04-06T12:59:14Z</time>
      </trkpt>
      <trkpt lat="60.57436" lon="7.51845">
        <ele>1243.6</ele>
        <time>2019-04-06T12:59:19Z</time>
      </trkpt>
      <trkpt lat="60.57436" lon="7.51862">
        <ele>1244.08</ele>
        <time>2019-04-06T12:59:23Z</time>
      </trkpt>
      <trkpt lat="60.57438" lon="7.5187">
        <ele>1244.08</ele>
        <time>2019-04-06T12:59:25Z</time>
      </trkpt>
      <trkpt lat="60.57447" lon="7.51908">
        <ele>1246.49</ele>
        <time>2019-04-06T12:59:34Z</time>
      </trkpt>
      <trkpt lat="60.57449" lon="7.51918">
        <ele>1246.97</ele>
        <time>2019-04-06T12:59:36Z</time>
      </trkpt>
      <trkpt lat="60.5745" lon="7.51933">
        <ele>1246.97</ele>
        <time>2019-04-06T12:59:38Z</time>
      </trkpt>
      <trkpt lat="60.57452" lon="7.51949">
        <ele>1248.41</ele>
        <time>2019-04-06T12:59:41Z</time>
      </trkpt>
      <trkpt lat="60.57453" lon="7.51952">
        <ele>1249.37</ele>
        <time>2019-04-06T12:59:42Z</time>
      </trkpt>
      <trkpt lat="60.57461" lon="7.51966">
        <ele>1249.85</ele>
        <time>2019-04-06T12:59:50Z</time>
      </trkpt>
      <trkpt lat="60.57465" lon="7.51993">
        <ele>1250.33</ele>
        <time>2019-04-06T12:59:57Z</time>
      </trkpt>
      <trkpt lat="60.57466" lon="7.51996">
        <ele>1250.81</ele>
        <time>2019-04-06T12:59:58Z</time>
      </trkpt>
      <trkpt lat="60.57468" lon="7.52015">
        <ele>1251.77</ele>
        <time>2019-04-06T13:00:03Z</time>
      </trkpt>
      <trkpt lat="60.57476" lon="7.5203">
        <ele>1253.22</ele>
        <time>2019-04-06T13:00:08Z</time>
      </trkpt>
      <trkpt lat="60.57497" lon="7.52049">
        <ele>1251.29</ele>
        <time>2019-04-06T13:00:16Z</time>
      </trkpt>
      <trkpt lat="60.5753" lon="7.52064">
        <ele>1251.29</ele>
        <time>2019-04-06T13:00:25Z</time>
      </trkpt>
      <trkpt lat="60.57545" lon="7.52083">
        <ele>1250.81</ele>
        <time>2019-04-06T13:00:30Z</time>
      </trkpt>
      <trkpt lat="60.57559" lon="7.52111">
        <ele>1253.22</ele>
        <time>2019-04-06T13:00:39Z</time>
      </trkpt>
      <trkpt lat="60.57559" lon="7.52077">
        <ele>1254.18</ele>
        <time>2019-04-06T13:00:45Z</time>
      </trkpt>
      <trkpt lat="60.57562" lon="7.5206">
        <ele>1254.18</ele>
        <time>2019-04-06T13:00:47Z</time>
      </trkpt>
      <trkpt lat="60.57576" lon="7.52004">
        <ele>1251.77</ele>
        <time>2019-04-06T13:00:53Z</time>
      </trkpt>
      <trkpt lat="60.57582" lon="7.51968">
        <ele>1249.37</ele>
        <time>2019-04-06T13:00:57Z</time>
      </trkpt>
      <trkpt lat="60.57587" lon="7.51917">
        <ele>1247.93</ele>
        <time>2019-04-06T13:01:02Z</time>
      </trkpt>
      <trkpt lat="60.57594" lon="7.51791">
        <ele>1246.97</ele>
        <time>2019-04-06T13:01:15Z</time>
      </trkpt>
      <trkpt lat="60.57594" lon="7.51758">
        <ele>1246.49</ele>
        <time>2019-04-06T13:01:18Z</time>
      </trkpt>
      <trkpt lat="60.57596" lon="7.51727">
        <ele>1246.01</ele>
        <time>2019-04-06T13:01:21Z</time>
      </trkpt>
      <trkpt lat="60.57597" lon="7.51694">
        <ele>1245.53</ele>
        <time>2019-04-06T13:01:24Z</time>
      </trkpt>
      <trkpt lat="60.57602" lon="7.51633">
        <ele>1243.12</ele>
        <time>2019-04-06T13:01:30Z</time>
      </trkpt>
      <trkpt lat="60.57597" lon="7.5162">
        <ele>1241.2</ele>
        <time>2019-04-06T13:01:34Z</time>
      </trkpt>
      <trkpt lat="60.57603" lon="7.51629">
        <ele>1239.76</ele>
        <time>2019-04-06T13:01:37Z</time>
      </trkpt>
      <trkpt lat="60.5761" lon="7.51636">
        <ele>1239.28</ele>
        <time>2019-04-06T13:01:40Z</time>
      </trkpt>
      <trkpt lat="60.57616" lon="7.51648">
        <ele>1240.24</ele>
        <time>2019-04-06T13:01:43Z</time>
      </trkpt>
      <trkpt lat="60.57647" lon="7.51666">
        <ele>1240.72</ele>
        <time>2019-04-06T13:01:53Z</time>
      </trkpt>
      <trkpt lat="60.57655" lon="7.51668">
        <ele>1239.28</ele>
        <time>2019-04-06T13:01:55Z</time>
      </trkpt>
      <trkpt lat="60.57682" lon="7.51671">
        <ele>1237.35</ele>
        <time>2019-04-06T13:02:01Z</time>
      </trkpt>
      <trkpt lat="60.57699" lon="7.51674">
        <ele>1236.39</ele>
        <time>2019-04-06T13:02:05Z</time>
      </trkpt>
      <trkpt lat="60.57722" lon="7.51682">
        <ele>1234.95</ele>
        <time>2019-04-06T13:02:10Z</time>
      </trkpt>
      <trkpt lat="60.5774" lon="7.51695">
        <ele>1234.95</ele>
        <time>2019-04-06T13:02:14Z</time>
      </trkpt>
      <trkpt lat="60.57756" lon="7.51713">
        <ele>1236.87</ele>
        <time>2019-04-06T13:02:18Z</time>
      </trkpt>
      <trkpt lat="60.57777" lon="7.51736">
        <ele>1237.35</ele>
        <time>2019-04-06T13:02:23Z</time>
      </trkpt>
      <trkpt lat="60.57786" lon="7.51744">
        <ele>1237.35</ele>
        <time>2019-04-06T13:02:25Z</time>
      </trkpt>
      <trkpt lat="60.578" lon="7.51749">
        <ele>1237.35</ele>
        <time>2019-04-06T13:02:28Z</time>
      </trkpt>
      <trkpt lat="60.57821" lon="7.51761">
        <ele>1237.35</ele>
        <time>2019-04-06T13:02:33Z</time>
      </trkpt>
      <trkpt lat="60.5783" lon="7.51768">
        <ele>1237.83</ele>
        <time>2019-04-06T13:02:35Z</time>
      </trkpt>
      <trkpt lat="60.57842" lon="7.51778">
        <ele>1237.83</ele>
        <time>2019-04-06T13:02:38Z</time>
      </trkpt>
      <trkpt lat="60.5785" lon="7.51782">
        <ele>1237.83</ele>
        <time>2019-04-06T13:02:40Z</time>
      </trkpt>
      <trkpt lat="60.57859" lon="7.51785">
        <ele>1236.39</ele>
        <time>2019-04-06T13:02:42Z</time>
      </trkpt>
      <trkpt lat="60.57911" lon="7.51817">
        <ele>1234.95</ele>
        <time>2019-04-06T13:02:53Z</time>
      </trkpt>
      <trkpt lat="60.57932" lon="7.5182">
        <ele>1234.47</ele>
        <time>2019-04-06T13:02:57Z</time>
      </trkpt>
      <trkpt lat="60.57956" lon="7.51811">
        <ele>1229.66</ele>
        <time>2019-04-06T13:03:01Z</time>
      </trkpt>
      <trkpt lat="60.57998" lon="7.51801">
        <ele>1226.78</ele>
        <time>2019-04-06T13:03:08Z</time>
      </trkpt>
      <trkpt lat="60.58003" lon="7.518">
        <ele>1226.3</ele>
        <time>2019-04-06T13:03:09Z</time>
      </trkpt>
      <trkpt lat="60.58015" lon="7.51797">
        <ele>1225.34</ele>
        <time>2019-04-06T13:03:11Z</time>
      </trkpt>
      <trkpt lat="60.58035" lon="7.51796">
        <ele>1225.82</ele>
        <time>2019-04-06T13:03:15Z</time>
      </trkpt>
      <trkpt lat="60.58033" lon="7.51798">
        <ele>1227.26</ele>
        <time>2019-04-06T13:03:22Z</time>
      </trkpt>
      <trkpt lat="60.5803" lon="7.51792">
        <ele>1227.26</ele>
        <time>2019-04-06T13:03:23Z</time>
      </trkpt>
      <trkpt lat="60.58022" lon="7.51776">
        <ele>1227.74</ele>
        <time>2019-04-06T13:03:26Z</time>
      </trkpt>
      <trkpt lat="60.58002" lon="7.51715">
        <ele>1230.14</ele>
        <time>2019-04-06T13:03:35Z</time>
      </trkpt>
      <trkpt lat="60.57998" lon="7.51697">
        <ele>1230.14</ele>
        <time>2019-04-06T13:03:37Z</time>
      </trkpt>
      <trkpt lat="60.57988" lon="7.51641">
        <ele>1230.62</ele>
        <time>2019-04-06T13:03:43Z</time>
      </trkpt>
      <trkpt lat="60.57983" lon="7.51615">
        <ele>1230.62</ele>
        <time>2019-04-06T13:03:46Z</time>
      </trkpt>
      <trkpt lat="60.57975" lon="7.51581">
        <ele>1231.11</ele>
        <time>2019-04-06T13:03:50Z</time>
      </trkpt>
      <trkpt lat="60.57972" lon="7.51562">
        <ele>1232.07</ele>
        <time>2019-04-06T13:03:52Z</time>
      </trkpt>
      <trkpt lat="60.5796" lon="7.51492">
        <ele>1233.99</ele>
        <time>2019-04-06T13:03:59Z</time>
      </trkpt>
      <trkpt lat="60.57957" lon="7.5147">
        <ele>1234.47</ele>
        <time>2019-04-06T13:04:01Z</time>
      </trkpt>
      <trkpt lat="60.57953" lon="7.51409">
        <ele>1234.47</ele>
        <time>2019-04-06T13:04:06Z</time>
      </trkpt>
      <trkpt lat="60.57948" lon="7.51347">
        <ele>1233.51</ele>
        <time>2019-04-06T13:04:11Z</time>
      </trkpt>
      <trkpt lat="60.57946" lon="7.51322">
        <ele>1232.07</ele>
        <time>2019-04-06T13:04:13Z</time>
      </trkpt>
      <trkpt lat="60.5794" lon="7.51273">
        <ele>1230.62</ele>
        <time>2019-04-06T13:04:17Z</time>
      </trkpt>
      <trkpt lat="60.57939" lon="7.51249">
        <ele>1230.62</ele>
        <time>2019-04-06T13:04:19Z</time>
      </trkpt>
      <trkpt lat="60.57933" lon="7.51202">
        <ele>1230.62</ele>
        <time>2019-04-06T13:04:24Z</time>
      </trkpt>
      <trkpt lat="60.57936" lon="7.51218">
        <ele>1228.22</ele>
        <time>2019-04-06T13:04:30Z</time>
      </trkpt>
      <trkpt lat="60.57941" lon="7.51221">
        <ele>1227.74</ele>
        <time>2019-04-06T13:04:31Z</time>
      </trkpt>
      <trkpt lat="60.57956" lon="7.51228">
        <ele>1227.74</ele>
        <time>2019-04-06T13:04:34Z</time>
      </trkpt>
      <trkpt lat="60.57971" lon="7.51234">
        <ele>1228.22</ele>
        <time>2019-04-06T13:04:38Z</time>
      </trkpt>
      <trkpt lat="60.57977" lon="7.51237">
        <ele>1229.18</ele>
        <time>2019-04-06T13:04:40Z</time>
      </trkpt>
      <trkpt lat="60.57996" lon="7.51251">
        <ele>1227.26</ele>
        <time>2019-04-06T13:04:46Z</time>
      </trkpt>
      <trkpt lat="60.58009" lon="7.51257">
        <ele>1227.26</ele>
        <time>2019-04-06T13:04:49Z</time>
      </trkpt>
      <trkpt lat="60.5802" lon="7.51272">
        <ele>1227.26</ele>
        <time>2019-04-06T13:04:52Z</time>
      </trkpt>
      <trkpt lat="60.58049" lon="7.51295">
        <ele>1225.82</ele>
        <time>2019-04-06T13:04:58Z</time>
      </trkpt>
      <trkpt lat="60.58098" lon="7.51311">
        <ele>1226.3</ele>
        <time>2019-04-06T13:05:07Z</time>
      </trkpt>
      <trkpt lat="60.58113" lon="7.51314">
        <ele>1226.3</ele>
        <time>2019-04-06T13:05:10Z</time>
      </trkpt>
      <trkpt lat="60.5813" lon="7.51319">
        <ele>1224.38</ele>
        <time>2019-04-06T13:05:13Z</time>
      </trkpt>
      <trkpt lat="60.58159" lon="7.51319">
        <ele>1225.82</ele>
        <time>2019-04-06T13:05:18Z</time>
      </trkpt>
      <trkpt lat="60.58171" lon="7.51321">
        <ele>1225.82</ele>
        <time>2019-04-06T13:05:20Z</time>
      </trkpt>
      <trkpt lat="60.58191" lon="7.51329">
        <ele>1225.82</ele>
        <time>2019-04-06T13:05:24Z</time>
      </trkpt>
      <trkpt lat="60.58215" lon="7.51344">
        <ele>1226.3</ele>
        <time>2019-04-06T13:05:29Z</time>
      </trkpt>
      <trkpt lat="60.58238" lon="7.51365">
        <ele>1226.3</ele>
        <time>2019-04-06T13:05:35Z</time>
      </trkpt>
      <trkpt lat="60.58257" lon="7.51392">
        <ele>1226.78</ele>
        <time>2019-04-06T13:05:40Z</time>
      </trkpt>
      <trkpt lat="60.58276" lon="7.51417">
        <ele>1227.26</ele>
        <time>2019-04-06T13:05:47Z</time>
      </trkpt>
      <trkpt lat="60.58307" lon="7.51468">
        <ele>1228.22</ele>
        <time>2019-04-06T13:05:59Z</time>
      </trkpt>
      <trkpt lat="60.5831" lon="7.51471">
        <ele>1228.22</ele>
        <time>2019-04-06T13:06:00Z</time>
      </trkpt>
      <trkpt lat="60.58323" lon="7.51492">
        <ele>1229.66</ele>
        <time>2019-04-06T13:06:05Z</time>
      </trkpt>
      <trkpt lat="60.58355" lon="7.51535">
        <ele>1232.55</ele>
        <time>2019-04-06T13:06:17Z</time>
      </trkpt>
      <trkpt lat="60.58382" lon="7.51562">
        <ele>1233.51</ele>
        <time>2019-04-06T13:06:27Z</time>
      </trkpt>
      <trkpt lat="60.58401" lon="7.51568">
        <ele>1232.07</ele>
        <time>2019-04-06T13:06:32Z</time>
      </trkpt>
      <trkpt lat="60.58405" lon="7.51569">
        <ele>1232.07</ele>
        <time>2019-04-06T13:06:33Z</time>
      </trkpt>
      <trkpt lat="60.58423" lon="7.5158">
        <ele>1230.62</ele>
        <time>2019-04-06T13:06:37Z</time>
      </trkpt>
      <trkpt lat="60.58435" lon="7.51584">
        <ele>1228.7</ele>
        <time>2019-04-06T13:06:39Z</time>
      </trkpt>
      <trkpt lat="60.58447" lon="7.51588">
        <ele>1230.14</ele>
        <time>2019-04-06T13:06:41Z</time>
      </trkpt>
      <trkpt lat="60.58462" lon="7.5159">
        <ele>1225.34</ele>
        <time>2019-04-06T13:06:44Z</time>
      </trkpt>
      <trkpt lat="60.58467" lon="7.5159">
        <ele>1225.34</ele>
        <time>2019-04-06T13:06:45Z</time>
      </trkpt>
      <trkpt lat="60.58488" lon="7.51595">
        <ele>1221.01</ele>
        <time>2019-04-06T13:06:49Z</time>
      </trkpt>
      <trkpt lat="60.58503" lon="7.516">
        <ele>1217.65</ele>
        <time>2019-04-06T13:06:51Z</time>
      </trkpt>
      <trkpt lat="60.58517" lon="7.51602">
        <ele>1216.21</ele>
        <time>2019-04-06T13:06:53Z</time>
      </trkpt>
      <trkpt lat="60.58533" lon="7.51609">
        <ele>1220.05</ele>
        <time>2019-04-06T13:06:57Z</time>
      </trkpt>
      <trkpt lat="60.58553" lon="7.51616">
        <ele>1220.05</ele>
        <time>2019-04-06T13:07:02Z</time>
      </trkpt>
      <trkpt lat="60.58557" lon="7.51616">
        <ele>1220.05</ele>
        <time>2019-04-06T13:07:03Z</time>
      </trkpt>
      <trkpt lat="60.58566" lon="7.51618">
        <ele>1218.61</ele>
        <time>2019-04-06T13:07:05Z</time>
      </trkpt>
      <trkpt lat="60.58572" lon="7.5162">
        <ele>1217.65</ele>
        <time>2019-04-06T13:07:06Z</time>
      </trkpt>
      <trkpt lat="60.58592" lon="7.51622">
        <ele>1216.21</ele>
        <time>2019-04-06T13:07:10Z</time>
      </trkpt>
      <trkpt lat="60.58597" lon="7.51636">
        <ele>1217.65</ele>
        <time>2019-04-06T13:07:13Z</time>
      </trkpt>
      <trkpt lat="60.5859" lon="7.51623">
        <ele>1220.05</ele>
        <time>2019-04-06T13:07:17Z</time>
      </trkpt>
      <trkpt lat="60.5858" lon="7.51595">
        <ele>1221.49</ele>
        <time>2019-04-06T13:07:23Z</time>
      </trkpt>
      <trkpt lat="60.58562" lon="7.51559">
        <ele>1224.86</ele>
        <time>2019-04-06T13:07:28Z</time>
      </trkpt>
      <trkpt lat="60.58555" lon="7.51539">
        <ele>1226.3</ele>
        <time>2019-04-06T13:07:30Z</time>
      </trkpt>
      <trkpt lat="60.58543" lon="7.51507">
        <ele>1229.18</ele>
        <time>2019-04-06T13:07:34Z</time>
      </trkpt>
      <trkpt lat="60.58537" lon="7.51492">
        <ele>1231.11</ele>
        <time>2019-04-06T13:07:36Z</time>
      </trkpt>
      <trkpt lat="60.58528" lon="7.51473">
        <ele>1233.03</ele>
        <time>2019-04-06T13:07:39Z</time>
      </trkpt>
      <trkpt lat="60.58521" lon="7.51457">
        <ele>1234.95</ele>
        <time>2019-04-06T13:07:41Z</time>
      </trkpt>
      <trkpt lat="60.58504" lon="7.51418">
        <ele>1239.28</ele>
        <time>2019-04-06T13:07:46Z</time>
      </trkpt>
      <trkpt lat="60.58497" lon="7.51373">
        <ele>1244.08</ele>
        <time>2019-04-06T13:07:51Z</time>
      </trkpt>
      <trkpt lat="60.58495" lon="7.51366">
        <ele>1245.53</ele>
        <time>2019-04-06T13:07:52Z</time>
      </trkpt>
      <trkpt lat="60.58492" lon="7.51365">
        <ele>1246.01</ele>
        <time>2019-04-06T13:07:54Z</time>
      </trkpt>
      <trkpt lat="60.58494" lon="7.5137">
        <ele>1242.16</ele>
        <time>2019-04-06T13:07:56Z</time>
      </trkpt>
      <trkpt lat="60.58506" lon="7.51374">
        <ele>1237.83</ele>
        <time>2019-04-06T13:07:59Z</time>
      </trkpt>
      <trkpt lat="60.5851" lon="7.51376">
        <ele>1236.87</ele>
        <time>2019-04-06T13:08:00Z</time>
      </trkpt>
      <trkpt lat="60.5852" lon="7.51383">
        <ele>1236.87</ele>
        <time>2019-04-06T13:08:02Z</time>
      </trkpt>
      <trkpt lat="60.58555" lon="7.51394">
        <ele>1235.91</ele>
        <time>2019-04-06T13:08:10Z</time>
      </trkpt>
      <trkpt lat="60.58573" lon="7.51397">
        <ele>1234.47</ele>
        <time>2019-04-06T13:08:14Z</time>
      </trkpt>
      <trkpt lat="60.586" lon="7.51405">
        <ele>1236.87</ele>
        <time>2019-04-06T13:08:21Z</time>
      </trkpt>
      <trkpt lat="60.58612" lon="7.51407">
        <ele>1235.43</ele>
        <time>2019-04-06T13:08:24Z</time>
      </trkpt>
      <trkpt lat="60.58635" lon="7.51412">
        <ele>1239.28</ele>
        <time>2019-04-06T13:08:33Z</time>
      </trkpt>
      <trkpt lat="60.58634" lon="7.51413">
        <ele>1237.35</ele>
        <time>2019-04-06T13:08:34Z</time>
      </trkpt>
      <trkpt lat="60.58633" lon="7.51417">
        <ele>1236.39</ele>
        <time>2019-04-06T13:08:37Z</time>
      </trkpt>
      <trkpt lat="60.58631" lon="7.51424">
        <ele>1234.95</ele>
        <time>2019-04-06T13:08:41Z</time>
      </trkpt>
      <trkpt lat="60.58632" lon="7.51445">
        <ele>1233.51</ele>
        <time>2019-04-06T13:08:54Z</time>
      </trkpt>
      <trkpt lat="60.58631" lon="7.51455">
        <ele>1232.07</ele>
        <time>2019-04-06T13:08:59Z</time>
      </trkpt>
      <trkpt lat="60.58633" lon="7.51479">
        <ele>1228.7</ele>
        <time>2019-04-06T13:09:04Z</time>
      </trkpt>
      <trkpt lat="60.58639" lon="7.51498">
        <ele>1224.86</ele>
        <time>2019-04-06T13:09:06Z</time>
      </trkpt>
      <trkpt lat="60.58647" lon="7.51512">
        <ele>1224.38</ele>
        <time>2019-04-06T13:09:08Z</time>
      </trkpt>
      <trkpt lat="60.58651" lon="7.51517">
        <ele>1224.38</ele>
        <time>2019-04-06T13:09:09Z</time>
      </trkpt>
      <trkpt lat="60.58656" lon="7.51521">
        <ele>1222.93</ele>
        <time>2019-04-06T13:09:10Z</time>
      </trkpt>
      <trkpt lat="60.58661" lon="7.51524">
        <ele>1222.45</ele>
        <time>2019-04-06T13:09:11Z</time>
      </trkpt>
      <trkpt lat="60.58666" lon="7.51525">
        <ele>1221.01</ele>
        <time>2019-04-06T13:09:12Z</time>
      </trkpt>
      <trkpt lat="60.58671" lon="7.51526">
        <ele>1221.49</ele>
        <time>2019-04-06T13:09:13Z</time>
      </trkpt>
      <trkpt lat="60.58676" lon="7.51528">
        <ele>1221.49</ele>
        <time>2019-04-06T13:09:14Z</time>
      </trkpt>
      <trkpt lat="60.58693" lon="7.51535">
        <ele>1218.13</ele>
        <time>2019-04-06T13:09:17Z</time>
      </trkpt>
      <trkpt lat="60.58718" lon="7.51543">
        <ele>1216.69</ele>
        <time>2019-04-06T13:09:21Z</time>
      </trkpt>
      <trkpt lat="60.58736" lon="7.51545">
        <ele>1214.76</ele>
        <time>2019-04-06T13:09:24Z</time>
      </trkpt>
      <trkpt lat="60.58742" lon="7.51547">
        <ele>1214.76</ele>
        <time>2019-04-06T13:09:25Z</time>
      </trkpt>
      <trkpt lat="60.58767" lon="7.51562">
        <ele>1216.69</ele>
        <time>2019-04-06T13:09:29Z</time>
      </trkpt>
      <trkpt lat="60.58795" lon="7.51568">
        <ele>1211.88</ele>
        <time>2019-04-06T13:09:34Z</time>
      </trkpt>
      <trkpt lat="60.58814" lon="7.51571">
        <ele>1212.36</ele>
        <time>2019-04-06T13:09:37Z</time>
      </trkpt>
      <trkpt lat="60.58822" lon="7.51573">
        <ele>1215.72</ele>
        <time>2019-04-06T13:09:39Z</time>
      </trkpt>
      <trkpt lat="60.58825" lon="7.51574">
        <ele>1215.72</ele>
        <time>2019-04-06T13:09:40Z</time>
      </trkpt>
      <trkpt lat="60.58837" lon="7.51574">
        <ele>1215.72</ele>
        <time>2019-04-06T13:09:44Z</time>
      </trkpt>
      <trkpt lat="60.58858" lon="7.51574">
        <ele>1214.76</ele>
        <time>2019-04-06T13:09:51Z</time>
      </trkpt>
      <trkpt lat="60.589" lon="7.51563">
        <ele>1215.24</ele>
        <time>2019-04-06T13:10:03Z</time>
      </trkpt>
      <trkpt lat="60.58903" lon="7.51561">
        <ele>1215.72</ele>
        <time>2019-04-06T13:10:04Z</time>
      </trkpt>
      <trkpt lat="60.58899" lon="7.5157">
        <ele>1218.13</ele>
        <time>2019-04-06T13:10:10Z</time>
      </trkpt>
      <trkpt lat="60.58877" lon="7.51544">
        <ele>1220.53</ele>
        <time>2019-04-06T13:10:16Z</time>
      </trkpt>
      <trkpt lat="60.58869" lon="7.51529">
        <ele>1221.49</ele>
        <time>2019-04-06T13:10:19Z</time>
      </trkpt>
      <trkpt lat="60.58857" lon="7.51505">
        <ele>1221.49</ele>
        <time>2019-04-06T13:10:23Z</time>
      </trkpt>
      <trkpt lat="60.58832" lon="7.51456">
        <ele>1221.97</ele>
        <time>2019-04-06T13:10:31Z</time>
      </trkpt>
      <trkpt lat="60.58825" lon="7.5144">
        <ele>1220.53</ele>
        <time>2019-04-06T13:10:33Z</time>
      </trkpt>
      <trkpt lat="60.58814" lon="7.51416">
        <ele>1220.53</ele>
        <time>2019-04-06T13:10:36Z</time>
      </trkpt>
      <trkpt lat="60.58783" lon="7.51351">
        <ele>1220.53</ele>
        <time>2019-04-06T13:10:44Z</time>
      </trkpt>
      <trkpt lat="60.58776" lon="7.51338">
        <ele>1221.97</ele>
        <time>2019-04-06T13:10:46Z</time>
      </trkpt>
      <trkpt lat="60.5877" lon="7.51324">
        <ele>1222.45</ele>
        <time>2019-04-06T13:10:48Z</time>
      </trkpt>
      <trkpt lat="60.58764" lon="7.51312">
        <ele>1222.93</ele>
        <time>2019-04-06T13:10:50Z</time>
      </trkpt>
      <trkpt lat="60.58739" lon="7.51277">
        <ele>1226.78</ele>
        <time>2019-04-06T13:10:59Z</time>
      </trkpt>
      <trkpt lat="60.58732" lon="7.51264">
        <ele>1228.7</ele>
        <time>2019-04-06T13:11:02Z</time>
      </trkpt>
      <trkpt lat="60.58716" lon="7.51236">
        <ele>1231.11</ele>
        <time>2019-04-06T13:11:09Z</time>
      </trkpt>
      <trkpt lat="60.587" lon="7.51195">
        <ele>1233.99</ele>
        <time>2019-04-06T13:11:16Z</time>
      </trkpt>
      <trkpt lat="60.58691" lon="7.51156">
        <ele>1236.39</ele>
        <time>2019-04-06T13:11:22Z</time>
      </trkpt>
      <trkpt lat="60.58686" lon="7.51129">
        <ele>1236.87</ele>
        <time>2019-04-06T13:11:25Z</time>
      </trkpt>
      <trkpt lat="60.58667" lon="7.51042">
        <ele>1239.28</ele>
        <time>2019-04-06T13:11:34Z</time>
      </trkpt>
      <trkpt lat="60.5865" lon="7.5098">
        <ele>1240.72</ele>
        <time>2019-04-06T13:11:40Z</time>
      </trkpt>
      <trkpt lat="60.58644" lon="7.50971">
        <ele>1239.76</ele>
        <time>2019-04-06T13:11:46Z</time>
      </trkpt>
      <trkpt lat="60.58651" lon="7.50971">
        <ele>1239.28</ele>
        <time>2019-04-06T13:11:48Z</time>
      </trkpt>
      <trkpt lat="60.58665" lon="7.50972">
        <ele>1236.39</ele>
        <time>2019-04-06T13:11:51Z</time>
      </trkpt>
      <trkpt lat="60.58682" lon="7.50977">
        <ele>1238.32</ele>
        <time>2019-04-06T13:11:55Z</time>
      </trkpt>
      <trkpt lat="60.58687" lon="7.50979">
        <ele>1238.32</ele>
        <time>2019-04-06T13:11:56Z</time>
      </trkpt>
      <trkpt lat="60.58709" lon="7.50982">
        <ele>1237.35</ele>
        <time>2019-04-06T13:12:02Z</time>
      </trkpt>
      <trkpt lat="60.58725" lon="7.50985">
        <ele>1236.87</ele>
        <time>2019-04-06T13:12:06Z</time>
      </trkpt>
      <trkpt lat="60.58738" lon="7.50992">
        <ele>1233.99</ele>
        <time>2019-04-06T13:12:09Z</time>
      </trkpt>
      <trkpt lat="60.58745" lon="7.50997">
        <ele>1235.91</ele>
        <time>2019-04-06T13:12:11Z</time>
      </trkpt>
      <trkpt lat="60.58748" lon="7.50999">
        <ele>1234.95</ele>
        <time>2019-04-06T13:12:12Z</time>
      </trkpt>
      <trkpt lat="60.58787" lon="7.5099">
        <ele>1235.43</ele>
        <time>2019-04-06T13:12:23Z</time>
      </trkpt>
      <trkpt lat="60.58796" lon="7.50992">
        <ele>1230.14</ele>
        <time>2019-04-06T13:12:25Z</time>
      </trkpt>
      <trkpt lat="60.5881" lon="7.50997">
        <ele>1226.3</ele>
        <time>2019-04-06T13:12:27Z</time>
      </trkpt>
      <trkpt lat="60.58817" lon="7.51001">
        <ele>1226.3</ele>
        <time>2019-04-06T13:12:28Z</time>
      </trkpt>
      <trkpt lat="60.58842" lon="7.51006">
        <ele>1221.01</ele>
        <time>2019-04-06T13:12:31Z</time>
      </trkpt>
      <trkpt lat="60.58849" lon="7.51007">
        <ele>1221.01</ele>
        <time>2019-04-06T13:12:32Z</time>
      </trkpt>
      <trkpt lat="60.58855" lon="7.51008">
        <ele>1222.93</ele>
        <time>2019-04-06T13:12:33Z</time>
      </trkpt>
      <trkpt lat="60.5886" lon="7.51019">
        <ele>1229.66</ele>
        <time>2019-04-06T13:12:36Z</time>
      </trkpt>
      <trkpt lat="60.58852" lon="7.51012">
        <ele>1230.62</ele>
        <time>2019-04-06T13:12:39Z</time>
      </trkpt>
      <trkpt lat="60.5883" lon="7.50909">
        <ele>1225.82</ele>
        <time>2019-04-06T13:12:47Z</time>
      </trkpt>
      <trkpt lat="60.58827" lon="7.50895">
        <ele>1225.82</ele>
        <time>2019-04-06T13:12:48Z</time>
      </trkpt>
      <trkpt lat="60.58803" lon="7.50803">
        <ele>1225.82</ele>
        <time>2019-04-06T13:12:58Z</time>
      </trkpt>
      <trkpt lat="60.58795" lon="7.50781">
        <ele>1225.82</ele>
        <time>2019-04-06T13:13:01Z</time>
      </trkpt>
      <trkpt lat="60.58779" lon="7.50727">
        <ele>1227.26</ele>
        <time>2019-04-06T13:13:07Z</time>
      </trkpt>
      <trkpt lat="60.58769" lon="7.50701">
        <ele>1229.66</ele>
        <time>2019-04-06T13:13:11Z</time>
      </trkpt>
      <trkpt lat="60.58756" lon="7.50664">
        <ele>1233.51</ele>
        <time>2019-04-06T13:13:19Z</time>
      </trkpt>
      <trkpt lat="60.58748" lon="7.50659">
        <ele>1234.47</ele>
        <time>2019-04-06T13:13:23Z</time>
      </trkpt>
      <trkpt lat="60.5873" lon="7.50616">
        <ele>1235.91</ele>
        <time>2019-04-06T13:13:28Z</time>
      </trkpt>
      <trkpt lat="60.58725" lon="7.50598">
        <ele>1237.35</ele>
        <time>2019-04-06T13:13:30Z</time>
      </trkpt>
      <trkpt lat="60.58709" lon="7.50565">
        <ele>1241.2</ele>
        <time>2019-04-06T13:13:35Z</time>
      </trkpt>
      <trkpt lat="60.58697" lon="7.5054">
        <ele>1245.53</ele>
        <time>2019-04-06T13:13:40Z</time>
      </trkpt>
      <trkpt lat="60.58687" lon="7.50515">
        <ele>1249.37</ele>
        <time>2019-04-06T13:13:45Z</time>
      </trkpt>
      <trkpt lat="60.58685" lon="7.50513">
        <ele>1249.37</ele>
        <time>2019-04-06T13:13:46Z</time>
      </trkpt>
      <trkpt lat="60.58678" lon="7.50501">
        <ele>1251.77</ele>
        <time>2019-04-06T13:13:50Z</time>
      </trkpt>
      <trkpt lat="60.58687" lon="7.50514">
        <ele>1246.97</ele>
        <time>2019-04-06T13:13:56Z</time>
      </trkpt>
      <trkpt lat="60.58705" lon="7.50516">
        <ele>1243.12</ele>
        <time>2019-04-06T13:13:59Z</time>
      </trkpt>
      <trkpt lat="60.58744" lon="7.50527">
        <ele>1240.24</ele>
        <time>2019-04-06T13:14:06Z</time>
      </trkpt>
      <trkpt lat="60.58768" lon="7.50543">
        <ele>1238.32</ele>
        <time>2019-04-06T13:14:11Z</time>
      </trkpt>
      <trkpt lat="60.58813" lon="7.50579">
        <ele>1236.39</ele>
        <time>2019-04-06T13:14:21Z</time>
      </trkpt>
      <trkpt lat="60.58827" lon="7.50593">
        <ele>1235.43</ele>
        <time>2019-04-06T13:14:24Z</time>
      </trkpt>
      <trkpt lat="60.58852" lon="7.50608">
        <ele>1231.59</ele>
        <time>2019-04-06T13:14:28Z</time>
      </trkpt>
      <trkpt lat="60.58866" lon="7.50618">
        <ele>1230.14</ele>
        <time>2019-04-06T13:14:30Z</time>
      </trkpt>
      <trkpt lat="60.58881" lon="7.50628">
        <ele>1227.74</ele>
        <time>2019-04-06T13:14:32Z</time>
      </trkpt>
      <trkpt lat="60.58913" lon="7.50647">
        <ele>1228.22</ele>
        <time>2019-04-06T13:14:37Z</time>
      </trkpt>
      <trkpt lat="60.58935" lon="7.50665">
        <ele>1226.78</ele>
        <time>2019-04-06T13:14:41Z</time>
      </trkpt>
      <trkpt lat="60.5897" lon="7.50686">
        <ele>1226.78</ele>
        <time>2019-04-06T13:14:47Z</time>
      </trkpt>
      <trkpt lat="60.58989" lon="7.5069">
        <ele>1225.34</ele>
        <time>2019-04-06T13:14:50Z</time>
      </trkpt>
      <trkpt lat="60.59036" lon="7.507">
        <ele>1221.97</ele>
        <time>2019-04-06T13:14:57Z</time>
      </trkpt>
      <trkpt lat="60.59062" lon="7.50697">
        <ele>1221.01</ele>
        <time>2019-04-06T13:15:01Z</time>
      </trkpt>
      <trkpt lat="60.59113" lon="7.50687">
        <ele>1217.17</ele>
        <time>2019-04-06T13:15:09Z</time>
      </trkpt>
      <trkpt lat="60.59119" lon="7.50685">
        <ele>1217.17</ele>
        <time>2019-04-06T13:15:10Z</time>
      </trkpt>
      <trkpt lat="60.59177" lon="7.50668">
        <ele>1215.72</ele>
        <time>2019-04-06T13:15:18Z</time>
      </trkpt>
      <trkpt lat="60.59184" lon="7.50662">
        <ele>1215.72</ele>
        <time>2019-04-06T13:15:19Z</time>
      </trkpt>
      <trkpt lat="60.59216" lon="7.50622">
        <ele>1217.65</ele>
        <time>2019-04-06T13:15:26Z</time>
      </trkpt>
      <trkpt lat="60.59231" lon="7.50612">
        <ele>1218.13</ele>
        <time>2019-04-06T13:15:29Z</time>
      </trkpt>
      <trkpt lat="60.59247" lon="7.50601">
        <ele>1219.57</ele>
        <time>2019-04-06T13:15:33Z</time>
      </trkpt>
      <trkpt lat="60.59268" lon="7.50595">
        <ele>1218.13</ele>
        <time>2019-04-06T13:15:39Z</time>
      </trkpt>
      <trkpt lat="60.59278" lon="7.50602">
        <ele>1220.05</ele>
        <time>2019-04-06T13:15:47Z</time>
      </trkpt>
      <trkpt lat="60.5928" lon="7.50607">
        <ele>1219.09</ele>
        <time>2019-04-06T13:16:09Z</time>
      </trkpt>
      <trkpt lat="60.59288" lon="7.50612">
        <ele>1218.13</ele>
        <time>2019-04-06T13:16:11Z</time>
      </trkpt>
      <trkpt lat="60.59293" lon="7.50614">
        <ele>1218.13</ele>
        <time>2019-04-06T13:16:12Z</time>
      </trkpt>
      <trkpt lat="60.59315" lon="7.50615">
        <ele>1212.84</ele>
        <time>2019-04-06T13:16:15Z</time>
      </trkpt>
      <trkpt lat="60.59328" lon="7.50616">
        <ele>1214.76</ele>
        <time>2019-04-06T13:16:17Z</time>
      </trkpt>
      <trkpt lat="60.59349" lon="7.50614">
        <ele>1209</ele>
        <time>2019-04-06T13:16:20Z</time>
      </trkpt>
      <trkpt lat="60.59356" lon="7.50614">
        <ele>1209</ele>
        <time>2019-04-06T13:16:21Z</time>
      </trkpt>
      <trkpt lat="60.59373" lon="7.50611">
        <ele>1210.92</ele>
        <time>2019-04-06T13:16:24Z</time>
      </trkpt>
      <trkpt lat="60.59401" lon="7.50633">
        <ele>1212.84</ele>
        <time>2019-04-06T13:16:32Z</time>
      </trkpt>
      <trkpt lat="60.59409" lon="7.5071">
        <ele>1212.84</ele>
        <time>2019-04-06T13:16:42Z</time>
      </trkpt>
      <trkpt lat="60.59408" lon="7.50785">
        <ele>1213.8</ele>
        <time>2019-04-06T13:16:53Z</time>
      </trkpt>
      <trkpt lat="60.59403" lon="7.50806">
        <ele>1213.8</ele>
        <time>2019-04-06T13:16:58Z</time>
      </trkpt>
      <trkpt lat="60.59402" lon="7.50858">
        <ele>1214.76</ele>
        <time>2019-04-06T13:17:08Z</time>
      </trkpt>
      <trkpt lat="60.59402" lon="7.50866">
        <ele>1214.76</ele>
        <time>2019-04-06T13:17:09Z</time>
      </trkpt>
      <trkpt lat="60.59403" lon="7.50878">
        <ele>1216.69</ele>
        <time>2019-04-06T13:17:18Z</time>
      </trkpt>
      <trkpt lat="60.59405" lon="7.50883">
        <ele>1214.76</ele>
        <time>2019-04-06T13:17:20Z</time>
      </trkpt>
      <trkpt lat="60.59409" lon="7.50901">
        <ele>1216.69</ele>
        <time>2019-04-06T13:17:27Z</time>
      </trkpt>
      <trkpt lat="60.5941" lon="7.50907">
        <ele>1216.69</ele>
        <time>2019-04-06T13:17:36Z</time>
      </trkpt>
      <trkpt lat="60.59418" lon="7.5092">
        <ele>1216.69</ele>
        <time>2019-04-06T13:17:52Z</time>
      </trkpt>
      <trkpt lat="60.59419" lon="7.50926">
        <ele>1216.69</ele>
        <time>2019-04-06T13:18:10Z</time>
      </trkpt>
      <trkpt lat="60.5942" lon="7.50931">
        <ele>1216.69</ele>
        <time>2019-04-06T13:18:16Z</time>
      </trkpt>
      <trkpt lat="60.59408" lon="7.50923">
        <ele>1217.65</ele>
        <time>2019-04-06T13:18:22Z</time>
      </trkpt>
      <trkpt lat="60.59394" lon="7.50893">
        <ele>1216.69</ele>
        <time>2019-04-06T13:18:27Z</time>
      </trkpt>
      <trkpt lat="60.59386" lon="7.50892">
        <ele>1215.72</ele>
        <time>2019-04-06T13:18:35Z</time>
      </trkpt>
      <trkpt lat="60.59386" lon="7.50897">
        <ele>1215.72</ele>
        <time>2019-04-06T13:18:58Z</time>
      </trkpt>
      <trkpt lat="60.59386" lon="7.50897">
        <ele>1217.17</ele>
        <time>2019-04-06T13:19:03Z</time>
      </trkpt>
      <trkpt lat="60.59387" lon="7.50893">
        <ele>1214.76</ele>
        <time>2019-04-06T13:19:11Z</time>
      </trkpt>
      <trkpt lat="60.59387" lon="7.50892">
        <ele>1214.76</ele>
        <time>2019-04-06T13:19:30Z</time>
      </trkpt>
      <trkpt lat="60.59385" lon="7.50894">
        <ele>1214.76</ele>
        <time>2019-04-06T13:19:44Z</time>
      </trkpt>
      <trkpt lat="60.59385" lon="7.50895">
        <ele>1215.72</ele>
        <time>2019-04-06T13:19:54Z</time>
      </trkpt>
      <trkpt lat="60.59386" lon="7.50895">
        <ele>1213.8</ele>
        <time>2019-04-06T13:20:04Z</time>
      </trkpt>
      <trkpt lat="60.59386" lon="7.50893">
        <ele>1215.24</ele>
        <time>2019-04-06T13:20:09Z</time>
      </trkpt>
      <trkpt lat="60.59386" lon="7.50894">
        <ele>1215.24</ele>
        <time>2019-04-06T13:20:27Z</time>
      </trkpt>
      <trkpt lat="60.59387" lon="7.50894">
        <ele>1215.72</ele>
        <time>2019-04-06T13:20:59Z</time>
      </trkpt>
      <trkpt lat="60.59387" lon="7.50893">
        <ele>1214.76</ele>
        <time>2019-04-06T13:21:45Z</time>
      </trkpt>
      <trkpt lat="60.59386" lon="7.50895">
        <ele>1215.72</ele>
        <time>2019-04-06T13:22:12Z</time>
      </trkpt>
      <trkpt lat="60.59387" lon="7.50896">
        <ele>1215.72</ele>
        <time>2019-04-06T13:22:31Z</time>
      </trkpt>
      <trkpt lat="60.59386" lon="7.50894">
        <ele>1214.76</ele>
        <time>2019-04-06T13:22:35Z</time>
      </trkpt>
      <trkpt lat="60.59386" lon="7.50894">
        <ele>1214.28</ele>
        <time>2019-04-06T13:22:39Z</time>
      </trkpt>
      <trkpt lat="60.59371" lon="7.50911">
        <ele>1214.28</ele>
        <time>2019-04-06T13:22:48Z</time>
      </trkpt>
      <trkpt lat="60.59366" lon="7.5092">
        <ele>1214.28</ele>
        <time>2019-04-06T13:22:59Z</time>
      </trkpt>
      <trkpt lat="60.59366" lon="7.50919">
        <ele>1213.8</ele>
        <time>2019-04-06T13:23:37Z</time>
      </trkpt>
      <trkpt lat="60.59366" lon="7.5092">
        <ele>1213.8</ele>
        <time>2019-04-06T13:24:12Z</time>
      </trkpt>
      <trkpt lat="60.59366" lon="7.5092">
        <ele>1213.8</ele>
        <time>2019-04-06T13:24:47Z</time>
      </trkpt>
      <trkpt lat="60.59366" lon="7.5092">
        <ele>1213.8</ele>
        <time>2019-04-06T13:25:32Z</time>
      </trkpt>
      <trkpt lat="60.59365" lon="7.50919">
        <ele>1213.32</ele>
        <time>2019-04-06T13:26:12Z</time>
      </trkpt>
      <trkpt lat="60.59365" lon="7.50918">
        <ele>1214.76</ele>
        <time>2019-04-06T13:26:44Z</time>
      </trkpt>
      <trkpt lat="60.59365" lon="7.50919">
        <ele>1214.28</ele>
        <time>2019-04-06T13:27:20Z</time>
      </trkpt>
      <trkpt lat="60.59366" lon="7.50919">
        <ele>1214.28</ele>
        <time>2019-04-06T13:28:02Z</time>
      </trkpt>
      <trkpt lat="60.59366" lon="7.50918">
        <ele>1214.28</ele>
        <time>2019-04-06T13:28:41Z</time>
      </trkpt>
      <trkpt lat="60.59366" lon="7.50919">
        <ele>1213.8</ele>
        <time>2019-04-06T13:29:25Z</time>
      </trkpt>
      <trkpt lat="60.59366" lon="7.50919">
        <ele>1213.8</ele>
        <time>2019-04-06T13:30:03Z</time>
      </trkpt>
      <trkpt lat="60.59365" lon="7.50919">
        <ele>1213.8</ele>
        <time>2019-04-06T13:30:25Z</time>
      </trkpt>
      <trkpt lat="60.59366" lon="7.50922">
        <ele>1212.36</ele>
        <time>2019-04-06T13:30:38Z</time>
      </trkpt>
      <trkpt lat="60.59367" lon="7.50923">
        <ele>1212.36</ele>
        <time>2019-04-06T13:31:11Z</time>
      </trkpt>
      <trkpt lat="60.59366" lon="7.50922">
        <ele>1212.36</ele>
        <time>2019-04-06T13:31:44Z</time>
      </trkpt>
      <trkpt lat="60.59365" lon="7.50921">
        <ele>1212.36</ele>
        <time>2019-04-06T13:32:15Z</time>
      </trkpt>
      <trkpt lat="60.59366" lon="7.50922">
        <ele>1211.88</ele>
        <time>2019-04-06T13:32:43Z</time>
      </trkpt>
      <trkpt lat="60.59366" lon="7.50921">
        <ele>1211.88</ele>
        <time>2019-04-06T13:33:04Z</time>
      </trkpt>
      <trkpt lat="60.59366" lon="7.50916">
        <ele>1205.63</ele>
        <time>2019-04-06T13:33:06Z</time>
      </trkpt>
      <trkpt lat="60.59366" lon="7.50918">
        <ele>1213.8</ele>
        <time>2019-04-06T13:33:07Z</time>
      </trkpt>
      <trkpt lat="60.59365" lon="7.50917">
        <ele>1212.36</ele>
        <time>2019-04-06T13:33:44Z</time>
      </trkpt>
      <trkpt lat="60.59365" lon="7.50918">
        <ele>1212.36</ele>
        <time>2019-04-06T13:34:18Z</time>
      </trkpt>
      <trkpt lat="60.59365" lon="7.50919">
        <ele>1213.8</ele>
        <time>2019-04-06T13:34:46Z</time>
      </trkpt>
      <trkpt lat="60.59367" lon="7.50916">
        <ele>1215.24</ele>
        <time>2019-04-06T13:34:49Z</time>
      </trkpt>
      <trkpt lat="60.59379" lon="7.50908">
        <ele>1215.24</ele>
        <time>2019-04-06T13:35:01Z</time>
      </trkpt>
      <trkpt lat="60.59382" lon="7.50905">
        <ele>1215.24</ele>
        <time>2019-04-06T13:35:13Z</time>
      </trkpt>
      <trkpt lat="60.59383" lon="7.50904">
        <ele>1215.72</ele>
        <time>2019-04-06T13:35:14Z</time>
      </trkpt>
      <trkpt lat="60.59397" lon="7.50906">
        <ele>1215.72</ele>
        <time>2019-04-06T13:35:26Z</time>
      </trkpt>
      <trkpt lat="60.59411" lon="7.5091">
        <ele>1216.21</ele>
        <time>2019-04-06T13:35:38Z</time>
      </trkpt>
      <trkpt lat="60.59414" lon="7.50913">
        <ele>1213.8</ele>
        <time>2019-04-06T13:35:42Z</time>
      </trkpt>
      <trkpt lat="60.59414" lon="7.50914">
        <ele>1212.84</ele>
        <time>2019-04-06T13:36:13Z</time>
      </trkpt>
      <trkpt lat="60.59416" lon="7.50914">
        <ele>1212.84</ele>
        <time>2019-04-06T13:36:46Z</time>
      </trkpt>
      <trkpt lat="60.59416" lon="7.50914">
        <ele>1212.84</ele>
        <time>2019-04-06T13:37:25Z</time>
      </trkpt>
      <trkpt lat="60.59415" lon="7.50914">
        <ele>1213.32</ele>
        <time>2019-04-06T13:37:56Z</time>
      </trkpt>
      <trkpt lat="60.59415" lon="7.50916">
        <ele>1213.32</ele>
        <time>2019-04-06T13:38:30Z</time>
      </trkpt>
      <trkpt lat="60.59414" lon="7.50914">
        <ele>1217.17</ele>
        <time>2019-04-06T13:38:40Z</time>
      </trkpt>
      <trkpt lat="60.59414" lon="7.50914">
        <ele>1213.32</ele>
        <time>2019-04-06T13:38:41Z</time>
      </trkpt>
      <trkpt lat="60.59416" lon="7.50915">
        <ele>1213.32</ele>
        <time>2019-04-06T13:39:13Z</time>
      </trkpt>
      <trkpt lat="60.59415" lon="7.50911">
        <ele>1213.32</ele>
        <time>2019-04-06T13:39:51Z</time>
      </trkpt>
      <trkpt lat="60.59414" lon="7.50909">
        <ele>1212.84</ele>
        <time>2019-04-06T13:40:29Z</time>
      </trkpt>
      <trkpt lat="60.59416" lon="7.50912">
        <ele>1212.84</ele>
        <time>2019-04-06T13:41:11Z</time>
      </trkpt>
      <trkpt lat="60.59416" lon="7.50914">
        <ele>1212.84</ele>
        <time>2019-04-06T13:41:43Z</time>
      </trkpt>
      <trkpt lat="60.59415" lon="7.50915">
        <ele>1212.84</ele>
        <time>2019-04-06T13:42:18Z</time>
      </trkpt>
      <trkpt lat="60.59414" lon="7.50912">
        <ele>1212.84</ele>
        <time>2019-04-06T13:42:54Z</time>
      </trkpt>
      <trkpt lat="60.59415" lon="7.50915">
        <ele>1212.84</ele>
        <time>2019-04-06T13:43:34Z</time>
      </trkpt>
      <trkpt lat="60.59416" lon="7.50916">
        <ele>1212.84</ele>
        <time>2019-04-06T13:44:13Z</time>
      </trkpt>
      <trkpt lat="60.59416" lon="7.50913">
        <ele>1212.84</ele>
        <time>2019-04-06T13:44:48Z</time>
      </trkpt>
      <trkpt lat="60.59417" lon="7.50912">
        <ele>1212.84</ele>
        <time>2019-04-06T13:45:19Z</time>
      </trkpt>
      <trkpt lat="60.59418" lon="7.5091">
        <ele>1212.84</ele>
        <time>2019-04-06T13:45:54Z</time>
      </trkpt>
      <trkpt lat="60.59417" lon="7.50915">
        <ele>1213.32</ele>
        <time>2019-04-06T13:46:31Z</time>
      </trkpt>
      <trkpt lat="60.59414" lon="7.50918">
        <ele>1213.32</ele>
        <time>2019-04-06T13:47:03Z</time>
      </trkpt>
      <trkpt lat="60.59412" lon="7.50919">
        <ele>1214.28</ele>
        <time>2019-04-06T13:47:29Z</time>
      </trkpt>
      <trkpt lat="60.59413" lon="7.50917">
        <ele>1214.28</ele>
        <time>2019-04-06T13:48:03Z</time>
      </trkpt>
      <trkpt lat="60.59414" lon="7.50912">
        <ele>1213.32</ele>
        <time>2019-04-06T13:48:39Z</time>
      </trkpt>
      <trkpt lat="60.59415" lon="7.50914">
        <ele>1213.32</ele>
        <time>2019-04-06T13:49:12Z</time>
      </trkpt>
      <trkpt lat="60.59415" lon="7.50916">
        <ele>1213.32</ele>
        <time>2019-04-06T13:49:47Z</time>
      </trkpt>
      <trkpt lat="60.59415" lon="7.50914">
        <ele>1213.32</ele>
        <time>2019-04-06T13:50:18Z</time>
      </trkpt>
      <trkpt lat="60.59414" lon="7.50913">
        <ele>1216.21</ele>
        <time>2019-04-06T13:50:51Z</time>
      </trkpt>
      <trkpt lat="60.59404" lon="7.50898">
        <ele>1216.21</ele>
        <time>2019-04-06T13:51:02Z</time>
      </trkpt>
      <trkpt lat="60.59394" lon="7.50887">
        <ele>1214.28</ele>
        <time>2019-04-06T13:51:14Z</time>
      </trkpt>
      <trkpt lat="60.59393" lon="7.5089">
        <ele>1214.28</ele>
        <time>2019-04-06T13:51:47Z</time>
      </trkpt>
      <trkpt lat="60.59396" lon="7.50891">
        <ele>1214.28</ele>
        <time>2019-04-06T13:52:26Z</time>
      </trkpt>
      <trkpt lat="60.59397" lon="7.5089">
        <ele>1214.28</ele>
        <time>2019-04-06T13:53:01Z</time>
      </trkpt>
      <trkpt lat="60.59396" lon="7.5089">
        <ele>1213.8</ele>
        <time>2019-04-06T13:53:46Z</time>
      </trkpt>
      <trkpt lat="60.59395" lon="7.5089">
        <ele>1213.8</ele>
        <time>2019-04-06T13:54:28Z</time>
      </trkpt>
      <trkpt lat="60.59394" lon="7.50889">
        <ele>1213.8</ele>
        <time>2019-04-06T13:54:53Z</time>
      </trkpt>
      <trkpt lat="60.59394" lon="7.50889">
        <ele>1215.72</ele>
        <time>2019-04-06T13:55:02Z</time>
      </trkpt>
      <trkpt lat="60.59391" lon="7.50891">
        <ele>1215.72</ele>
        <time>2019-04-06T13:55:20Z</time>
      </trkpt>
      <trkpt lat="60.5939" lon="7.50888">
        <ele>1213.8</ele>
        <time>2019-04-06T13:55:35Z</time>
      </trkpt>
      <trkpt lat="60.5939" lon="7.50887">
        <ele>1215.24</ele>
        <time>2019-04-06T13:55:40Z</time>
      </trkpt>
      <trkpt lat="60.59389" lon="7.50889">
        <ele>1215.72</ele>
        <time>2019-04-06T13:55:43Z</time>
      </trkpt>
      <trkpt lat="60.59376" lon="7.50882">
        <ele>1215.72</ele>
        <time>2019-04-06T13:55:57Z</time>
      </trkpt>
      <trkpt lat="60.59374" lon="7.50881">
        <ele>1215.72</ele>
        <time>2019-04-06T13:56:13Z</time>
      </trkpt>
      <trkpt lat="60.59374" lon="7.50882">
        <ele>1215.72</ele>
        <time>2019-04-06T13:56:38Z</time>
      </trkpt>
      <trkpt lat="60.5937" lon="7.50876">
        <ele>1215.72</ele>
        <time>2019-04-06T13:56:49Z</time>
      </trkpt>
      <trkpt lat="60.59371" lon="7.5087">
        <ele>1215.72</ele>
        <time>2019-04-06T13:56:59Z</time>
      </trkpt>
      <trkpt lat="60.59365" lon="7.5087">
        <ele>1214.28</ele>
        <time>2019-04-06T13:57:02Z</time>
      </trkpt>
      <trkpt lat="60.59354" lon="7.50857">
        <ele>1214.28</ele>
        <time>2019-04-06T13:57:05Z</time>
      </trkpt>
      <trkpt lat="60.59346" lon="7.50844">
        <ele>1216.21</ele>
        <time>2019-04-06T13:57:07Z</time>
      </trkpt>
      <trkpt lat="60.59332" lon="7.50826">
        <ele>1216.21</ele>
        <time>2019-04-06T13:57:10Z</time>
      </trkpt>
      <trkpt lat="60.59299" lon="7.50789">
        <ele>1219.09</ele>
        <time>2019-04-06T13:57:17Z</time>
      </trkpt>
      <trkpt lat="60.5928" lon="7.50774">
        <ele>1220.05</ele>
        <time>2019-04-06T13:57:21Z</time>
      </trkpt>
      <trkpt lat="60.5927" lon="7.50763">
        <ele>1220.53</ele>
        <time>2019-04-06T13:57:23Z</time>
      </trkpt>
      <trkpt lat="60.59258" lon="7.5074">
        <ele>1221.49</ele>
        <time>2019-04-06T13:57:26Z</time>
      </trkpt>
      <trkpt lat="60.59234" lon="7.50708">
        <ele>1221.97</ele>
        <time>2019-04-06T13:57:31Z</time>
      </trkpt>
      <trkpt lat="60.59229" lon="7.50704">
        <ele>1221.97</ele>
        <time>2019-04-06T13:57:32Z</time>
      </trkpt>
      <trkpt lat="60.59213" lon="7.50695">
        <ele>1221.97</ele>
        <time>2019-04-06T13:57:36Z</time>
      </trkpt>
      <trkpt lat="60.59211" lon="7.50696">
        <ele>1220.53</ele>
        <time>2019-04-06T13:57:37Z</time>
      </trkpt>
      <trkpt lat="60.5921" lon="7.50696">
        <ele>1220.53</ele>
        <time>2019-04-06T13:57:38Z</time>
      </trkpt>
      <trkpt lat="60.59208" lon="7.50695">
        <ele>1220.53</ele>
        <time>2019-04-06T13:57:39Z</time>
      </trkpt>
      <trkpt lat="60.59201" lon="7.50689">
        <ele>1220.53</ele>
        <time>2019-04-06T13:57:57Z</time>
      </trkpt>
      <trkpt lat="60.592" lon="7.50687">
        <ele>1220.53</ele>
        <time>2019-04-06T13:57:58Z</time>
      </trkpt>
      <trkpt lat="60.59196" lon="7.50682">
        <ele>1220.53</ele>
        <time>2019-04-06T13:58:01Z</time>
      </trkpt>
      <trkpt lat="60.59194" lon="7.50683">
        <ele>1220.53</ele>
        <time>2019-04-06T13:58:15Z</time>
      </trkpt>
      <trkpt lat="60.59192" lon="7.50682">
        <ele>1220.53</ele>
        <time>2019-04-06T13:58:30Z</time>
      </trkpt>
      <trkpt lat="60.59189" lon="7.50678">
        <ele>1221.01</ele>
        <time>2019-04-06T13:58:31Z</time>
      </trkpt>
      <trkpt lat="60.59186" lon="7.50672">
        <ele>1221.01</ele>
        <time>2019-04-06T13:58:32Z</time>
      </trkpt>
      <trkpt lat="60.59177" lon="7.50658">
        <ele>1220.53</ele>
        <time>2019-04-06T13:58:40Z</time>
      </trkpt>
      <trkpt lat="60.59178" lon="7.50659">
        <ele>1220.05</ele>
        <time>2019-04-06T13:58:59Z</time>
      </trkpt>
      <trkpt lat="60.59174" lon="7.50659">
        <ele>1220.05</ele>
        <time>2019-04-06T13:59:15Z</time>
      </trkpt>
      <trkpt lat="60.59172" lon="7.50657">
        <ele>1219.09</ele>
        <time>2019-04-06T13:59:26Z</time>
      </trkpt>
      <trkpt lat="60.59174" lon="7.50656">
        <ele>1218.13</ele>
        <time>2019-04-06T13:59:41Z</time>
      </trkpt>
      <trkpt lat="60.59174" lon="7.50655">
        <ele>1219.57</ele>
        <time>2019-04-06T14:00:08Z</time>
      </trkpt>
      <trkpt lat="60.59168" lon="7.50654">
        <ele>1220.05</ele>
        <time>2019-04-06T14:00:18Z</time>
      </trkpt>
      <trkpt lat="60.59166" lon="7.50656">
        <ele>1221.01</ele>
        <time>2019-04-06T14:00:25Z</time>
      </trkpt>
      <trkpt lat="60.59163" lon="7.50658">
        <ele>1221.01</ele>
        <time>2019-04-06T14:00:38Z</time>
      </trkpt>
      <trkpt lat="60.59158" lon="7.50659">
        <ele>1221.01</ele>
        <time>2019-04-06T14:00:53Z</time>
      </trkpt>
      <trkpt lat="60.59154" lon="7.50659">
        <ele>1221.01</ele>
        <time>2019-04-06T14:01:03Z</time>
      </trkpt>
      <trkpt lat="60.59153" lon="7.50657">
        <ele>1221.01</ele>
        <time>2019-04-06T14:01:04Z</time>
      </trkpt>
      <trkpt lat="60.59142" lon="7.5064">
        <ele>1221.97</ele>
        <time>2019-04-06T14:01:09Z</time>
      </trkpt>
      <trkpt lat="60.59138" lon="7.50633">
        <ele>1222.45</ele>
        <time>2019-04-06T14:01:10Z</time>
      </trkpt>
      <trkpt lat="60.59135" lon="7.50624">
        <ele>1222.93</ele>
        <time>2019-04-06T14:01:11Z</time>
      </trkpt>
      <trkpt lat="60.59131" lon="7.50616">
        <ele>1222.93</ele>
        <time>2019-04-06T14:01:12Z</time>
      </trkpt>
      <trkpt lat="60.59092" lon="7.50547">
        <ele>1226.3</ele>
        <time>2019-04-06T14:01:19Z</time>
      </trkpt>
      <trkpt lat="60.59061" lon="7.50497">
        <ele>1229.66</ele>
        <time>2019-04-06T14:01:24Z</time>
      </trkpt>
      <trkpt lat="60.59055" lon="7.50489">
        <ele>1230.14</ele>
        <time>2019-04-06T14:01:25Z</time>
      </trkpt>
      <trkpt lat="60.5905" lon="7.50482">
        <ele>1230.62</ele>
        <time>2019-04-06T14:01:26Z</time>
      </trkpt>
      <trkpt lat="60.59044" lon="7.50476">
        <ele>1232.07</ele>
        <time>2019-04-06T14:01:27Z</time>
      </trkpt>
      <trkpt lat="60.59037" lon="7.5047">
        <ele>1232.07</ele>
        <time>2019-04-06T14:01:28Z</time>
      </trkpt>
      <trkpt lat="60.59031" lon="7.50463">
        <ele>1232.55</ele>
        <time>2019-04-06T14:01:29Z</time>
      </trkpt>
      <trkpt lat="60.59027" lon="7.50458">
        <ele>1233.99</ele>
        <time>2019-04-06T14:01:30Z</time>
      </trkpt>
      <trkpt lat="60.59022" lon="7.50452">
        <ele>1233.99</ele>
        <time>2019-04-06T14:01:31Z</time>
      </trkpt>
      <trkpt lat="60.59003" lon="7.50435">
        <ele>1234.95</ele>
        <time>2019-04-06T14:01:34Z</time>
      </trkpt>
      <trkpt lat="60.58981" lon="7.50414">
        <ele>1235.91</ele>
        <time>2019-04-06T14:01:37Z</time>
      </trkpt>
      <trkpt lat="60.58954" lon="7.50375">
        <ele>1239.76</ele>
        <time>2019-04-06T14:01:41Z</time>
      </trkpt>
      <trkpt lat="60.58936" lon="7.50347">
        <ele>1243.12</ele>
        <time>2019-04-06T14:01:44Z</time>
      </trkpt>
      <trkpt lat="60.5893" lon="7.50338">
        <ele>1243.12</ele>
        <time>2019-04-06T14:01:45Z</time>
      </trkpt>
      <trkpt lat="60.58924" lon="7.5033">
        <ele>1244.56</ele>
        <time>2019-04-06T14:01:46Z</time>
      </trkpt>
      <trkpt lat="60.58913" lon="7.50311">
        <ele>1245.04</ele>
        <time>2019-04-06T14:01:48Z</time>
      </trkpt>
      <trkpt lat="60.58902" lon="7.50291">
        <ele>1246.01</ele>
        <time>2019-04-06T14:01:50Z</time>
      </trkpt>
      <trkpt lat="60.58895" lon="7.50282">
        <ele>1246.49</ele>
        <time>2019-04-06T14:01:51Z</time>
      </trkpt>
      <trkpt lat="60.5889" lon="7.50273">
        <ele>1247.45</ele>
        <time>2019-04-06T14:01:52Z</time>
      </trkpt>
      <trkpt lat="60.58883" lon="7.50265">
        <ele>1247.45</ele>
        <time>2019-04-06T14:01:53Z</time>
      </trkpt>
      <trkpt lat="60.58878" lon="7.50257">
        <ele>1248.89</ele>
        <time>2019-04-06T14:01:54Z</time>
      </trkpt>
      <trkpt lat="60.58873" lon="7.50248">
        <ele>1249.85</ele>
        <time>2019-04-06T14:01:55Z</time>
      </trkpt>
      <trkpt lat="60.58865" lon="7.50233">
        <ele>1251.29</ele>
        <time>2019-04-06T14:01:57Z</time>
      </trkpt>
      <trkpt lat="60.58861" lon="7.50228">
        <ele>1251.29</ele>
        <time>2019-04-06T14:01:58Z</time>
      </trkpt>
      <trkpt lat="60.58856" lon="7.50225">
        <ele>1251.77</ele>
        <time>2019-04-06T14:01:59Z</time>
      </trkpt>
      <trkpt lat="60.58851" lon="7.50224">
        <ele>1251.77</ele>
        <time>2019-04-06T14:02:00Z</time>
      </trkpt>
      <trkpt lat="60.58847" lon="7.50224">
        <ele>1251.77</ele>
        <time>2019-04-06T14:02:01Z</time>
      </trkpt>
      <trkpt lat="60.58843" lon="7.50222">
        <ele>1252.74</ele>
        <time>2019-04-06T14:02:02Z</time>
      </trkpt>
      <trkpt lat="60.58819" lon="7.5021">
        <ele>1254.66</ele>
        <time>2019-04-06T14:02:07Z</time>
      </trkpt>
      <trkpt lat="60.588" lon="7.502">
        <ele>1257.06</ele>
        <time>2019-04-06T14:02:11Z</time>
      </trkpt>
      <trkpt lat="60.58783" lon="7.50198">
        <ele>1258.5</ele>
        <time>2019-04-06T14:02:19Z</time>
      </trkpt>
      <trkpt lat="60.58759" lon="7.50177">
        <ele>1261.39</ele>
        <time>2019-04-06T14:02:29Z</time>
      </trkpt>
      <trkpt lat="60.58726" lon="7.50151">
        <ele>1259.94</ele>
        <time>2019-04-06T14:02:37Z</time>
      </trkpt>
      <trkpt lat="60.5871" lon="7.50135">
        <ele>1258.02</ele>
        <time>2019-04-06T14:02:40Z</time>
      </trkpt>
      <trkpt lat="60.58698" lon="7.50121">
        <ele>1257.54</ele>
        <time>2019-04-06T14:02:42Z</time>
      </trkpt>
      <trkpt lat="60.58679" lon="7.50091">
        <ele>1256.1</ele>
        <time>2019-04-06T14:02:45Z</time>
      </trkpt>
      <trkpt lat="60.58596" lon="7.49992">
        <ele>1253.22</ele>
        <time>2019-04-06T14:02:55Z</time>
      </trkpt>
      <trkpt lat="60.58578" lon="7.49973">
        <ele>1251.77</ele>
        <time>2019-04-06T14:02:57Z</time>
      </trkpt>
      <trkpt lat="60.58541" lon="7.49963">
        <ele>1254.18</ele>
        <time>2019-04-06T14:03:04Z</time>
      </trkpt>
      <trkpt lat="60.58538" lon="7.49963">
        <ele>1255.14</ele>
        <time>2019-04-06T14:03:06Z</time>
      </trkpt>
      <trkpt lat="60.5853" lon="7.49968">
        <ele>1257.54</ele>
        <time>2019-04-06T14:03:10Z</time>
      </trkpt>
      <trkpt lat="60.58517" lon="7.49976">
        <ele>1260.43</ele>
        <time>2019-04-06T14:03:16Z</time>
      </trkpt>
      <trkpt lat="60.58507" lon="7.49973">
        <ele>1261.39</ele>
        <time>2019-04-06T14:03:22Z</time>
      </trkpt>
      <trkpt lat="60.58496" lon="7.49972">
        <ele>1262.35</ele>
        <time>2019-04-06T14:03:28Z</time>
      </trkpt>
      <trkpt lat="60.58483" lon="7.4997">
        <ele>1262.35</ele>
        <time>2019-04-06T14:03:32Z</time>
      </trkpt>
      <trkpt lat="60.58454" lon="7.49949">
        <ele>1260.91</ele>
        <time>2019-04-06T14:03:37Z</time>
      </trkpt>
      <trkpt lat="60.58436" lon="7.49938">
        <ele>1259.46</ele>
        <time>2019-04-06T14:03:39Z</time>
      </trkpt>
      <trkpt lat="60.58427" lon="7.49933">
        <ele>1259.46</ele>
        <time>2019-04-06T14:03:40Z</time>
      </trkpt>
      <trkpt lat="60.58385" lon="7.49923">
        <ele>1262.83</ele>
        <time>2019-04-06T14:03:46Z</time>
      </trkpt>
      <trkpt lat="60.58354" lon="7.49903">
        <ele>1266.67</ele>
        <time>2019-04-06T14:03:52Z</time>
      </trkpt>
      <trkpt lat="60.5834" lon="7.49899">
        <ele>1265.23</ele>
        <time>2019-04-06T14:03:55Z</time>
      </trkpt>
      <trkpt lat="60.58316" lon="7.49893">
        <ele>1266.19</ele>
        <time>2019-04-06T14:04:00Z</time>
      </trkpt>
      <trkpt lat="60.583" lon="7.49895">
        <ele>1267.16</ele>
        <time>2019-04-06T14:04:04Z</time>
      </trkpt>
      <trkpt lat="60.58288" lon="7.49893">
        <ele>1266.67</ele>
        <time>2019-04-06T14:04:07Z</time>
      </trkpt>
      <trkpt lat="60.58275" lon="7.49896">
        <ele>1266.67</ele>
        <time>2019-04-06T14:04:10Z</time>
      </trkpt>
      <trkpt lat="60.58262" lon="7.49905">
        <ele>1267.16</ele>
        <time>2019-04-06T14:04:13Z</time>
      </trkpt>
      <trkpt lat="60.58244" lon="7.49913">
        <ele>1269.56</ele>
        <time>2019-04-06T14:04:17Z</time>
      </trkpt>
      <trkpt lat="60.5824" lon="7.49914">
        <ele>1270.04</ele>
        <time>2019-04-06T14:04:18Z</time>
      </trkpt>
      <trkpt lat="60.58217" lon="7.49931">
        <ele>1272.44</ele>
        <time>2019-04-06T14:04:30Z</time>
      </trkpt>
      <trkpt lat="60.58196" lon="7.49949">
        <ele>1272.92</ele>
        <time>2019-04-06T14:04:40Z</time>
      </trkpt>
      <trkpt lat="60.58175" lon="7.49964">
        <ele>1273.88</ele>
        <time>2019-04-06T14:04:47Z</time>
      </trkpt>
      <trkpt lat="60.58152" lon="7.49975">
        <ele>1275.81</ele>
        <time>2019-04-06T14:04:53Z</time>
      </trkpt>
      <trkpt lat="60.58144" lon="7.49978">
        <ele>1275.81</ele>
        <time>2019-04-06T14:04:55Z</time>
      </trkpt>
      <trkpt lat="60.58131" lon="7.49988">
        <ele>1276.77</ele>
        <time>2019-04-06T14:04:59Z</time>
      </trkpt>
      <trkpt lat="60.58112" lon="7.49991">
        <ele>1277.73</ele>
        <time>2019-04-06T14:05:03Z</time>
      </trkpt>
      <trkpt lat="60.58083" lon="7.50012">
        <ele>1280.61</ele>
        <time>2019-04-06T14:05:13Z</time>
      </trkpt>
      <trkpt lat="60.58066" lon="7.50014">
        <ele>1282.54</ele>
        <time>2019-04-06T14:05:18Z</time>
      </trkpt>
      <trkpt lat="60.58057" lon="7.50018">
        <ele>1282.54</ele>
        <time>2019-04-06T14:05:21Z</time>
      </trkpt>
      <trkpt lat="60.58035" lon="7.50033">
        <ele>1283.02</ele>
        <time>2019-04-06T14:05:30Z</time>
      </trkpt>
      <trkpt lat="60.58021" lon="7.50046">
        <ele>1283.5</ele>
        <time>2019-04-06T14:05:36Z</time>
      </trkpt>
      <trkpt lat="60.57998" lon="7.50053">
        <ele>1284.94</ele>
        <time>2019-04-06T14:05:42Z</time>
      </trkpt>
      <trkpt lat="60.57984" lon="7.50053">
        <ele>1286.38</ele>
        <time>2019-04-06T14:05:46Z</time>
      </trkpt>
      <trkpt lat="60.57969" lon="7.50048">
        <ele>1288.3</ele>
        <time>2019-04-06T14:05:50Z</time>
      </trkpt>
      <trkpt lat="60.57931" lon="7.5003">
        <ele>1289.75</ele>
        <time>2019-04-06T14:06:00Z</time>
      </trkpt>
      <trkpt lat="60.57899" lon="7.50015">
        <ele>1290.71</ele>
        <time>2019-04-06T14:06:09Z</time>
      </trkpt>
      <trkpt lat="60.57892" lon="7.50012">
        <ele>1291.19</ele>
        <time>2019-04-06T14:06:11Z</time>
      </trkpt>
      <trkpt lat="60.57867" lon="7.49996">
        <ele>1291.19</ele>
        <time>2019-04-06T14:06:17Z</time>
      </trkpt>
      <trkpt lat="60.57833" lon="7.49977">
        <ele>1292.63</ele>
        <time>2019-04-06T14:06:24Z</time>
      </trkpt>
      <trkpt lat="60.57823" lon="7.49972">
        <ele>1293.11</ele>
        <time>2019-04-06T14:06:26Z</time>
      </trkpt>
      <trkpt lat="60.57774" lon="7.49945">
        <ele>1294.55</ele>
        <time>2019-04-06T14:06:38Z</time>
      </trkpt>
      <trkpt lat="60.57765" lon="7.4994">
        <ele>1294.55</ele>
        <time>2019-04-06T14:06:40Z</time>
      </trkpt>
      <trkpt lat="60.57717" lon="7.49913">
        <ele>1293.11</ele>
        <time>2019-04-06T14:06:50Z</time>
      </trkpt>
      <trkpt lat="60.57677" lon="7.49894">
        <ele>1292.15</ele>
        <time>2019-04-06T14:06:57Z</time>
      </trkpt>
      <trkpt lat="60.5766" lon="7.49885">
        <ele>1289.27</ele>
        <time>2019-04-06T14:07:00Z</time>
      </trkpt>
      <trkpt lat="60.57649" lon="7.49879">
        <ele>1287.82</ele>
        <time>2019-04-06T14:07:02Z</time>
      </trkpt>
      <trkpt lat="60.57602" lon="7.49863">
        <ele>1285.9</ele>
        <time>2019-04-06T14:07:09Z</time>
      </trkpt>
      <trkpt lat="60.5757" lon="7.49849">
        <ele>1285.42</ele>
        <time>2019-04-06T14:07:14Z</time>
      </trkpt>
      <trkpt lat="60.5754" lon="7.49842">
        <ele>1285.42</ele>
        <time>2019-04-06T14:07:19Z</time>
      </trkpt>
      <trkpt lat="60.57517" lon="7.49841">
        <ele>1287.82</ele>
        <time>2019-04-06T14:07:23Z</time>
      </trkpt>
      <trkpt lat="60.57495" lon="7.49836">
        <ele>1288.78</ele>
        <time>2019-04-06T14:07:27Z</time>
      </trkpt>
      <trkpt lat="60.57485" lon="7.49831">
        <ele>1288.78</ele>
        <time>2019-04-06T14:07:29Z</time>
      </trkpt>
      <trkpt lat="60.57468" lon="7.49829">
        <ele>1286.86</ele>
        <time>2019-04-06T14:07:33Z</time>
      </trkpt>
      <trkpt lat="60.57453" lon="7.49831">
        <ele>1288.78</ele>
        <time>2019-04-06T14:07:36Z</time>
      </trkpt>
      <trkpt lat="60.57431" lon="7.49839">
        <ele>1288.78</ele>
        <time>2019-04-06T14:07:40Z</time>
      </trkpt>
      <trkpt lat="60.57411" lon="7.49845">
        <ele>1289.75</ele>
        <time>2019-04-06T14:07:43Z</time>
      </trkpt>
      <trkpt lat="60.57376" lon="7.49847">
        <ele>1289.75</ele>
        <time>2019-04-06T14:07:48Z</time>
      </trkpt>
      <trkpt lat="60.57346" lon="7.49859">
        <ele>1292.15</ele>
        <time>2019-04-06T14:07:53Z</time>
      </trkpt>
      <trkpt lat="60.57333" lon="7.49864">
        <ele>1294.55</ele>
        <time>2019-04-06T14:07:56Z</time>
      </trkpt>
      <trkpt lat="60.57341" lon="7.49866">
        <ele>1291.19</ele>
        <time>2019-04-06T14:07:58Z</time>
      </trkpt>
      <trkpt lat="60.57349" lon="7.49857">
        <ele>1288.3</ele>
        <time>2019-04-06T14:07:59Z</time>
      </trkpt>
      <trkpt lat="60.57353" lon="7.49851">
        <ele>1287.34</ele>
        <time>2019-04-06T14:08:00Z</time>
      </trkpt>
      <trkpt lat="60.57389" lon="7.49796">
        <ele>1286.38</ele>
        <time>2019-04-06T14:08:06Z</time>
      </trkpt>
      <trkpt lat="60.57411" lon="7.49771">
        <ele>1287.82</ele>
        <time>2019-04-06T14:08:10Z</time>
      </trkpt>
      <trkpt lat="60.57435" lon="7.49744">
        <ele>1286.86</ele>
        <time>2019-04-06T14:08:14Z</time>
      </trkpt>
      <trkpt lat="60.57441" lon="7.49737">
        <ele>1286.86</ele>
        <time>2019-04-06T14:08:15Z</time>
      </trkpt>
      <trkpt lat="60.57469" lon="7.49704">
        <ele>1290.23</ele>
        <time>2019-04-06T14:08:20Z</time>
      </trkpt>
      <trkpt lat="60.57474" lon="7.49696">
        <ele>1286.86</ele>
        <time>2019-04-06T14:08:21Z</time>
      </trkpt>
      <trkpt lat="60.57487" lon="7.49677">
        <ele>1284.94</ele>
        <time>2019-04-06T14:08:23Z</time>
      </trkpt>
      <trkpt lat="60.57499" lon="7.4966">
        <ele>1286.38</ele>
        <time>2019-04-06T14:08:25Z</time>
      </trkpt>
      <trkpt lat="60.57504" lon="7.49653">
        <ele>1286.38</ele>
        <time>2019-04-06T14:08:26Z</time>
      </trkpt>
      <trkpt lat="60.57541" lon="7.49619">
        <ele>1284.94</ele>
        <time>2019-04-06T14:08:32Z</time>
      </trkpt>
      <trkpt lat="60.57553" lon="7.49606">
        <ele>1284.94</ele>
        <time>2019-04-06T14:08:34Z</time>
      </trkpt>
      <trkpt lat="60.5758" lon="7.49573">
        <ele>1288.3</ele>
        <time>2019-04-06T14:08:39Z</time>
      </trkpt>
      <trkpt lat="60.57617" lon="7.49543">
        <ele>1289.75</ele>
        <time>2019-04-06T14:08:45Z</time>
      </trkpt>
      <trkpt lat="60.5763" lon="7.49532">
        <ele>1290.71</ele>
        <time>2019-04-06T14:08:47Z</time>
      </trkpt>
      <trkpt lat="60.57648" lon="7.49521">
        <ele>1293.59</ele>
        <time>2019-04-06T14:08:50Z</time>
      </trkpt>
      <trkpt lat="60.57672" lon="7.49509">
        <ele>1296.96</ele>
        <time>2019-04-06T14:08:55Z</time>
      </trkpt>
      <trkpt lat="60.57689" lon="7.49507">
        <ele>1299.84</ele>
        <time>2019-04-06T14:08:59Z</time>
      </trkpt>
      <trkpt lat="60.57706" lon="7.49508">
        <ele>1303.2</ele>
        <time>2019-04-06T14:09:03Z</time>
      </trkpt>
      <trkpt lat="60.57716" lon="7.49507">
        <ele>1304.17</ele>
        <time>2019-04-06T14:09:05Z</time>
      </trkpt>
      <trkpt lat="60.57733" lon="7.49498">
        <ele>1308.97</ele>
        <time>2019-04-06T14:09:09Z</time>
      </trkpt>
      <trkpt lat="60.57736" lon="7.49494">
        <ele>1308.97</ele>
        <time>2019-04-06T14:09:10Z</time>
      </trkpt>
      <trkpt lat="60.57739" lon="7.49492">
        <ele>1310.41</ele>
        <time>2019-04-06T14:09:11Z</time>
      </trkpt>
      <trkpt lat="60.57722" lon="7.49491">
        <ele>1313.78</ele>
        <time>2019-04-06T14:09:17Z</time>
      </trkpt>
      <trkpt lat="60.57704" lon="7.49471">
        <ele>1310.41</ele>
        <time>2019-04-06T14:09:20Z</time>
      </trkpt>
      <trkpt lat="60.57685" lon="7.49454">
        <ele>1308.01</ele>
        <time>2019-04-06T14:09:23Z</time>
      </trkpt>
      <trkpt lat="60.57673" lon="7.49444">
        <ele>1304.65</ele>
        <time>2019-04-06T14:09:25Z</time>
      </trkpt>
      <trkpt lat="60.57651" lon="7.49428">
        <ele>1301.28</ele>
        <time>2019-04-06T14:09:28Z</time>
      </trkpt>
      <trkpt lat="60.57628" lon="7.49418">
        <ele>1297.92</ele>
        <time>2019-04-06T14:09:31Z</time>
      </trkpt>
      <trkpt lat="60.57612" lon="7.49411">
        <ele>1297.44</ele>
        <time>2019-04-06T14:09:33Z</time>
      </trkpt>
      <trkpt lat="60.57597" lon="7.49405">
        <ele>1295.99</ele>
        <time>2019-04-06T14:09:35Z</time>
      </trkpt>
      <trkpt lat="60.57546" lon="7.49383">
        <ele>1295.51</ele>
        <time>2019-04-06T14:09:42Z</time>
      </trkpt>
      <trkpt lat="60.57522" lon="7.49376">
        <ele>1293.59</ele>
        <time>2019-04-06T14:09:45Z</time>
      </trkpt>
      <trkpt lat="60.57478" lon="7.49357">
        <ele>1292.15</ele>
        <time>2019-04-06T14:09:51Z</time>
      </trkpt>
      <trkpt lat="60.57439" lon="7.49351">
        <ele>1295.99</ele>
        <time>2019-04-06T14:09:59Z</time>
      </trkpt>
      <trkpt lat="60.57435" lon="7.49351">
        <ele>1295.99</ele>
        <time>2019-04-06T14:10:00Z</time>
      </trkpt>
      <trkpt lat="60.57413" lon="7.49355">
        <ele>1297.92</ele>
        <time>2019-04-06T14:10:05Z</time>
      </trkpt>
      <trkpt lat="60.57401" lon="7.49359">
        <ele>1299.36</ele>
        <time>2019-04-06T14:10:08Z</time>
      </trkpt>
      <trkpt lat="60.57375" lon="7.49363">
        <ele>1300.32</ele>
        <time>2019-04-06T14:10:13Z</time>
      </trkpt>
      <trkpt lat="60.57363" lon="7.49367">
        <ele>1301.76</ele>
        <time>2019-04-06T14:10:15Z</time>
      </trkpt>
      <trkpt lat="60.57337" lon="7.4937">
        <ele>1304.17</ele>
        <time>2019-04-06T14:10:19Z</time>
      </trkpt>
      <trkpt lat="60.57331" lon="7.49372">
        <ele>1304.17</ele>
        <time>2019-04-06T14:10:20Z</time>
      </trkpt>
      <trkpt lat="60.57304" lon="7.49378">
        <ele>1307.05</ele>
        <time>2019-04-06T14:10:24Z</time>
      </trkpt>
      <trkpt lat="60.57276" lon="7.49377">
        <ele>1307.05</ele>
        <time>2019-04-06T14:10:28Z</time>
      </trkpt>
      <trkpt lat="60.57249" lon="7.49375">
        <ele>1308.49</ele>
        <time>2019-04-06T14:10:32Z</time>
      </trkpt>
      <trkpt lat="60.57225" lon="7.49373">
        <ele>1309.93</ele>
        <time>2019-04-06T14:10:36Z</time>
      </trkpt>
      <trkpt lat="60.57204" lon="7.49374">
        <ele>1310.9</ele>
        <time>2019-04-06T14:10:41Z</time>
      </trkpt>
      <trkpt lat="60.57208" lon="7.49373">
        <ele>1308.97</ele>
        <time>2019-04-06T14:10:45Z</time>
      </trkpt>
      <trkpt lat="60.57221" lon="7.49352">
        <ele>1307.05</ele>
        <time>2019-04-06T14:10:48Z</time>
      </trkpt>
      <trkpt lat="60.57229" lon="7.49335">
        <ele>1307.05</ele>
        <time>2019-04-06T14:10:50Z</time>
      </trkpt>
      <trkpt lat="60.57236" lon="7.49317">
        <ele>1306.09</ele>
        <time>2019-04-06T14:10:52Z</time>
      </trkpt>
      <trkpt lat="60.57244" lon="7.49302">
        <ele>1307.53</ele>
        <time>2019-04-06T14:10:54Z</time>
      </trkpt>
      <trkpt lat="60.57259" lon="7.49275">
        <ele>1307.53</ele>
        <time>2019-04-06T14:10:59Z</time>
      </trkpt>
      <trkpt lat="60.57253" lon="7.49286">
        <ele>1309.45</ele>
        <time>2019-04-06T14:11:05Z</time>
      </trkpt>
      <trkpt lat="60.57249" lon="7.49288">
        <ele>1309.45</ele>
        <time>2019-04-06T14:11:06Z</time>
      </trkpt>
      <trkpt lat="60.57234" lon="7.49292">
        <ele>1310.41</ele>
        <time>2019-04-06T14:11:09Z</time>
      </trkpt>
      <trkpt lat="60.57208" lon="7.49295">
        <ele>1312.34</ele>
        <time>2019-04-06T14:11:14Z</time>
      </trkpt>
      <trkpt lat="60.57194" lon="7.49296">
        <ele>1313.78</ele>
        <time>2019-04-06T14:11:17Z</time>
      </trkpt>
      <trkpt lat="60.57182" lon="7.49296">
        <ele>1315.7</ele>
        <time>2019-04-06T14:11:20Z</time>
      </trkpt>
      <trkpt lat="60.57176" lon="7.49299">
        <ele>1315.7</ele>
        <time>2019-04-06T14:11:25Z</time>
      </trkpt>
      <trkpt lat="60.57171" lon="7.49317">
        <ele>1317.14</ele>
        <time>2019-04-06T14:11:29Z</time>
      </trkpt>
      <trkpt lat="60.57168" lon="7.49326">
        <ele>1318.1</ele>
        <time>2019-04-06T14:11:31Z</time>
      </trkpt>
      <trkpt lat="60.57161" lon="7.49353">
        <ele>1321.47</ele>
        <time>2019-04-06T14:11:37Z</time>
      </trkpt>
      <trkpt lat="60.57151" lon="7.4937">
        <ele>1322.91</ele>
        <time>2019-04-06T14:11:41Z</time>
      </trkpt>
      <trkpt lat="60.57134" lon="7.49387">
        <ele>1324.83</ele>
        <time>2019-04-06T14:11:46Z</time>
      </trkpt>
      <trkpt lat="60.57129" lon="7.49396">
        <ele>1325.31</ele>
        <time>2019-04-06T14:11:48Z</time>
      </trkpt>
      <trkpt lat="60.57122" lon="7.49406">
        <ele>1327.24</ele>
        <time>2019-04-06T14:11:51Z</time>
      </trkpt>
      <trkpt lat="60.57116" lon="7.49416">
        <ele>1327.72</ele>
        <time>2019-04-06T14:11:54Z</time>
      </trkpt>
      <trkpt lat="60.57111" lon="7.49427">
        <ele>1328.68</ele>
        <time>2019-04-06T14:11:56Z</time>
      </trkpt>
      <trkpt lat="60.57101" lon="7.49447">
        <ele>1331.56</ele>
        <time>2019-04-06T14:12:00Z</time>
      </trkpt>
      <trkpt lat="60.57096" lon="7.49456">
        <ele>1334.93</ele>
        <time>2019-04-06T14:12:02Z</time>
      </trkpt>
      <trkpt lat="60.57092" lon="7.49462">
        <ele>1336.37</ele>
        <time>2019-04-06T14:12:04Z</time>
      </trkpt>
      <trkpt lat="60.5708" lon="7.49477">
        <ele>1337.33</ele>
        <time>2019-04-06T14:12:10Z</time>
      </trkpt>
      <trkpt lat="60.57069" lon="7.49508">
        <ele>1339.25</ele>
        <time>2019-04-06T14:12:16Z</time>
      </trkpt>
      <trkpt lat="60.57057" lon="7.49525">
        <ele>1342.62</ele>
        <time>2019-04-06T14:12:19Z</time>
      </trkpt>
      <trkpt lat="60.57043" lon="7.49538">
        <ele>1345.02</ele>
        <time>2019-04-06T14:12:23Z</time>
      </trkpt>
      <trkpt lat="60.57039" lon="7.49543">
        <ele>1345.98</ele>
        <time>2019-04-06T14:12:24Z</time>
      </trkpt>
      <trkpt lat="60.57032" lon="7.4956">
        <ele>1347.43</ele>
        <time>2019-04-06T14:12:26Z</time>
      </trkpt>
      <trkpt lat="60.57022" lon="7.49576">
        <ele>1349.83</ele>
        <time>2019-04-06T14:12:28Z</time>
      </trkpt>
      <trkpt lat="60.56996" lon="7.49609">
        <ele>1353.67</ele>
        <time>2019-04-06T14:12:33Z</time>
      </trkpt>
      <trkpt lat="60.56986" lon="7.49622">
        <ele>1355.12</ele>
        <time>2019-04-06T14:12:35Z</time>
      </trkpt>
      <trkpt lat="60.56967" lon="7.49641">
        <ele>1359.44</ele>
        <time>2019-04-06T14:12:39Z</time>
      </trkpt>
      <trkpt lat="60.56956" lon="7.49658">
        <ele>1364.25</ele>
        <time>2019-04-06T14:12:42Z</time>
      </trkpt>
      <trkpt lat="60.56946" lon="7.4967">
        <ele>1367.61</ele>
        <time>2019-04-06T14:12:45Z</time>
      </trkpt>
      <trkpt lat="60.56941" lon="7.49677">
        <ele>1368.09</ele>
        <time>2019-04-06T14:12:47Z</time>
      </trkpt>
      <trkpt lat="60.56935" lon="7.49684">
        <ele>1370.5</ele>
        <time>2019-04-06T14:12:50Z</time>
      </trkpt>
      <trkpt lat="60.56934" lon="7.49686">
        <ele>1371.94</ele>
        <time>2019-04-06T14:12:51Z</time>
      </trkpt>
      <trkpt lat="60.56938" lon="7.49684">
        <ele>1368.09</ele>
        <time>2019-04-06T14:12:53Z</time>
      </trkpt>
      <trkpt lat="60.56942" lon="7.49672">
        <ele>1365.69</ele>
        <time>2019-04-06T14:12:55Z</time>
      </trkpt>
      <trkpt lat="60.56947" lon="7.49653">
        <ele>1365.69</ele>
        <time>2019-04-06T14:12:58Z</time>
      </trkpt>
      <trkpt lat="60.56955" lon="7.49631">
        <ele>1361.84</ele>
        <time>2019-04-06T14:13:01Z</time>
      </trkpt>
      <trkpt lat="60.56959" lon="7.4962">
        <ele>1357.52</ele>
        <time>2019-04-06T14:13:02Z</time>
      </trkpt>
      <trkpt lat="60.56964" lon="7.4961">
        <ele>1352.23</ele>
        <time>2019-04-06T14:13:03Z</time>
      </trkpt>
      <trkpt lat="60.56968" lon="7.49599">
        <ele>1352.23</ele>
        <time>2019-04-06T14:13:04Z</time>
      </trkpt>
      <trkpt lat="60.56972" lon="7.49588">
        <ele>1352.23</ele>
        <time>2019-04-06T14:13:05Z</time>
      </trkpt>
      <trkpt lat="60.56979" lon="7.49567">
        <ele>1354.63</ele>
        <time>2019-04-06T14:13:07Z</time>
      </trkpt>
      <trkpt lat="60.5699" lon="7.49537">
        <ele>1349.35</ele>
        <time>2019-04-06T14:13:10Z</time>
      </trkpt>
      <trkpt lat="60.56993" lon="7.49526">
        <ele>1349.35</ele>
        <time>2019-04-06T14:13:11Z</time>
      </trkpt>
      <trkpt lat="60.56998" lon="7.49504">
        <ele>1348.39</ele>
        <time>2019-04-06T14:13:13Z</time>
      </trkpt>
      <trkpt lat="60.57008" lon="7.49466">
        <ele>1346.94</ele>
        <time>2019-04-06T14:13:17Z</time>
      </trkpt>
      <trkpt lat="60.57022" lon="7.49418">
        <ele>1345.5</ele>
        <time>2019-04-06T14:13:22Z</time>
      </trkpt>
      <trkpt lat="60.57029" lon="7.4939">
        <ele>1344.54</ele>
        <time>2019-04-06T14:13:25Z</time>
      </trkpt>
      <trkpt lat="60.57032" lon="7.49393">
        <ele>1347.43</ele>
        <time>2019-04-06T14:13:27Z</time>
      </trkpt>
      <trkpt lat="60.57028" lon="7.49404">
        <ele>1348.39</ele>
        <time>2019-04-06T14:13:31Z</time>
      </trkpt>
      <trkpt lat="60.57004" lon="7.49423">
        <ele>1350.79</ele>
        <time>2019-04-06T14:13:37Z</time>
      </trkpt>
      <trkpt lat="60.56989" lon="7.49435">
        <ele>1351.75</ele>
        <time>2019-04-06T14:13:41Z</time>
      </trkpt>
      <trkpt lat="60.5696" lon="7.49452">
        <ele>1355.12</ele>
        <time>2019-04-06T14:13:50Z</time>
      </trkpt>
      <trkpt lat="60.56957" lon="7.49455">
        <ele>1355.12</ele>
        <time>2019-04-06T14:13:51Z</time>
      </trkpt>
      <trkpt lat="60.56952" lon="7.49461">
        <ele>1355.12</ele>
        <time>2019-04-06T14:13:54Z</time>
      </trkpt>
      <trkpt lat="60.56967" lon="7.49445">
        <ele>1351.75</ele>
        <time>2019-04-06T14:14:00Z</time>
      </trkpt>
      <trkpt lat="60.5697" lon="7.49435">
        <ele>1351.75</ele>
        <time>2019-04-06T14:14:01Z</time>
      </trkpt>
      <trkpt lat="60.56973" lon="7.49424">
        <ele>1350.79</ele>
        <time>2019-04-06T14:14:02Z</time>
      </trkpt>
      <trkpt lat="60.56981" lon="7.49369">
        <ele>1351.27</ele>
        <time>2019-04-06T14:14:09Z</time>
      </trkpt>
      <trkpt lat="60.56982" lon="7.4936">
        <ele>1352.71</ele>
        <time>2019-04-06T14:14:13Z</time>
      </trkpt>
      <trkpt lat="60.5699" lon="7.49333">
        <ele>1349.83</ele>
        <time>2019-04-06T14:14:19Z</time>
      </trkpt>
      <trkpt lat="60.56992" lon="7.49325">
        <ele>1348.87</ele>
        <time>2019-04-06T14:14:20Z</time>
      </trkpt>
      <trkpt lat="60.56995" lon="7.4932">
        <ele>1350.79</ele>
        <time>2019-04-06T14:14:23Z</time>
      </trkpt>
      <trkpt lat="60.56996" lon="7.49325">
        <ele>1351.75</ele>
        <time>2019-04-06T14:14:37Z</time>
      </trkpt>
      <trkpt lat="60.57001" lon="7.49314">
        <ele>1348.87</ele>
        <time>2019-04-06T14:14:40Z</time>
      </trkpt>
      <trkpt lat="60.57007" lon="7.49294">
        <ele>1347.91</ele>
        <time>2019-04-06T14:14:43Z</time>
      </trkpt>
      <trkpt lat="60.57015" lon="7.49272">
        <ele>1347.43</ele>
        <time>2019-04-06T14:14:46Z</time>
      </trkpt>
      <trkpt lat="60.57043" lon="7.49231">
        <ele>1343.1</ele>
        <time>2019-04-06T14:14:52Z</time>
      </trkpt>
      <trkpt lat="60.57053" lon="7.49213">
        <ele>1341.66</ele>
        <time>2019-04-06T14:14:54Z</time>
      </trkpt>
      <trkpt lat="60.57065" lon="7.49193">
        <ele>1337.81</ele>
        <time>2019-04-06T14:14:56Z</time>
      </trkpt>
      <trkpt lat="60.57084" lon="7.4916">
        <ele>1332.04</ele>
        <time>2019-04-06T14:14:59Z</time>
      </trkpt>
      <trkpt lat="60.57098" lon="7.49135">
        <ele>1328.2</ele>
        <time>2019-04-06T14:15:01Z</time>
      </trkpt>
      <trkpt lat="60.57105" lon="7.49123">
        <ele>1327.24</ele>
        <time>2019-04-06T14:15:02Z</time>
      </trkpt>
      <trkpt lat="60.57119" lon="7.49102">
        <ele>1324.83</ele>
        <time>2019-04-06T14:15:04Z</time>
      </trkpt>
      <trkpt lat="60.57145" lon="7.49081">
        <ele>1322.43</ele>
        <time>2019-04-06T14:15:07Z</time>
      </trkpt>
      <trkpt lat="60.57169" lon="7.49056">
        <ele>1320.51</ele>
        <time>2019-04-06T14:15:10Z</time>
      </trkpt>
      <trkpt lat="60.57183" lon="7.49042">
        <ele>1321.95</ele>
        <time>2019-04-06T14:15:12Z</time>
      </trkpt>
      <trkpt lat="60.57196" lon="7.49032">
        <ele>1322.91</ele>
        <time>2019-04-06T14:15:14Z</time>
      </trkpt>
      <trkpt lat="60.57221" lon="7.49033">
        <ele>1321.47</ele>
        <time>2019-04-06T14:15:17Z</time>
      </trkpt>
      <trkpt lat="60.57251" lon="7.4905">
        <ele>1317.14</ele>
        <time>2019-04-06T14:15:20Z</time>
      </trkpt>
      <trkpt lat="60.57264" lon="7.49054">
        <ele>1313.3</ele>
        <time>2019-04-06T14:15:21Z</time>
      </trkpt>
      <trkpt lat="60.57291" lon="7.49065">
        <ele>1307.53</ele>
        <time>2019-04-06T14:15:23Z</time>
      </trkpt>
      <trkpt lat="60.57305" lon="7.49071">
        <ele>1304.17</ele>
        <time>2019-04-06T14:15:24Z</time>
      </trkpt>
      <trkpt lat="60.57332" lon="7.49085">
        <ele>1301.76</ele>
        <time>2019-04-06T14:15:26Z</time>
      </trkpt>
      <trkpt lat="60.57371" lon="7.49105">
        <ele>1296.96</ele>
        <time>2019-04-06T14:15:29Z</time>
      </trkpt>
      <trkpt lat="60.57395" lon="7.49122">
        <ele>1294.55</ele>
        <time>2019-04-06T14:15:31Z</time>
      </trkpt>
      <trkpt lat="60.57417" lon="7.49133">
        <ele>1296.48</ele>
        <time>2019-04-06T14:15:33Z</time>
      </trkpt>
      <trkpt lat="60.57438" lon="7.49142">
        <ele>1295.99</ele>
        <time>2019-04-06T14:15:35Z</time>
      </trkpt>
      <trkpt lat="60.5747" lon="7.49154">
        <ele>1293.11</ele>
        <time>2019-04-06T14:15:38Z</time>
      </trkpt>
      <trkpt lat="60.57503" lon="7.49164">
        <ele>1291.19</ele>
        <time>2019-04-06T14:15:41Z</time>
      </trkpt>
      <trkpt lat="60.57525" lon="7.4917">
        <ele>1292.15</ele>
        <time>2019-04-06T14:15:43Z</time>
      </trkpt>
      <trkpt lat="60.57547" lon="7.49176">
        <ele>1297.44</ele>
        <time>2019-04-06T14:15:46Z</time>
      </trkpt>
      <trkpt lat="60.57575" lon="7.4918">
        <ele>1293.11</ele>
        <time>2019-04-06T14:15:49Z</time>
      </trkpt>
      <trkpt lat="60.57595" lon="7.49177">
        <ele>1292.15</ele>
        <time>2019-04-06T14:15:51Z</time>
      </trkpt>
      <trkpt lat="60.57605" lon="7.49177">
        <ele>1292.15</ele>
        <time>2019-04-06T14:15:52Z</time>
      </trkpt>
      <trkpt lat="60.57632" lon="7.49186">
        <ele>1295.99</ele>
        <time>2019-04-06T14:15:55Z</time>
      </trkpt>
      <trkpt lat="60.57647" lon="7.49192">
        <ele>1298.88</ele>
        <time>2019-04-06T14:15:57Z</time>
      </trkpt>
      <trkpt lat="60.57666" lon="7.49199">
        <ele>1301.76</ele>
        <time>2019-04-06T14:16:00Z</time>
      </trkpt>
      <trkpt lat="60.5769" lon="7.49213">
        <ele>1306.09</ele>
        <time>2019-04-06T14:16:04Z</time>
      </trkpt>
      <trkpt lat="60.57703" lon="7.49225">
        <ele>1307.05</ele>
        <time>2019-04-06T14:16:06Z</time>
      </trkpt>
      <trkpt lat="60.57729" lon="7.49242">
        <ele>1310.41</ele>
        <time>2019-04-06T14:16:10Z</time>
      </trkpt>
      <trkpt lat="60.57735" lon="7.49247">
        <ele>1311.38</ele>
        <time>2019-04-06T14:16:11Z</time>
      </trkpt>
      <trkpt lat="60.57748" lon="7.49258">
        <ele>1311.38</ele>
        <time>2019-04-06T14:16:13Z</time>
      </trkpt>
      <trkpt lat="60.57777" lon="7.49271">
        <ele>1313.3</ele>
        <time>2019-04-06T14:16:17Z</time>
      </trkpt>
      <trkpt lat="60.57812" lon="7.4929">
        <ele>1315.7</ele>
        <time>2019-04-06T14:16:22Z</time>
      </trkpt>
      <trkpt lat="60.57857" lon="7.49318">
        <ele>1317.62</ele>
        <time>2019-04-06T14:16:27Z</time>
      </trkpt>
      <trkpt lat="60.57871" lon="7.49332">
        <ele>1320.51</ele>
        <time>2019-04-06T14:16:29Z</time>
      </trkpt>
      <trkpt lat="60.57934" lon="7.49384">
        <ele>1324.35</ele>
        <time>2019-04-06T14:16:38Z</time>
      </trkpt>
      <trkpt lat="60.57946" lon="7.49396">
        <ele>1325.31</ele>
        <time>2019-04-06T14:16:40Z</time>
      </trkpt>
      <trkpt lat="60.57958" lon="7.4941">
        <ele>1325.8</ele>
        <time>2019-04-06T14:16:42Z</time>
      </trkpt>
      <trkpt lat="60.57971" lon="7.49424">
        <ele>1325.8</ele>
        <time>2019-04-06T14:16:44Z</time>
      </trkpt>
      <trkpt lat="60.58008" lon="7.49455">
        <ele>1327.72</ele>
        <time>2019-04-06T14:16:50Z</time>
      </trkpt>
      <trkpt lat="60.58036" lon="7.49479">
        <ele>1329.64</ele>
        <time>2019-04-06T14:16:55Z</time>
      </trkpt>
      <trkpt lat="60.58053" lon="7.49489">
        <ele>1331.56</ele>
        <time>2019-04-06T14:16:58Z</time>
      </trkpt>
      <trkpt lat="60.58063" lon="7.49496">
        <ele>1332.52</ele>
        <time>2019-04-06T14:17:00Z</time>
      </trkpt>
      <trkpt lat="60.58113" lon="7.49525">
        <ele>1330.12</ele>
        <time>2019-04-06T14:17:12Z</time>
      </trkpt>
      <trkpt lat="60.58114" lon="7.49531">
        <ele>1331.56</ele>
        <time>2019-04-06T14:17:22Z</time>
      </trkpt>
      <trkpt lat="60.58106" lon="7.49535">
        <ele>1332.04</ele>
        <time>2019-04-06T14:17:35Z</time>
      </trkpt>
      <trkpt lat="60.58105" lon="7.49534">
        <ele>1332.04</ele>
        <time>2019-04-06T14:17:48Z</time>
      </trkpt>
      <trkpt lat="60.581" lon="7.49542">
        <ele>1332.04</ele>
        <time>2019-04-06T14:18:00Z</time>
      </trkpt>
      <trkpt lat="60.581" lon="7.49546">
        <ele>1332.04</ele>
        <time>2019-04-06T14:18:19Z</time>
      </trkpt>
      <trkpt lat="60.58098" lon="7.49548">
        <ele>1331.08</ele>
        <time>2019-04-06T14:18:26Z</time>
      </trkpt>
      <trkpt lat="60.58098" lon="7.49548">
        <ele>1332.04</ele>
        <time>2019-04-06T14:18:46Z</time>
      </trkpt>
      <trkpt lat="60.58096" lon="7.49546">
        <ele>1330.6</ele>
        <time>2019-04-06T14:18:57Z</time>
      </trkpt>
      <trkpt lat="60.58095" lon="7.49547">
        <ele>1330.6</ele>
        <time>2019-04-06T14:19:19Z</time>
      </trkpt>
      <trkpt lat="60.58085" lon="7.49547">
        <ele>1330.6</ele>
        <time>2019-04-06T14:19:30Z</time>
      </trkpt>
      <trkpt lat="60.58084" lon="7.49548">
        <ele>1330.12</ele>
        <time>2019-04-06T14:19:51Z</time>
      </trkpt>
      <trkpt lat="60.58084" lon="7.4955">
        <ele>1329.64</ele>
        <time>2019-04-06T14:20:07Z</time>
      </trkpt>
      <trkpt lat="60.58071" lon="7.4954">
        <ele>1329.64</ele>
        <time>2019-04-06T14:20:17Z</time>
      </trkpt>
      <trkpt lat="60.58034" lon="7.49508">
        <ele>1329.64</ele>
        <time>2019-04-06T14:20:25Z</time>
      </trkpt>
      <trkpt lat="60.58016" lon="7.49493">
        <ele>1326.76</ele>
        <time>2019-04-06T14:20:29Z</time>
      </trkpt>
      <trkpt lat="60.58006" lon="7.49483">
        <ele>1326.28</ele>
        <time>2019-04-06T14:20:31Z</time>
      </trkpt>
      <trkpt lat="60.57978" lon="7.49459">
        <ele>1324.35</ele>
        <time>2019-04-06T14:20:36Z</time>
      </trkpt>
      <trkpt lat="60.57908" lon="7.49418">
        <ele>1322.91</ele>
        <time>2019-04-06T14:20:48Z</time>
      </trkpt>
      <trkpt lat="60.57868" lon="7.49378">
        <ele>1320.99</ele>
        <time>2019-04-06T14:20:57Z</time>
      </trkpt>
      <trkpt lat="60.57838" lon="7.49348">
        <ele>1319.07</ele>
        <time>2019-04-06T14:21:03Z</time>
      </trkpt>
      <trkpt lat="60.57816" lon="7.4932">
        <ele>1317.62</ele>
        <time>2019-04-06T14:21:08Z</time>
      </trkpt>
      <trkpt lat="60.57773" lon="7.49265">
        <ele>1318.1</ele>
        <time>2019-04-06T14:21:19Z</time>
      </trkpt>
      <trkpt lat="60.57766" lon="7.49258">
        <ele>1315.7</ele>
        <time>2019-04-06T14:21:21Z</time>
      </trkpt>
      <trkpt lat="60.57757" lon="7.4926">
        <ele>1313.3</ele>
        <time>2019-04-06T14:21:24Z</time>
      </trkpt>
      <trkpt lat="60.57757" lon="7.49256">
        <ele>1311.86</ele>
        <time>2019-04-06T14:21:28Z</time>
      </trkpt>
      <trkpt lat="60.57755" lon="7.49253">
        <ele>1311.38</ele>
        <time>2019-04-06T14:22:00Z</time>
      </trkpt>
      <trkpt lat="60.57755" lon="7.49252">
        <ele>1310.9</ele>
        <time>2019-04-06T14:22:31Z</time>
      </trkpt>
      <trkpt lat="60.57754" lon="7.49253">
        <ele>1310.9</ele>
        <time>2019-04-06T14:22:38Z</time>
      </trkpt>
      <trkpt lat="60.57749" lon="7.4925">
        <ele>1313.3</ele>
        <time>2019-04-06T14:22:41Z</time>
      </trkpt>
      <trkpt lat="60.57739" lon="7.49239">
        <ele>1311.86</ele>
        <time>2019-04-06T14:22:44Z</time>
      </trkpt>
      <trkpt lat="60.57732" lon="7.49228">
        <ele>1311.38</ele>
        <time>2019-04-06T14:22:46Z</time>
      </trkpt>
      <trkpt lat="60.57703" lon="7.49186">
        <ele>1309.93</ele>
        <time>2019-04-06T14:22:53Z</time>
      </trkpt>
      <trkpt lat="60.57698" lon="7.4918">
        <ele>1309.45</ele>
        <time>2019-04-06T14:22:54Z</time>
      </trkpt>
      <trkpt lat="60.5768" lon="7.49165">
        <ele>1308.97</ele>
        <time>2019-04-06T14:22:57Z</time>
      </trkpt>
      <trkpt lat="60.57664" lon="7.49148">
        <ele>1306.09</ele>
        <time>2019-04-06T14:23:00Z</time>
      </trkpt>
      <trkpt lat="60.57639" lon="7.49123">
        <ele>1303.2</ele>
        <time>2019-04-06T14:23:04Z</time>
      </trkpt>
      <trkpt lat="60.57609" lon="7.49099">
        <ele>1300.32</ele>
        <time>2019-04-06T14:23:08Z</time>
      </trkpt>
      <trkpt lat="60.57578" lon="7.49079">
        <ele>1299.36</ele>
        <time>2019-04-06T14:23:13Z</time>
      </trkpt>
      <trkpt lat="60.57568" lon="7.49072">
        <ele>1301.28</ele>
        <time>2019-04-06T14:23:15Z</time>
      </trkpt>
      <trkpt lat="60.57556" lon="7.49064">
        <ele>1302.72</ele>
        <time>2019-04-06T14:23:18Z</time>
      </trkpt>
      <trkpt lat="60.5754" lon="7.49052">
        <ele>1303.2</ele>
        <time>2019-04-06T14:23:22Z</time>
      </trkpt>
      <trkpt lat="60.57531" lon="7.49044">
        <ele>1303.2</ele>
        <time>2019-04-06T14:23:24Z</time>
      </trkpt>
      <trkpt lat="60.5748" lon="7.49016">
        <ele>1303.69</ele>
        <time>2019-04-06T14:23:33Z</time>
      </trkpt>
      <trkpt lat="60.57474" lon="7.49013">
        <ele>1303.69</ele>
        <time>2019-04-06T14:23:35Z</time>
      </trkpt>
      <trkpt lat="60.57487" lon="7.49015">
        <ele>1298.88</ele>
        <time>2019-04-06T14:23:41Z</time>
      </trkpt>
      <trkpt lat="60.575" lon="7.49003">
        <ele>1298.4</ele>
        <time>2019-04-06T14:23:43Z</time>
      </trkpt>
      <trkpt lat="60.57507" lon="7.48999">
        <ele>1298.4</ele>
        <time>2019-04-06T14:23:44Z</time>
      </trkpt>
      <trkpt lat="60.57533" lon="7.48985">
        <ele>1300.32</ele>
        <time>2019-04-06T14:23:48Z</time>
      </trkpt>
      <trkpt lat="60.57549" lon="7.48971">
        <ele>1301.76</ele>
        <time>2019-04-06T14:23:51Z</time>
      </trkpt>
      <trkpt lat="60.5756" lon="7.4896">
        <ele>1301.76</ele>
        <time>2019-04-06T14:23:53Z</time>
      </trkpt>
      <trkpt lat="60.57634" lon="7.48904">
        <ele>1302.72</ele>
        <time>2019-04-06T14:24:04Z</time>
      </trkpt>
      <trkpt lat="60.57653" lon="7.48895">
        <ele>1304.17</ele>
        <time>2019-04-06T14:24:07Z</time>
      </trkpt>
      <trkpt lat="60.57735" lon="7.48878">
        <ele>1306.09</ele>
        <time>2019-04-06T14:24:18Z</time>
      </trkpt>
      <trkpt lat="60.57765" lon="7.48879">
        <ele>1309.45</ele>
        <time>2019-04-06T14:24:22Z</time>
      </trkpt>
      <trkpt lat="60.57772" lon="7.4888">
        <ele>1310.41</ele>
        <time>2019-04-06T14:24:23Z</time>
      </trkpt>
      <trkpt lat="60.57797" lon="7.4888">
        <ele>1315.22</ele>
        <time>2019-04-06T14:24:27Z</time>
      </trkpt>
      <trkpt lat="60.5781" lon="7.48879">
        <ele>1316.18</ele>
        <time>2019-04-06T14:24:29Z</time>
      </trkpt>
      <trkpt lat="60.57829" lon="7.48872">
        <ele>1319.07</ele>
        <time>2019-04-06T14:24:32Z</time>
      </trkpt>
      <trkpt lat="60.57841" lon="7.48871">
        <ele>1324.35</ele>
        <time>2019-04-06T14:24:35Z</time>
      </trkpt>
      <trkpt lat="60.5784" lon="7.48875">
        <ele>1324.35</ele>
        <time>2019-04-06T14:24:36Z</time>
      </trkpt>
      <trkpt lat="60.57815" lon="7.48843">
        <ele>1323.87</ele>
        <time>2019-04-06T14:24:42Z</time>
      </trkpt>
      <trkpt lat="60.57811" lon="7.48835">
        <ele>1322.43</ele>
        <time>2019-04-06T14:24:43Z</time>
      </trkpt>
      <trkpt lat="60.578" lon="7.48816">
        <ele>1319.55</ele>
        <time>2019-04-06T14:24:46Z</time>
      </trkpt>
      <trkpt lat="60.57785" lon="7.48794">
        <ele>1316.66</ele>
        <time>2019-04-06T14:24:49Z</time>
      </trkpt>
      <trkpt lat="60.57779" lon="7.48787">
        <ele>1316.18</ele>
        <time>2019-04-06T14:24:50Z</time>
      </trkpt>
      <trkpt lat="60.5776" lon="7.48764">
        <ele>1313.78</ele>
        <time>2019-04-06T14:24:53Z</time>
      </trkpt>
      <trkpt lat="60.57733" lon="7.48739">
        <ele>1311.38</ele>
        <time>2019-04-06T14:24:57Z</time>
      </trkpt>
      <trkpt lat="60.57722" lon="7.4873">
        <ele>1309.45</ele>
        <time>2019-04-06T14:24:59Z</time>
      </trkpt>
      <trkpt lat="60.57709" lon="7.48722">
        <ele>1307.05</ele>
        <time>2019-04-06T14:25:06Z</time>
      </trkpt>
      <trkpt lat="60.57706" lon="7.48723">
        <ele>1308.01</ele>
        <time>2019-04-06T14:25:10Z</time>
      </trkpt>
      <trkpt lat="60.57702" lon="7.48722">
        <ele>1308.01</ele>
        <time>2019-04-06T14:25:23Z</time>
      </trkpt>
      <trkpt lat="60.577" lon="7.48723">
        <ele>1307.05</ele>
        <time>2019-04-06T14:25:57Z</time>
      </trkpt>
      <trkpt lat="60.577" lon="7.48723">
        <ele>1307.05</ele>
        <time>2019-04-06T14:26:04Z</time>
      </trkpt>
      <trkpt lat="60.57698" lon="7.48722">
        <ele>1308.01</ele>
        <time>2019-04-06T14:26:06Z</time>
      </trkpt>
      <trkpt lat="60.57693" lon="7.48722">
        <ele>1308.01</ele>
        <time>2019-04-06T14:26:15Z</time>
      </trkpt>
      <trkpt lat="60.57673" lon="7.48706">
        <ele>1307.53</ele>
        <time>2019-04-06T14:26:25Z</time>
      </trkpt>
      <trkpt lat="60.57667" lon="7.48705">
        <ele>1307.53</ele>
        <time>2019-04-06T14:26:27Z</time>
      </trkpt>
      <trkpt lat="60.57595" lon="7.48671">
        <ele>1308.97</ele>
        <time>2019-04-06T14:26:39Z</time>
      </trkpt>
      <trkpt lat="60.57574" lon="7.4866">
        <ele>1308.01</ele>
        <time>2019-04-06T14:26:42Z</time>
      </trkpt>
      <trkpt lat="60.57556" lon="7.4865">
        <ele>1308.97</ele>
        <time>2019-04-06T14:26:45Z</time>
      </trkpt>
      <trkpt lat="60.5755" lon="7.48648">
        <ele>1308.97</ele>
        <time>2019-04-06T14:26:46Z</time>
      </trkpt>
      <trkpt lat="60.57534" lon="7.48639">
        <ele>1311.38</ele>
        <time>2019-04-06T14:26:49Z</time>
      </trkpt>
      <trkpt lat="60.57502" lon="7.48634">
        <ele>1312.82</ele>
        <time>2019-04-06T14:26:54Z</time>
      </trkpt>
      <trkpt lat="60.57483" lon="7.48632">
        <ele>1314.74</ele>
        <time>2019-04-06T14:26:57Z</time>
      </trkpt>
      <trkpt lat="60.57465" lon="7.48633">
        <ele>1318.1</ele>
        <time>2019-04-06T14:27:00Z</time>
      </trkpt>
      <trkpt lat="60.57448" lon="7.48634">
        <ele>1321.47</ele>
        <time>2019-04-06T14:27:03Z</time>
      </trkpt>
      <trkpt lat="60.57444" lon="7.48634">
        <ele>1323.39</ele>
        <time>2019-04-06T14:27:04Z</time>
      </trkpt>
      <trkpt lat="60.57451" lon="7.48636">
        <ele>1318.1</ele>
        <time>2019-04-06T14:27:08Z</time>
      </trkpt>
      <trkpt lat="60.57463" lon="7.48621">
        <ele>1315.7</ele>
        <time>2019-04-06T14:27:10Z</time>
      </trkpt>
      <trkpt lat="60.5749" lon="7.4858">
        <ele>1308.97</ele>
        <time>2019-04-06T14:27:15Z</time>
      </trkpt>
      <trkpt lat="60.57496" lon="7.48572">
        <ele>1308.97</ele>
        <time>2019-04-06T14:27:16Z</time>
      </trkpt>
      <trkpt lat="60.57503" lon="7.48563">
        <ele>1305.13</ele>
        <time>2019-04-06T14:27:17Z</time>
      </trkpt>
      <trkpt lat="60.57527" lon="7.48539">
        <ele>1305.13</ele>
        <time>2019-04-06T14:27:21Z</time>
      </trkpt>
      <trkpt lat="60.57544" lon="7.48518">
        <ele>1304.65</ele>
        <time>2019-04-06T14:27:24Z</time>
      </trkpt>
      <trkpt lat="60.57574" lon="7.48486">
        <ele>1303.69</ele>
        <time>2019-04-06T14:27:29Z</time>
      </trkpt>
      <trkpt lat="60.57591" lon="7.48466">
        <ele>1305.13</ele>
        <time>2019-04-06T14:27:32Z</time>
      </trkpt>
      <trkpt lat="60.57639" lon="7.48421">
        <ele>1305.13</ele>
        <time>2019-04-06T14:27:40Z</time>
      </trkpt>
      <trkpt lat="60.57683" lon="7.48367">
        <ele>1305.61</ele>
        <time>2019-04-06T14:27:48Z</time>
      </trkpt>
      <trkpt lat="60.57693" lon="7.48357">
        <ele>1306.09</ele>
        <time>2019-04-06T14:27:50Z</time>
      </trkpt>
      <trkpt lat="60.57703" lon="7.48346">
        <ele>1304.65</ele>
        <time>2019-04-06T14:27:52Z</time>
      </trkpt>
      <trkpt lat="60.57741" lon="7.48299">
        <ele>1305.61</ele>
        <time>2019-04-06T14:28:00Z</time>
      </trkpt>
      <trkpt lat="60.5777" lon="7.48264">
        <ele>1305.61</ele>
        <time>2019-04-06T14:28:06Z</time>
      </trkpt>
      <trkpt lat="60.57793" lon="7.48236">
        <ele>1306.09</ele>
        <time>2019-04-06T14:28:11Z</time>
      </trkpt>
      <trkpt lat="60.57807" lon="7.48226">
        <ele>1308.01</ele>
        <time>2019-04-06T14:28:15Z</time>
      </trkpt>
      <trkpt lat="60.57792" lon="7.48231">
        <ele>1309.45</ele>
        <time>2019-04-06T14:28:20Z</time>
      </trkpt>
      <trkpt lat="60.57781" lon="7.4823">
        <ele>1309.45</ele>
        <time>2019-04-06T14:28:22Z</time>
      </trkpt>
      <trkpt lat="60.57768" lon="7.48226">
        <ele>1309.45</ele>
        <time>2019-04-06T14:28:24Z</time>
      </trkpt>
      <trkpt lat="60.57698" lon="7.48188">
        <ele>1310.41</ele>
        <time>2019-04-06T14:28:35Z</time>
      </trkpt>
      <trkpt lat="60.57674" lon="7.48171">
        <ele>1308.97</ele>
        <time>2019-04-06T14:28:39Z</time>
      </trkpt>
      <trkpt lat="60.5764" lon="7.48157">
        <ele>1310.9</ele>
        <time>2019-04-06T14:28:44Z</time>
      </trkpt>
      <trkpt lat="60.5762" lon="7.4815">
        <ele>1310.41</ele>
        <time>2019-04-06T14:28:47Z</time>
      </trkpt>
      <trkpt lat="60.57595" lon="7.48138">
        <ele>1309.93</ele>
        <time>2019-04-06T14:28:51Z</time>
      </trkpt>
      <trkpt lat="60.57557" lon="7.48124">
        <ele>1308.97</ele>
        <time>2019-04-06T14:28:57Z</time>
      </trkpt>
      <trkpt lat="60.57534" lon="7.48121">
        <ele>1310.41</ele>
        <time>2019-04-06T14:29:00Z</time>
      </trkpt>
      <trkpt lat="60.57517" lon="7.48117">
        <ele>1311.86</ele>
        <time>2019-04-06T14:29:02Z</time>
      </trkpt>
      <trkpt lat="60.57492" lon="7.48113">
        <ele>1310.9</ele>
        <time>2019-04-06T14:29:06Z</time>
      </trkpt>
      <trkpt lat="60.57455" lon="7.48112">
        <ele>1314.26</ele>
        <time>2019-04-06T14:29:11Z</time>
      </trkpt>
      <trkpt lat="60.5743" lon="7.4811">
        <ele>1317.14</ele>
        <time>2019-04-06T14:29:15Z</time>
      </trkpt>
      <trkpt lat="60.57425" lon="7.48109">
        <ele>1318.1</ele>
        <time>2019-04-06T14:29:16Z</time>
      </trkpt>
      <trkpt lat="60.57408" lon="7.48121">
        <ele>1322.91</ele>
        <time>2019-04-06T14:29:21Z</time>
      </trkpt>
      <trkpt lat="60.57394" lon="7.48126">
        <ele>1322.91</ele>
        <time>2019-04-06T14:29:25Z</time>
      </trkpt>
      <trkpt lat="60.57387" lon="7.48135">
        <ele>1325.31</ele>
        <time>2019-04-06T14:29:28Z</time>
      </trkpt>
      <trkpt lat="60.57384" lon="7.48139">
        <ele>1326.28</ele>
        <time>2019-04-06T14:29:30Z</time>
      </trkpt>
      <trkpt lat="60.57384" lon="7.4815">
        <ele>1325.8</ele>
        <time>2019-04-06T14:29:38Z</time>
      </trkpt>
      <trkpt lat="60.5739" lon="7.48132">
        <ele>1322.91</ele>
        <time>2019-04-06T14:29:40Z</time>
      </trkpt>
      <trkpt lat="60.57402" lon="7.48083">
        <ele>1316.66</ele>
        <time>2019-04-06T14:29:44Z</time>
      </trkpt>
      <trkpt lat="60.57419" lon="7.48039">
        <ele>1311.38</ele>
        <time>2019-04-06T14:29:48Z</time>
      </trkpt>
      <trkpt lat="60.57423" lon="7.48029">
        <ele>1309.93</ele>
        <time>2019-04-06T14:29:49Z</time>
      </trkpt>
      <trkpt lat="60.57439" lon="7.47992">
        <ele>1308.97</ele>
        <time>2019-04-06T14:29:53Z</time>
      </trkpt>
      <trkpt lat="60.57447" lon="7.47975">
        <ele>1307.53</ele>
        <time>2019-04-06T14:29:55Z</time>
      </trkpt>
      <trkpt lat="60.57454" lon="7.47969">
        <ele>1310.41</ele>
        <time>2019-04-06T14:30:00Z</time>
      </trkpt>
      <trkpt lat="60.57437" lon="7.47989">
        <ele>1311.38</ele>
        <time>2019-04-06T14:30:04Z</time>
      </trkpt>
      <trkpt lat="60.57415" lon="7.48013">
        <ele>1314.26</ele>
        <time>2019-04-06T14:30:09Z</time>
      </trkpt>
      <trkpt lat="60.57406" lon="7.48026">
        <ele>1315.7</ele>
        <time>2019-04-06T14:30:11Z</time>
      </trkpt>
      <trkpt lat="60.57387" lon="7.48046">
        <ele>1320.99</ele>
        <time>2019-04-06T14:30:15Z</time>
      </trkpt>
      <trkpt lat="60.57379" lon="7.48061">
        <ele>1323.87</ele>
        <time>2019-04-06T14:30:18Z</time>
      </trkpt>
      <trkpt lat="60.57369" lon="7.48087">
        <ele>1325.31</ele>
        <time>2019-04-06T14:30:24Z</time>
      </trkpt>
      <trkpt lat="60.57356" lon="7.48119">
        <ele>1331.08</ele>
        <time>2019-04-06T14:30:28Z</time>
      </trkpt>
      <trkpt lat="60.57344" lon="7.48139">
        <ele>1335.41</ele>
        <time>2019-04-06T14:30:31Z</time>
      </trkpt>
      <trkpt lat="60.57338" lon="7.48151">
        <ele>1337.81</ele>
        <time>2019-04-06T14:30:33Z</time>
      </trkpt>
      <trkpt lat="60.57328" lon="7.48168">
        <ele>1342.62</ele>
        <time>2019-04-06T14:30:36Z</time>
      </trkpt>
      <trkpt lat="60.5732" lon="7.4818">
        <ele>1345.98</ele>
        <time>2019-04-06T14:30:39Z</time>
      </trkpt>
      <trkpt lat="60.5731" lon="7.48195">
        <ele>1349.83</ele>
        <time>2019-04-06T14:30:43Z</time>
      </trkpt>
      <trkpt lat="60.57305" lon="7.48206">
        <ele>1352.71</ele>
        <time>2019-04-06T14:30:46Z</time>
      </trkpt>
      <trkpt lat="60.57304" lon="7.48209">
        <ele>1352.71</ele>
        <time>2019-04-06T14:30:47Z</time>
      </trkpt>
      <trkpt lat="60.57299" lon="7.4823">
        <ele>1354.15</ele>
        <time>2019-04-06T14:30:51Z</time>
      </trkpt>
      <trkpt lat="60.57294" lon="7.48249">
        <ele>1356.08</ele>
        <time>2019-04-06T14:30:55Z</time>
      </trkpt>
      <trkpt lat="60.57283" lon="7.48269">
        <ele>1358.96</ele>
        <time>2019-04-06T14:31:00Z</time>
      </trkpt>
      <trkpt lat="60.57274" lon="7.48279">
        <ele>1362.33</ele>
        <time>2019-04-06T14:31:04Z</time>
      </trkpt>
      <trkpt lat="60.57273" lon="7.4828">
        <ele>1362.33</ele>
        <time>2019-04-06T14:31:05Z</time>
      </trkpt>
      <trkpt lat="60.57272" lon="7.48282">
        <ele>1362.81</ele>
        <time>2019-04-06T14:31:06Z</time>
      </trkpt>
      <trkpt lat="60.57259" lon="7.48291">
        <ele>1366.17</ele>
        <time>2019-04-06T14:31:13Z</time>
      </trkpt>
      <trkpt lat="60.57257" lon="7.48291">
        <ele>1366.17</ele>
        <time>2019-04-06T14:31:14Z</time>
      </trkpt>
      <trkpt lat="60.57245" lon="7.48294">
        <ele>1369.54</ele>
        <time>2019-04-06T14:31:19Z</time>
      </trkpt>
      <trkpt lat="60.57237" lon="7.48291">
        <ele>1370.98</ele>
        <time>2019-04-06T14:31:22Z</time>
      </trkpt>
      <trkpt lat="60.57229" lon="7.48286">
        <ele>1374.34</ele>
        <time>2019-04-06T14:31:26Z</time>
      </trkpt>
      <trkpt lat="60.57225" lon="7.48282">
        <ele>1375.78</ele>
        <time>2019-04-06T14:31:28Z</time>
      </trkpt>
      <trkpt lat="60.57213" lon="7.48259">
        <ele>1372.42</ele>
        <time>2019-04-06T14:31:34Z</time>
      </trkpt>
      <trkpt lat="60.5721" lon="7.48253">
        <ele>1374.34</ele>
        <time>2019-04-06T14:31:38Z</time>
      </trkpt>
      <trkpt lat="60.5721" lon="7.48252">
        <ele>1371.94</ele>
        <time>2019-04-06T14:31:41Z</time>
      </trkpt>
      <trkpt lat="60.57209" lon="7.48251">
        <ele>1370.98</ele>
        <time>2019-04-06T14:31:48Z</time>
      </trkpt>
      <trkpt lat="60.572" lon="7.4825">
        <ele>1371.94</ele>
        <time>2019-04-06T14:31:55Z</time>
      </trkpt>
      <trkpt lat="60.57183" lon="7.48246">
        <ele>1370.98</ele>
        <time>2019-04-06T14:32:01Z</time>
      </trkpt>
      <trkpt lat="60.57181" lon="7.48246">
        <ele>1370.98</ele>
        <time>2019-04-06T14:32:02Z</time>
      </trkpt>
      <trkpt lat="60.57175" lon="7.48253">
        <ele>1370.5</ele>
        <time>2019-04-06T14:32:06Z</time>
      </trkpt>
      <trkpt lat="60.57159" lon="7.48284">
        <ele>1370.02</ele>
        <time>2019-04-06T14:32:10Z</time>
      </trkpt>
      <trkpt lat="60.57114" lon="7.48311">
        <ele>1367.13</ele>
        <time>2019-04-06T14:32:17Z</time>
      </trkpt>
      <trkpt lat="60.57095" lon="7.4831">
        <ele>1370.5</ele>
        <time>2019-04-06T14:32:23Z</time>
      </trkpt>
      <trkpt lat="60.57095" lon="7.48309">
        <ele>1371.46</ele>
        <time>2019-04-06T14:32:25Z</time>
      </trkpt>
      <trkpt lat="60.57102" lon="7.48328">
        <ele>1367.61</ele>
        <time>2019-04-06T14:32:29Z</time>
      </trkpt>
      <trkpt lat="60.57112" lon="7.48367">
        <ele>1365.69</ele>
        <time>2019-04-06T14:32:33Z</time>
      </trkpt>
      <trkpt lat="60.5712" lon="7.48391">
        <ele>1364.73</ele>
        <time>2019-04-06T14:32:36Z</time>
      </trkpt>
      <trkpt lat="60.57125" lon="7.48424">
        <ele>1364.25</ele>
        <time>2019-04-06T14:32:40Z</time>
      </trkpt>
      <trkpt lat="60.57133" lon="7.48466">
        <ele>1363.29</ele>
        <time>2019-04-06T14:32:46Z</time>
      </trkpt>
      <trkpt lat="60.57151" lon="7.48483">
        <ele>1363.29</ele>
        <time>2019-04-06T14:32:49Z</time>
      </trkpt>
      <trkpt lat="60.57168" lon="7.48524">
        <ele>1364.25</ele>
        <time>2019-04-06T14:32:54Z</time>
      </trkpt>
      <trkpt lat="60.57147" lon="7.48555">
        <ele>1362.81</ele>
        <time>2019-04-06T14:32:58Z</time>
      </trkpt>
      <trkpt lat="60.57128" lon="7.48574">
        <ele>1360.4</ele>
        <time>2019-04-06T14:33:01Z</time>
      </trkpt>
      <trkpt lat="60.57123" lon="7.48579">
        <ele>1360.4</ele>
        <time>2019-04-06T14:33:02Z</time>
      </trkpt>
      <trkpt lat="60.5709" lon="7.48604">
        <ele>1361.84</ele>
        <time>2019-04-06T14:33:11Z</time>
      </trkpt>
      <trkpt lat="60.57087" lon="7.48604">
        <ele>1362.81</ele>
        <time>2019-04-06T14:33:12Z</time>
      </trkpt>
      <trkpt lat="60.57081" lon="7.48603">
        <ele>1360.88</ele>
        <time>2019-04-06T14:33:14Z</time>
      </trkpt>
      <trkpt lat="60.57064" lon="7.4861">
        <ele>1357.52</ele>
        <time>2019-04-06T14:33:18Z</time>
      </trkpt>
      <trkpt lat="60.57056" lon="7.48613">
        <ele>1356.56</ele>
        <time>2019-04-06T14:33:20Z</time>
      </trkpt>
      <trkpt lat="60.57036" lon="7.48627">
        <ele>1354.15</ele>
        <time>2019-04-06T14:33:23Z</time>
      </trkpt>
      <trkpt lat="60.57019" lon="7.48641">
        <ele>1353.67</ele>
        <time>2019-04-06T14:33:25Z</time>
      </trkpt>
      <trkpt lat="60.57004" lon="7.48659">
        <ele>1356.08</ele>
        <time>2019-04-06T14:33:27Z</time>
      </trkpt>
      <trkpt lat="60.56987" lon="7.48686">
        <ele>1357.04</ele>
        <time>2019-04-06T14:33:32Z</time>
      </trkpt>
      <trkpt lat="60.5699" lon="7.48692">
        <ele>1357.04</ele>
        <time>2019-04-06T14:33:41Z</time>
      </trkpt>
      <trkpt lat="60.56989" lon="7.4869">
        <ele>1354.63</ele>
        <time>2019-04-06T14:33:59Z</time>
      </trkpt>
      <trkpt lat="60.56989" lon="7.48687">
        <ele>1355.6</ele>
        <time>2019-04-06T14:34:18Z</time>
      </trkpt>
      <trkpt lat="60.56993" lon="7.48702">
        <ele>1355.12</ele>
        <time>2019-04-06T14:34:32Z</time>
      </trkpt>
      <trkpt lat="60.56991" lon="7.48707">
        <ele>1355.12</ele>
        <time>2019-04-06T14:34:46Z</time>
      </trkpt>
      <trkpt lat="60.56991" lon="7.48708">
        <ele>1356.56</ele>
        <time>2019-04-06T14:34:51Z</time>
      </trkpt>
      <trkpt lat="60.56993" lon="7.48721">
        <ele>1354.15</ele>
        <time>2019-04-06T14:35:02Z</time>
      </trkpt>
      <trkpt lat="60.56995" lon="7.48724">
        <ele>1353.67</ele>
        <time>2019-04-06T14:35:04Z</time>
      </trkpt>
      <trkpt lat="60.57012" lon="7.48733">
        <ele>1349.35</ele>
        <time>2019-04-06T14:35:07Z</time>
      </trkpt>
      <trkpt lat="60.57027" lon="7.48735">
        <ele>1346.94</ele>
        <time>2019-04-06T14:35:09Z</time>
      </trkpt>
      <trkpt lat="60.57043" lon="7.4874">
        <ele>1347.91</ele>
        <time>2019-04-06T14:35:11Z</time>
      </trkpt>
      <trkpt lat="60.5708" lon="7.48751">
        <ele>1341.66</ele>
        <time>2019-04-06T14:35:15Z</time>
      </trkpt>
      <trkpt lat="60.57099" lon="7.48759">
        <ele>1339.25</ele>
        <time>2019-04-06T14:35:17Z</time>
      </trkpt>
      <trkpt lat="60.57124" lon="7.48765">
        <ele>1341.18</ele>
        <time>2019-04-06T14:35:20Z</time>
      </trkpt>
      <trkpt lat="60.57139" lon="7.4877">
        <ele>1342.14</ele>
        <time>2019-04-06T14:35:22Z</time>
      </trkpt>
      <trkpt lat="60.57159" lon="7.48788">
        <ele>1342.62</ele>
        <time>2019-04-06T14:35:25Z</time>
      </trkpt>
      <trkpt lat="60.57177" lon="7.48803">
        <ele>1340.22</ele>
        <time>2019-04-06T14:35:28Z</time>
      </trkpt>
      <trkpt lat="60.5718" lon="7.4881">
        <ele>1339.73</ele>
        <time>2019-04-06T14:35:29Z</time>
      </trkpt>
      <trkpt lat="60.572" lon="7.48861">
        <ele>1332.52</ele>
        <time>2019-04-06T14:35:34Z</time>
      </trkpt>
      <trkpt lat="60.57203" lon="7.48894">
        <ele>1329.16</ele>
        <time>2019-04-06T14:35:37Z</time>
      </trkpt>
      <trkpt lat="60.57209" lon="7.48945">
        <ele>1325.8</ele>
        <time>2019-04-06T14:35:41Z</time>
      </trkpt>
      <trkpt lat="60.57222" lon="7.48963">
        <ele>1323.87</ele>
        <time>2019-04-06T14:35:43Z</time>
      </trkpt>
      <trkpt lat="60.57248" lon="7.48986">
        <ele>1317.14</ele>
        <time>2019-04-06T14:35:46Z</time>
      </trkpt>
      <trkpt lat="60.57259" lon="7.48996">
        <ele>1313.3</ele>
        <time>2019-04-06T14:35:47Z</time>
      </trkpt>
      <trkpt lat="60.57271" lon="7.49008">
        <ele>1309.45</ele>
        <time>2019-04-06T14:35:48Z</time>
      </trkpt>
      <trkpt lat="60.57285" lon="7.49022">
        <ele>1304.17</ele>
        <time>2019-04-06T14:35:49Z</time>
      </trkpt>
      <trkpt lat="60.57313" lon="7.49047">
        <ele>1300.32</ele>
        <time>2019-04-06T14:35:51Z</time>
      </trkpt>
      <trkpt lat="60.57341" lon="7.4907">
        <ele>1295.99</ele>
        <time>2019-04-06T14:35:53Z</time>
      </trkpt>
      <trkpt lat="60.57391" lon="7.49102">
        <ele>1291.19</ele>
        <time>2019-04-06T14:35:57Z</time>
      </trkpt>
      <trkpt lat="60.57415" lon="7.49112">
        <ele>1289.75</ele>
        <time>2019-04-06T14:35:59Z</time>
      </trkpt>
      <trkpt lat="60.57438" lon="7.49122">
        <ele>1288.78</ele>
        <time>2019-04-06T14:36:01Z</time>
      </trkpt>
      <trkpt lat="60.57459" lon="7.49131">
        <ele>1288.3</ele>
        <time>2019-04-06T14:36:03Z</time>
      </trkpt>
      <trkpt lat="60.57538" lon="7.49165">
        <ele>1291.19</ele>
        <time>2019-04-06T14:36:11Z</time>
      </trkpt>
      <trkpt lat="60.57551" lon="7.49173">
        <ele>1293.11</ele>
        <time>2019-04-06T14:36:13Z</time>
      </trkpt>
      <trkpt lat="60.57587" lon="7.49178">
        <ele>1289.27</ele>
        <time>2019-04-06T14:36:17Z</time>
      </trkpt>
      <trkpt lat="60.57627" lon="7.4919">
        <ele>1289.75</ele>
        <time>2019-04-06T14:36:21Z</time>
      </trkpt>
      <trkpt lat="60.57651" lon="7.49198">
        <ele>1295.03</ele>
        <time>2019-04-06T14:36:24Z</time>
      </trkpt>
      <trkpt lat="60.57677" lon="7.49211">
        <ele>1299.84</ele>
        <time>2019-04-06T14:36:28Z</time>
      </trkpt>
      <trkpt lat="60.57686" lon="7.49217">
        <ele>1300.8</ele>
        <time>2019-04-06T14:36:30Z</time>
      </trkpt>
      <trkpt lat="60.57695" lon="7.49224">
        <ele>1302.24</ele>
        <time>2019-04-06T14:36:32Z</time>
      </trkpt>
      <trkpt lat="60.57716" lon="7.49235">
        <ele>1304.65</ele>
        <time>2019-04-06T14:36:36Z</time>
      </trkpt>
      <trkpt lat="60.57736" lon="7.49252">
        <ele>1306.57</ele>
        <time>2019-04-06T14:36:40Z</time>
      </trkpt>
      <trkpt lat="60.57775" lon="7.49278">
        <ele>1309.93</ele>
        <time>2019-04-06T14:36:47Z</time>
      </trkpt>
      <trkpt lat="60.57787" lon="7.49287">
        <ele>1311.38</ele>
        <time>2019-04-06T14:36:49Z</time>
      </trkpt>
      <trkpt lat="60.57792" lon="7.49292">
        <ele>1311.38</ele>
        <time>2019-04-06T14:36:50Z</time>
      </trkpt>
      <trkpt lat="60.57814" lon="7.49349">
        <ele>1312.82</ele>
        <time>2019-04-06T14:36:57Z</time>
      </trkpt>
      <trkpt lat="60.57817" lon="7.49355">
        <ele>1313.3</ele>
        <time>2019-04-06T14:36:58Z</time>
      </trkpt>
      <trkpt lat="60.57859" lon="7.49454">
        <ele>1311.86</ele>
        <time>2019-04-06T14:37:12Z</time>
      </trkpt>
      <trkpt lat="60.57873" lon="7.49492">
        <ele>1311.38</ele>
        <time>2019-04-06T14:37:16Z</time>
      </trkpt>
      <trkpt lat="60.57909" lon="7.49558">
        <ele>1309.45</ele>
        <time>2019-04-06T14:37:23Z</time>
      </trkpt>
      <trkpt lat="60.5793" lon="7.49593">
        <ele>1307.53</ele>
        <time>2019-04-06T14:37:27Z</time>
      </trkpt>
      <trkpt lat="60.57935" lon="7.49603">
        <ele>1307.53</ele>
        <time>2019-04-06T14:37:28Z</time>
      </trkpt>
      <trkpt lat="60.57942" lon="7.49613">
        <ele>1306.09</ele>
        <time>2019-04-06T14:37:29Z</time>
      </trkpt>
      <trkpt lat="60.57949" lon="7.49622">
        <ele>1304.17</ele>
        <time>2019-04-06T14:37:30Z</time>
      </trkpt>
      <trkpt lat="60.57957" lon="7.49632">
        <ele>1304.17</ele>
        <time>2019-04-06T14:37:31Z</time>
      </trkpt>
      <trkpt lat="60.57965" lon="7.49641">
        <ele>1302.72</ele>
        <time>2019-04-06T14:37:32Z</time>
      </trkpt>
      <trkpt lat="60.57974" lon="7.49651">
        <ele>1302.24</ele>
        <time>2019-04-06T14:37:33Z</time>
      </trkpt>
      <trkpt lat="60.58003" lon="7.49681">
        <ele>1306.09</ele>
        <time>2019-04-06T14:37:37Z</time>
      </trkpt>
      <trkpt lat="60.58008" lon="7.49685">
        <ele>1306.09</ele>
        <time>2019-04-06T14:37:38Z</time>
      </trkpt>
      <trkpt lat="60.58014" lon="7.49689">
        <ele>1307.05</ele>
        <time>2019-04-06T14:37:39Z</time>
      </trkpt>
      <trkpt lat="60.58019" lon="7.49694">
        <ele>1308.01</ele>
        <time>2019-04-06T14:37:40Z</time>
      </trkpt>
      <trkpt lat="60.58023" lon="7.49701">
        <ele>1308.49</ele>
        <time>2019-04-06T14:37:41Z</time>
      </trkpt>
      <trkpt lat="60.58031" lon="7.49715">
        <ele>1309.45</ele>
        <time>2019-04-06T14:37:43Z</time>
      </trkpt>
      <trkpt lat="60.58044" lon="7.49742">
        <ele>1309.93</ele>
        <time>2019-04-06T14:37:50Z</time>
      </trkpt>
      <trkpt lat="60.58045" lon="7.49741">
        <ele>1309.93</ele>
        <time>2019-04-06T14:38:05Z</time>
      </trkpt>
      <trkpt lat="60.58045" lon="7.4974">
        <ele>1309.93</ele>
        <time>2019-04-06T14:38:31Z</time>
      </trkpt>
      <trkpt lat="60.58044" lon="7.49742">
        <ele>1309.45</ele>
        <time>2019-04-06T14:38:55Z</time>
      </trkpt>
      <trkpt lat="60.58045" lon="7.49741">
        <ele>1309.45</ele>
        <time>2019-04-06T14:39:11Z</time>
      </trkpt>
      <trkpt lat="60.58046" lon="7.49743">
        <ele>1309.45</ele>
        <time>2019-04-06T14:39:26Z</time>
      </trkpt>
      <trkpt lat="60.58031" lon="7.49736">
        <ele>1309.93</ele>
        <time>2019-04-06T14:39:33Z</time>
      </trkpt>
      <trkpt lat="60.5802" lon="7.49715">
        <ele>1310.41</ele>
        <time>2019-04-06T14:39:38Z</time>
      </trkpt>
      <trkpt lat="60.58014" lon="7.49703">
        <ele>1309.93</ele>
        <time>2019-04-06T14:39:40Z</time>
      </trkpt>
      <trkpt lat="60.58001" lon="7.49689">
        <ele>1308.49</ele>
        <time>2019-04-06T14:39:43Z</time>
      </trkpt>
      <trkpt lat="60.5799" lon="7.49678">
        <ele>1308.01</ele>
        <time>2019-04-06T14:39:45Z</time>
      </trkpt>
      <trkpt lat="60.57969" lon="7.49661">
        <ele>1305.61</ele>
        <time>2019-04-06T14:39:48Z</time>
      </trkpt>
      <trkpt lat="60.57952" lon="7.4965">
        <ele>1304.65</ele>
        <time>2019-04-06T14:39:51Z</time>
      </trkpt>
      <trkpt lat="60.5794" lon="7.49647">
        <ele>1306.57</ele>
        <time>2019-04-06T14:39:53Z</time>
      </trkpt>
      <trkpt lat="60.57934" lon="7.49646">
        <ele>1307.05</ele>
        <time>2019-04-06T14:39:54Z</time>
      </trkpt>
      <trkpt lat="60.57929" lon="7.49645">
        <ele>1307.05</ele>
        <time>2019-04-06T14:39:55Z</time>
      </trkpt>
      <trkpt lat="60.57924" lon="7.49645">
        <ele>1307.53</ele>
        <time>2019-04-06T14:39:56Z</time>
      </trkpt>
      <trkpt lat="60.57919" lon="7.49645">
        <ele>1308.01</ele>
        <time>2019-04-06T14:39:57Z</time>
      </trkpt>
      <trkpt lat="60.57908" lon="7.49648">
        <ele>1309.93</ele>
        <time>2019-04-06T14:40:00Z</time>
      </trkpt>
      <trkpt lat="60.57891" lon="7.49652">
        <ele>1312.34</ele>
        <time>2019-04-06T14:40:10Z</time>
      </trkpt>
      <trkpt lat="60.57892" lon="7.49662">
        <ele>1310.41</ele>
        <time>2019-04-06T14:40:23Z</time>
      </trkpt>
      <trkpt lat="60.57892" lon="7.4966">
        <ele>1310.41</ele>
        <time>2019-04-06T14:40:43Z</time>
      </trkpt>
      <trkpt lat="60.57892" lon="7.49659">
        <ele>1309.93</ele>
        <time>2019-04-06T14:41:07Z</time>
      </trkpt>
      <trkpt lat="60.57893" lon="7.49661">
        <ele>1309.93</ele>
        <time>2019-04-06T14:41:36Z</time>
      </trkpt>
      <trkpt lat="60.57895" lon="7.4966">
        <ele>1309.93</ele>
        <time>2019-04-06T14:41:37Z</time>
      </trkpt>
      <trkpt lat="60.57898" lon="7.49658">
        <ele>1309.93</ele>
        <time>2019-04-06T14:41:38Z</time>
      </trkpt>
      <trkpt lat="60.57901" lon="7.49654">
        <ele>1309.93</ele>
        <time>2019-04-06T14:41:39Z</time>
      </trkpt>
      <trkpt lat="60.57904" lon="7.49648">
        <ele>1308.97</ele>
        <time>2019-04-06T14:41:40Z</time>
      </trkpt>
      <trkpt lat="60.57908" lon="7.49641">
        <ele>1308.49</ele>
        <time>2019-04-06T14:41:41Z</time>
      </trkpt>
      <trkpt lat="60.57911" lon="7.49634">
        <ele>1308.01</ele>
        <time>2019-04-06T14:41:42Z</time>
      </trkpt>
      <trkpt lat="60.57918" lon="7.49619">
        <ele>1308.01</ele>
        <time>2019-04-06T14:41:44Z</time>
      </trkpt>
      <trkpt lat="60.57928" lon="7.49605">
        <ele>1306.09</ele>
        <time>2019-04-06T14:41:46Z</time>
      </trkpt>
      <trkpt lat="60.57933" lon="7.49598">
        <ele>1306.09</ele>
        <time>2019-04-06T14:41:47Z</time>
      </trkpt>
      <trkpt lat="60.57949" lon="7.49582">
        <ele>1307.05</ele>
        <time>2019-04-06T14:41:50Z</time>
      </trkpt>
      <trkpt lat="60.5796" lon="7.49572">
        <ele>1307.05</ele>
        <time>2019-04-06T14:41:52Z</time>
      </trkpt>
      <trkpt lat="60.5797" lon="7.49561">
        <ele>1307.05</ele>
        <time>2019-04-06T14:41:54Z</time>
      </trkpt>
      <trkpt lat="60.5798" lon="7.49555">
        <ele>1309.93</ele>
        <time>2019-04-06T14:41:58Z</time>
      </trkpt>
      <trkpt lat="60.57978" lon="7.49559">
        <ele>1309.93</ele>
        <time>2019-04-06T14:41:59Z</time>
      </trkpt>
      <trkpt lat="60.57958" lon="7.49559">
        <ele>1310.41</ele>
        <time>2019-04-06T14:42:03Z</time>
      </trkpt>
      <trkpt lat="60.57925" lon="7.49547">
        <ele>1311.38</ele>
        <time>2019-04-06T14:42:09Z</time>
      </trkpt>
      <trkpt lat="60.57905" lon="7.49534">
        <ele>1312.82</ele>
        <time>2019-04-06T14:42:13Z</time>
      </trkpt>
      <trkpt lat="60.57888" lon="7.49524">
        <ele>1312.34</ele>
        <time>2019-04-06T14:42:16Z</time>
      </trkpt>
      <trkpt lat="60.57871" lon="7.4951">
        <ele>1312.82</ele>
        <time>2019-04-06T14:42:19Z</time>
      </trkpt>
      <trkpt lat="60.57843" lon="7.49496">
        <ele>1314.74</ele>
        <time>2019-04-06T14:42:29Z</time>
      </trkpt>
      <trkpt lat="60.57846" lon="7.49499">
        <ele>1314.74</ele>
        <time>2019-04-06T14:42:58Z</time>
      </trkpt>
      <trkpt lat="60.57845" lon="7.49499">
        <ele>1314.26</ele>
        <time>2019-04-06T14:43:30Z</time>
      </trkpt>
      <trkpt lat="60.57844" lon="7.49499">
        <ele>1314.26</ele>
        <time>2019-04-06T14:43:45Z</time>
      </trkpt>
      <trkpt lat="60.57826" lon="7.49483">
        <ele>1316.66</ele>
        <time>2019-04-06T14:43:52Z</time>
      </trkpt>
      <trkpt lat="60.57776" lon="7.49419">
        <ele>1313.3</ele>
        <time>2019-04-06T14:44:04Z</time>
      </trkpt>
      <trkpt lat="60.57767" lon="7.49404">
        <ele>1312.34</ele>
        <time>2019-04-06T14:44:06Z</time>
      </trkpt>
      <trkpt lat="60.57755" lon="7.49379">
        <ele>1311.86</ele>
        <time>2019-04-06T14:44:09Z</time>
      </trkpt>
      <trkpt lat="60.57723" lon="7.49328">
        <ele>1308.49</ele>
        <time>2019-04-06T14:44:15Z</time>
      </trkpt>
      <trkpt lat="60.57717" lon="7.4932">
        <ele>1308.49</ele>
        <time>2019-04-06T14:44:16Z</time>
      </trkpt>
      <trkpt lat="60.57689" lon="7.49288">
        <ele>1304.65</ele>
        <time>2019-04-06T14:44:20Z</time>
      </trkpt>
      <trkpt lat="60.57656" lon="7.49262">
        <ele>1300.32</ele>
        <time>2019-04-06T14:44:24Z</time>
      </trkpt>
      <trkpt lat="60.57648" lon="7.49255">
        <ele>1298.88</ele>
        <time>2019-04-06T14:44:25Z</time>
      </trkpt>
      <trkpt lat="60.57606" lon="7.49237">
        <ele>1294.07</ele>
        <time>2019-04-06T14:44:29Z</time>
      </trkpt>
      <trkpt lat="60.57595" lon="7.49233">
        <ele>1293.59</ele>
        <time>2019-04-06T14:44:30Z</time>
      </trkpt>
      <trkpt lat="60.57576" lon="7.49226">
        <ele>1291.67</ele>
        <time>2019-04-06T14:44:32Z</time>
      </trkpt>
      <trkpt lat="60.57522" lon="7.49215">
        <ele>1293.59</ele>
        <time>2019-04-06T14:44:38Z</time>
      </trkpt>
      <trkpt lat="60.57482" lon="7.49209">
        <ele>1290.71</ele>
        <time>2019-04-06T14:44:42Z</time>
      </trkpt>
      <trkpt lat="60.57472" lon="7.49207">
        <ele>1290.71</ele>
        <time>2019-04-06T14:44:43Z</time>
      </trkpt>
      <trkpt lat="60.5742" lon="7.49199">
        <ele>1293.11</ele>
        <time>2019-04-06T14:44:49Z</time>
      </trkpt>
      <trkpt lat="60.5738" lon="7.49193">
        <ele>1294.55</ele>
        <time>2019-04-06T14:44:55Z</time>
      </trkpt>
      <trkpt lat="60.57363" lon="7.49203">
        <ele>1295.99</ele>
        <time>2019-04-06T14:44:59Z</time>
      </trkpt>
      <trkpt lat="60.57347" lon="7.49216">
        <ele>1297.44</ele>
        <time>2019-04-06T14:45:03Z</time>
      </trkpt>
      <trkpt lat="60.57325" lon="7.49228">
        <ele>1299.36</ele>
        <time>2019-04-06T14:45:08Z</time>
      </trkpt>
      <trkpt lat="60.57311" lon="7.49237">
        <ele>1301.28</ele>
        <time>2019-04-06T14:45:11Z</time>
      </trkpt>
      <trkpt lat="60.573" lon="7.49242">
        <ele>1302.72</ele>
        <time>2019-04-06T14:45:13Z</time>
      </trkpt>
      <trkpt lat="60.57289" lon="7.49245">
        <ele>1303.69</ele>
        <time>2019-04-06T14:45:15Z</time>
      </trkpt>
      <trkpt lat="60.57258" lon="7.49258">
        <ele>1306.57</ele>
        <time>2019-04-06T14:45:20Z</time>
      </trkpt>
      <trkpt lat="60.57244" lon="7.49262">
        <ele>1307.53</ele>
        <time>2019-04-06T14:45:22Z</time>
      </trkpt>
      <trkpt lat="60.57236" lon="7.49264">
        <ele>1308.01</ele>
        <time>2019-04-06T14:45:23Z</time>
      </trkpt>
      <trkpt lat="60.57209" lon="7.49267">
        <ele>1308.97</ele>
        <time>2019-04-06T14:45:27Z</time>
      </trkpt>
      <trkpt lat="60.57184" lon="7.49285">
        <ele>1310.41</ele>
        <time>2019-04-06T14:45:32Z</time>
      </trkpt>
      <trkpt lat="60.57164" lon="7.49295">
        <ele>1312.82</ele>
        <time>2019-04-06T14:45:36Z</time>
      </trkpt>
      <trkpt lat="60.57152" lon="7.49302">
        <ele>1315.7</ele>
        <time>2019-04-06T14:45:39Z</time>
      </trkpt>
      <trkpt lat="60.57148" lon="7.49303">
        <ele>1317.14</ele>
        <time>2019-04-06T14:45:40Z</time>
      </trkpt>
      <trkpt lat="60.57122" lon="7.49308">
        <ele>1320.99</ele>
        <time>2019-04-06T14:45:46Z</time>
      </trkpt>
      <trkpt lat="60.57118" lon="7.4931">
        <ele>1321.47</ele>
        <time>2019-04-06T14:45:47Z</time>
      </trkpt>
      <trkpt lat="60.57112" lon="7.49313">
        <ele>1323.39</ele>
        <time>2019-04-06T14:45:49Z</time>
      </trkpt>
      <trkpt lat="60.571" lon="7.49325">
        <ele>1324.83</ele>
        <time>2019-04-06T14:45:56Z</time>
      </trkpt>
      <trkpt lat="60.57089" lon="7.49345">
        <ele>1328.2</ele>
        <time>2019-04-06T14:46:02Z</time>
      </trkpt>
      <trkpt lat="60.57087" lon="7.49355">
        <ele>1328.68</ele>
        <time>2019-04-06T14:46:04Z</time>
      </trkpt>
      <trkpt lat="60.57084" lon="7.4936">
        <ele>1330.12</ele>
        <time>2019-04-06T14:46:06Z</time>
      </trkpt>
      <trkpt lat="60.57076" lon="7.49376">
        <ele>1332.52</ele>
        <time>2019-04-06T14:46:11Z</time>
      </trkpt>
      <trkpt lat="60.57074" lon="7.49379">
        <ele>1333.49</ele>
        <time>2019-04-06T14:46:12Z</time>
      </trkpt>
      <trkpt lat="60.5707" lon="7.49385">
        <ele>1334.45</ele>
        <time>2019-04-06T14:46:15Z</time>
      </trkpt>
      <trkpt lat="60.57065" lon="7.49396">
        <ele>1335.89</ele>
        <time>2019-04-06T14:46:20Z</time>
      </trkpt>
      <trkpt lat="60.57073" lon="7.49386">
        <ele>1333.49</ele>
        <time>2019-04-06T14:46:25Z</time>
      </trkpt>
      <trkpt lat="60.57085" lon="7.49345">
        <ele>1328.68</ele>
        <time>2019-04-06T14:46:29Z</time>
      </trkpt>
      <trkpt lat="60.57091" lon="7.49322">
        <ele>1325.8</ele>
        <time>2019-04-06T14:46:31Z</time>
      </trkpt>
      <trkpt lat="60.57101" lon="7.49289">
        <ele>1324.35</ele>
        <time>2019-04-06T14:46:34Z</time>
      </trkpt>
      <trkpt lat="60.57104" lon="7.49279">
        <ele>1322.91</ele>
        <time>2019-04-06T14:46:35Z</time>
      </trkpt>
      <trkpt lat="60.57122" lon="7.49256">
        <ele>1320.51</ele>
        <time>2019-04-06T14:46:39Z</time>
      </trkpt>
      <trkpt lat="60.57127" lon="7.49247">
        <ele>1318.59</ele>
        <time>2019-04-06T14:46:40Z</time>
      </trkpt>
      <trkpt lat="60.57152" lon="7.49198">
        <ele>1312.34</ele>
        <time>2019-04-06T14:46:45Z</time>
      </trkpt>
      <trkpt lat="60.57156" lon="7.49188">
        <ele>1312.34</ele>
        <time>2019-04-06T14:46:46Z</time>
      </trkpt>
      <trkpt lat="60.57208" lon="7.49095">
        <ele>1314.26</ele>
        <time>2019-04-06T14:46:59Z</time>
      </trkpt>
      <trkpt lat="60.57231" lon="7.49051">
        <ele>1315.7</ele>
        <time>2019-04-06T14:47:06Z</time>
      </trkpt>
      <trkpt lat="60.57244" lon="7.49023">
        <ele>1315.7</ele>
        <time>2019-04-06T14:47:10Z</time>
      </trkpt>
      <trkpt lat="60.57265" lon="7.4898">
        <ele>1313.78</ele>
        <time>2019-04-06T14:47:16Z</time>
      </trkpt>
      <trkpt lat="60.57267" lon="7.4899">
        <ele>1313.3</ele>
        <time>2019-04-06T14:47:21Z</time>
      </trkpt>
      <trkpt lat="60.57261" lon="7.48997">
        <ele>1315.22</ele>
        <time>2019-04-06T14:47:23Z</time>
      </trkpt>
      <trkpt lat="60.57238" lon="7.49014">
        <ele>1318.59</ele>
        <time>2019-04-06T14:47:30Z</time>
      </trkpt>
      <trkpt lat="60.57233" lon="7.49015">
        <ele>1319.07</ele>
        <time>2019-04-06T14:47:31Z</time>
      </trkpt>
      <trkpt lat="60.57219" lon="7.49026">
        <ele>1321.47</ele>
        <time>2019-04-06T14:47:34Z</time>
      </trkpt>
      <trkpt lat="60.57206" lon="7.4903">
        <ele>1322.43</ele>
        <time>2019-04-06T14:47:36Z</time>
      </trkpt>
      <trkpt lat="60.57185" lon="7.49037">
        <ele>1323.39</ele>
        <time>2019-04-06T14:47:39Z</time>
      </trkpt>
      <trkpt lat="60.57114" lon="7.49053">
        <ele>1327.72</ele>
        <time>2019-04-06T14:47:48Z</time>
      </trkpt>
      <trkpt lat="60.57109" lon="7.49054">
        <ele>1328.2</ele>
        <time>2019-04-06T14:47:49Z</time>
      </trkpt>
      <trkpt lat="60.57092" lon="7.49065">
        <ele>1330.12</ele>
        <time>2019-04-06T14:47:53Z</time>
      </trkpt>
      <trkpt lat="60.57073" lon="7.49088">
        <ele>1333.49</ele>
        <time>2019-04-06T14:47:59Z</time>
      </trkpt>
      <trkpt lat="60.5707" lon="7.49093">
        <ele>1333.97</ele>
        <time>2019-04-06T14:48:00Z</time>
      </trkpt>
      <trkpt lat="60.57055" lon="7.49119">
        <ele>1337.33</ele>
        <time>2019-04-06T14:48:06Z</time>
      </trkpt>
      <trkpt lat="60.57043" lon="7.49129">
        <ele>1340.22</ele>
        <time>2019-04-06T14:48:11Z</time>
      </trkpt>
      <trkpt lat="60.57035" lon="7.49143">
        <ele>1341.66</ele>
        <time>2019-04-06T14:48:16Z</time>
      </trkpt>
      <trkpt lat="60.57053" lon="7.49128">
        <ele>1338.29</ele>
        <time>2019-04-06T14:48:22Z</time>
      </trkpt>
      <trkpt lat="60.57068" lon="7.49084">
        <ele>1332.04</ele>
        <time>2019-04-06T14:48:26Z</time>
      </trkpt>
      <trkpt lat="60.57075" lon="7.4906">
        <ele>1332.04</ele>
        <time>2019-04-06T14:48:28Z</time>
      </trkpt>
      <trkpt lat="60.57088" lon="7.49015">
        <ele>1330.12</ele>
        <time>2019-04-06T14:48:33Z</time>
      </trkpt>
      <trkpt lat="60.57096" lon="7.49001">
        <ele>1328.68</ele>
        <time>2019-04-06T14:48:35Z</time>
      </trkpt>
      <trkpt lat="60.57127" lon="7.48946">
        <ele>1327.24</ele>
        <time>2019-04-06T14:48:42Z</time>
      </trkpt>
      <trkpt lat="60.57146" lon="7.48924">
        <ele>1328.2</ele>
        <time>2019-04-06T14:48:46Z</time>
      </trkpt>
      <trkpt lat="60.57155" lon="7.48914">
        <ele>1328.68</ele>
        <time>2019-04-06T14:48:48Z</time>
      </trkpt>
      <trkpt lat="60.5719" lon="7.48879">
        <ele>1332.52</ele>
        <time>2019-04-06T14:48:56Z</time>
      </trkpt>
      <trkpt lat="60.57216" lon="7.48838">
        <ele>1333.49</ele>
        <time>2019-04-06T14:49:06Z</time>
      </trkpt>
      <trkpt lat="60.57219" lon="7.48831">
        <ele>1334.45</ele>
        <time>2019-04-06T14:49:08Z</time>
      </trkpt>
      <trkpt lat="60.57205" lon="7.48849">
        <ele>1334.93</ele>
        <time>2019-04-06T14:49:14Z</time>
      </trkpt>
      <trkpt lat="60.57188" lon="7.48852">
        <ele>1336.85</ele>
        <time>2019-04-06T14:49:17Z</time>
      </trkpt>
      <trkpt lat="60.57179" lon="7.48851">
        <ele>1338.77</ele>
        <time>2019-04-06T14:49:19Z</time>
      </trkpt>
      <trkpt lat="60.57169" lon="7.48852">
        <ele>1338.77</ele>
        <time>2019-04-06T14:49:21Z</time>
      </trkpt>
      <trkpt lat="60.57148" lon="7.48854">
        <ele>1339.25</ele>
        <time>2019-04-06T14:49:25Z</time>
      </trkpt>
      <trkpt lat="60.57134" lon="7.48852">
        <ele>1339.25</ele>
        <time>2019-04-06T14:49:28Z</time>
      </trkpt>
      <trkpt lat="60.57108" lon="7.48849">
        <ele>1339.25</ele>
        <time>2019-04-06T14:49:33Z</time>
      </trkpt>
      <trkpt lat="60.5709" lon="7.48849">
        <ele>1339.25</ele>
        <time>2019-04-06T14:49:36Z</time>
      </trkpt>
      <trkpt lat="60.57059" lon="7.48856">
        <ele>1341.18</ele>
        <time>2019-04-06T14:49:42Z</time>
      </trkpt>
      <trkpt lat="60.57047" lon="7.48871">
        <ele>1343.1</ele>
        <time>2019-04-06T14:49:50Z</time>
      </trkpt>
      <trkpt lat="60.57057" lon="7.48865">
        <ele>1340.7</ele>
        <time>2019-04-06T14:49:54Z</time>
      </trkpt>
      <trkpt lat="60.57072" lon="7.48845">
        <ele>1336.37</ele>
        <time>2019-04-06T14:49:57Z</time>
      </trkpt>
      <trkpt lat="60.57082" lon="7.48829">
        <ele>1338.29</ele>
        <time>2019-04-06T14:49:59Z</time>
      </trkpt>
      <trkpt lat="60.571" lon="7.48805">
        <ele>1338.29</ele>
        <time>2019-04-06T14:50:03Z</time>
      </trkpt>
      <trkpt lat="60.57108" lon="7.48797">
        <ele>1339.25</ele>
        <time>2019-04-06T14:50:05Z</time>
      </trkpt>
      <trkpt lat="60.57122" lon="7.48786">
        <ele>1341.18</ele>
        <time>2019-04-06T14:50:08Z</time>
      </trkpt>
      <trkpt lat="60.57135" lon="7.48773">
        <ele>1342.62</ele>
        <time>2019-04-06T14:50:11Z</time>
      </trkpt>
      <trkpt lat="60.57158" lon="7.48759">
        <ele>1345.5</ele>
        <time>2019-04-06T14:50:17Z</time>
      </trkpt>
      <trkpt lat="60.57161" lon="7.48764">
        <ele>1346.46</ele>
        <time>2019-04-06T14:50:19Z</time>
      </trkpt>
      <trkpt lat="60.57155" lon="7.48767">
        <ele>1346.46</ele>
        <time>2019-04-06T14:50:21Z</time>
      </trkpt>
      <trkpt lat="60.57113" lon="7.48763">
        <ele>1346.46</ele>
        <time>2019-04-06T14:50:29Z</time>
      </trkpt>
      <trkpt lat="60.5708" lon="7.48767">
        <ele>1344.06</ele>
        <time>2019-04-06T14:50:35Z</time>
      </trkpt>
      <trkpt lat="60.57051" lon="7.48775">
        <ele>1345.98</ele>
        <time>2019-04-06T14:50:41Z</time>
      </trkpt>
      <trkpt lat="60.57043" lon="7.48781">
        <ele>1346.94</ele>
        <time>2019-04-06T14:50:43Z</time>
      </trkpt>
      <trkpt lat="60.57031" lon="7.48791">
        <ele>1348.87</ele>
        <time>2019-04-06T14:50:47Z</time>
      </trkpt>
      <trkpt lat="60.57018" lon="7.48799">
        <ele>1350.31</ele>
        <time>2019-04-06T14:50:51Z</time>
      </trkpt>
      <trkpt lat="60.56997" lon="7.488">
        <ele>1352.23</ele>
        <time>2019-04-06T14:50:56Z</time>
      </trkpt>
      <trkpt lat="60.56994" lon="7.488">
        <ele>1353.19</ele>
        <time>2019-04-06T14:50:57Z</time>
      </trkpt>
      <trkpt lat="60.56982" lon="7.48801">
        <ele>1354.63</ele>
        <time>2019-04-06T14:51:00Z</time>
      </trkpt>
      <trkpt lat="60.56973" lon="7.48803">
        <ele>1357.04</ele>
        <time>2019-04-06T14:51:03Z</time>
      </trkpt>
      <trkpt lat="60.56954" lon="7.4882">
        <ele>1355.6</ele>
        <time>2019-04-06T14:51:12Z</time>
      </trkpt>
      <trkpt lat="60.56966" lon="7.48817">
        <ele>1354.15</ele>
        <time>2019-04-06T14:51:20Z</time>
      </trkpt>
      <trkpt lat="60.56971" lon="7.48809">
        <ele>1354.15</ele>
        <time>2019-04-06T14:51:23Z</time>
      </trkpt>
      <trkpt lat="60.56988" lon="7.48775">
        <ele>1352.71</ele>
        <time>2019-04-06T14:51:33Z</time>
      </trkpt>
      <trkpt lat="60.56993" lon="7.4877">
        <ele>1352.23</ele>
        <time>2019-04-06T14:51:35Z</time>
      </trkpt>
      <trkpt lat="60.57006" lon="7.48758">
        <ele>1351.27</ele>
        <time>2019-04-06T14:51:44Z</time>
      </trkpt>
      <trkpt lat="60.57017" lon="7.4874">
        <ele>1348.87</ele>
        <time>2019-04-06T14:51:59Z</time>
      </trkpt>
      <trkpt lat="60.57023" lon="7.48728">
        <ele>1348.87</ele>
        <time>2019-04-06T14:52:01Z</time>
      </trkpt>
      <trkpt lat="60.57038" lon="7.48708">
        <ele>1349.83</ele>
        <time>2019-04-06T14:52:06Z</time>
      </trkpt>
      <trkpt lat="60.57038" lon="7.48717">
        <ele>1352.23</ele>
        <time>2019-04-06T14:52:11Z</time>
      </trkpt>
      <trkpt lat="60.57012" lon="7.48715">
        <ele>1351.75</ele>
        <time>2019-04-06T14:52:18Z</time>
      </trkpt>
      <trkpt lat="60.57005" lon="7.4872">
        <ele>1354.15</ele>
        <time>2019-04-06T14:52:21Z</time>
      </trkpt>
      <trkpt lat="60.56991" lon="7.48725">
        <ele>1356.08</ele>
        <time>2019-04-06T14:52:26Z</time>
      </trkpt>
      <trkpt lat="60.56971" lon="7.48725">
        <ele>1357.52</ele>
        <time>2019-04-06T14:52:31Z</time>
      </trkpt>
      <trkpt lat="60.56959" lon="7.48727">
        <ele>1359.44</ele>
        <time>2019-04-06T14:52:34Z</time>
      </trkpt>
      <trkpt lat="60.56954" lon="7.48728">
        <ele>1359.44</ele>
        <time>2019-04-06T14:52:35Z</time>
      </trkpt>
      <trkpt lat="60.56931" lon="7.48727">
        <ele>1362.81</ele>
        <time>2019-04-06T14:52:40Z</time>
      </trkpt>
      <trkpt lat="60.56916" lon="7.48726">
        <ele>1364.25</ele>
        <time>2019-04-06T14:52:44Z</time>
      </trkpt>
      <trkpt lat="60.56913" lon="7.48729">
        <ele>1363.77</ele>
        <time>2019-04-06T14:52:51Z</time>
      </trkpt>
      <trkpt lat="60.56917" lon="7.48724">
        <ele>1361.36</ele>
        <time>2019-04-06T14:52:52Z</time>
      </trkpt>
      <trkpt lat="60.56932" lon="7.48702">
        <ele>1358.96</ele>
        <time>2019-04-06T14:52:55Z</time>
      </trkpt>
      <trkpt lat="60.56954" lon="7.48667">
        <ele>1358.96</ele>
        <time>2019-04-06T14:53:00Z</time>
      </trkpt>
      <trkpt lat="60.56962" lon="7.48653">
        <ele>1360.4</ele>
        <time>2019-04-06T14:53:02Z</time>
      </trkpt>
      <trkpt lat="60.5697" lon="7.48638">
        <ele>1360.88</ele>
        <time>2019-04-06T14:53:04Z</time>
      </trkpt>
      <trkpt lat="60.56985" lon="7.48604">
        <ele>1360.88</ele>
        <time>2019-04-06T14:53:08Z</time>
      </trkpt>
      <trkpt lat="60.57002" lon="7.48559">
        <ele>1360.4</ele>
        <time>2019-04-06T14:53:15Z</time>
      </trkpt>
      <trkpt lat="60.57005" lon="7.48562">
        <ele>1361.84</ele>
        <time>2019-04-06T14:53:17Z</time>
      </trkpt>
      <trkpt lat="60.56993" lon="7.48571">
        <ele>1363.29</ele>
        <time>2019-04-06T14:53:23Z</time>
      </trkpt>
      <trkpt lat="60.56973" lon="7.48569">
        <ele>1367.13</ele>
        <time>2019-04-06T14:53:28Z</time>
      </trkpt>
      <trkpt lat="60.56966" lon="7.48566">
        <ele>1368.09</ele>
        <time>2019-04-06T14:53:30Z</time>
      </trkpt>
      <trkpt lat="60.56942" lon="7.48564">
        <ele>1370.98</ele>
        <time>2019-04-06T14:53:36Z</time>
      </trkpt>
      <trkpt lat="60.56939" lon="7.48564">
        <ele>1370.98</ele>
        <time>2019-04-06T14:53:37Z</time>
      </trkpt>
      <trkpt lat="60.56932" lon="7.48567">
        <ele>1368.57</ele>
        <time>2019-04-06T14:53:40Z</time>
      </trkpt>
      <trkpt lat="60.56926" lon="7.48574">
        <ele>1368.57</ele>
        <time>2019-04-06T14:53:44Z</time>
      </trkpt>
      <trkpt lat="60.56934" lon="7.48572">
        <ele>1367.61</ele>
        <time>2019-04-06T14:53:48Z</time>
      </trkpt>
      <trkpt lat="60.56948" lon="7.48543">
        <ele>1365.69</ele>
        <time>2019-04-06T14:53:52Z</time>
      </trkpt>
      <trkpt lat="60.56969" lon="7.48498">
        <ele>1367.61</ele>
        <time>2019-04-06T14:53:58Z</time>
      </trkpt>
      <trkpt lat="60.56975" lon="7.48486">
        <ele>1367.61</ele>
        <time>2019-04-06T14:54:00Z</time>
      </trkpt>
      <trkpt lat="60.56982" lon="7.48473">
        <ele>1368.09</ele>
        <time>2019-04-06T14:54:02Z</time>
      </trkpt>
      <trkpt lat="60.56994" lon="7.48455">
        <ele>1368.09</ele>
        <time>2019-04-06T14:54:06Z</time>
      </trkpt>
      <trkpt lat="60.57013" lon="7.48443">
        <ele>1368.09</ele>
        <time>2019-04-06T14:54:14Z</time>
      </trkpt>
      <trkpt lat="60.57013" lon="7.48443">
        <ele>1368.09</ele>
        <time>2019-04-06T14:54:24Z</time>
      </trkpt>
      <trkpt lat="60.57014" lon="7.4844">
        <ele>1368.57</ele>
        <time>2019-04-06T14:54:42Z</time>
      </trkpt>
      <trkpt lat="60.57008" lon="7.4844">
        <ele>1369.05</ele>
        <time>2019-04-06T14:54:45Z</time>
      </trkpt>
      <trkpt lat="60.56978" lon="7.4843">
        <ele>1371.94</ele>
        <time>2019-04-06T14:54:53Z</time>
      </trkpt>
      <trkpt lat="60.56967" lon="7.48427">
        <ele>1373.86</ele>
        <time>2019-04-06T14:54:56Z</time>
      </trkpt>
      <trkpt lat="60.56955" lon="7.48422">
        <ele>1376.26</ele>
        <time>2019-04-06T14:54:59Z</time>
      </trkpt>
      <trkpt lat="60.5694" lon="7.48421">
        <ele>1379.63</ele>
        <time>2019-04-06T14:55:04Z</time>
      </trkpt>
      <trkpt lat="60.56938" lon="7.48421">
        <ele>1379.63</ele>
        <time>2019-04-06T14:55:05Z</time>
      </trkpt>
      <trkpt lat="60.56924" lon="7.48424">
        <ele>1382.99</ele>
        <time>2019-04-06T14:55:11Z</time>
      </trkpt>
      <trkpt lat="60.56922" lon="7.48425">
        <ele>1383.96</ele>
        <time>2019-04-06T14:55:13Z</time>
      </trkpt>
      <trkpt lat="60.56919" lon="7.48427">
        <ele>1384.44</ele>
        <time>2019-04-06T14:55:18Z</time>
      </trkpt>
      <trkpt lat="60.56928" lon="7.48422">
        <ele>1379.15</ele>
        <time>2019-04-06T14:55:22Z</time>
      </trkpt>
      <trkpt lat="60.56953" lon="7.48382">
        <ele>1376.26</ele>
        <time>2019-04-06T14:55:28Z</time>
      </trkpt>
      <trkpt lat="60.56967" lon="7.48361">
        <ele>1379.63</ele>
        <time>2019-04-06T14:55:32Z</time>
      </trkpt>
      <trkpt lat="60.5698" lon="7.48345">
        <ele>1381.55</ele>
        <time>2019-04-06T14:55:36Z</time>
      </trkpt>
      <trkpt lat="60.56993" lon="7.48326">
        <ele>1383.47</ele>
        <time>2019-04-06T14:55:41Z</time>
      </trkpt>
      <trkpt lat="60.56981" lon="7.48331">
        <ele>1385.4</ele>
        <time>2019-04-06T14:55:49Z</time>
      </trkpt>
      <trkpt lat="60.56977" lon="7.48331">
        <ele>1385.4</ele>
        <time>2019-04-06T14:55:50Z</time>
      </trkpt>
      <trkpt lat="60.56973" lon="7.48331">
        <ele>1386.84</ele>
        <time>2019-04-06T14:55:51Z</time>
      </trkpt>
      <trkpt lat="60.56958" lon="7.48329">
        <ele>1387.8</ele>
        <time>2019-04-06T14:55:54Z</time>
      </trkpt>
      <trkpt lat="60.56953" lon="7.48328">
        <ele>1388.76</ele>
        <time>2019-04-06T14:55:55Z</time>
      </trkpt>
      <trkpt lat="60.56937" lon="7.48332">
        <ele>1392.61</ele>
        <time>2019-04-06T14:56:01Z</time>
      </trkpt>
      <trkpt lat="60.56931" lon="7.48333">
        <ele>1393.57</ele>
        <time>2019-04-06T14:56:03Z</time>
      </trkpt>
      <trkpt lat="60.5692" lon="7.48338">
        <ele>1395.97</ele>
        <time>2019-04-06T14:56:07Z</time>
      </trkpt>
      <trkpt lat="60.5691" lon="7.48341">
        <ele>1397.89</ele>
        <time>2019-04-06T14:56:10Z</time>
      </trkpt>
      <trkpt lat="60.56907" lon="7.4834">
        <ele>1397.89</ele>
        <time>2019-04-06T14:56:11Z</time>
      </trkpt>
      <trkpt lat="60.5689" lon="7.48342">
        <ele>1402.22</ele>
        <time>2019-04-06T14:56:16Z</time>
      </trkpt>
      <trkpt lat="60.56883" lon="7.48343">
        <ele>1403.18</ele>
        <time>2019-04-06T14:56:19Z</time>
      </trkpt>
      <trkpt lat="60.56886" lon="7.48346">
        <ele>1401.26</ele>
        <time>2019-04-06T14:56:23Z</time>
      </trkpt>
      <trkpt lat="60.56918" lon="7.48294">
        <ele>1401.26</ele>
        <time>2019-04-06T14:56:33Z</time>
      </trkpt>
      <trkpt lat="60.56925" lon="7.48282">
        <ele>1399.82</ele>
        <time>2019-04-06T14:56:35Z</time>
      </trkpt>
      <trkpt lat="60.56943" lon="7.48254">
        <ele>1399.34</ele>
        <time>2019-04-06T14:56:40Z</time>
      </trkpt>
      <trkpt lat="60.56963" lon="7.48228">
        <ele>1394.53</ele>
        <time>2019-04-06T14:56:44Z</time>
      </trkpt>
      <trkpt lat="60.56972" lon="7.48219">
        <ele>1397.41</ele>
        <time>2019-04-06T14:56:46Z</time>
      </trkpt>
      <trkpt lat="60.56977" lon="7.48212">
        <ele>1399.34</ele>
        <time>2019-04-06T14:56:48Z</time>
      </trkpt>
      <trkpt lat="60.56979" lon="7.48209">
        <ele>1400.78</ele>
        <time>2019-04-06T14:56:49Z</time>
      </trkpt>
      <trkpt lat="60.56981" lon="7.48209">
        <ele>1403.18</ele>
        <time>2019-04-06T14:56:51Z</time>
      </trkpt>
      <trkpt lat="60.56983" lon="7.48211">
        <ele>1403.18</ele>
        <time>2019-04-06T14:56:53Z</time>
      </trkpt>
      <trkpt lat="60.56986" lon="7.48213">
        <ele>1403.18</ele>
        <time>2019-04-06T14:56:55Z</time>
      </trkpt>
      <trkpt lat="60.56978" lon="7.48214">
        <ele>1403.66</ele>
        <time>2019-04-06T14:56:59Z</time>
      </trkpt>
      <trkpt lat="60.56948" lon="7.48208">
        <ele>1407.99</ele>
        <time>2019-04-06T14:57:06Z</time>
      </trkpt>
      <trkpt lat="60.56944" lon="7.48208">
        <ele>1408.47</ele>
        <time>2019-04-06T14:57:08Z</time>
      </trkpt>
      <trkpt lat="60.56927" lon="7.48213">
        <ele>1411.35</ele>
        <time>2019-04-06T14:57:14Z</time>
      </trkpt>
      <trkpt lat="60.56908" lon="7.48216">
        <ele>1411.83</ele>
        <time>2019-04-06T14:57:21Z</time>
      </trkpt>
      <trkpt lat="60.56903" lon="7.48223">
        <ele>1411.83</ele>
        <time>2019-04-06T14:57:26Z</time>
      </trkpt>
      <trkpt lat="60.56914" lon="7.48217">
        <ele>1410.39</ele>
        <time>2019-04-06T14:57:30Z</time>
      </trkpt>
      <trkpt lat="60.56929" lon="7.48197">
        <ele>1406.55</ele>
        <time>2019-04-06T14:57:33Z</time>
      </trkpt>
      <trkpt lat="60.56938" lon="7.48183">
        <ele>1408.47</ele>
        <time>2019-04-06T14:57:35Z</time>
      </trkpt>
      <trkpt lat="60.56957" lon="7.4815">
        <ele>1407.03</ele>
        <time>2019-04-06T14:57:40Z</time>
      </trkpt>
      <trkpt lat="60.56966" lon="7.48136">
        <ele>1405.58</ele>
        <time>2019-04-06T14:57:42Z</time>
      </trkpt>
      <trkpt lat="60.56971" lon="7.48129">
        <ele>1405.1</ele>
        <time>2019-04-06T14:57:43Z</time>
      </trkpt>
      <trkpt lat="60.56987" lon="7.48107">
        <ele>1407.99</ele>
        <time>2019-04-06T14:57:47Z</time>
      </trkpt>
      <trkpt lat="60.56995" lon="7.48096">
        <ele>1409.43</ele>
        <time>2019-04-06T14:57:49Z</time>
      </trkpt>
      <trkpt lat="60.57011" lon="7.48077">
        <ele>1413.76</ele>
        <time>2019-04-06T14:57:53Z</time>
      </trkpt>
      <trkpt lat="60.57014" lon="7.48075">
        <ele>1413.76</ele>
        <time>2019-04-06T14:57:54Z</time>
      </trkpt>
      <trkpt lat="60.57011" lon="7.48079">
        <ele>1416.16</ele>
        <time>2019-04-06T14:57:58Z</time>
      </trkpt>
      <trkpt lat="60.57008" lon="7.48078">
        <ele>1417.12</ele>
        <time>2019-04-06T14:58:00Z</time>
      </trkpt>
      <trkpt lat="60.57007" lon="7.48078">
        <ele>1415.68</ele>
        <time>2019-04-06T14:58:02Z</time>
      </trkpt>
      <trkpt lat="60.57007" lon="7.48076">
        <ele>1414.72</ele>
        <time>2019-04-06T14:58:04Z</time>
      </trkpt>
      <trkpt lat="60.57005" lon="7.48075">
        <ele>1413.76</ele>
        <time>2019-04-06T14:58:06Z</time>
      </trkpt>
      <trkpt lat="60.56999" lon="7.4807">
        <ele>1416.16</ele>
        <time>2019-04-06T14:58:10Z</time>
      </trkpt>
      <trkpt lat="60.56991" lon="7.48061">
        <ele>1417.12</ele>
        <time>2019-04-06T14:58:13Z</time>
      </trkpt>
      <trkpt lat="60.56969" lon="7.48049">
        <ele>1416.16</ele>
        <time>2019-04-06T14:58:23Z</time>
      </trkpt>
      <trkpt lat="60.5695" lon="7.48047">
        <ele>1416.64</ele>
        <time>2019-04-06T14:58:33Z</time>
      </trkpt>
      <trkpt lat="60.5695" lon="7.48046">
        <ele>1416.64</ele>
        <time>2019-04-06T14:58:34Z</time>
      </trkpt>
      <trkpt lat="60.56942" lon="7.48047">
        <ele>1417.12</ele>
        <time>2019-04-06T14:58:38Z</time>
      </trkpt>
      <trkpt lat="60.56925" lon="7.48049">
        <ele>1421.45</ele>
        <time>2019-04-06T14:58:43Z</time>
      </trkpt>
      <trkpt lat="60.56915" lon="7.4805">
        <ele>1424.81</ele>
        <time>2019-04-06T14:58:46Z</time>
      </trkpt>
      <trkpt lat="60.56913" lon="7.48051">
        <ele>1426.25</ele>
        <time>2019-04-06T14:58:47Z</time>
      </trkpt>
      <trkpt lat="60.56913" lon="7.48056">
        <ele>1423.37</ele>
        <time>2019-04-06T14:58:49Z</time>
      </trkpt>
      <trkpt lat="60.56914" lon="7.48054">
        <ele>1422.89</ele>
        <time>2019-04-06T14:58:50Z</time>
      </trkpt>
      <trkpt lat="60.56919" lon="7.48045">
        <ele>1419.52</ele>
        <time>2019-04-06T14:58:52Z</time>
      </trkpt>
      <trkpt lat="60.56924" lon="7.48034">
        <ele>1417.6</ele>
        <time>2019-04-06T14:58:54Z</time>
      </trkpt>
      <trkpt lat="60.56924" lon="7.4803">
        <ele>1418.56</ele>
        <time>2019-04-06T14:58:55Z</time>
      </trkpt>
      <trkpt lat="60.56932" lon="7.48016">
        <ele>1415.68</ele>
        <time>2019-04-06T14:58:59Z</time>
      </trkpt>
      <trkpt lat="60.56934" lon="7.48012">
        <ele>1415.68</ele>
        <time>2019-04-06T14:59:00Z</time>
      </trkpt>
      <trkpt lat="60.56941" lon="7.47995">
        <ele>1415.68</ele>
        <time>2019-04-06T14:59:05Z</time>
      </trkpt>
      <trkpt lat="60.56945" lon="7.47987">
        <ele>1412.31</ele>
        <time>2019-04-06T14:59:09Z</time>
      </trkpt>
      <trkpt lat="60.56948" lon="7.47984">
        <ele>1412.31</ele>
        <time>2019-04-06T14:59:10Z</time>
      </trkpt>
      <trkpt lat="60.56954" lon="7.47971">
        <ele>1409.91</ele>
        <time>2019-04-06T14:59:13Z</time>
      </trkpt>
      <trkpt lat="60.5696" lon="7.47963">
        <ele>1413.28</ele>
        <time>2019-04-06T14:59:15Z</time>
      </trkpt>
      <trkpt lat="60.56963" lon="7.47959">
        <ele>1411.35</ele>
        <time>2019-04-06T14:59:16Z</time>
      </trkpt>
      <trkpt lat="60.56984" lon="7.47924">
        <ele>1410.87</ele>
        <time>2019-04-06T14:59:21Z</time>
      </trkpt>
      <trkpt lat="60.57005" lon="7.47879">
        <ele>1408.95</ele>
        <time>2019-04-06T14:59:27Z</time>
      </trkpt>
      <trkpt lat="60.57015" lon="7.47857">
        <ele>1410.39</ele>
        <time>2019-04-06T14:59:30Z</time>
      </trkpt>
      <trkpt lat="60.57022" lon="7.47842">
        <ele>1408.95</ele>
        <time>2019-04-06T14:59:32Z</time>
      </trkpt>
      <trkpt lat="60.57044" lon="7.47791">
        <ele>1407.03</ele>
        <time>2019-04-06T14:59:38Z</time>
      </trkpt>
      <trkpt lat="60.57052" lon="7.47771">
        <ele>1405.58</ele>
        <time>2019-04-06T14:59:40Z</time>
      </trkpt>
      <trkpt lat="60.57063" lon="7.4775">
        <ele>1410.39</ele>
        <time>2019-04-06T14:59:44Z</time>
      </trkpt>
      <trkpt lat="60.57062" lon="7.47751">
        <ele>1410.39</ele>
        <time>2019-04-06T14:59:45Z</time>
      </trkpt>
      <trkpt lat="60.57061" lon="7.4775">
        <ele>1412.31</ele>
        <time>2019-04-06T14:59:46Z</time>
      </trkpt>
      <trkpt lat="60.57049" lon="7.47745">
        <ele>1413.28</ele>
        <time>2019-04-06T14:59:49Z</time>
      </trkpt>
      <trkpt lat="60.57043" lon="7.47742">
        <ele>1413.28</ele>
        <time>2019-04-06T14:59:50Z</time>
      </trkpt>
      <trkpt lat="60.57022" lon="7.47728">
        <ele>1415.68</ele>
        <time>2019-04-06T14:59:54Z</time>
      </trkpt>
      <trkpt lat="60.57017" lon="7.47725">
        <ele>1415.68</ele>
        <time>2019-04-06T14:59:55Z</time>
      </trkpt>
      <trkpt lat="60.57006" lon="7.47715">
        <ele>1413.28</ele>
        <time>2019-04-06T14:59:57Z</time>
      </trkpt>
      <trkpt lat="60.56983" lon="7.47695">
        <ele>1415.2</ele>
        <time>2019-04-06T15:00:02Z</time>
      </trkpt>
      <trkpt lat="60.56966" lon="7.47684">
        <ele>1415.2</ele>
        <time>2019-04-06T15:00:07Z</time>
      </trkpt>
      <trkpt lat="60.56946" lon="7.47675">
        <ele>1416.64</ele>
        <time>2019-04-06T15:00:14Z</time>
      </trkpt>
      <trkpt lat="60.56943" lon="7.47674">
        <ele>1416.64</ele>
        <time>2019-04-06T15:00:15Z</time>
      </trkpt>
      <trkpt lat="60.56942" lon="7.47678">
        <ele>1411.35</ele>
        <time>2019-04-06T15:00:18Z</time>
      </trkpt>
      <trkpt lat="60.56945" lon="7.47675">
        <ele>1411.35</ele>
        <time>2019-04-06T15:00:19Z</time>
      </trkpt>
      <trkpt lat="60.56948" lon="7.47664">
        <ele>1408.95</ele>
        <time>2019-04-06T15:00:21Z</time>
      </trkpt>
      <trkpt lat="60.56949" lon="7.47654">
        <ele>1407.99</ele>
        <time>2019-04-06T15:00:23Z</time>
      </trkpt>
      <trkpt lat="60.56951" lon="7.4765">
        <ele>1410.87</ele>
        <time>2019-04-06T15:00:25Z</time>
      </trkpt>
      <trkpt lat="60.56949" lon="7.47652">
        <ele>1412.31</ele>
        <time>2019-04-06T15:00:27Z</time>
      </trkpt>
      <trkpt lat="60.56943" lon="7.47649">
        <ele>1413.76</ele>
        <time>2019-04-06T15:00:29Z</time>
      </trkpt>
      <trkpt lat="60.56929" lon="7.47637">
        <ele>1412.79</ele>
        <time>2019-04-06T15:00:35Z</time>
      </trkpt>
      <trkpt lat="60.56893" lon="7.47608">
        <ele>1412.31</ele>
        <time>2019-04-06T15:00:46Z</time>
      </trkpt>
      <trkpt lat="60.56883" lon="7.47582">
        <ele>1410.39</ele>
        <time>2019-04-06T15:00:54Z</time>
      </trkpt>
      <trkpt lat="60.5688" lon="7.47576">
        <ele>1408.95</ele>
        <time>2019-04-06T15:01:01Z</time>
      </trkpt>
      <trkpt lat="60.56866" lon="7.47572">
        <ele>1407.99</ele>
        <time>2019-04-06T15:01:16Z</time>
      </trkpt>
      <trkpt lat="60.56871" lon="7.47555">
        <ele>1405.1</ele>
        <time>2019-04-06T15:01:21Z</time>
      </trkpt>
      <trkpt lat="60.56872" lon="7.47544">
        <ele>1404.14</ele>
        <time>2019-04-06T15:01:23Z</time>
      </trkpt>
      <trkpt lat="60.56875" lon="7.47524">
        <ele>1401.26</ele>
        <time>2019-04-06T15:01:28Z</time>
      </trkpt>
      <trkpt lat="60.56877" lon="7.47504">
        <ele>1399.82</ele>
        <time>2019-04-06T15:01:31Z</time>
      </trkpt>
      <trkpt lat="60.5688" lon="7.4749">
        <ele>1397.89</ele>
        <time>2019-04-06T15:01:33Z</time>
      </trkpt>
      <trkpt lat="60.56889" lon="7.47473">
        <ele>1395.49</ele>
        <time>2019-04-06T15:01:36Z</time>
      </trkpt>
      <trkpt lat="60.56894" lon="7.47478">
        <ele>1397.41</ele>
        <time>2019-04-06T15:01:38Z</time>
      </trkpt>
      <trkpt lat="60.56893" lon="7.47477">
        <ele>1398.86</ele>
        <time>2019-04-06T15:01:44Z</time>
      </trkpt>
      <trkpt lat="60.56884" lon="7.47474">
        <ele>1399.82</ele>
        <time>2019-04-06T15:01:50Z</time>
      </trkpt>
      <trkpt lat="60.56866" lon="7.47482">
        <ele>1401.26</ele>
        <time>2019-04-06T15:01:57Z</time>
      </trkpt>
      <trkpt lat="60.56858" lon="7.47493">
        <ele>1403.66</ele>
        <time>2019-04-06T15:02:01Z</time>
      </trkpt>
      <trkpt lat="60.56846" lon="7.47508">
        <ele>1406.55</ele>
        <time>2019-04-06T15:02:05Z</time>
      </trkpt>
      <trkpt lat="60.56823" lon="7.47513">
        <ele>1410.39</ele>
        <time>2019-04-06T15:02:11Z</time>
      </trkpt>
      <trkpt lat="60.5682" lon="7.47514">
        <ele>1410.39</ele>
        <time>2019-04-06T15:02:12Z</time>
      </trkpt>
      <trkpt lat="60.56793" lon="7.47516">
        <ele>1410.87</ele>
        <time>2019-04-06T15:02:23Z</time>
      </trkpt>
      <trkpt lat="60.56792" lon="7.47515">
        <ele>1411.35</ele>
        <time>2019-04-06T15:02:27Z</time>
      </trkpt>
      <trkpt lat="60.56798" lon="7.47498">
        <ele>1407.99</ele>
        <time>2019-04-06T15:02:31Z</time>
      </trkpt>
      <trkpt lat="60.56802" lon="7.4747">
        <ele>1405.1</ele>
        <time>2019-04-06T15:02:34Z</time>
      </trkpt>
      <trkpt lat="60.56805" lon="7.47453">
        <ele>1404.14</ele>
        <time>2019-04-06T15:02:36Z</time>
      </trkpt>
      <trkpt lat="60.56814" lon="7.47394">
        <ele>1403.18</ele>
        <time>2019-04-06T15:02:47Z</time>
      </trkpt>
      <trkpt lat="60.56828" lon="7.47337">
        <ele>1402.7</ele>
        <time>2019-04-06T15:02:57Z</time>
      </trkpt>
      <trkpt lat="60.5683" lon="7.47329">
        <ele>1402.7</ele>
        <time>2019-04-06T15:03:00Z</time>
      </trkpt>
      <trkpt lat="60.56806" lon="7.47359">
        <ele>1405.58</ele>
        <time>2019-04-06T15:03:09Z</time>
      </trkpt>
      <trkpt lat="60.56784" lon="7.47375">
        <ele>1408.47</ele>
        <time>2019-04-06T15:03:17Z</time>
      </trkpt>
      <trkpt lat="60.56766" lon="7.47397">
        <ele>1410.39</ele>
        <time>2019-04-06T15:03:26Z</time>
      </trkpt>
      <trkpt lat="60.56764" lon="7.47402">
        <ele>1410.87</ele>
        <time>2019-04-06T15:03:27Z</time>
      </trkpt>
      <trkpt lat="60.56758" lon="7.47408">
        <ele>1411.83</ele>
        <time>2019-04-06T15:03:29Z</time>
      </trkpt>
      <trkpt lat="60.56754" lon="7.47411">
        <ele>1411.83</ele>
        <time>2019-04-06T15:03:31Z</time>
      </trkpt>
      <trkpt lat="60.56765" lon="7.47396">
        <ele>1410.39</ele>
        <time>2019-04-06T15:03:36Z</time>
      </trkpt>
      <trkpt lat="60.56776" lon="7.47366">
        <ele>1408.95</ele>
        <time>2019-04-06T15:03:40Z</time>
      </trkpt>
      <trkpt lat="60.56778" lon="7.47361">
        <ele>1410.39</ele>
        <time>2019-04-06T15:03:41Z</time>
      </trkpt>
      <trkpt lat="60.56787" lon="7.47344">
        <ele>1410.39</ele>
        <time>2019-04-06T15:03:44Z</time>
      </trkpt>
      <trkpt lat="60.568" lon="7.47314">
        <ele>1407.03</ele>
        <time>2019-04-06T15:03:48Z</time>
      </trkpt>
      <trkpt lat="60.56816" lon="7.47264">
        <ele>1407.03</ele>
        <time>2019-04-06T15:03:55Z</time>
      </trkpt>
      <trkpt lat="60.56818" lon="7.47259">
        <ele>1407.03</ele>
        <time>2019-04-06T15:03:56Z</time>
      </trkpt>
      <trkpt lat="60.56809" lon="7.47273">
        <ele>1408.95</ele>
        <time>2019-04-06T15:04:02Z</time>
      </trkpt>
      <trkpt lat="60.56797" lon="7.47275">
        <ele>1410.87</ele>
        <time>2019-04-06T15:04:04Z</time>
      </trkpt>
      <trkpt lat="60.56788" lon="7.47274">
        <ele>1412.31</ele>
        <time>2019-04-06T15:04:06Z</time>
      </trkpt>
      <trkpt lat="60.56773" lon="7.47284">
        <ele>1413.76</ele>
        <time>2019-04-06T15:04:12Z</time>
      </trkpt>
      <trkpt lat="60.56763" lon="7.47306">
        <ele>1416.16</ele>
        <time>2019-04-06T15:04:18Z</time>
      </trkpt>
      <trkpt lat="60.56752" lon="7.47326">
        <ele>1418.08</ele>
        <time>2019-04-06T15:04:25Z</time>
      </trkpt>
      <trkpt lat="60.56762" lon="7.47305">
        <ele>1415.2</ele>
        <time>2019-04-06T15:04:29Z</time>
      </trkpt>
      <trkpt lat="60.5677" lon="7.47278">
        <ele>1414.24</ele>
        <time>2019-04-06T15:04:32Z</time>
      </trkpt>
      <trkpt lat="60.56791" lon="7.47227">
        <ele>1411.83</ele>
        <time>2019-04-06T15:04:38Z</time>
      </trkpt>
      <trkpt lat="60.56801" lon="7.47206">
        <ele>1411.35</ele>
        <time>2019-04-06T15:04:41Z</time>
      </trkpt>
      <trkpt lat="60.56816" lon="7.47184">
        <ele>1411.35</ele>
        <time>2019-04-06T15:04:45Z</time>
      </trkpt>
      <trkpt lat="60.56833" lon="7.47152">
        <ele>1411.35</ele>
        <time>2019-04-06T15:04:50Z</time>
      </trkpt>
      <trkpt lat="60.5685" lon="7.47124">
        <ele>1411.35</ele>
        <time>2019-04-06T15:04:54Z</time>
      </trkpt>
      <trkpt lat="60.56858" lon="7.4711">
        <ele>1410.87</ele>
        <time>2019-04-06T15:04:56Z</time>
      </trkpt>
      <trkpt lat="60.56872" lon="7.47089">
        <ele>1413.28</ele>
        <time>2019-04-06T15:04:59Z</time>
      </trkpt>
      <trkpt lat="60.56888" lon="7.47057">
        <ele>1413.28</ele>
        <time>2019-04-06T15:05:03Z</time>
      </trkpt>
      <trkpt lat="60.56934" lon="7.46981">
        <ele>1411.35</ele>
        <time>2019-04-06T15:05:13Z</time>
      </trkpt>
      <trkpt lat="60.56975" lon="7.46915">
        <ele>1413.28</ele>
        <time>2019-04-06T15:05:22Z</time>
      </trkpt>
      <trkpt lat="60.56987" lon="7.46897">
        <ele>1413.28</ele>
        <time>2019-04-06T15:05:25Z</time>
      </trkpt>
      <trkpt lat="60.56996" lon="7.46884">
        <ele>1411.83</ele>
        <time>2019-04-06T15:05:27Z</time>
      </trkpt>
      <trkpt lat="60.5701" lon="7.4687">
        <ele>1414.24</ele>
        <time>2019-04-06T15:05:33Z</time>
      </trkpt>
      <trkpt lat="60.57001" lon="7.4687">
        <ele>1417.6</ele>
        <time>2019-04-06T15:05:35Z</time>
      </trkpt>
      <trkpt lat="60.56973" lon="7.46865">
        <ele>1421.45</ele>
        <time>2019-04-06T15:05:40Z</time>
      </trkpt>
      <trkpt lat="60.56961" lon="7.46861">
        <ele>1422.89</ele>
        <time>2019-04-06T15:05:42Z</time>
      </trkpt>
      <trkpt lat="60.5694" lon="7.46858">
        <ele>1424.81</ele>
        <time>2019-04-06T15:05:46Z</time>
      </trkpt>
      <trkpt lat="60.5691" lon="7.46856">
        <ele>1427.21</ele>
        <time>2019-04-06T15:05:53Z</time>
      </trkpt>
      <trkpt lat="60.56892" lon="7.46862">
        <ele>1429.62</ele>
        <time>2019-04-06T15:05:58Z</time>
      </trkpt>
      <trkpt lat="60.56872" lon="7.46872">
        <ele>1430.58</ele>
        <time>2019-04-06T15:06:04Z</time>
      </trkpt>
      <trkpt lat="60.56868" lon="7.46875">
        <ele>1430.58</ele>
        <time>2019-04-06T15:06:06Z</time>
      </trkpt>
      <trkpt lat="60.5684" lon="7.4689">
        <ele>1432.98</ele>
        <time>2019-04-06T15:06:12Z</time>
      </trkpt>
      <trkpt lat="60.56805" lon="7.46895">
        <ele>1434.91</ele>
        <time>2019-04-06T15:06:20Z</time>
      </trkpt>
      <trkpt lat="60.56788" lon="7.46894">
        <ele>1435.87</ele>
        <time>2019-04-06T15:06:24Z</time>
      </trkpt>
      <trkpt lat="60.56754" lon="7.46906">
        <ele>1437.79</ele>
        <time>2019-04-06T15:06:32Z</time>
      </trkpt>
      <trkpt lat="60.56741" lon="7.46912">
        <ele>1441.15</ele>
        <time>2019-04-06T15:06:35Z</time>
      </trkpt>
      <trkpt lat="60.56737" lon="7.46913">
        <ele>1441.15</ele>
        <time>2019-04-06T15:06:36Z</time>
      </trkpt>
      <trkpt lat="60.56717" lon="7.46929">
        <ele>1441.15</ele>
        <time>2019-04-06T15:06:41Z</time>
      </trkpt>
      <trkpt lat="60.56691" lon="7.4695">
        <ele>1444.52</ele>
        <time>2019-04-06T15:06:47Z</time>
      </trkpt>
      <trkpt lat="60.56687" lon="7.46953">
        <ele>1444.52</ele>
        <time>2019-04-06T15:06:48Z</time>
      </trkpt>
      <trkpt lat="60.56669" lon="7.46959">
        <ele>1446.92</ele>
        <time>2019-04-06T15:06:52Z</time>
      </trkpt>
      <trkpt lat="60.56658" lon="7.46969">
        <ele>1447.88</ele>
        <time>2019-04-06T15:07:00Z</time>
      </trkpt>
      <trkpt lat="60.56666" lon="7.46961">
        <ele>1446.44</ele>
        <time>2019-04-06T15:07:02Z</time>
      </trkpt>
      <trkpt lat="60.56676" lon="7.46942">
        <ele>1445</ele>
        <time>2019-04-06T15:07:05Z</time>
      </trkpt>
      <trkpt lat="60.56689" lon="7.46924">
        <ele>1444.52</ele>
        <time>2019-04-06T15:07:09Z</time>
      </trkpt>
      <trkpt lat="60.56715" lon="7.46874">
        <ele>1443.08</ele>
        <time>2019-04-06T15:07:16Z</time>
      </trkpt>
      <trkpt lat="60.56752" lon="7.46792">
        <ele>1441.63</ele>
        <time>2019-04-06T15:07:26Z</time>
      </trkpt>
      <trkpt lat="60.56768" lon="7.46763">
        <ele>1442.6</ele>
        <time>2019-04-06T15:07:31Z</time>
      </trkpt>
      <trkpt lat="60.56786" lon="7.46748">
        <ele>1443.56</ele>
        <time>2019-04-06T15:07:35Z</time>
      </trkpt>
      <trkpt lat="60.56796" lon="7.46738">
        <ele>1440.19</ele>
        <time>2019-04-06T15:07:37Z</time>
      </trkpt>
      <trkpt lat="60.56801" lon="7.46733">
        <ele>1442.11</ele>
        <time>2019-04-06T15:07:38Z</time>
      </trkpt>
      <trkpt lat="60.5681" lon="7.46724">
        <ele>1442.11</ele>
        <time>2019-04-06T15:07:40Z</time>
      </trkpt>
      <trkpt lat="60.56836" lon="7.46696">
        <ele>1442.11</ele>
        <time>2019-04-06T15:07:46Z</time>
      </trkpt>
      <trkpt lat="60.56855" lon="7.46674">
        <ele>1443.56</ele>
        <time>2019-04-06T15:07:51Z</time>
      </trkpt>
      <trkpt lat="60.56847" lon="7.46688">
        <ele>1444.52</ele>
        <time>2019-04-06T15:07:55Z</time>
      </trkpt>
      <trkpt lat="60.56821" lon="7.46694">
        <ele>1445.96</ele>
        <time>2019-04-06T15:08:00Z</time>
      </trkpt>
      <trkpt lat="60.56801" lon="7.46697">
        <ele>1446.44</ele>
        <time>2019-04-06T15:08:04Z</time>
      </trkpt>
      <trkpt lat="60.56769" lon="7.46699">
        <ele>1448.84</ele>
        <time>2019-04-06T15:08:10Z</time>
      </trkpt>
      <trkpt lat="60.56736" lon="7.46702">
        <ele>1452.69</ele>
        <time>2019-04-06T15:08:15Z</time>
      </trkpt>
      <trkpt lat="60.56711" lon="7.46702">
        <ele>1453.65</ele>
        <time>2019-04-06T15:08:20Z</time>
      </trkpt>
      <trkpt lat="60.56699" lon="7.46707">
        <ele>1455.09</ele>
        <time>2019-04-06T15:08:23Z</time>
      </trkpt>
      <trkpt lat="60.56687" lon="7.46712">
        <ele>1456.53</ele>
        <time>2019-04-06T15:08:26Z</time>
      </trkpt>
      <trkpt lat="60.56681" lon="7.46714">
        <ele>1457.02</ele>
        <time>2019-04-06T15:08:28Z</time>
      </trkpt>
      <trkpt lat="60.56665" lon="7.46728">
        <ele>1460.38</ele>
        <time>2019-04-06T15:08:36Z</time>
      </trkpt>
      <trkpt lat="60.56656" lon="7.46743">
        <ele>1461.34</ele>
        <time>2019-04-06T15:08:40Z</time>
      </trkpt>
      <trkpt lat="60.56638" lon="7.46751">
        <ele>1465.19</ele>
        <time>2019-04-06T15:08:44Z</time>
      </trkpt>
      <trkpt lat="60.56626" lon="7.46755">
        <ele>1466.63</ele>
        <time>2019-04-06T15:08:47Z</time>
      </trkpt>
      <trkpt lat="60.56612" lon="7.46757">
        <ele>1468.07</ele>
        <time>2019-04-06T15:08:51Z</time>
      </trkpt>
      <trkpt lat="60.56595" lon="7.46765">
        <ele>1469.51</ele>
        <time>2019-04-06T15:08:58Z</time>
      </trkpt>
      <trkpt lat="60.56578" lon="7.4677">
        <ele>1470.47</ele>
        <time>2019-04-06T15:09:03Z</time>
      </trkpt>
      <trkpt lat="60.56569" lon="7.46772">
        <ele>1471.44</ele>
        <time>2019-04-06T15:09:06Z</time>
      </trkpt>
      <trkpt lat="60.5655" lon="7.46773">
        <ele>1472.88</ele>
        <time>2019-04-06T15:09:12Z</time>
      </trkpt>
      <trkpt lat="60.56537" lon="7.4677">
        <ele>1474.8</ele>
        <time>2019-04-06T15:09:16Z</time>
      </trkpt>
      <trkpt lat="60.56533" lon="7.46772">
        <ele>1474.32</ele>
        <time>2019-04-06T15:09:19Z</time>
      </trkpt>
      <trkpt lat="60.56531" lon="7.46776">
        <ele>1474.32</ele>
        <time>2019-04-06T15:09:21Z</time>
      </trkpt>
      <trkpt lat="60.56553" lon="7.46755">
        <ele>1472.88</ele>
        <time>2019-04-06T15:09:30Z</time>
      </trkpt>
      <trkpt lat="60.56559" lon="7.46747">
        <ele>1472.88</ele>
        <time>2019-04-06T15:09:32Z</time>
      </trkpt>
      <trkpt lat="60.56572" lon="7.46734">
        <ele>1473.84</ele>
        <time>2019-04-06T15:09:36Z</time>
      </trkpt>
      <trkpt lat="60.56584" lon="7.46721">
        <ele>1472.4</ele>
        <time>2019-04-06T15:09:39Z</time>
      </trkpt>
      <trkpt lat="60.566" lon="7.46696">
        <ele>1469.51</ele>
        <time>2019-04-06T15:09:43Z</time>
      </trkpt>
      <trkpt lat="60.56603" lon="7.46689">
        <ele>1469.51</ele>
        <time>2019-04-06T15:09:44Z</time>
      </trkpt>
      <trkpt lat="60.5662" lon="7.46662">
        <ele>1470.95</ele>
        <time>2019-04-06T15:09:49Z</time>
      </trkpt>
      <trkpt lat="60.56624" lon="7.46656">
        <ele>1469.03</ele>
        <time>2019-04-06T15:09:50Z</time>
      </trkpt>
      <trkpt lat="60.56638" lon="7.4663">
        <ele>1469.51</ele>
        <time>2019-04-06T15:09:54Z</time>
      </trkpt>
      <trkpt lat="60.56652" lon="7.46607">
        <ele>1467.11</ele>
        <time>2019-04-06T15:09:58Z</time>
      </trkpt>
      <trkpt lat="60.56673" lon="7.46574">
        <ele>1465.67</ele>
        <time>2019-04-06T15:10:03Z</time>
      </trkpt>
      <trkpt lat="60.567" lon="7.46529">
        <ele>1462.78</ele>
        <time>2019-04-06T15:10:09Z</time>
      </trkpt>
      <trkpt lat="60.56716" lon="7.46502">
        <ele>1464.23</ele>
        <time>2019-04-06T15:10:13Z</time>
      </trkpt>
      <trkpt lat="60.56734" lon="7.46494">
        <ele>1462.3</ele>
        <time>2019-04-06T15:10:17Z</time>
      </trkpt>
      <trkpt lat="60.56739" lon="7.46491">
        <ele>1461.34</ele>
        <time>2019-04-06T15:10:18Z</time>
      </trkpt>
      <trkpt lat="60.5675" lon="7.46483">
        <ele>1461.34</ele>
        <time>2019-04-06T15:10:20Z</time>
      </trkpt>
      <trkpt lat="60.56764" lon="7.46467">
        <ele>1460.38</ele>
        <time>2019-04-06T15:10:23Z</time>
      </trkpt>
      <trkpt lat="60.56777" lon="7.46463">
        <ele>1460.86</ele>
        <time>2019-04-06T15:10:27Z</time>
      </trkpt>
      <trkpt lat="60.56757" lon="7.4647">
        <ele>1462.3</ele>
        <time>2019-04-06T15:10:36Z</time>
      </trkpt>
      <trkpt lat="60.56747" lon="7.46472">
        <ele>1463.26</ele>
        <time>2019-04-06T15:10:40Z</time>
      </trkpt>
      <trkpt lat="60.5673" lon="7.46484">
        <ele>1464.23</ele>
        <time>2019-04-06T15:10:45Z</time>
      </trkpt>
      <trkpt lat="60.56722" lon="7.46488">
        <ele>1465.19</ele>
        <time>2019-04-06T15:10:47Z</time>
      </trkpt>
      <trkpt lat="60.56708" lon="7.46493">
        <ele>1467.59</ele>
        <time>2019-04-06T15:10:50Z</time>
      </trkpt>
      <trkpt lat="60.56685" lon="7.46498">
        <ele>1470.47</ele>
        <time>2019-04-06T15:10:55Z</time>
      </trkpt>
      <trkpt lat="60.56671" lon="7.46502">
        <ele>1472.4</ele>
        <time>2019-04-06T15:10:59Z</time>
      </trkpt>
      <trkpt lat="60.56661" lon="7.46509">
        <ele>1473.84</ele>
        <time>2019-04-06T15:11:02Z</time>
      </trkpt>
      <trkpt lat="60.5665" lon="7.46516">
        <ele>1475.76</ele>
        <time>2019-04-06T15:11:05Z</time>
      </trkpt>
      <trkpt lat="60.56632" lon="7.46523">
        <ele>1478.65</ele>
        <time>2019-04-06T15:11:09Z</time>
      </trkpt>
      <trkpt lat="60.56618" lon="7.46527">
        <ele>1481.05</ele>
        <time>2019-04-06T15:11:12Z</time>
      </trkpt>
      <trkpt lat="60.56613" lon="7.46526">
        <ele>1482.97</ele>
        <time>2019-04-06T15:11:13Z</time>
      </trkpt>
      <trkpt lat="60.56602" lon="7.46526">
        <ele>1484.89</ele>
        <time>2019-04-06T15:11:15Z</time>
      </trkpt>
      <trkpt lat="60.56591" lon="7.46523">
        <ele>1485.85</ele>
        <time>2019-04-06T15:11:17Z</time>
      </trkpt>
      <trkpt lat="60.56586" lon="7.46522">
        <ele>1486.34</ele>
        <time>2019-04-06T15:11:18Z</time>
      </trkpt>
      <trkpt lat="60.56575" lon="7.46518">
        <ele>1487.78</ele>
        <time>2019-04-06T15:11:20Z</time>
      </trkpt>
      <trkpt lat="60.5656" lon="7.46506">
        <ele>1490.18</ele>
        <time>2019-04-06T15:11:23Z</time>
      </trkpt>
      <trkpt lat="60.56546" lon="7.46496">
        <ele>1491.14</ele>
        <time>2019-04-06T15:11:27Z</time>
      </trkpt>
      <trkpt lat="60.56521" lon="7.46491">
        <ele>1491.62</ele>
        <time>2019-04-06T15:11:35Z</time>
      </trkpt>
      <trkpt lat="60.56493" lon="7.46479">
        <ele>1494.51</ele>
        <time>2019-04-06T15:11:41Z</time>
      </trkpt>
      <trkpt lat="60.56484" lon="7.46474">
        <ele>1494.99</ele>
        <time>2019-04-06T15:11:43Z</time>
      </trkpt>
      <trkpt lat="60.56465" lon="7.4647">
        <ele>1496.43</ele>
        <time>2019-04-06T15:11:48Z</time>
      </trkpt>
      <trkpt lat="60.56451" lon="7.46472">
        <ele>1496.43</ele>
        <time>2019-04-06T15:11:51Z</time>
      </trkpt>
      <trkpt lat="60.56436" lon="7.46468">
        <ele>1498.35</ele>
        <time>2019-04-06T15:11:54Z</time>
      </trkpt>
      <trkpt lat="60.5641" lon="7.46464">
        <ele>1498.83</ele>
        <time>2019-04-06T15:12:00Z</time>
      </trkpt>
      <trkpt lat="60.56381" lon="7.46463">
        <ele>1500.76</ele>
        <time>2019-04-06T15:12:06Z</time>
      </trkpt>
      <trkpt lat="60.56384" lon="7.46487">
        <ele>1497.39</ele>
        <time>2019-04-06T15:12:11Z</time>
      </trkpt>
      <trkpt lat="60.56389" lon="7.46495">
        <ele>1496.91</ele>
        <time>2019-04-06T15:12:12Z</time>
      </trkpt>
      <trkpt lat="60.56401" lon="7.46511">
        <ele>1495.95</ele>
        <time>2019-04-06T15:12:15Z</time>
      </trkpt>
      <trkpt lat="60.56405" lon="7.46539">
        <ele>1494.51</ele>
        <time>2019-04-06T15:12:24Z</time>
      </trkpt>
      <trkpt lat="60.56405" lon="7.46539">
        <ele>1495.95</ele>
        <time>2019-04-06T15:12:27Z</time>
      </trkpt>
      <trkpt lat="60.56405" lon="7.46539">
        <ele>1494.99</ele>
        <time>2019-04-06T15:12:30Z</time>
      </trkpt>
      <trkpt lat="60.56405" lon="7.46544">
        <ele>1494.99</ele>
        <time>2019-04-06T15:12:42Z</time>
      </trkpt>
      <trkpt lat="60.56417" lon="7.46536">
        <ele>1494.03</ele>
        <time>2019-04-06T15:12:47Z</time>
      </trkpt>
      <trkpt lat="60.56444" lon="7.46506">
        <ele>1494.03</ele>
        <time>2019-04-06T15:12:57Z</time>
      </trkpt>
      <trkpt lat="60.56443" lon="7.46506">
        <ele>1494.99</ele>
        <time>2019-04-06T15:13:00Z</time>
      </trkpt>
      <trkpt lat="60.56443" lon="7.46508">
        <ele>1494.99</ele>
        <time>2019-04-06T15:13:09Z</time>
      </trkpt>
      <trkpt lat="60.56437" lon="7.46516">
        <ele>1494.99</ele>
        <time>2019-04-06T15:13:17Z</time>
      </trkpt>
      <trkpt lat="60.56425" lon="7.46525">
        <ele>1494.99</ele>
        <time>2019-04-06T15:13:26Z</time>
      </trkpt>
      <trkpt lat="60.56397" lon="7.46526">
        <ele>1496.43</ele>
        <time>2019-04-06T15:13:32Z</time>
      </trkpt>
      <trkpt lat="60.56377" lon="7.46524">
        <ele>1497.87</ele>
        <time>2019-04-06T15:13:36Z</time>
      </trkpt>
      <trkpt lat="60.56367" lon="7.46523">
        <ele>1498.35</ele>
        <time>2019-04-06T15:13:38Z</time>
      </trkpt>
      <trkpt lat="60.56327" lon="7.46526">
        <ele>1499.79</ele>
        <time>2019-04-06T15:13:46Z</time>
      </trkpt>
      <trkpt lat="60.56302" lon="7.46528">
        <ele>1500.76</ele>
        <time>2019-04-06T15:13:54Z</time>
      </trkpt>
      <trkpt lat="60.56302" lon="7.46544">
        <ele>1499.31</ele>
        <time>2019-04-06T15:13:58Z</time>
      </trkpt>
      <trkpt lat="60.56333" lon="7.46539">
        <ele>1497.87</ele>
        <time>2019-04-06T15:14:06Z</time>
      </trkpt>
      <trkpt lat="60.56348" lon="7.46533">
        <ele>1496.43</ele>
        <time>2019-04-06T15:14:09Z</time>
      </trkpt>
      <trkpt lat="60.56405" lon="7.46458">
        <ele>1495.95</ele>
        <time>2019-04-06T15:14:20Z</time>
      </trkpt>
      <trkpt lat="60.5642" lon="7.4644">
        <ele>1496.91</ele>
        <time>2019-04-06T15:14:23Z</time>
      </trkpt>
      <trkpt lat="60.56471" lon="7.46381">
        <ele>1494.99</ele>
        <time>2019-04-06T15:14:32Z</time>
      </trkpt>
      <trkpt lat="60.5648" lon="7.46362">
        <ele>1495.47</ele>
        <time>2019-04-06T15:14:36Z</time>
      </trkpt>
      <trkpt lat="60.56485" lon="7.46358">
        <ele>1496.91</ele>
        <time>2019-04-06T15:14:38Z</time>
      </trkpt>
      <trkpt lat="60.56493" lon="7.46349">
        <ele>1493.55</ele>
        <time>2019-04-06T15:14:40Z</time>
      </trkpt>
      <trkpt lat="60.56497" lon="7.46344">
        <ele>1493.55</ele>
        <time>2019-04-06T15:14:41Z</time>
      </trkpt>
      <trkpt lat="60.56527" lon="7.46301">
        <ele>1493.55</ele>
        <time>2019-04-06T15:14:49Z</time>
      </trkpt>
      <trkpt lat="60.5653" lon="7.46296">
        <ele>1493.55</ele>
        <time>2019-04-06T15:14:50Z</time>
      </trkpt>
      <trkpt lat="60.56534" lon="7.46292">
        <ele>1493.55</ele>
        <time>2019-04-06T15:14:51Z</time>
      </trkpt>
      <trkpt lat="60.56532" lon="7.46304">
        <ele>1494.03</ele>
        <time>2019-04-06T15:14:57Z</time>
      </trkpt>
      <trkpt lat="60.56527" lon="7.46305">
        <ele>1494.99</ele>
        <time>2019-04-06T15:14:58Z</time>
      </trkpt>
      <trkpt lat="60.56512" lon="7.46305">
        <ele>1496.43</ele>
        <time>2019-04-06T15:15:01Z</time>
      </trkpt>
      <trkpt lat="60.56489" lon="7.463">
        <ele>1498.83</ele>
        <time>2019-04-06T15:15:06Z</time>
      </trkpt>
      <trkpt lat="60.56468" lon="7.46304">
        <ele>1500.76</ele>
        <time>2019-04-06T15:15:11Z</time>
      </trkpt>
      <trkpt lat="60.56464" lon="7.46305">
        <ele>1500.76</ele>
        <time>2019-04-06T15:15:12Z</time>
      </trkpt>
      <trkpt lat="60.56449" lon="7.46308">
        <ele>1502.2</ele>
        <time>2019-04-06T15:15:17Z</time>
      </trkpt>
      <trkpt lat="60.56445" lon="7.46315">
        <ele>1502.2</ele>
        <time>2019-04-06T15:15:32Z</time>
      </trkpt>
      <trkpt lat="60.56445" lon="7.46316">
        <ele>1502.2</ele>
        <time>2019-04-06T15:15:43Z</time>
      </trkpt>
      <trkpt lat="60.56432" lon="7.46319">
        <ele>1502.68</ele>
        <time>2019-04-06T15:15:54Z</time>
      </trkpt>
      <trkpt lat="60.56409" lon="7.46327">
        <ele>1505.56</ele>
        <time>2019-04-06T15:16:05Z</time>
      </trkpt>
      <trkpt lat="60.56391" lon="7.46328">
        <ele>1506.52</ele>
        <time>2019-04-06T15:16:09Z</time>
      </trkpt>
      <trkpt lat="60.56382" lon="7.46328">
        <ele>1507.97</ele>
        <time>2019-04-06T15:16:11Z</time>
      </trkpt>
      <trkpt lat="60.56365" lon="7.46327">
        <ele>1509.41</ele>
        <time>2019-04-06T15:16:15Z</time>
      </trkpt>
      <trkpt lat="60.5632" lon="7.46335">
        <ele>1513.25</ele>
        <time>2019-04-06T15:16:24Z</time>
      </trkpt>
      <trkpt lat="60.56309" lon="7.46335">
        <ele>1513.73</ele>
        <time>2019-04-06T15:16:26Z</time>
      </trkpt>
      <trkpt lat="60.56303" lon="7.46335">
        <ele>1513.73</ele>
        <time>2019-04-06T15:16:27Z</time>
      </trkpt>
      <trkpt lat="60.56285" lon="7.46338">
        <ele>1515.18</ele>
        <time>2019-04-06T15:16:30Z</time>
      </trkpt>
      <trkpt lat="60.56267" lon="7.46338">
        <ele>1516.14</ele>
        <time>2019-04-06T15:16:33Z</time>
      </trkpt>
      <trkpt lat="60.56245" lon="7.46335">
        <ele>1518.06</ele>
        <time>2019-04-06T15:16:37Z</time>
      </trkpt>
      <trkpt lat="60.56216" lon="7.46329">
        <ele>1518.06</ele>
        <time>2019-04-06T15:16:42Z</time>
      </trkpt>
      <trkpt lat="60.56144" lon="7.46295">
        <ele>1518.54</ele>
        <time>2019-04-06T15:16:55Z</time>
      </trkpt>
      <trkpt lat="60.56105" lon="7.46281">
        <ele>1517.1</ele>
        <time>2019-04-06T15:17:02Z</time>
      </trkpt>
      <trkpt lat="60.56099" lon="7.46278">
        <ele>1517.1</ele>
        <time>2019-04-06T15:17:03Z</time>
      </trkpt>
      <trkpt lat="60.56059" lon="7.46254">
        <ele>1516.14</ele>
        <time>2019-04-06T15:17:11Z</time>
      </trkpt>
      <trkpt lat="60.56055" lon="7.46256">
        <ele>1514.21</ele>
        <time>2019-04-06T15:17:15Z</time>
      </trkpt>
      <trkpt lat="60.56068" lon="7.46248">
        <ele>1514.21</ele>
        <time>2019-04-06T15:17:18Z</time>
      </trkpt>
      <trkpt lat="60.56085" lon="7.46233">
        <ele>1514.21</ele>
        <time>2019-04-06T15:17:22Z</time>
      </trkpt>
      <trkpt lat="60.56098" lon="7.46222">
        <ele>1516.62</ele>
        <time>2019-04-06T15:17:25Z</time>
      </trkpt>
      <trkpt lat="60.56128" lon="7.46193">
        <ele>1519.02</ele>
        <time>2019-04-06T15:17:31Z</time>
      </trkpt>
      <trkpt lat="60.56137" lon="7.46182">
        <ele>1519.98</ele>
        <time>2019-04-06T15:17:33Z</time>
      </trkpt>
      <trkpt lat="60.56142" lon="7.46176">
        <ele>1520.94</ele>
        <time>2019-04-06T15:17:34Z</time>
      </trkpt>
      <trkpt lat="60.56151" lon="7.46168">
        <ele>1522.39</ele>
        <time>2019-04-06T15:17:36Z</time>
      </trkpt>
      <trkpt lat="60.56172" lon="7.4615">
        <ele>1523.35</ele>
        <time>2019-04-06T15:17:40Z</time>
      </trkpt>
      <trkpt lat="60.5621" lon="7.46106">
        <ele>1525.75</ele>
        <time>2019-04-06T15:17:47Z</time>
      </trkpt>
      <trkpt lat="60.56214" lon="7.46099">
        <ele>1525.75</ele>
        <time>2019-04-06T15:17:48Z</time>
      </trkpt>
      <trkpt lat="60.56236" lon="7.46073">
        <ele>1527.19</ele>
        <time>2019-04-06T15:17:52Z</time>
      </trkpt>
      <trkpt lat="60.56273" lon="7.46023">
        <ele>1528.15</ele>
        <time>2019-04-06T15:17:59Z</time>
      </trkpt>
      <trkpt lat="60.56342" lon="7.45932">
        <ele>1532.48</ele>
        <time>2019-04-06T15:18:12Z</time>
      </trkpt>
      <trkpt lat="60.56383" lon="7.45872">
        <ele>1535.84</ele>
        <time>2019-04-06T15:18:20Z</time>
      </trkpt>
      <trkpt lat="60.56388" lon="7.45865">
        <ele>1535.84</ele>
        <time>2019-04-06T15:18:21Z</time>
      </trkpt>
      <trkpt lat="60.56427" lon="7.45808">
        <ele>1536.8</ele>
        <time>2019-04-06T15:18:29Z</time>
      </trkpt>
      <trkpt lat="60.56435" lon="7.45798">
        <ele>1539.21</ele>
        <time>2019-04-06T15:18:32Z</time>
      </trkpt>
      <trkpt lat="60.56432" lon="7.45802">
        <ele>1539.21</ele>
        <time>2019-04-06T15:18:34Z</time>
      </trkpt>
      <trkpt lat="60.56412" lon="7.45804">
        <ele>1540.17</ele>
        <time>2019-04-06T15:18:40Z</time>
      </trkpt>
      <trkpt lat="60.56395" lon="7.45803">
        <ele>1542.09</ele>
        <time>2019-04-06T15:18:44Z</time>
      </trkpt>
      <trkpt lat="60.56381" lon="7.45805">
        <ele>1543.53</ele>
        <time>2019-04-06T15:18:47Z</time>
      </trkpt>
      <trkpt lat="60.56315" lon="7.45804">
        <ele>1546.42</ele>
        <time>2019-04-06T15:18:59Z</time>
      </trkpt>
      <trkpt lat="60.56302" lon="7.45802">
        <ele>1546.9</ele>
        <time>2019-04-06T15:19:01Z</time>
      </trkpt>
      <trkpt lat="60.56281" lon="7.45799">
        <ele>1548.82</ele>
        <time>2019-04-06T15:19:04Z</time>
      </trkpt>
      <trkpt lat="60.56262" lon="7.45793">
        <ele>1546.9</ele>
        <time>2019-04-06T15:19:07Z</time>
      </trkpt>
      <trkpt lat="60.56179" lon="7.45784">
        <ele>1548.34</ele>
        <time>2019-04-06T15:19:19Z</time>
      </trkpt>
      <trkpt lat="60.56172" lon="7.45784">
        <ele>1548.34</ele>
        <time>2019-04-06T15:19:20Z</time>
      </trkpt>
      <trkpt lat="60.56127" lon="7.45782">
        <ele>1549.3</ele>
        <time>2019-04-06T15:19:27Z</time>
      </trkpt>
      <trkpt lat="60.56079" lon="7.45785">
        <ele>1553.15</ele>
        <time>2019-04-06T15:19:35Z</time>
      </trkpt>
      <trkpt lat="60.56055" lon="7.45787">
        <ele>1556.03</ele>
        <time>2019-04-06T15:19:39Z</time>
      </trkpt>
      <trkpt lat="60.56028" lon="7.45786">
        <ele>1557.47</ele>
        <time>2019-04-06T15:19:44Z</time>
      </trkpt>
      <trkpt lat="60.56028" lon="7.45792">
        <ele>1555.07</ele>
        <time>2019-04-06T15:19:47Z</time>
      </trkpt>
      <trkpt lat="60.56041" lon="7.45783">
        <ele>1552.67</ele>
        <time>2019-04-06T15:19:50Z</time>
      </trkpt>
      <trkpt lat="60.56063" lon="7.45753">
        <ele>1552.67</ele>
        <time>2019-04-06T15:19:55Z</time>
      </trkpt>
      <trkpt lat="60.56073" lon="7.45741">
        <ele>1555.55</ele>
        <time>2019-04-06T15:19:57Z</time>
      </trkpt>
      <trkpt lat="60.56081" lon="7.45728">
        <ele>1555.55</ele>
        <time>2019-04-06T15:19:59Z</time>
      </trkpt>
      <trkpt lat="60.56144" lon="7.45647">
        <ele>1558.43</ele>
        <time>2019-04-06T15:20:12Z</time>
      </trkpt>
      <trkpt lat="60.56165" lon="7.45624">
        <ele>1559.88</ele>
        <time>2019-04-06T15:20:16Z</time>
      </trkpt>
      <trkpt lat="60.56202" lon="7.45583">
        <ele>1563.24</ele>
        <time>2019-04-06T15:20:23Z</time>
      </trkpt>
      <trkpt lat="60.56211" lon="7.45571">
        <ele>1562.28</ele>
        <time>2019-04-06T15:20:25Z</time>
      </trkpt>
      <trkpt lat="60.56229" lon="7.45549">
        <ele>1564.2</ele>
        <time>2019-04-06T15:20:29Z</time>
      </trkpt>
      <trkpt lat="60.56262" lon="7.45513">
        <ele>1566.12</ele>
        <time>2019-04-06T15:20:36Z</time>
      </trkpt>
      <trkpt lat="60.56271" lon="7.45503">
        <ele>1567.09</ele>
        <time>2019-04-06T15:20:38Z</time>
      </trkpt>
      <trkpt lat="60.56295" lon="7.45477">
        <ele>1567.57</ele>
        <time>2019-04-06T15:20:43Z</time>
      </trkpt>
      <trkpt lat="60.56334" lon="7.45429">
        <ele>1569.97</ele>
        <time>2019-04-06T15:20:51Z</time>
      </trkpt>
      <trkpt lat="60.5636" lon="7.45398">
        <ele>1571.41</ele>
        <time>2019-04-06T15:20:56Z</time>
      </trkpt>
      <trkpt lat="60.56376" lon="7.45377">
        <ele>1573.33</ele>
        <time>2019-04-06T15:21:00Z</time>
      </trkpt>
      <trkpt lat="60.5638" lon="7.45374">
        <ele>1573.33</ele>
        <time>2019-04-06T15:21:01Z</time>
      </trkpt>
      <trkpt lat="60.56391" lon="7.45359">
        <ele>1569.97</ele>
        <time>2019-04-06T15:21:04Z</time>
      </trkpt>
      <trkpt lat="60.56402" lon="7.45341">
        <ele>1571.41</ele>
        <time>2019-04-06T15:21:07Z</time>
      </trkpt>
      <trkpt lat="60.56418" lon="7.45314">
        <ele>1571.41</ele>
        <time>2019-04-06T15:21:11Z</time>
      </trkpt>
      <trkpt lat="60.56458" lon="7.4524">
        <ele>1573.33</ele>
        <time>2019-04-06T15:21:22Z</time>
      </trkpt>
      <trkpt lat="60.56456" lon="7.45242">
        <ele>1576.22</ele>
        <time>2019-04-06T15:21:27Z</time>
      </trkpt>
      <trkpt lat="60.56442" lon="7.45246">
        <ele>1577.18</ele>
        <time>2019-04-06T15:21:30Z</time>
      </trkpt>
      <trkpt lat="60.56417" lon="7.45248">
        <ele>1580.06</ele>
        <time>2019-04-06T15:21:35Z</time>
      </trkpt>
      <trkpt lat="60.56394" lon="7.4526">
        <ele>1580.06</ele>
        <time>2019-04-06T15:21:42Z</time>
      </trkpt>
      <trkpt lat="60.56382" lon="7.45257">
        <ele>1581.03</ele>
        <time>2019-04-06T15:21:52Z</time>
      </trkpt>
      <trkpt lat="60.56382" lon="7.45254">
        <ele>1579.58</ele>
        <time>2019-04-06T15:22:17Z</time>
      </trkpt>
      <trkpt lat="60.56381" lon="7.45254">
        <ele>1581.03</ele>
        <time>2019-04-06T15:22:22Z</time>
      </trkpt>
      <trkpt lat="60.56377" lon="7.45255">
        <ele>1581.99</ele>
        <time>2019-04-06T15:22:26Z</time>
      </trkpt>
      <trkpt lat="60.56366" lon="7.45249">
        <ele>1582.47</ele>
        <time>2019-04-06T15:22:35Z</time>
      </trkpt>
      <trkpt lat="60.56353" lon="7.45248">
        <ele>1583.91</ele>
        <time>2019-04-06T15:22:40Z</time>
      </trkpt>
      <trkpt lat="60.56335" lon="7.45245">
        <ele>1587.75</ele>
        <time>2019-04-06T15:22:44Z</time>
      </trkpt>
      <trkpt lat="60.56314" lon="7.4524">
        <ele>1589.2</ele>
        <time>2019-04-06T15:22:48Z</time>
      </trkpt>
      <trkpt lat="60.56278" lon="7.45235">
        <ele>1591.12</ele>
        <time>2019-04-06T15:22:54Z</time>
      </trkpt>
      <trkpt lat="60.56259" lon="7.45229">
        <ele>1591.12</ele>
        <time>2019-04-06T15:22:57Z</time>
      </trkpt>
      <trkpt lat="60.56247" lon="7.45227">
        <ele>1593.04</ele>
        <time>2019-04-06T15:22:59Z</time>
      </trkpt>
      <trkpt lat="60.56241" lon="7.45225">
        <ele>1594.48</ele>
        <time>2019-04-06T15:23:00Z</time>
      </trkpt>
      <trkpt lat="60.56223" lon="7.4522">
        <ele>1595.45</ele>
        <time>2019-04-06T15:23:03Z</time>
      </trkpt>
      <trkpt lat="60.56211" lon="7.45217">
        <ele>1595.93</ele>
        <time>2019-04-06T15:23:05Z</time>
      </trkpt>
      <trkpt lat="60.56162" lon="7.45208">
        <ele>1599.77</ele>
        <time>2019-04-06T15:23:13Z</time>
      </trkpt>
      <trkpt lat="60.56121" lon="7.452">
        <ele>1602.66</ele>
        <time>2019-04-06T15:23:19Z</time>
      </trkpt>
      <trkpt lat="60.561" lon="7.45195">
        <ele>1603.62</ele>
        <time>2019-04-06T15:23:22Z</time>
      </trkpt>
      <trkpt lat="60.56093" lon="7.45194">
        <ele>1605.06</ele>
        <time>2019-04-06T15:23:23Z</time>
      </trkpt>
      <trkpt lat="60.56009" lon="7.45189">
        <ele>1608.42</ele>
        <time>2019-04-06T15:23:35Z</time>
      </trkpt>
      <trkpt lat="60.55958" lon="7.4519">
        <ele>1611.79</ele>
        <time>2019-04-06T15:23:42Z</time>
      </trkpt>
      <trkpt lat="60.55953" lon="7.45189">
        <ele>1611.79</ele>
        <time>2019-04-06T15:23:43Z</time>
      </trkpt>
      <trkpt lat="60.55945" lon="7.45184">
        <ele>1613.23</ele>
        <time>2019-04-06T15:23:45Z</time>
      </trkpt>
      <trkpt lat="60.55945" lon="7.4519">
        <ele>1611.79</ele>
        <time>2019-04-06T15:23:48Z</time>
      </trkpt>
      <trkpt lat="60.55946" lon="7.45192">
        <ele>1611.31</ele>
        <time>2019-04-06T15:23:50Z</time>
      </trkpt>
      <trkpt lat="60.55958" lon="7.45188">
        <ele>1607.46</ele>
        <time>2019-04-06T15:23:54Z</time>
      </trkpt>
      <trkpt lat="60.55963" lon="7.45181">
        <ele>1607.46</ele>
        <time>2019-04-06T15:23:55Z</time>
      </trkpt>
      <trkpt lat="60.56031" lon="7.45066">
        <ele>1608.42</ele>
        <time>2019-04-06T15:24:08Z</time>
      </trkpt>
      <trkpt lat="60.56066" lon="7.45016">
        <ele>1607.46</ele>
        <time>2019-04-06T15:24:14Z</time>
      </trkpt>
      <trkpt lat="60.56102" lon="7.44961">
        <ele>1606.02</ele>
        <time>2019-04-06T15:24:20Z</time>
      </trkpt>
      <trkpt lat="60.56136" lon="7.44904">
        <ele>1608.42</ele>
        <time>2019-04-06T15:24:26Z</time>
      </trkpt>
      <trkpt lat="60.56148" lon="7.44885">
        <ele>1609.38</ele>
        <time>2019-04-06T15:24:30Z</time>
      </trkpt>
      <trkpt lat="60.5613" lon="7.4489">
        <ele>1611.31</ele>
        <time>2019-04-06T15:24:34Z</time>
      </trkpt>
      <trkpt lat="60.56125" lon="7.4489">
        <ele>1613.23</ele>
        <time>2019-04-06T15:24:35Z</time>
      </trkpt>
      <trkpt lat="60.56094" lon="7.44891">
        <ele>1614.67</ele>
        <time>2019-04-06T15:24:40Z</time>
      </trkpt>
      <trkpt lat="60.56088" lon="7.44891">
        <ele>1615.63</ele>
        <time>2019-04-06T15:24:41Z</time>
      </trkpt>
      <trkpt lat="60.56067" lon="7.44893">
        <ele>1616.11</ele>
        <time>2019-04-06T15:24:44Z</time>
      </trkpt>
      <trkpt lat="60.56052" lon="7.44896">
        <ele>1617.07</ele>
        <time>2019-04-06T15:24:46Z</time>
      </trkpt>
      <trkpt lat="60.56038" lon="7.44899">
        <ele>1617.56</ele>
        <time>2019-04-06T15:24:48Z</time>
      </trkpt>
      <trkpt lat="60.56015" lon="7.4491">
        <ele>1618.52</ele>
        <time>2019-04-06T15:24:52Z</time>
      </trkpt>
      <trkpt lat="60.56005" lon="7.44912">
        <ele>1619</ele>
        <time>2019-04-06T15:24:54Z</time>
      </trkpt>
      <trkpt lat="60.55987" lon="7.44921">
        <ele>1620.92</ele>
        <time>2019-04-06T15:24:58Z</time>
      </trkpt>
      <trkpt lat="60.55974" lon="7.44922">
        <ele>1620.92</ele>
        <time>2019-04-06T15:25:07Z</time>
      </trkpt>
      <trkpt lat="60.55975" lon="7.44923">
        <ele>1621.4</ele>
        <time>2019-04-06T15:25:26Z</time>
      </trkpt>
      <trkpt lat="60.55966" lon="7.44924">
        <ele>1619.96</ele>
        <time>2019-04-06T15:25:38Z</time>
      </trkpt>
      <trkpt lat="60.55966" lon="7.44933">
        <ele>1619.96</ele>
        <time>2019-04-06T15:25:41Z</time>
      </trkpt>
      <trkpt lat="60.55982" lon="7.44932">
        <ele>1618.04</ele>
        <time>2019-04-06T15:25:46Z</time>
      </trkpt>
      <trkpt lat="60.56016" lon="7.4489">
        <ele>1614.19</ele>
        <time>2019-04-06T15:25:51Z</time>
      </trkpt>
      <trkpt lat="60.56095" lon="7.44782">
        <ele>1612.27</ele>
        <time>2019-04-06T15:26:02Z</time>
      </trkpt>
      <trkpt lat="60.56114" lon="7.44767">
        <ele>1612.27</ele>
        <time>2019-04-06T15:26:04Z</time>
      </trkpt>
      <trkpt lat="60.56155" lon="7.44721">
        <ele>1611.79</ele>
        <time>2019-04-06T15:26:09Z</time>
      </trkpt>
      <trkpt lat="60.56175" lon="7.44692">
        <ele>1612.75</ele>
        <time>2019-04-06T15:26:12Z</time>
      </trkpt>
      <trkpt lat="60.56192" lon="7.44666">
        <ele>1615.63</ele>
        <time>2019-04-06T15:26:15Z</time>
      </trkpt>
      <trkpt lat="60.56208" lon="7.44642">
        <ele>1615.63</ele>
        <time>2019-04-06T15:26:18Z</time>
      </trkpt>
      <trkpt lat="60.56221" lon="7.44616">
        <ele>1618.04</ele>
        <time>2019-04-06T15:26:21Z</time>
      </trkpt>
      <trkpt lat="60.56226" lon="7.4462">
        <ele>1619.96</ele>
        <time>2019-04-06T15:26:24Z</time>
      </trkpt>
      <trkpt lat="60.56216" lon="7.44623">
        <ele>1621.4</ele>
        <time>2019-04-06T15:26:26Z</time>
      </trkpt>
      <trkpt lat="60.5618" lon="7.44628">
        <ele>1623.32</ele>
        <time>2019-04-06T15:26:31Z</time>
      </trkpt>
      <trkpt lat="60.56164" lon="7.4463">
        <ele>1621.88</ele>
        <time>2019-04-06T15:26:33Z</time>
      </trkpt>
      <trkpt lat="60.56119" lon="7.44642">
        <ele>1623.8</ele>
        <time>2019-04-06T15:26:38Z</time>
      </trkpt>
      <trkpt lat="60.56083" lon="7.4465">
        <ele>1624.77</ele>
        <time>2019-04-06T15:26:42Z</time>
      </trkpt>
      <trkpt lat="60.56049" lon="7.44659">
        <ele>1624.77</ele>
        <time>2019-04-06T15:26:46Z</time>
      </trkpt>
      <trkpt lat="60.56" lon="7.44674">
        <ele>1628.13</ele>
        <time>2019-04-06T15:26:52Z</time>
      </trkpt>
      <trkpt lat="60.55962" lon="7.44688">
        <ele>1631.49</ele>
        <time>2019-04-06T15:26:57Z</time>
      </trkpt>
      <trkpt lat="60.5594" lon="7.44697">
        <ele>1632.46</ele>
        <time>2019-04-06T15:27:00Z</time>
      </trkpt>
      <trkpt lat="60.55917" lon="7.44707">
        <ele>1635.34</ele>
        <time>2019-04-06T15:27:03Z</time>
      </trkpt>
      <trkpt lat="60.55886" lon="7.4472">
        <ele>1636.78</ele>
        <time>2019-04-06T15:27:07Z</time>
      </trkpt>
      <trkpt lat="60.55863" lon="7.44733">
        <ele>1639.67</ele>
        <time>2019-04-06T15:27:10Z</time>
      </trkpt>
      <trkpt lat="60.55817" lon="7.44765">
        <ele>1642.55</ele>
        <time>2019-04-06T15:27:16Z</time>
      </trkpt>
      <trkpt lat="60.55802" lon="7.44779">
        <ele>1643.99</ele>
        <time>2019-04-06T15:27:18Z</time>
      </trkpt>
      <trkpt lat="60.55764" lon="7.44817">
        <ele>1647.36</ele>
        <time>2019-04-06T15:27:23Z</time>
      </trkpt>
      <trkpt lat="60.55734" lon="7.44852">
        <ele>1649.76</ele>
        <time>2019-04-06T15:27:27Z</time>
      </trkpt>
      <trkpt lat="60.55712" lon="7.44882">
        <ele>1653.12</ele>
        <time>2019-04-06T15:27:30Z</time>
      </trkpt>
      <trkpt lat="60.55705" lon="7.44892">
        <ele>1654.09</ele>
        <time>2019-04-06T15:27:31Z</time>
      </trkpt>
      <trkpt lat="60.55679" lon="7.44931">
        <ele>1659.85</ele>
        <time>2019-04-06T15:27:36Z</time>
      </trkpt>
      <trkpt lat="60.55669" lon="7.44952">
        <ele>1663.7</ele>
        <time>2019-04-06T15:27:39Z</time>
      </trkpt>
      <trkpt lat="60.55657" lon="7.44983">
        <ele>1669.95</ele>
        <time>2019-04-06T15:27:43Z</time>
      </trkpt>
      <trkpt lat="60.5565" lon="7.44998">
        <ele>1673.79</ele>
        <time>2019-04-06T15:27:45Z</time>
      </trkpt>
      <trkpt lat="60.55647" lon="7.45004">
        <ele>1675.72</ele>
        <time>2019-04-06T15:27:46Z</time>
      </trkpt>
      <trkpt lat="60.55639" lon="7.45025">
        <ele>1680.04</ele>
        <time>2019-04-06T15:27:49Z</time>
      </trkpt>
      <trkpt lat="60.55637" lon="7.4503">
        <ele>1682.44</ele>
        <time>2019-04-06T15:27:50Z</time>
      </trkpt>
      <trkpt lat="60.5563" lon="7.45052">
        <ele>1687.25</ele>
        <time>2019-04-06T15:27:53Z</time>
      </trkpt>
      <trkpt lat="60.55625" lon="7.45064">
        <ele>1691.1</ele>
        <time>2019-04-06T15:27:55Z</time>
      </trkpt>
      <trkpt lat="60.55617" lon="7.45082">
        <ele>1694.94</ele>
        <time>2019-04-06T15:27:58Z</time>
      </trkpt>
      <trkpt lat="60.55608" lon="7.45101">
        <ele>1700.71</ele>
        <time>2019-04-06T15:28:01Z</time>
      </trkpt>
      <trkpt lat="60.556" lon="7.45123">
        <ele>1706</ele>
        <time>2019-04-06T15:28:04Z</time>
      </trkpt>
      <trkpt lat="60.55594" lon="7.45145">
        <ele>1710.32</ele>
        <time>2019-04-06T15:28:07Z</time>
      </trkpt>
      <trkpt lat="60.55588" lon="7.45157">
        <ele>1713.21</ele>
        <time>2019-04-06T15:28:09Z</time>
      </trkpt>
      <trkpt lat="60.55579" lon="7.45172">
        <ele>1718.49</ele>
        <time>2019-04-06T15:28:12Z</time>
      </trkpt>
      <trkpt lat="60.55571" lon="7.45181">
        <ele>1722.34</ele>
        <time>2019-04-06T15:28:14Z</time>
      </trkpt>
      <trkpt lat="60.5556" lon="7.45197">
        <ele>1727.63</ele>
        <time>2019-04-06T15:28:17Z</time>
      </trkpt>
      <trkpt lat="60.5555" lon="7.45208">
        <ele>1732.43</ele>
        <time>2019-04-06T15:28:19Z</time>
      </trkpt>
      <trkpt lat="60.55539" lon="7.45215">
        <ele>1735.8</ele>
        <time>2019-04-06T15:28:21Z</time>
      </trkpt>
      <trkpt lat="60.5553" lon="7.45223">
        <ele>1739.64</ele>
        <time>2019-04-06T15:28:23Z</time>
      </trkpt>
      <trkpt lat="60.55524" lon="7.45227">
        <ele>1741.57</ele>
        <time>2019-04-06T15:28:24Z</time>
      </trkpt>
      <trkpt lat="60.55506" lon="7.45244">
        <ele>1747.33</ele>
        <time>2019-04-06T15:28:28Z</time>
      </trkpt>
      <trkpt lat="60.55491" lon="7.45261">
        <ele>1752.14</ele>
        <time>2019-04-06T15:28:31Z</time>
      </trkpt>
      <trkpt lat="60.55474" lon="7.45278">
        <ele>1758.87</ele>
        <time>2019-04-06T15:28:34Z</time>
      </trkpt>
      <trkpt lat="60.55456" lon="7.45287">
        <ele>1766.08</ele>
        <time>2019-04-06T15:28:37Z</time>
      </trkpt>
      <trkpt lat="60.55446" lon="7.4529">
        <ele>1768.96</ele>
        <time>2019-04-06T15:28:39Z</time>
      </trkpt>
      <trkpt lat="60.55424" lon="7.45303">
        <ele>1775.21</ele>
        <time>2019-04-06T15:28:43Z</time>
      </trkpt>
      <trkpt lat="60.55413" lon="7.45311">
        <ele>1779.06</ele>
        <time>2019-04-06T15:28:45Z</time>
      </trkpt>
      <trkpt lat="60.55396" lon="7.45321">
        <ele>1783.86</ele>
        <time>2019-04-06T15:28:48Z</time>
      </trkpt>
      <trkpt lat="60.55391" lon="7.45325">
        <ele>1784.82</ele>
        <time>2019-04-06T15:28:49Z</time>
      </trkpt>
      <trkpt lat="60.55369" lon="7.45342">
        <ele>1791.55</ele>
        <time>2019-04-06T15:28:53Z</time>
      </trkpt>
      <trkpt lat="60.55345" lon="7.45366">
        <ele>1798.28</ele>
        <time>2019-04-06T15:28:57Z</time>
      </trkpt>
      <trkpt lat="60.55331" lon="7.45377">
        <ele>1802.13</ele>
        <time>2019-04-06T15:28:59Z</time>
      </trkpt>
      <trkpt lat="60.55317" lon="7.45389">
        <ele>1805.49</ele>
        <time>2019-04-06T15:29:01Z</time>
      </trkpt>
      <trkpt lat="60.55309" lon="7.45393">
        <ele>1806.94</ele>
        <time>2019-04-06T15:29:02Z</time>
      </trkpt>
      <trkpt lat="60.55294" lon="7.454">
        <ele>1810.78</ele>
        <time>2019-04-06T15:29:04Z</time>
      </trkpt>
      <trkpt lat="60.55264" lon="7.45402">
        <ele>1817.03</ele>
        <time>2019-04-06T15:29:08Z</time>
      </trkpt>
      <trkpt lat="60.55244" lon="7.45393">
        <ele>1820.87</ele>
        <time>2019-04-06T15:29:11Z</time>
      </trkpt>
      <trkpt lat="60.55218" lon="7.45382">
        <ele>1825.68</ele>
        <time>2019-04-06T15:29:15Z</time>
      </trkpt>
      <trkpt lat="60.55206" lon="7.45379">
        <ele>1826.64</ele>
        <time>2019-04-06T15:29:17Z</time>
      </trkpt>
      <trkpt lat="60.55187" lon="7.45374">
        <ele>1830.01</ele>
        <time>2019-04-06T15:29:20Z</time>
      </trkpt>
      <trkpt lat="60.55167" lon="7.45365">
        <ele>1833.85</ele>
        <time>2019-04-06T15:29:23Z</time>
      </trkpt>
      <trkpt lat="60.5516" lon="7.45361">
        <ele>1834.81</ele>
        <time>2019-04-06T15:29:24Z</time>
      </trkpt>
      <trkpt lat="60.55147" lon="7.45356">
        <ele>1835.77</ele>
        <time>2019-04-06T15:29:26Z</time>
      </trkpt>
      <trkpt lat="60.55126" lon="7.45346">
        <ele>1839.62</ele>
        <time>2019-04-06T15:29:29Z</time>
      </trkpt>
      <trkpt lat="60.55101" lon="7.45332">
        <ele>1843.47</ele>
        <time>2019-04-06T15:29:33Z</time>
      </trkpt>
      <trkpt lat="60.55077" lon="7.45317">
        <ele>1845.87</ele>
        <time>2019-04-06T15:29:37Z</time>
      </trkpt>
      <trkpt lat="60.5506" lon="7.45305">
        <ele>1847.79</ele>
        <time>2019-04-06T15:29:40Z</time>
      </trkpt>
      <trkpt lat="60.55042" lon="7.45294">
        <ele>1850.19</ele>
        <time>2019-04-06T15:29:43Z</time>
      </trkpt>
      <trkpt lat="60.55004" lon="7.45275">
        <ele>1854.04</ele>
        <time>2019-04-06T15:29:49Z</time>
      </trkpt>
      <trkpt lat="60.54998" lon="7.45272">
        <ele>1854.52</ele>
        <time>2019-04-06T15:29:50Z</time>
      </trkpt>
      <trkpt lat="60.54966" lon="7.45252">
        <ele>1858.37</ele>
        <time>2019-04-06T15:29:55Z</time>
      </trkpt>
      <trkpt lat="60.5496" lon="7.45248">
        <ele>1858.37</ele>
        <time>2019-04-06T15:29:56Z</time>
      </trkpt>
      <trkpt lat="60.54942" lon="7.45239">
        <ele>1861.73</ele>
        <time>2019-04-06T15:29:59Z</time>
      </trkpt>
      <trkpt lat="60.54922" lon="7.45233">
        <ele>1866.06</ele>
        <time>2019-04-06T15:30:03Z</time>
      </trkpt>
      <trkpt lat="60.54914" lon="7.45231">
        <ele>1869.9</ele>
        <time>2019-04-06T15:30:05Z</time>
      </trkpt>
      <trkpt lat="60.54905" lon="7.45232">
        <ele>1867.02</ele>
        <time>2019-04-06T15:30:07Z</time>
      </trkpt>
      <trkpt lat="60.54892" lon="7.45228">
        <ele>1865.58</ele>
        <time>2019-04-06T15:30:09Z</time>
      </trkpt>
      <trkpt lat="60.54876" lon="7.4523">
        <ele>1861.25</ele>
        <time>2019-04-06T15:30:11Z</time>
      </trkpt>
      <trkpt lat="60.54866" lon="7.45228">
        <ele>1861.25</ele>
        <time>2019-04-06T15:30:12Z</time>
      </trkpt>
      <trkpt lat="60.54848" lon="7.45222">
        <ele>1861.25</ele>
        <time>2019-04-06T15:30:14Z</time>
      </trkpt>
      <trkpt lat="60.54813" lon="7.45206">
        <ele>1859.33</ele>
        <time>2019-04-06T15:30:18Z</time>
      </trkpt>
      <trkpt lat="60.54799" lon="7.45199">
        <ele>1857.89</ele>
        <time>2019-04-06T15:30:20Z</time>
      </trkpt>
      <trkpt lat="60.54778" lon="7.45191">
        <ele>1856.44</ele>
        <time>2019-04-06T15:30:23Z</time>
      </trkpt>
      <trkpt lat="60.54754" lon="7.45174">
        <ele>1855</ele>
        <time>2019-04-06T15:30:27Z</time>
      </trkpt>
      <trkpt lat="60.54749" lon="7.45179">
        <ele>1853.08</ele>
        <time>2019-04-06T15:30:30Z</time>
      </trkpt>
      <trkpt lat="60.54749" lon="7.4518">
        <ele>1853.08</ele>
        <time>2019-04-06T15:30:32Z</time>
      </trkpt>
      <trkpt lat="60.54761" lon="7.45182">
        <ele>1851.16</ele>
        <time>2019-04-06T15:30:36Z</time>
      </trkpt>
      <trkpt lat="60.54772" lon="7.45174">
        <ele>1850.68</ele>
        <time>2019-04-06T15:30:38Z</time>
      </trkpt>
      <trkpt lat="60.54783" lon="7.45163">
        <ele>1851.64</ele>
        <time>2019-04-06T15:30:40Z</time>
      </trkpt>
      <trkpt lat="60.54846" lon="7.45097">
        <ele>1855.48</ele>
        <time>2019-04-06T15:30:51Z</time>
      </trkpt>
      <trkpt lat="60.54871" lon="7.45069">
        <ele>1855.96</ele>
        <time>2019-04-06T15:30:56Z</time>
      </trkpt>
      <trkpt lat="60.54886" lon="7.45051">
        <ele>1854.04</ele>
        <time>2019-04-06T15:30:59Z</time>
      </trkpt>
      <trkpt lat="60.54905" lon="7.45025">
        <ele>1854.52</ele>
        <time>2019-04-06T15:31:03Z</time>
      </trkpt>
      <trkpt lat="60.54906" lon="7.45028">
        <ele>1856.44</ele>
        <time>2019-04-06T15:31:05Z</time>
      </trkpt>
      <trkpt lat="60.54888" lon="7.45022">
        <ele>1857.89</ele>
        <time>2019-04-06T15:31:09Z</time>
      </trkpt>
      <trkpt lat="60.54789" lon="7.44972">
        <ele>1859.33</ele>
        <time>2019-04-06T15:31:23Z</time>
      </trkpt>
      <trkpt lat="60.54774" lon="7.44966">
        <ele>1859.33</ele>
        <time>2019-04-06T15:31:25Z</time>
      </trkpt>
      <trkpt lat="60.54742" lon="7.44945">
        <ele>1857.4</ele>
        <time>2019-04-06T15:31:30Z</time>
      </trkpt>
      <trkpt lat="60.54678" lon="7.44892">
        <ele>1857.89</ele>
        <time>2019-04-06T15:31:40Z</time>
      </trkpt>
      <trkpt lat="60.54653" lon="7.44868">
        <ele>1857.89</ele>
        <time>2019-04-06T15:31:44Z</time>
      </trkpt>
      <trkpt lat="60.54628" lon="7.4485">
        <ele>1855.96</ele>
        <time>2019-04-06T15:31:48Z</time>
      </trkpt>
      <trkpt lat="60.54608" lon="7.44836">
        <ele>1855.96</ele>
        <time>2019-04-06T15:31:51Z</time>
      </trkpt>
      <trkpt lat="60.54593" lon="7.44825">
        <ele>1851.16</ele>
        <time>2019-04-06T15:31:56Z</time>
      </trkpt>
      <trkpt lat="60.54604" lon="7.44823">
        <ele>1849.23</ele>
        <time>2019-04-06T15:31:59Z</time>
      </trkpt>
      <trkpt lat="60.54616" lon="7.44814">
        <ele>1849.71</ele>
        <time>2019-04-06T15:32:01Z</time>
      </trkpt>
      <trkpt lat="60.54652" lon="7.44775">
        <ele>1852.6</ele>
        <time>2019-04-06T15:32:07Z</time>
      </trkpt>
      <trkpt lat="60.54658" lon="7.4477">
        <ele>1852.6</ele>
        <time>2019-04-06T15:32:08Z</time>
      </trkpt>
      <trkpt lat="60.54691" lon="7.44739">
        <ele>1853.08</ele>
        <time>2019-04-06T15:32:13Z</time>
      </trkpt>
      <trkpt lat="60.54717" lon="7.44713">
        <ele>1853.56</ele>
        <time>2019-04-06T15:32:17Z</time>
      </trkpt>
      <trkpt lat="60.54744" lon="7.44686">
        <ele>1855.48</ele>
        <time>2019-04-06T15:32:21Z</time>
      </trkpt>
      <trkpt lat="60.54758" lon="7.44673">
        <ele>1853.08</ele>
        <time>2019-04-06T15:32:23Z</time>
      </trkpt>
      <trkpt lat="60.54766" lon="7.44666">
        <ele>1853.08</ele>
        <time>2019-04-06T15:32:24Z</time>
      </trkpt>
      <trkpt lat="60.54796" lon="7.44632">
        <ele>1853.56</ele>
        <time>2019-04-06T15:32:29Z</time>
      </trkpt>
      <trkpt lat="60.54807" lon="7.44618">
        <ele>1852.12</ele>
        <time>2019-04-06T15:32:31Z</time>
      </trkpt>
      <trkpt lat="60.54812" lon="7.44612">
        <ele>1853.56</ele>
        <time>2019-04-06T15:32:32Z</time>
      </trkpt>
      <trkpt lat="60.54854" lon="7.44555">
        <ele>1850.19</ele>
        <time>2019-04-06T15:32:40Z</time>
      </trkpt>
      <trkpt lat="60.54859" lon="7.44547">
        <ele>1850.19</ele>
        <time>2019-04-06T15:32:41Z</time>
      </trkpt>
      <trkpt lat="60.54893" lon="7.44492">
        <ele>1847.31</ele>
        <time>2019-04-06T15:32:48Z</time>
      </trkpt>
      <trkpt lat="60.54898" lon="7.44484">
        <ele>1847.31</ele>
        <time>2019-04-06T15:32:49Z</time>
      </trkpt>
      <trkpt lat="60.54902" lon="7.44475">
        <ele>1846.35</ele>
        <time>2019-04-06T15:32:50Z</time>
      </trkpt>
      <trkpt lat="60.54916" lon="7.44448">
        <ele>1845.39</ele>
        <time>2019-04-06T15:32:53Z</time>
      </trkpt>
      <trkpt lat="60.54932" lon="7.44409">
        <ele>1842.5</ele>
        <time>2019-04-06T15:32:57Z</time>
      </trkpt>
      <trkpt lat="60.54945" lon="7.44383">
        <ele>1842.02</ele>
        <time>2019-04-06T15:33:00Z</time>
      </trkpt>
      <trkpt lat="60.54951" lon="7.44366">
        <ele>1842.02</ele>
        <time>2019-04-06T15:33:05Z</time>
      </trkpt>
      <trkpt lat="60.54948" lon="7.44365">
        <ele>1842.98</ele>
        <time>2019-04-06T15:33:06Z</time>
      </trkpt>
      <trkpt lat="60.54941" lon="7.4436">
        <ele>1843.47</ele>
        <time>2019-04-06T15:33:08Z</time>
      </trkpt>
      <trkpt lat="60.54928" lon="7.44351">
        <ele>1845.39</ele>
        <time>2019-04-06T15:33:11Z</time>
      </trkpt>
      <trkpt lat="60.54913" lon="7.44335">
        <ele>1846.83</ele>
        <time>2019-04-06T15:33:14Z</time>
      </trkpt>
      <trkpt lat="60.54856" lon="7.44282">
        <ele>1848.27</ele>
        <time>2019-04-06T15:33:25Z</time>
      </trkpt>
      <trkpt lat="60.54813" lon="7.44245">
        <ele>1849.23</ele>
        <time>2019-04-06T15:33:33Z</time>
      </trkpt>
      <trkpt lat="60.54756" lon="7.44194">
        <ele>1849.23</ele>
        <time>2019-04-06T15:33:43Z</time>
      </trkpt>
      <trkpt lat="60.5473" lon="7.44175">
        <ele>1851.16</ele>
        <time>2019-04-06T15:33:47Z</time>
      </trkpt>
      <trkpt lat="60.54711" lon="7.44158">
        <ele>1849.71</ele>
        <time>2019-04-06T15:33:50Z</time>
      </trkpt>
      <trkpt lat="60.54705" lon="7.44151">
        <ele>1849.23</ele>
        <time>2019-04-06T15:33:51Z</time>
      </trkpt>
      <trkpt lat="60.54686" lon="7.44137">
        <ele>1848.75</ele>
        <time>2019-04-06T15:33:54Z</time>
      </trkpt>
      <trkpt lat="60.54598" lon="7.4407">
        <ele>1847.79</ele>
        <time>2019-04-06T15:34:07Z</time>
      </trkpt>
      <trkpt lat="60.54555" lon="7.44037">
        <ele>1845.39</ele>
        <time>2019-04-06T15:34:13Z</time>
      </trkpt>
      <trkpt lat="60.54517" lon="7.44011">
        <ele>1844.91</ele>
        <time>2019-04-06T15:34:18Z</time>
      </trkpt>
      <trkpt lat="60.5448" lon="7.43988">
        <ele>1843.95</ele>
        <time>2019-04-06T15:34:23Z</time>
      </trkpt>
      <trkpt lat="60.54466" lon="7.43976">
        <ele>1838.66</ele>
        <time>2019-04-06T15:34:28Z</time>
      </trkpt>
      <trkpt lat="60.54494" lon="7.43936">
        <ele>1837.22</ele>
        <time>2019-04-06T15:34:36Z</time>
      </trkpt>
      <trkpt lat="60.5453" lon="7.43879">
        <ele>1836.26</ele>
        <time>2019-04-06T15:34:43Z</time>
      </trkpt>
      <trkpt lat="60.54551" lon="7.43845">
        <ele>1836.26</ele>
        <time>2019-04-06T15:34:47Z</time>
      </trkpt>
      <trkpt lat="60.54592" lon="7.43787">
        <ele>1835.29</ele>
        <time>2019-04-06T15:34:54Z</time>
      </trkpt>
      <trkpt lat="60.54615" lon="7.43752">
        <ele>1836.26</ele>
        <time>2019-04-06T15:34:58Z</time>
      </trkpt>
      <trkpt lat="60.54679" lon="7.43636">
        <ele>1833.85</ele>
        <time>2019-04-06T15:35:11Z</time>
      </trkpt>
      <trkpt lat="60.54687" lon="7.43618">
        <ele>1833.85</ele>
        <time>2019-04-06T15:35:13Z</time>
      </trkpt>
      <trkpt lat="60.54752" lon="7.43511">
        <ele>1831.45</ele>
        <time>2019-04-06T15:35:27Z</time>
      </trkpt>
      <trkpt lat="60.54826" lon="7.43379">
        <ele>1828.08</ele>
        <time>2019-04-06T15:35:43Z</time>
      </trkpt>
      <trkpt lat="60.54837" lon="7.43354">
        <ele>1827.6</ele>
        <time>2019-04-06T15:35:46Z</time>
      </trkpt>
      <trkpt lat="60.54854" lon="7.43323">
        <ele>1827.12</ele>
        <time>2019-04-06T15:35:50Z</time>
      </trkpt>
      <trkpt lat="60.54875" lon="7.43279">
        <ele>1826.16</ele>
        <time>2019-04-06T15:35:55Z</time>
      </trkpt>
      <trkpt lat="60.54879" lon="7.4327">
        <ele>1825.2</ele>
        <time>2019-04-06T15:35:56Z</time>
      </trkpt>
      <trkpt lat="60.54899" lon="7.43229">
        <ele>1824.24</ele>
        <time>2019-04-06T15:36:01Z</time>
      </trkpt>
      <trkpt lat="60.54921" lon="7.43184">
        <ele>1822.8</ele>
        <time>2019-04-06T15:36:06Z</time>
      </trkpt>
      <trkpt lat="60.54957" lon="7.43108">
        <ele>1821.35</ele>
        <time>2019-04-06T15:36:15Z</time>
      </trkpt>
      <trkpt lat="60.55001" lon="7.43009">
        <ele>1818.47</ele>
        <time>2019-04-06T15:36:27Z</time>
      </trkpt>
      <trkpt lat="60.55002" lon="7.43013">
        <ele>1817.03</ele>
        <time>2019-04-06T15:36:30Z</time>
      </trkpt>
      <trkpt lat="60.54989" lon="7.43014">
        <ele>1819.91</ele>
        <time>2019-04-06T15:36:36Z</time>
      </trkpt>
      <trkpt lat="60.54965" lon="7.43006">
        <ele>1823.28</ele>
        <time>2019-04-06T15:36:42Z</time>
      </trkpt>
      <trkpt lat="60.54961" lon="7.43004">
        <ele>1823.28</ele>
        <time>2019-04-06T15:36:43Z</time>
      </trkpt>
      <trkpt lat="60.54934" lon="7.42993">
        <ele>1825.68</ele>
        <time>2019-04-06T15:36:50Z</time>
      </trkpt>
      <trkpt lat="60.54915" lon="7.42981">
        <ele>1826.16</ele>
        <time>2019-04-06T15:36:54Z</time>
      </trkpt>
      <trkpt lat="60.54905" lon="7.42978">
        <ele>1827.12</ele>
        <time>2019-04-06T15:36:56Z</time>
      </trkpt>
      <trkpt lat="60.54841" lon="7.42937">
        <ele>1829.53</ele>
        <time>2019-04-06T15:37:07Z</time>
      </trkpt>
      <trkpt lat="60.54789" lon="7.42903">
        <ele>1830.49</ele>
        <time>2019-04-06T15:37:15Z</time>
      </trkpt>
      <trkpt lat="60.54776" lon="7.42896">
        <ele>1830.49</ele>
        <time>2019-04-06T15:37:17Z</time>
      </trkpt>
      <trkpt lat="60.54763" lon="7.42887">
        <ele>1829.05</ele>
        <time>2019-04-06T15:37:19Z</time>
      </trkpt>
      <trkpt lat="60.54736" lon="7.42869">
        <ele>1829.05</ele>
        <time>2019-04-06T15:37:23Z</time>
      </trkpt>
      <trkpt lat="60.54652" lon="7.42813">
        <ele>1828.56</ele>
        <time>2019-04-06T15:37:35Z</time>
      </trkpt>
      <trkpt lat="60.54604" lon="7.42782">
        <ele>1826.64</ele>
        <time>2019-04-06T15:37:42Z</time>
      </trkpt>
      <trkpt lat="60.54519" lon="7.42727">
        <ele>1824.72</ele>
        <time>2019-04-06T15:37:55Z</time>
      </trkpt>
      <trkpt lat="60.54441" lon="7.4267">
        <ele>1822.32</ele>
        <time>2019-04-06T15:38:07Z</time>
      </trkpt>
      <trkpt lat="60.54435" lon="7.42665">
        <ele>1822.32</ele>
        <time>2019-04-06T15:38:08Z</time>
      </trkpt>
      <trkpt lat="60.54378" lon="7.42618">
        <ele>1820.87</ele>
        <time>2019-04-06T15:38:17Z</time>
      </trkpt>
      <trkpt lat="60.54372" lon="7.42612">
        <ele>1820.87</ele>
        <time>2019-04-06T15:38:18Z</time>
      </trkpt>
      <trkpt lat="60.54322" lon="7.4257">
        <ele>1818.95</ele>
        <time>2019-04-06T15:38:26Z</time>
      </trkpt>
      <trkpt lat="60.54315" lon="7.42561">
        <ele>1815.11</ele>
        <time>2019-04-06T15:38:32Z</time>
      </trkpt>
      <trkpt lat="60.54318" lon="7.42558">
        <ele>1814.63</ele>
        <time>2019-04-06T15:38:33Z</time>
      </trkpt>
      <trkpt lat="60.54327" lon="7.42551">
        <ele>1816.07</ele>
        <time>2019-04-06T15:38:35Z</time>
      </trkpt>
      <trkpt lat="60.54362" lon="7.4251">
        <ele>1816.55</ele>
        <time>2019-04-06T15:38:42Z</time>
      </trkpt>
      <trkpt lat="60.54398" lon="7.42457">
        <ele>1817.03</ele>
        <time>2019-04-06T15:38:50Z</time>
      </trkpt>
      <trkpt lat="60.54406" lon="7.42442">
        <ele>1817.03</ele>
        <time>2019-04-06T15:38:52Z</time>
      </trkpt>
      <trkpt lat="60.54414" lon="7.42429">
        <ele>1817.03</ele>
        <time>2019-04-06T15:38:54Z</time>
      </trkpt>
      <trkpt lat="60.54423" lon="7.42415">
        <ele>1817.03</ele>
        <time>2019-04-06T15:38:56Z</time>
      </trkpt>
      <trkpt lat="60.54461" lon="7.42368">
        <ele>1817.99</ele>
        <time>2019-04-06T15:39:04Z</time>
      </trkpt>
      <trkpt lat="60.54476" lon="7.42349">
        <ele>1817.99</ele>
        <time>2019-04-06T15:39:07Z</time>
      </trkpt>
      <trkpt lat="60.54497" lon="7.42323">
        <ele>1817.51</ele>
        <time>2019-04-06T15:39:12Z</time>
      </trkpt>
      <trkpt lat="60.54512" lon="7.42308">
        <ele>1818.47</ele>
        <time>2019-04-06T15:39:19Z</time>
      </trkpt>
      <trkpt lat="60.54513" lon="7.42306">
        <ele>1818.95</ele>
        <time>2019-04-06T15:39:38Z</time>
      </trkpt>
      <trkpt lat="60.54513" lon="7.42309">
        <ele>1819.43</ele>
        <time>2019-04-06T15:40:02Z</time>
      </trkpt>
      <trkpt lat="60.54515" lon="7.42306">
        <ele>1819.43</ele>
        <time>2019-04-06T15:40:39Z</time>
      </trkpt>
      <trkpt lat="60.54516" lon="7.42306">
        <ele>1819.43</ele>
        <time>2019-04-06T15:40:47Z</time>
      </trkpt>
      <trkpt lat="60.54538" lon="7.42306">
        <ele>1819.43</ele>
        <time>2019-04-06T15:40:53Z</time>
      </trkpt>
      <trkpt lat="60.54568" lon="7.4227">
        <ele>1819.43</ele>
        <time>2019-04-06T15:40:59Z</time>
      </trkpt>
      <trkpt lat="60.54586" lon="7.42238">
        <ele>1819.91</ele>
        <time>2019-04-06T15:41:04Z</time>
      </trkpt>
      <trkpt lat="60.54606" lon="7.42215">
        <ele>1820.39</ele>
        <time>2019-04-06T15:41:09Z</time>
      </trkpt>
      <trkpt lat="60.5463" lon="7.42216">
        <ele>1820.87</ele>
        <time>2019-04-06T15:41:16Z</time>
      </trkpt>
      <trkpt lat="60.54631" lon="7.42238">
        <ele>1820.87</ele>
        <time>2019-04-06T15:41:18Z</time>
      </trkpt>
      <trkpt lat="60.54632" lon="7.42347">
        <ele>1820.87</ele>
        <time>2019-04-06T15:41:30Z</time>
      </trkpt>
      <trkpt lat="60.54632" lon="7.42376">
        <ele>1821.35</ele>
        <time>2019-04-06T15:41:35Z</time>
      </trkpt>
      <trkpt lat="60.54631" lon="7.42382">
        <ele>1822.32</ele>
        <time>2019-04-06T15:41:51Z</time>
      </trkpt>
      <trkpt lat="60.54631" lon="7.42383">
        <ele>1822.32</ele>
        <time>2019-04-06T15:41:58Z</time>
      </trkpt>
      <trkpt lat="60.54646" lon="7.42381">
        <ele>1822.32</ele>
        <time>2019-04-06T15:42:03Z</time>
      </trkpt>
      <trkpt lat="60.5466" lon="7.42368">
        <ele>1822.32</ele>
        <time>2019-04-06T15:42:06Z</time>
      </trkpt>
      <trkpt lat="60.54709" lon="7.42318">
        <ele>1822.32</ele>
        <time>2019-04-06T15:42:15Z</time>
      </trkpt>
      <trkpt lat="60.54757" lon="7.42283">
        <ele>1823.28</ele>
        <time>2019-04-06T15:42:22Z</time>
      </trkpt>
      <trkpt lat="60.54811" lon="7.42248">
        <ele>1823.28</ele>
        <time>2019-04-06T15:42:29Z</time>
      </trkpt>
      <trkpt lat="60.54887" lon="7.4217">
        <ele>1820.87</ele>
        <time>2019-04-06T15:42:40Z</time>
      </trkpt>
      <trkpt lat="60.54894" lon="7.42162">
        <ele>1819.91</ele>
        <time>2019-04-06T15:42:41Z</time>
      </trkpt>
      <trkpt lat="60.54923" lon="7.42137">
        <ele>1817.99</ele>
        <time>2019-04-06T15:42:45Z</time>
      </trkpt>
      <trkpt lat="60.5494" lon="7.42124">
        <ele>1817.51</ele>
        <time>2019-04-06T15:42:47Z</time>
      </trkpt>
      <trkpt lat="60.54948" lon="7.42117">
        <ele>1815.59</ele>
        <time>2019-04-06T15:42:48Z</time>
      </trkpt>
      <trkpt lat="60.54984" lon="7.42097">
        <ele>1815.11</ele>
        <time>2019-04-06T15:42:52Z</time>
      </trkpt>
      <trkpt lat="60.55032" lon="7.42074">
        <ele>1812.7</ele>
        <time>2019-04-06T15:42:57Z</time>
      </trkpt>
      <trkpt lat="60.55059" lon="7.4206">
        <ele>1809.82</ele>
        <time>2019-04-06T15:43:00Z</time>
      </trkpt>
      <trkpt lat="60.55087" lon="7.42047">
        <ele>1805.01</ele>
        <time>2019-04-06T15:43:03Z</time>
      </trkpt>
      <trkpt lat="60.55114" lon="7.42033">
        <ele>1802.61</ele>
        <time>2019-04-06T15:43:06Z</time>
      </trkpt>
      <trkpt lat="60.55166" lon="7.42011">
        <ele>1797.8</ele>
        <time>2019-04-06T15:43:12Z</time>
      </trkpt>
      <trkpt lat="60.55184" lon="7.42003">
        <ele>1796.84</ele>
        <time>2019-04-06T15:43:14Z</time>
      </trkpt>
      <trkpt lat="60.55203" lon="7.41993">
        <ele>1795.88</ele>
        <time>2019-04-06T15:43:16Z</time>
      </trkpt>
      <trkpt lat="60.55233" lon="7.41985">
        <ele>1792.03</ele>
        <time>2019-04-06T15:43:19Z</time>
      </trkpt>
      <trkpt lat="60.55281" lon="7.4197">
        <ele>1786.75</ele>
        <time>2019-04-06T15:43:24Z</time>
      </trkpt>
      <trkpt lat="60.55291" lon="7.41968">
        <ele>1788.19</ele>
        <time>2019-04-06T15:43:25Z</time>
      </trkpt>
      <trkpt lat="60.55334" lon="7.41965">
        <ele>1785.31</ele>
        <time>2019-04-06T15:43:29Z</time>
      </trkpt>
      <trkpt lat="60.55366" lon="7.41963">
        <ele>1781.94</ele>
        <time>2019-04-06T15:43:32Z</time>
      </trkpt>
      <trkpt lat="60.55388" lon="7.41965">
        <ele>1777.61</ele>
        <time>2019-04-06T15:43:34Z</time>
      </trkpt>
      <trkpt lat="60.55421" lon="7.41974">
        <ele>1774.25</ele>
        <time>2019-04-06T15:43:37Z</time>
      </trkpt>
      <trkpt lat="60.55432" lon="7.41977">
        <ele>1770.89</ele>
        <time>2019-04-06T15:43:38Z</time>
      </trkpt>
      <trkpt lat="60.5544" lon="7.41979">
        <ele>1768.48</ele>
        <time>2019-04-06T15:43:39Z</time>
      </trkpt>
      <trkpt lat="60.55454" lon="7.42032">
        <ele>1768.48</ele>
        <time>2019-04-06T15:43:44Z</time>
      </trkpt>
      <trkpt lat="60.55464" lon="7.42084">
        <ele>1765.12</ele>
        <time>2019-04-06T15:43:49Z</time>
      </trkpt>
      <trkpt lat="60.55481" lon="7.42103">
        <ele>1761.75</ele>
        <time>2019-04-06T15:43:51Z</time>
      </trkpt>
      <trkpt lat="60.555" lon="7.42121">
        <ele>1756.95</ele>
        <time>2019-04-06T15:43:53Z</time>
      </trkpt>
      <trkpt lat="60.55521" lon="7.42132">
        <ele>1752.62</ele>
        <time>2019-04-06T15:43:55Z</time>
      </trkpt>
      <trkpt lat="60.55551" lon="7.42139">
        <ele>1749.74</ele>
        <time>2019-04-06T15:43:58Z</time>
      </trkpt>
      <trkpt lat="60.55561" lon="7.4214">
        <ele>1749.26</ele>
        <time>2019-04-06T15:43:59Z</time>
      </trkpt>
      <trkpt lat="60.55579" lon="7.42136">
        <ele>1747.33</ele>
        <time>2019-04-06T15:44:01Z</time>
      </trkpt>
      <trkpt lat="60.55587" lon="7.42133">
        <ele>1747.33</ele>
        <time>2019-04-06T15:44:02Z</time>
      </trkpt>
      <trkpt lat="60.55637" lon="7.42148">
        <ele>1744.45</ele>
        <time>2019-04-06T15:44:08Z</time>
      </trkpt>
      <trkpt lat="60.55652" lon="7.42155">
        <ele>1743.01</ele>
        <time>2019-04-06T15:44:10Z</time>
      </trkpt>
      <trkpt lat="60.55695" lon="7.42186">
        <ele>1739.64</ele>
        <time>2019-04-06T15:44:16Z</time>
      </trkpt>
      <trkpt lat="60.55709" lon="7.42197">
        <ele>1737.72</ele>
        <time>2019-04-06T15:44:18Z</time>
      </trkpt>
      <trkpt lat="60.5572" lon="7.42234">
        <ele>1736.28</ele>
        <time>2019-04-06T15:44:22Z</time>
      </trkpt>
      <trkpt lat="60.5572" lon="7.42276">
        <ele>1734.36</ele>
        <time>2019-04-06T15:44:25Z</time>
      </trkpt>
      <trkpt lat="60.55717" lon="7.42305">
        <ele>1732.43</ele>
        <time>2019-04-06T15:44:27Z</time>
      </trkpt>
      <trkpt lat="60.55712" lon="7.42371">
        <ele>1729.55</ele>
        <time>2019-04-06T15:44:31Z</time>
      </trkpt>
      <trkpt lat="60.55712" lon="7.4239">
        <ele>1728.59</ele>
        <time>2019-04-06T15:44:32Z</time>
      </trkpt>
      <trkpt lat="60.55697" lon="7.42475">
        <ele>1724.74</ele>
        <time>2019-04-06T15:44:37Z</time>
      </trkpt>
      <trkpt lat="60.55688" lon="7.4253">
        <ele>1721.86</ele>
        <time>2019-04-06T15:44:40Z</time>
      </trkpt>
      <trkpt lat="60.55661" lon="7.42626">
        <ele>1718.01</ele>
        <time>2019-04-06T15:44:45Z</time>
      </trkpt>
      <trkpt lat="60.55643" lon="7.42685">
        <ele>1715.13</ele>
        <time>2019-04-06T15:44:48Z</time>
      </trkpt>
      <trkpt lat="60.55625" lon="7.42748">
        <ele>1711.76</ele>
        <time>2019-04-06T15:44:51Z</time>
      </trkpt>
      <trkpt lat="60.55608" lon="7.4281">
        <ele>1709.36</ele>
        <time>2019-04-06T15:44:54Z</time>
      </trkpt>
      <trkpt lat="60.55571" lon="7.42931">
        <ele>1706.96</ele>
        <time>2019-04-06T15:45:00Z</time>
      </trkpt>
      <trkpt lat="60.55559" lon="7.4297">
        <ele>1705.52</ele>
        <time>2019-04-06T15:45:02Z</time>
      </trkpt>
      <trkpt lat="60.55521" lon="7.43114">
        <ele>1703.59</ele>
        <time>2019-04-06T15:45:10Z</time>
      </trkpt>
      <trkpt lat="60.55511" lon="7.4316">
        <ele>1704.07</ele>
        <time>2019-04-06T15:45:13Z</time>
      </trkpt>
      <trkpt lat="60.55503" lon="7.43231">
        <ele>1703.59</ele>
        <time>2019-04-06T15:45:17Z</time>
      </trkpt>
      <trkpt lat="60.55494" lon="7.43295">
        <ele>1703.59</ele>
        <time>2019-04-06T15:45:21Z</time>
      </trkpt>
      <trkpt lat="60.55488" lon="7.4341">
        <ele>1701.67</ele>
        <time>2019-04-06T15:45:28Z</time>
      </trkpt>
      <trkpt lat="60.55506" lon="7.43465">
        <ele>1696.86</ele>
        <time>2019-04-06T15:45:32Z</time>
      </trkpt>
      <trkpt lat="60.55515" lon="7.43474">
        <ele>1695.42</ele>
        <time>2019-04-06T15:45:33Z</time>
      </trkpt>
      <trkpt lat="60.55552" lon="7.43504">
        <ele>1692.54</ele>
        <time>2019-04-06T15:45:37Z</time>
      </trkpt>
      <trkpt lat="60.556" lon="7.43535">
        <ele>1689.65</ele>
        <time>2019-04-06T15:45:42Z</time>
      </trkpt>
      <trkpt lat="60.55611" lon="7.4354">
        <ele>1688.69</ele>
        <time>2019-04-06T15:45:43Z</time>
      </trkpt>
      <trkpt lat="60.5563" lon="7.43557">
        <ele>1687.73</ele>
        <time>2019-04-06T15:45:45Z</time>
      </trkpt>
      <trkpt lat="60.55684" lon="7.43595">
        <ele>1684.37</ele>
        <time>2019-04-06T15:45:51Z</time>
      </trkpt>
      <trkpt lat="60.55701" lon="7.43613">
        <ele>1685.33</ele>
        <time>2019-04-06T15:45:54Z</time>
      </trkpt>
      <trkpt lat="60.55703" lon="7.4362">
        <ele>1686.29</ele>
        <time>2019-04-06T15:45:56Z</time>
      </trkpt>
      <trkpt lat="60.55697" lon="7.43635">
        <ele>1684.85</ele>
        <time>2019-04-06T15:46:02Z</time>
      </trkpt>
      <trkpt lat="60.55697" lon="7.43641">
        <ele>1684.85</ele>
        <time>2019-04-06T15:46:03Z</time>
      </trkpt>
      <trkpt lat="60.55704" lon="7.43671">
        <ele>1683.41</ele>
        <time>2019-04-06T15:46:07Z</time>
      </trkpt>
      <trkpt lat="60.55707" lon="7.43703">
        <ele>1681</ele>
        <time>2019-04-06T15:46:10Z</time>
      </trkpt>
      <trkpt lat="60.55714" lon="7.43748">
        <ele>1679.08</ele>
        <time>2019-04-06T15:46:14Z</time>
      </trkpt>
      <trkpt lat="60.55726" lon="7.43769">
        <ele>1678.6</ele>
        <time>2019-04-06T15:46:16Z</time>
      </trkpt>
      <trkpt lat="60.5574" lon="7.43785">
        <ele>1676.68</ele>
        <time>2019-04-06T15:46:18Z</time>
      </trkpt>
      <trkpt lat="60.55753" lon="7.43797">
        <ele>1675.72</ele>
        <time>2019-04-06T15:46:20Z</time>
      </trkpt>
      <trkpt lat="60.55759" lon="7.43814">
        <ele>1675.72</ele>
        <time>2019-04-06T15:46:22Z</time>
      </trkpt>
      <trkpt lat="60.5578" lon="7.43901">
        <ele>1670.91</ele>
        <time>2019-04-06T15:46:29Z</time>
      </trkpt>
      <trkpt lat="60.55794" lon="7.43931">
        <ele>1668.51</ele>
        <time>2019-04-06T15:46:32Z</time>
      </trkpt>
      <trkpt lat="60.5581" lon="7.43973">
        <ele>1666.58</ele>
        <time>2019-04-06T15:46:36Z</time>
      </trkpt>
      <trkpt lat="60.55826" lon="7.44017">
        <ele>1664.66</ele>
        <time>2019-04-06T15:46:41Z</time>
      </trkpt>
      <trkpt lat="60.55821" lon="7.44092">
        <ele>1661.78</ele>
        <time>2019-04-06T15:46:46Z</time>
      </trkpt>
      <trkpt lat="60.55813" lon="7.44123">
        <ele>1660.81</ele>
        <time>2019-04-06T15:46:48Z</time>
      </trkpt>
      <trkpt lat="60.55795" lon="7.44193">
        <ele>1659.37</ele>
        <time>2019-04-06T15:46:52Z</time>
      </trkpt>
      <trkpt lat="60.55776" lon="7.44264">
        <ele>1656.49</ele>
        <time>2019-04-06T15:46:56Z</time>
      </trkpt>
      <trkpt lat="60.55763" lon="7.4432">
        <ele>1655.05</ele>
        <time>2019-04-06T15:46:59Z</time>
      </trkpt>
      <trkpt lat="60.55758" lon="7.44395">
        <ele>1652.16</ele>
        <time>2019-04-06T15:47:03Z</time>
      </trkpt>
      <trkpt lat="60.55756" lon="7.44432">
        <ele>1650.72</ele>
        <time>2019-04-06T15:47:05Z</time>
      </trkpt>
      <trkpt lat="60.55752" lon="7.44472">
        <ele>1650.24</ele>
        <time>2019-04-06T15:47:07Z</time>
      </trkpt>
      <trkpt lat="60.55735" lon="7.44551">
        <ele>1650.24</ele>
        <time>2019-04-06T15:47:12Z</time>
      </trkpt>
      <trkpt lat="60.55714" lon="7.44643">
        <ele>1651.68</ele>
        <time>2019-04-06T15:47:18Z</time>
      </trkpt>
      <trkpt lat="60.55703" lon="7.447">
        <ele>1652.16</ele>
        <time>2019-04-06T15:47:22Z</time>
      </trkpt>
      <trkpt lat="60.55709" lon="7.44738">
        <ele>1650.24</ele>
        <time>2019-04-06T15:47:27Z</time>
      </trkpt>
      <trkpt lat="60.55709" lon="7.44737">
        <ele>1648.32</ele>
        <time>2019-04-06T15:47:29Z</time>
      </trkpt>
      <trkpt lat="60.55709" lon="7.44737">
        <ele>1649.76</ele>
        <time>2019-04-06T15:47:36Z</time>
      </trkpt>
      <trkpt lat="60.5571" lon="7.44737">
        <ele>1650.24</ele>
        <time>2019-04-06T15:47:38Z</time>
      </trkpt>
      <trkpt lat="60.55715" lon="7.44734">
        <ele>1651.2</ele>
        <time>2019-04-06T15:47:42Z</time>
      </trkpt>
      <trkpt lat="60.55718" lon="7.44745">
        <ele>1651.2</ele>
        <time>2019-04-06T15:47:55Z</time>
      </trkpt>
      <trkpt lat="60.55734" lon="7.44762">
        <ele>1648.32</ele>
        <time>2019-04-06T15:48:06Z</time>
      </trkpt>
      <trkpt lat="60.55758" lon="7.4477">
        <ele>1645.91</ele>
        <time>2019-04-06T15:48:10Z</time>
      </trkpt>
      <trkpt lat="60.55777" lon="7.44767">
        <ele>1643.51</ele>
        <time>2019-04-06T15:48:13Z</time>
      </trkpt>
      <trkpt lat="60.55789" lon="7.44769">
        <ele>1643.03</ele>
        <time>2019-04-06T15:48:15Z</time>
      </trkpt>
      <trkpt lat="60.55805" lon="7.44773">
        <ele>1639.67</ele>
        <time>2019-04-06T15:48:17Z</time>
      </trkpt>
      <trkpt lat="60.55843" lon="7.44779">
        <ele>1635.82</ele>
        <time>2019-04-06T15:48:21Z</time>
      </trkpt>
      <trkpt lat="60.55875" lon="7.44788">
        <ele>1631.01</ele>
        <time>2019-04-06T15:48:24Z</time>
      </trkpt>
      <trkpt lat="60.55917" lon="7.44807">
        <ele>1625.73</ele>
        <time>2019-04-06T15:48:28Z</time>
      </trkpt>
      <trkpt lat="60.55961" lon="7.44826">
        <ele>1622.84</ele>
        <time>2019-04-06T15:48:32Z</time>
      </trkpt>
      <trkpt lat="60.55991" lon="7.44836">
        <ele>1619</ele>
        <time>2019-04-06T15:48:35Z</time>
      </trkpt>
      <trkpt lat="60.55998" lon="7.44837">
        <ele>1619</ele>
        <time>2019-04-06T15:48:36Z</time>
      </trkpt>
      <trkpt lat="60.56" lon="7.44837">
        <ele>1618.52</ele>
        <time>2019-04-06T15:48:46Z</time>
      </trkpt>
      <trkpt lat="60.55999" lon="7.44838">
        <ele>1615.63</ele>
        <time>2019-04-06T15:49:04Z</time>
      </trkpt>
      <trkpt lat="60.56014" lon="7.44856">
        <ele>1618.04</ele>
        <time>2019-04-06T15:49:08Z</time>
      </trkpt>
      <trkpt lat="60.56045" lon="7.44908">
        <ele>1613.23</ele>
        <time>2019-04-06T15:49:13Z</time>
      </trkpt>
      <trkpt lat="60.56048" lon="7.44918">
        <ele>1613.23</ele>
        <time>2019-04-06T15:49:14Z</time>
      </trkpt>
      <trkpt lat="60.56061" lon="7.4497">
        <ele>1610.83</ele>
        <time>2019-04-06T15:49:18Z</time>
      </trkpt>
      <trkpt lat="60.56068" lon="7.45039">
        <ele>1607.94</ele>
        <time>2019-04-06T15:49:23Z</time>
      </trkpt>
      <trkpt lat="60.56082" lon="7.45096">
        <ele>1604.58</ele>
        <time>2019-04-06T15:49:27Z</time>
      </trkpt>
      <trkpt lat="60.56096" lon="7.45174">
        <ele>1600.73</ele>
        <time>2019-04-06T15:49:32Z</time>
      </trkpt>
      <trkpt lat="60.56115" lon="7.45234">
        <ele>1596.41</ele>
        <time>2019-04-06T15:49:36Z</time>
      </trkpt>
      <trkpt lat="60.56132" lon="7.45257">
        <ele>1594</ele>
        <time>2019-04-06T15:49:38Z</time>
      </trkpt>
      <trkpt lat="60.56149" lon="7.45274">
        <ele>1592.56</ele>
        <time>2019-04-06T15:49:40Z</time>
      </trkpt>
      <trkpt lat="60.56163" lon="7.45321">
        <ele>1588.72</ele>
        <time>2019-04-06T15:49:44Z</time>
      </trkpt>
      <trkpt lat="60.56171" lon="7.45345">
        <ele>1586.79</ele>
        <time>2019-04-06T15:49:47Z</time>
      </trkpt>
      <trkpt lat="60.56175" lon="7.45348">
        <ele>1586.79</ele>
        <time>2019-04-06T15:49:48Z</time>
      </trkpt>
      <trkpt lat="60.5618" lon="7.45375">
        <ele>1583.91</ele>
        <time>2019-04-06T15:49:53Z</time>
      </trkpt>
      <trkpt lat="60.56181" lon="7.45378">
        <ele>1585.83</ele>
        <time>2019-04-06T15:49:58Z</time>
      </trkpt>
      <trkpt lat="60.56181" lon="7.45379">
        <ele>1584.39</ele>
        <time>2019-04-06T15:50:09Z</time>
      </trkpt>
      <trkpt lat="60.56183" lon="7.45382">
        <ele>1583.43</ele>
        <time>2019-04-06T15:50:26Z</time>
      </trkpt>
      <trkpt lat="60.56182" lon="7.45382">
        <ele>1582.95</ele>
        <time>2019-04-06T15:50:32Z</time>
      </trkpt>
      <trkpt lat="60.56184" lon="7.45385">
        <ele>1584.39</ele>
        <time>2019-04-06T15:50:34Z</time>
      </trkpt>
      <trkpt lat="60.56188" lon="7.4539">
        <ele>1584.39</ele>
        <time>2019-04-06T15:50:37Z</time>
      </trkpt>
      <trkpt lat="60.56186" lon="7.45403">
        <ele>1581.51</ele>
        <time>2019-04-06T15:50:40Z</time>
      </trkpt>
      <trkpt lat="60.56181" lon="7.45444">
        <ele>1578.14</ele>
        <time>2019-04-06T15:50:47Z</time>
      </trkpt>
      <trkpt lat="60.56184" lon="7.45448">
        <ele>1577.66</ele>
        <time>2019-04-06T15:50:48Z</time>
      </trkpt>
      <trkpt lat="60.56189" lon="7.45456">
        <ele>1576.7</ele>
        <time>2019-04-06T15:50:50Z</time>
      </trkpt>
      <trkpt lat="60.56195" lon="7.45493">
        <ele>1572.37</ele>
        <time>2019-04-06T15:50:54Z</time>
      </trkpt>
      <trkpt lat="60.56197" lon="7.45521">
        <ele>1569.49</ele>
        <time>2019-04-06T15:50:56Z</time>
      </trkpt>
      <trkpt lat="60.56207" lon="7.45564">
        <ele>1565.64</ele>
        <time>2019-04-06T15:50:59Z</time>
      </trkpt>
      <trkpt lat="60.56225" lon="7.45601">
        <ele>1559.88</ele>
        <time>2019-04-06T15:51:02Z</time>
      </trkpt>
      <trkpt lat="60.56232" lon="7.45612">
        <ele>1557.95</ele>
        <time>2019-04-06T15:51:03Z</time>
      </trkpt>
      <trkpt lat="60.56239" lon="7.45638">
        <ele>1557.47</ele>
        <time>2019-04-06T15:51:05Z</time>
      </trkpt>
      <trkpt lat="60.56249" lon="7.45666">
        <ele>1554.11</ele>
        <time>2019-04-06T15:51:07Z</time>
      </trkpt>
      <trkpt lat="60.56263" lon="7.45705">
        <ele>1549.78</ele>
        <time>2019-04-06T15:51:10Z</time>
      </trkpt>
      <trkpt lat="60.56265" lon="7.45719">
        <ele>1549.78</ele>
        <time>2019-04-06T15:51:11Z</time>
      </trkpt>
      <trkpt lat="60.56276" lon="7.45758">
        <ele>1545.94</ele>
        <time>2019-04-06T15:51:14Z</time>
      </trkpt>
      <trkpt lat="60.56281" lon="7.45769">
        <ele>1545.46</ele>
        <time>2019-04-06T15:51:15Z</time>
      </trkpt>
      <trkpt lat="60.56286" lon="7.45828">
        <ele>1541.61</ele>
        <time>2019-04-06T15:51:19Z</time>
      </trkpt>
      <trkpt lat="60.56284" lon="7.4586">
        <ele>1538.73</ele>
        <time>2019-04-06T15:51:22Z</time>
      </trkpt>
      <trkpt lat="60.56286" lon="7.4587">
        <ele>1538.73</ele>
        <time>2019-04-06T15:51:23Z</time>
      </trkpt>
      <trkpt lat="60.56285" lon="7.45909">
        <ele>1536.32</ele>
        <time>2019-04-06T15:51:26Z</time>
      </trkpt>
      <trkpt lat="60.56287" lon="7.45971">
        <ele>1532</ele>
        <time>2019-04-06T15:51:31Z</time>
      </trkpt>
      <trkpt lat="60.56295" lon="7.46027">
        <ele>1529.11</ele>
        <time>2019-04-06T15:51:36Z</time>
      </trkpt>
      <trkpt lat="60.56305" lon="7.46042">
        <ele>1528.15</ele>
        <time>2019-04-06T15:51:38Z</time>
      </trkpt>
      <trkpt lat="60.56325" lon="7.46071">
        <ele>1525.27</ele>
        <time>2019-04-06T15:51:42Z</time>
      </trkpt>
      <trkpt lat="60.56332" lon="7.46125">
        <ele>1521.42</ele>
        <time>2019-04-06T15:51:46Z</time>
      </trkpt>
      <trkpt lat="60.56356" lon="7.46148">
        <ele>1517.58</ele>
        <time>2019-04-06T15:51:50Z</time>
      </trkpt>
      <trkpt lat="60.56362" lon="7.46152">
        <ele>1517.58</ele>
        <time>2019-04-06T15:51:51Z</time>
      </trkpt>
      <trkpt lat="60.56383" lon="7.46164">
        <ele>1514.69</ele>
        <time>2019-04-06T15:51:54Z</time>
      </trkpt>
      <trkpt lat="60.56404" lon="7.46176">
        <ele>1510.37</ele>
        <time>2019-04-06T15:51:57Z</time>
      </trkpt>
      <trkpt lat="60.56411" lon="7.4618">
        <ele>1510.85</ele>
        <time>2019-04-06T15:51:58Z</time>
      </trkpt>
      <trkpt lat="60.56432" lon="7.46194">
        <ele>1507.48</ele>
        <time>2019-04-06T15:52:01Z</time>
      </trkpt>
      <trkpt lat="60.56447" lon="7.46207">
        <ele>1503.16</ele>
        <time>2019-04-06T15:52:03Z</time>
      </trkpt>
      <trkpt lat="60.56471" lon="7.46224">
        <ele>1501.24</ele>
        <time>2019-04-06T15:52:06Z</time>
      </trkpt>
      <trkpt lat="60.5649" lon="7.46257">
        <ele>1498.35</ele>
        <time>2019-04-06T15:52:09Z</time>
      </trkpt>
      <trkpt lat="60.56481" lon="7.46329">
        <ele>1498.35</ele>
        <time>2019-04-06T15:52:15Z</time>
      </trkpt>
      <trkpt lat="60.56474" lon="7.46352">
        <ele>1498.35</ele>
        <time>2019-04-06T15:52:17Z</time>
      </trkpt>
      <trkpt lat="60.56483" lon="7.46415">
        <ele>1495.95</ele>
        <time>2019-04-06T15:52:23Z</time>
      </trkpt>
      <trkpt lat="60.56496" lon="7.46417">
        <ele>1494.51</ele>
        <time>2019-04-06T15:52:26Z</time>
      </trkpt>
      <trkpt lat="60.56512" lon="7.46423">
        <ele>1491.14</ele>
        <time>2019-04-06T15:52:29Z</time>
      </trkpt>
      <trkpt lat="60.56527" lon="7.46429">
        <ele>1494.03</ele>
        <time>2019-04-06T15:52:32Z</time>
      </trkpt>
      <trkpt lat="60.56532" lon="7.4643">
        <ele>1492.1</ele>
        <time>2019-04-06T15:52:33Z</time>
      </trkpt>
      <trkpt lat="60.56549" lon="7.46432">
        <ele>1490.66</ele>
        <time>2019-04-06T15:52:37Z</time>
      </trkpt>
      <trkpt lat="60.56553" lon="7.46432">
        <ele>1490.66</ele>
        <time>2019-04-06T15:52:38Z</time>
      </trkpt>
      <trkpt lat="60.5658" lon="7.46432">
        <ele>1488.74</ele>
        <time>2019-04-06T15:52:44Z</time>
      </trkpt>
      <trkpt lat="60.56596" lon="7.46412">
        <ele>1486.82</ele>
        <time>2019-04-06T15:52:49Z</time>
      </trkpt>
      <trkpt lat="60.5663" lon="7.46396">
        <ele>1484.89</ele>
        <time>2019-04-06T15:52:55Z</time>
      </trkpt>
      <trkpt lat="60.56655" lon="7.46392">
        <ele>1482.97</ele>
        <time>2019-04-06T15:52:59Z</time>
      </trkpt>
      <trkpt lat="60.56663" lon="7.46394">
        <ele>1481.53</ele>
        <time>2019-04-06T15:53:01Z</time>
      </trkpt>
      <trkpt lat="60.56672" lon="7.46392">
        <ele>1478.16</ele>
        <time>2019-04-06T15:53:03Z</time>
      </trkpt>
      <trkpt lat="60.56677" lon="7.46391">
        <ele>1476.72</ele>
        <time>2019-04-06T15:53:04Z</time>
      </trkpt>
      <trkpt lat="60.56699" lon="7.46381">
        <ele>1473.84</ele>
        <time>2019-04-06T15:53:08Z</time>
      </trkpt>
      <trkpt lat="60.56712" lon="7.46378">
        <ele>1472.88</ele>
        <time>2019-04-06T15:53:10Z</time>
      </trkpt>
      <trkpt lat="60.5673" lon="7.46367">
        <ele>1470.47</ele>
        <time>2019-04-06T15:53:13Z</time>
      </trkpt>
      <trkpt lat="60.56743" lon="7.46358">
        <ele>1470.95</ele>
        <time>2019-04-06T15:53:15Z</time>
      </trkpt>
      <trkpt lat="60.56767" lon="7.46351">
        <ele>1467.11</ele>
        <time>2019-04-06T15:53:19Z</time>
      </trkpt>
      <trkpt lat="60.56782" lon="7.46344">
        <ele>1467.11</ele>
        <time>2019-04-06T15:53:23Z</time>
      </trkpt>
      <trkpt lat="60.56794" lon="7.46347">
        <ele>1465.67</ele>
        <time>2019-04-06T15:53:26Z</time>
      </trkpt>
      <trkpt lat="60.5681" lon="7.46349">
        <ele>1463.26</ele>
        <time>2019-04-06T15:53:29Z</time>
      </trkpt>
      <trkpt lat="60.56828" lon="7.46355">
        <ele>1460.38</ele>
        <time>2019-04-06T15:53:32Z</time>
      </trkpt>
      <trkpt lat="60.56834" lon="7.46358">
        <ele>1460.38</ele>
        <time>2019-04-06T15:53:33Z</time>
      </trkpt>
      <trkpt lat="60.56846" lon="7.46368">
        <ele>1459.9</ele>
        <time>2019-04-06T15:53:35Z</time>
      </trkpt>
      <trkpt lat="60.56858" lon="7.46375">
        <ele>1456.53</ele>
        <time>2019-04-06T15:53:37Z</time>
      </trkpt>
      <trkpt lat="60.56868" lon="7.46377">
        <ele>1455.57</ele>
        <time>2019-04-06T15:53:39Z</time>
      </trkpt>
      <trkpt lat="60.56889" lon="7.46391">
        <ele>1452.69</ele>
        <time>2019-04-06T15:53:43Z</time>
      </trkpt>
      <trkpt lat="60.56889" lon="7.46397">
        <ele>1452.21</ele>
        <time>2019-04-06T15:53:44Z</time>
      </trkpt>
      <trkpt lat="60.5691" lon="7.46451">
        <ele>1446.92</ele>
        <time>2019-04-06T15:53:51Z</time>
      </trkpt>
      <trkpt lat="60.56937" lon="7.46471">
        <ele>1443.08</ele>
        <time>2019-04-06T15:53:56Z</time>
      </trkpt>
      <trkpt lat="60.56947" lon="7.46477">
        <ele>1441.15</ele>
        <time>2019-04-06T15:53:58Z</time>
      </trkpt>
      <trkpt lat="60.56964" lon="7.46479">
        <ele>1437.31</ele>
        <time>2019-04-06T15:54:01Z</time>
      </trkpt>
      <trkpt lat="60.5697" lon="7.46479">
        <ele>1436.83</ele>
        <time>2019-04-06T15:54:02Z</time>
      </trkpt>
      <trkpt lat="60.56985" lon="7.46483">
        <ele>1432.02</ele>
        <time>2019-04-06T15:54:04Z</time>
      </trkpt>
      <trkpt lat="60.57" lon="7.46487">
        <ele>1429.62</ele>
        <time>2019-04-06T15:54:06Z</time>
      </trkpt>
      <trkpt lat="60.57029" lon="7.46492">
        <ele>1423.85</ele>
        <time>2019-04-06T15:54:10Z</time>
      </trkpt>
      <trkpt lat="60.57036" lon="7.46493">
        <ele>1422.41</ele>
        <time>2019-04-06T15:54:11Z</time>
      </trkpt>
      <trkpt lat="60.5706" lon="7.46486">
        <ele>1417.6</ele>
        <time>2019-04-06T15:54:15Z</time>
      </trkpt>
      <trkpt lat="60.57074" lon="7.46487">
        <ele>1412.79</ele>
        <time>2019-04-06T15:54:17Z</time>
      </trkpt>
      <trkpt lat="60.57081" lon="7.46486">
        <ele>1412.79</ele>
        <time>2019-04-06T15:54:18Z</time>
      </trkpt>
      <trkpt lat="60.57087" lon="7.46489">
        <ele>1412.31</ele>
        <time>2019-04-06T15:54:19Z</time>
      </trkpt>
      <trkpt lat="60.57107" lon="7.46499">
        <ele>1408.95</ele>
        <time>2019-04-06T15:54:22Z</time>
      </trkpt>
      <trkpt lat="60.57122" lon="7.46499">
        <ele>1405.58</ele>
        <time>2019-04-06T15:54:24Z</time>
      </trkpt>
      <trkpt lat="60.57143" lon="7.46513">
        <ele>1401.26</ele>
        <time>2019-04-06T15:54:27Z</time>
      </trkpt>
      <trkpt lat="60.57158" lon="7.46524">
        <ele>1397.89</ele>
        <time>2019-04-06T15:54:29Z</time>
      </trkpt>
      <trkpt lat="60.57165" lon="7.46531">
        <ele>1396.45</ele>
        <time>2019-04-06T15:54:30Z</time>
      </trkpt>
      <trkpt lat="60.5718" lon="7.46542">
        <ele>1394.53</ele>
        <time>2019-04-06T15:54:32Z</time>
      </trkpt>
      <trkpt lat="60.57208" lon="7.46551">
        <ele>1389.24</ele>
        <time>2019-04-06T15:54:35Z</time>
      </trkpt>
      <trkpt lat="60.57218" lon="7.46555">
        <ele>1385.4</ele>
        <time>2019-04-06T15:54:36Z</time>
      </trkpt>
      <trkpt lat="60.5723" lon="7.46559">
        <ele>1381.55</ele>
        <time>2019-04-06T15:54:37Z</time>
      </trkpt>
      <trkpt lat="60.57252" lon="7.46563">
        <ele>1377.71</ele>
        <time>2019-04-06T15:54:39Z</time>
      </trkpt>
      <trkpt lat="60.57262" lon="7.46564">
        <ele>1377.71</ele>
        <time>2019-04-06T15:54:40Z</time>
      </trkpt>
      <trkpt lat="60.57292" lon="7.46577">
        <ele>1380.59</ele>
        <time>2019-04-06T15:54:43Z</time>
      </trkpt>
      <trkpt lat="60.57312" lon="7.46587">
        <ele>1378.67</ele>
        <time>2019-04-06T15:54:45Z</time>
      </trkpt>
      <trkpt lat="60.57339" lon="7.46611">
        <ele>1378.67</ele>
        <time>2019-04-06T15:54:48Z</time>
      </trkpt>
      <trkpt lat="60.57393" lon="7.4666">
        <ele>1376.26</ele>
        <time>2019-04-06T15:54:55Z</time>
      </trkpt>
      <trkpt lat="60.57422" lon="7.46714">
        <ele>1375.78</ele>
        <time>2019-04-06T15:55:00Z</time>
      </trkpt>
      <trkpt lat="60.5744" lon="7.46736">
        <ele>1375.78</ele>
        <time>2019-04-06T15:55:04Z</time>
      </trkpt>
      <trkpt lat="60.57464" lon="7.46763">
        <ele>1377.23</ele>
        <time>2019-04-06T15:55:12Z</time>
      </trkpt>
      <trkpt lat="60.57463" lon="7.46766">
        <ele>1377.23</ele>
        <time>2019-04-06T15:55:14Z</time>
      </trkpt>
      <trkpt lat="60.57454" lon="7.4678">
        <ele>1377.23</ele>
        <time>2019-04-06T15:55:20Z</time>
      </trkpt>
      <trkpt lat="60.57441" lon="7.46791">
        <ele>1378.19</ele>
        <time>2019-04-06T15:55:31Z</time>
      </trkpt>
      <trkpt lat="60.57431" lon="7.46799">
        <ele>1376.75</ele>
        <time>2019-04-06T15:55:33Z</time>
      </trkpt>
      <trkpt lat="60.57398" lon="7.46814">
        <ele>1379.15</ele>
        <time>2019-04-06T15:55:38Z</time>
      </trkpt>
      <trkpt lat="60.5739" lon="7.46818">
        <ele>1379.15</ele>
        <time>2019-04-06T15:55:39Z</time>
      </trkpt>
      <trkpt lat="60.57372" lon="7.46823">
        <ele>1381.55</ele>
        <time>2019-04-06T15:55:41Z</time>
      </trkpt>
      <trkpt lat="60.57337" lon="7.46835">
        <ele>1379.15</ele>
        <time>2019-04-06T15:55:45Z</time>
      </trkpt>
      <trkpt lat="60.57286" lon="7.46865">
        <ele>1381.07</ele>
        <time>2019-04-06T15:55:50Z</time>
      </trkpt>
      <trkpt lat="60.57256" lon="7.46888">
        <ele>1382.03</ele>
        <time>2019-04-06T15:55:53Z</time>
      </trkpt>
      <trkpt lat="60.57209" lon="7.46947">
        <ele>1385.4</ele>
        <time>2019-04-06T15:55:58Z</time>
      </trkpt>
      <trkpt lat="60.57175" lon="7.47033">
        <ele>1383.96</ele>
        <time>2019-04-06T15:56:03Z</time>
      </trkpt>
      <trkpt lat="60.57157" lon="7.47127">
        <ele>1382.51</ele>
        <time>2019-04-06T15:56:07Z</time>
      </trkpt>
      <trkpt lat="60.57094" lon="7.47428">
        <ele>1385.88</ele>
        <time>2019-04-06T15:56:19Z</time>
      </trkpt>
      <trkpt lat="60.57082" lon="7.47485">
        <ele>1390.2</ele>
        <time>2019-04-06T15:56:22Z</time>
      </trkpt>
      <trkpt lat="60.57075" lon="7.4752">
        <ele>1393.57</ele>
        <time>2019-04-06T15:56:24Z</time>
      </trkpt>
      <trkpt lat="60.57071" lon="7.47539">
        <ele>1397.41</ele>
        <time>2019-04-06T15:56:25Z</time>
      </trkpt>
      <trkpt lat="60.57046" lon="7.47631">
        <ele>1400.78</ele>
        <time>2019-04-06T15:56:30Z</time>
      </trkpt>
      <trkpt lat="60.57033" lon="7.47684">
        <ele>1404.62</ele>
        <time>2019-04-06T15:56:33Z</time>
      </trkpt>
      <trkpt lat="60.57024" lon="7.47712">
        <ele>1406.55</ele>
        <time>2019-04-06T15:56:35Z</time>
      </trkpt>
      <trkpt lat="60.57012" lon="7.4777">
        <ele>1412.79</ele>
        <time>2019-04-06T15:56:39Z</time>
      </trkpt>
      <trkpt lat="60.57009" lon="7.47798">
        <ele>1411.35</ele>
        <time>2019-04-06T15:56:41Z</time>
      </trkpt>
      <trkpt lat="60.57004" lon="7.47837">
        <ele>1412.31</ele>
        <time>2019-04-06T15:56:44Z</time>
      </trkpt>
      <trkpt lat="60.56994" lon="7.47928">
        <ele>1414.72</ele>
        <time>2019-04-06T15:56:52Z</time>
      </trkpt>
      <trkpt lat="60.5699" lon="7.47973">
        <ele>1413.28</ele>
        <time>2019-04-06T15:56:56Z</time>
      </trkpt>
      <trkpt lat="60.56992" lon="7.48011">
        <ele>1415.2</ele>
        <time>2019-04-06T15:56:59Z</time>
      </trkpt>
      <trkpt lat="60.56995" lon="7.48037">
        <ele>1414.72</ele>
        <time>2019-04-06T15:57:01Z</time>
      </trkpt>
      <trkpt lat="60.56994" lon="7.48073">
        <ele>1412.79</ele>
        <time>2019-04-06T15:57:04Z</time>
      </trkpt>
      <trkpt lat="60.56991" lon="7.48086">
        <ele>1412.31</ele>
        <time>2019-04-06T15:57:05Z</time>
      </trkpt>
      <trkpt lat="60.56985" lon="7.48135">
        <ele>1408.47</ele>
        <time>2019-04-06T15:57:09Z</time>
      </trkpt>
      <trkpt lat="60.56979" lon="7.48184">
        <ele>1403.66</ele>
        <time>2019-04-06T15:57:13Z</time>
      </trkpt>
      <trkpt lat="60.56973" lon="7.48224">
        <ele>1398.86</ele>
        <time>2019-04-06T15:57:16Z</time>
      </trkpt>
      <trkpt lat="60.56981" lon="7.48269">
        <ele>1394.53</ele>
        <time>2019-04-06T15:57:21Z</time>
      </trkpt>
      <trkpt lat="60.56972" lon="7.48297">
        <ele>1391.17</ele>
        <time>2019-04-06T15:57:24Z</time>
      </trkpt>
      <trkpt lat="60.56973" lon="7.48317">
        <ele>1387.32</ele>
        <time>2019-04-06T15:57:26Z</time>
      </trkpt>
      <trkpt lat="60.56975" lon="7.48338">
        <ele>1383.96</ele>
        <time>2019-04-06T15:57:28Z</time>
      </trkpt>
      <trkpt lat="60.5697" lon="7.48361">
        <ele>1380.11</ele>
        <time>2019-04-06T15:57:30Z</time>
      </trkpt>
      <trkpt lat="60.56973" lon="7.48383">
        <ele>1376.75</ele>
        <time>2019-04-06T15:57:32Z</time>
      </trkpt>
      <trkpt lat="60.56983" lon="7.48401">
        <ele>1371.94</ele>
        <time>2019-04-06T15:57:34Z</time>
      </trkpt>
      <trkpt lat="60.5699" lon="7.48406">
        <ele>1368.57</ele>
        <time>2019-04-06T15:57:35Z</time>
      </trkpt>
      <trkpt lat="60.57001" lon="7.48425">
        <ele>1367.13</ele>
        <time>2019-04-06T15:57:37Z</time>
      </trkpt>
      <trkpt lat="60.57006" lon="7.48454">
        <ele>1364.73</ele>
        <time>2019-04-06T15:57:39Z</time>
      </trkpt>
      <trkpt lat="60.57012" lon="7.48494">
        <ele>1363.29</ele>
        <time>2019-04-06T15:57:44Z</time>
      </trkpt>
      <trkpt lat="60.57008" lon="7.48512">
        <ele>1362.81</ele>
        <time>2019-04-06T15:57:53Z</time>
      </trkpt>
      <trkpt lat="60.57009" lon="7.48514">
        <ele>1364.25</ele>
        <time>2019-04-06T15:57:56Z</time>
      </trkpt>
      <trkpt lat="60.57008" lon="7.48515">
        <ele>1363.29</ele>
        <time>2019-04-06T15:58:00Z</time>
      </trkpt>
      <trkpt lat="60.57008" lon="7.48523">
        <ele>1362.33</ele>
        <time>2019-04-06T15:58:07Z</time>
      </trkpt>
      <trkpt lat="60.57007" lon="7.48531">
        <ele>1363.77</ele>
        <time>2019-04-06T15:58:14Z</time>
      </trkpt>
      <trkpt lat="60.57006" lon="7.48534">
        <ele>1362.33</ele>
        <time>2019-04-06T15:58:17Z</time>
      </trkpt>
      <trkpt lat="60.57008" lon="7.48533">
        <ele>1361.84</ele>
        <time>2019-04-06T15:58:35Z</time>
      </trkpt>
      <trkpt lat="60.57008" lon="7.48534">
        <ele>1364.73</ele>
        <time>2019-04-06T15:58:38Z</time>
      </trkpt>
      <trkpt lat="60.57008" lon="7.48534">
        <ele>1362.33</ele>
        <time>2019-04-06T15:58:42Z</time>
      </trkpt>
      <trkpt lat="60.57008" lon="7.48536">
        <ele>1364.25</ele>
        <time>2019-04-06T15:58:45Z</time>
      </trkpt>
      <trkpt lat="60.5701" lon="7.48535">
        <ele>1362.81</ele>
        <time>2019-04-06T15:58:58Z</time>
      </trkpt>
      <trkpt lat="60.5701" lon="7.48533">
        <ele>1363.29</ele>
        <time>2019-04-06T15:59:06Z</time>
      </trkpt>
      <trkpt lat="60.5701" lon="7.48533">
        <ele>1361.84</ele>
        <time>2019-04-06T15:59:20Z</time>
      </trkpt>
      <trkpt lat="60.5701" lon="7.48532">
        <ele>1362.81</ele>
        <time>2019-04-06T15:59:38Z</time>
      </trkpt>
      <trkpt lat="60.5701" lon="7.48532">
        <ele>1361.36</ele>
        <time>2019-04-06T15:59:42Z</time>
      </trkpt>
      <trkpt lat="60.5701" lon="7.48534">
        <ele>1363.29</ele>
        <time>2019-04-06T15:59:58Z</time>
      </trkpt>
      <trkpt lat="60.5701" lon="7.48533">
        <ele>1363.29</ele>
        <time>2019-04-06T15:59:59Z</time>
      </trkpt>
      <trkpt lat="60.5701" lon="7.48534">
        <ele>1361.84</ele>
        <time>2019-04-06T16:00:01Z</time>
      </trkpt>
      <trkpt lat="60.5701" lon="7.48536">
        <ele>1361.36</ele>
        <time>2019-04-06T16:00:16Z</time>
      </trkpt>
      <trkpt lat="60.57011" lon="7.48538">
        <ele>1361.36</ele>
        <time>2019-04-06T16:00:28Z</time>
      </trkpt>
      <trkpt lat="60.57012" lon="7.48549">
        <ele>1359.44</ele>
        <time>2019-04-06T16:00:32Z</time>
      </trkpt>
      <trkpt lat="60.57012" lon="7.48552">
        <ele>1360.88</ele>
        <time>2019-04-06T16:00:34Z</time>
      </trkpt>
      <trkpt lat="60.57012" lon="7.4856">
        <ele>1359.44</ele>
        <time>2019-04-06T16:00:37Z</time>
      </trkpt>
      <trkpt lat="60.57011" lon="7.48581">
        <ele>1360.4</ele>
        <time>2019-04-06T16:00:49Z</time>
      </trkpt>
      <trkpt lat="60.57012" lon="7.48581">
        <ele>1360.4</ele>
        <time>2019-04-06T16:00:50Z</time>
      </trkpt>
      <trkpt lat="60.57012" lon="7.48581">
        <ele>1359.44</ele>
        <time>2019-04-06T16:00:51Z</time>
      </trkpt>
      <trkpt lat="60.57014" lon="7.48577">
        <ele>1357.52</ele>
        <time>2019-04-06T16:00:57Z</time>
      </trkpt>
      <trkpt lat="60.57014" lon="7.48576">
        <ele>1355.6</ele>
        <time>2019-04-06T16:01:13Z</time>
      </trkpt>
      <trkpt lat="60.57013" lon="7.48576">
        <ele>1361.84</ele>
        <time>2019-04-06T16:01:14Z</time>
      </trkpt>
      <trkpt lat="60.57014" lon="7.48576">
        <ele>1357.04</ele>
        <time>2019-04-06T16:01:15Z</time>
      </trkpt>
      <trkpt lat="60.57013" lon="7.48576">
        <ele>1359.44</ele>
        <time>2019-04-06T16:01:18Z</time>
      </trkpt>
      <trkpt lat="60.57013" lon="7.48575">
        <ele>1356.08</ele>
        <time>2019-04-06T16:01:20Z</time>
      </trkpt>
      <trkpt lat="60.57013" lon="7.48576">
        <ele>1357.52</ele>
        <time>2019-04-06T16:01:21Z</time>
      </trkpt>
      <trkpt lat="60.57013" lon="7.48577">
        <ele>1360.88</ele>
        <time>2019-04-06T16:01:30Z</time>
      </trkpt>
      <trkpt lat="60.57012" lon="7.48576">
        <ele>1357.52</ele>
        <time>2019-04-06T16:01:40Z</time>
      </trkpt>
      <trkpt lat="60.57011" lon="7.48576">
        <ele>1356.08</ele>
        <time>2019-04-06T16:01:54Z</time>
      </trkpt>
      <trkpt lat="60.57012" lon="7.48575">
        <ele>1356.56</ele>
        <time>2019-04-06T16:02:20Z</time>
      </trkpt>
      <trkpt lat="60.57012" lon="7.48571">
        <ele>1356.56</ele>
        <time>2019-04-06T16:03:00Z</time>
      </trkpt>
      <trkpt lat="60.57012" lon="7.48567">
        <ele>1358</ele>
        <time>2019-04-06T16:03:39Z</time>
      </trkpt>
      <trkpt lat="60.57012" lon="7.48568">
        <ele>1357.04</ele>
        <time>2019-04-06T16:04:22Z</time>
      </trkpt>
      <trkpt lat="60.57012" lon="7.48572">
        <ele>1357.04</ele>
        <time>2019-04-06T16:05:08Z</time>
      </trkpt>
      <trkpt lat="60.57012" lon="7.48575">
        <ele>1359.92</ele>
        <time>2019-04-06T16:05:10Z</time>
      </trkpt>
      <trkpt lat="60.57013" lon="7.48577">
        <ele>1358.48</ele>
        <time>2019-04-06T16:05:13Z</time>
      </trkpt>
      <trkpt lat="60.57013" lon="7.48578">
        <ele>1360.4</ele>
        <time>2019-04-06T16:05:17Z</time>
      </trkpt>
      <trkpt lat="60.57013" lon="7.48578">
        <ele>1360.4</ele>
        <time>2019-04-06T16:05:18Z</time>
      </trkpt>
      <trkpt lat="60.5701" lon="7.48592">
        <ele>1358.96</ele>
        <time>2019-04-06T16:05:23Z</time>
      </trkpt>
      <trkpt lat="60.57004" lon="7.48611">
        <ele>1360.4</ele>
        <time>2019-04-06T16:05:30Z</time>
      </trkpt>
      <trkpt lat="60.57003" lon="7.48614">
        <ele>1358.48</ele>
        <time>2019-04-06T16:05:33Z</time>
      </trkpt>
      <trkpt lat="60.57021" lon="7.48585">
        <ele>1360.4</ele>
        <time>2019-04-06T16:05:41Z</time>
      </trkpt>
      <trkpt lat="60.57044" lon="7.48579">
        <ele>1358</ele>
        <time>2019-04-06T16:05:45Z</time>
      </trkpt>
      <trkpt lat="60.57044" lon="7.48588">
        <ele>1356.56</ele>
        <time>2019-04-06T16:05:49Z</time>
      </trkpt>
      <trkpt lat="60.57026" lon="7.48581">
        <ele>1358.48</ele>
        <time>2019-04-06T16:05:52Z</time>
      </trkpt>
      <trkpt lat="60.57018" lon="7.48581">
        <ele>1359.44</ele>
        <time>2019-04-06T16:05:54Z</time>
      </trkpt>
      <trkpt lat="60.57013" lon="7.48582">
        <ele>1359.44</ele>
        <time>2019-04-06T16:05:56Z</time>
      </trkpt>
      <trkpt lat="60.56992" lon="7.48618">
        <ele>1360.88</ele>
        <time>2019-04-06T16:06:08Z</time>
      </trkpt>
      <trkpt lat="60.56981" lon="7.48628">
        <ele>1362.33</ele>
        <time>2019-04-06T16:06:11Z</time>
      </trkpt>
      <trkpt lat="60.56978" lon="7.48639">
        <ele>1360.88</ele>
        <time>2019-04-06T16:06:14Z</time>
      </trkpt>
      <trkpt lat="60.56983" lon="7.48656">
        <ele>1357.52</ele>
        <time>2019-04-06T16:06:20Z</time>
      </trkpt>
      <trkpt lat="60.56984" lon="7.48658">
        <ele>1356.56</ele>
        <time>2019-04-06T16:06:22Z</time>
      </trkpt>
      <trkpt lat="60.56972" lon="7.48702">
        <ele>1358.48</ele>
        <time>2019-04-06T16:06:30Z</time>
      </trkpt>
      <trkpt lat="60.56976" lon="7.48747">
        <ele>1354.63</ele>
        <time>2019-04-06T16:06:35Z</time>
      </trkpt>
      <trkpt lat="60.56981" lon="7.48754">
        <ele>1354.63</ele>
        <time>2019-04-06T16:06:36Z</time>
      </trkpt>
      <trkpt lat="60.57005" lon="7.48775">
        <ele>1352.23</ele>
        <time>2019-04-06T16:06:39Z</time>
      </trkpt>
      <trkpt lat="60.57024" lon="7.48779">
        <ele>1349.83</ele>
        <time>2019-04-06T16:06:41Z</time>
      </trkpt>
      <trkpt lat="60.5706" lon="7.48782">
        <ele>1343.58</ele>
        <time>2019-04-06T16:06:45Z</time>
      </trkpt>
      <trkpt lat="60.5707" lon="7.48784">
        <ele>1340.22</ele>
        <time>2019-04-06T16:06:46Z</time>
      </trkpt>
      <trkpt lat="60.57079" lon="7.48787">
        <ele>1341.18</ele>
        <time>2019-04-06T16:06:47Z</time>
      </trkpt>
      <trkpt lat="60.5709" lon="7.48791">
        <ele>1345.02</ele>
        <time>2019-04-06T16:06:48Z</time>
      </trkpt>
      <trkpt lat="60.571" lon="7.48795">
        <ele>1342.14</ele>
        <time>2019-04-06T16:06:49Z</time>
      </trkpt>
      <trkpt lat="60.57119" lon="7.48803">
        <ele>1339.25</ele>
        <time>2019-04-06T16:06:51Z</time>
      </trkpt>
      <trkpt lat="60.57128" lon="7.48806">
        <ele>1339.25</ele>
        <time>2019-04-06T16:06:52Z</time>
      </trkpt>
      <trkpt lat="60.57161" lon="7.48822">
        <ele>1336.85</ele>
        <time>2019-04-06T16:06:56Z</time>
      </trkpt>
      <trkpt lat="60.57185" lon="7.48835">
        <ele>1336.37</ele>
        <time>2019-04-06T16:06:59Z</time>
      </trkpt>
      <trkpt lat="60.57211" lon="7.48867">
        <ele>1331.56</ele>
        <time>2019-04-06T16:07:03Z</time>
      </trkpt>
      <trkpt lat="60.5723" lon="7.48885">
        <ele>1325.8</ele>
        <time>2019-04-06T16:07:06Z</time>
      </trkpt>
      <trkpt lat="60.57235" lon="7.4889">
        <ele>1325.8</ele>
        <time>2019-04-06T16:07:07Z</time>
      </trkpt>
      <trkpt lat="60.57241" lon="7.48896">
        <ele>1324.83</ele>
        <time>2019-04-06T16:07:08Z</time>
      </trkpt>
      <trkpt lat="60.57249" lon="7.48924">
        <ele>1321.47</ele>
        <time>2019-04-06T16:07:11Z</time>
      </trkpt>
      <trkpt lat="60.57274" lon="7.4896">
        <ele>1317.14</ele>
        <time>2019-04-06T16:07:15Z</time>
      </trkpt>
      <trkpt lat="60.57299" lon="7.48978">
        <ele>1309.45</ele>
        <time>2019-04-06T16:07:17Z</time>
      </trkpt>
      <trkpt lat="60.57312" lon="7.48987">
        <ele>1306.09</ele>
        <time>2019-04-06T16:07:18Z</time>
      </trkpt>
      <trkpt lat="60.57341" lon="7.49009">
        <ele>1302.72</ele>
        <time>2019-04-06T16:07:20Z</time>
      </trkpt>
      <trkpt lat="60.57366" lon="7.49029">
        <ele>1300.32</ele>
        <time>2019-04-06T16:07:22Z</time>
      </trkpt>
      <trkpt lat="60.57403" lon="7.49057">
        <ele>1296.48</ele>
        <time>2019-04-06T16:07:25Z</time>
      </trkpt>
      <trkpt lat="60.57414" lon="7.49066">
        <ele>1295.51</ele>
        <time>2019-04-06T16:07:26Z</time>
      </trkpt>
      <trkpt lat="60.57436" lon="7.49077">
        <ele>1294.07</ele>
        <time>2019-04-06T16:07:28Z</time>
      </trkpt>
      <trkpt lat="60.57455" lon="7.49089">
        <ele>1295.99</ele>
        <time>2019-04-06T16:07:30Z</time>
      </trkpt>
      <trkpt lat="60.57506" lon="7.49119">
        <ele>1292.15</ele>
        <time>2019-04-06T16:07:35Z</time>
      </trkpt>
      <trkpt lat="60.57537" lon="7.49135">
        <ele>1294.07</ele>
        <time>2019-04-06T16:07:38Z</time>
      </trkpt>
      <trkpt lat="60.57552" lon="7.49141">
        <ele>1295.03</ele>
        <time>2019-04-06T16:07:40Z</time>
      </trkpt>
      <trkpt lat="60.57587" lon="7.4915">
        <ele>1293.11</ele>
        <time>2019-04-06T16:07:44Z</time>
      </trkpt>
      <trkpt lat="60.57608" lon="7.49151">
        <ele>1290.71</ele>
        <time>2019-04-06T16:07:46Z</time>
      </trkpt>
      <trkpt lat="60.57653" lon="7.49173">
        <ele>1295.51</ele>
        <time>2019-04-06T16:07:51Z</time>
      </trkpt>
      <trkpt lat="60.57675" lon="7.49184">
        <ele>1297.92</ele>
        <time>2019-04-06T16:07:54Z</time>
      </trkpt>
      <trkpt lat="60.57709" lon="7.49212">
        <ele>1304.17</ele>
        <time>2019-04-06T16:07:59Z</time>
      </trkpt>
      <trkpt lat="60.57724" lon="7.49224">
        <ele>1305.13</ele>
        <time>2019-04-06T16:08:01Z</time>
      </trkpt>
      <trkpt lat="60.57731" lon="7.4923">
        <ele>1306.09</ele>
        <time>2019-04-06T16:08:02Z</time>
      </trkpt>
      <trkpt lat="60.57746" lon="7.49243">
        <ele>1307.05</ele>
        <time>2019-04-06T16:08:04Z</time>
      </trkpt>
      <trkpt lat="60.57762" lon="7.49256">
        <ele>1308.49</ele>
        <time>2019-04-06T16:08:06Z</time>
      </trkpt>
      <trkpt lat="60.57793" lon="7.49272">
        <ele>1312.82</ele>
        <time>2019-04-06T16:08:10Z</time>
      </trkpt>
      <trkpt lat="60.578" lon="7.49276">
        <ele>1313.3</ele>
        <time>2019-04-06T16:08:11Z</time>
      </trkpt>
      <trkpt lat="60.57874" lon="7.49321">
        <ele>1316.18</ele>
        <time>2019-04-06T16:08:19Z</time>
      </trkpt>
      <trkpt lat="60.5791" lon="7.49344">
        <ele>1318.59</ele>
        <time>2019-04-06T16:08:23Z</time>
      </trkpt>
      <trkpt lat="60.57918" lon="7.49349">
        <ele>1320.03</ele>
        <time>2019-04-06T16:08:24Z</time>
      </trkpt>
      <trkpt lat="60.57935" lon="7.49361">
        <ele>1320.51</ele>
        <time>2019-04-06T16:08:26Z</time>
      </trkpt>
      <trkpt lat="60.57957" lon="7.49387">
        <ele>1321.95</ele>
        <time>2019-04-06T16:08:29Z</time>
      </trkpt>
      <trkpt lat="60.57977" lon="7.49406">
        <ele>1322.91</ele>
        <time>2019-04-06T16:08:32Z</time>
      </trkpt>
      <trkpt lat="60.57988" lon="7.4942">
        <ele>1322.91</ele>
        <time>2019-04-06T16:08:34Z</time>
      </trkpt>
      <trkpt lat="60.58005" lon="7.49464">
        <ele>1321.47</ele>
        <time>2019-04-06T16:08:38Z</time>
      </trkpt>
      <trkpt lat="60.58013" lon="7.49494">
        <ele>1320.51</ele>
        <time>2019-04-06T16:08:40Z</time>
      </trkpt>
      <trkpt lat="60.58024" lon="7.4953">
        <ele>1318.1</ele>
        <time>2019-04-06T16:08:43Z</time>
      </trkpt>
      <trkpt lat="60.58032" lon="7.49546">
        <ele>1317.14</ele>
        <time>2019-04-06T16:08:45Z</time>
      </trkpt>
      <trkpt lat="60.5804" lon="7.49562">
        <ele>1317.62</ele>
        <time>2019-04-06T16:08:47Z</time>
      </trkpt>
      <trkpt lat="60.58049" lon="7.49576">
        <ele>1319.07</ele>
        <time>2019-04-06T16:08:49Z</time>
      </trkpt>
      <trkpt lat="60.58065" lon="7.49598">
        <ele>1319.07</ele>
        <time>2019-04-06T16:08:54Z</time>
      </trkpt>
      <trkpt lat="60.58072" lon="7.49634">
        <ele>1317.14</ele>
        <time>2019-04-06T16:09:00Z</time>
      </trkpt>
      <trkpt lat="60.58067" lon="7.49676">
        <ele>1313.3</ele>
        <time>2019-04-06T16:09:05Z</time>
      </trkpt>
      <trkpt lat="60.58064" lon="7.49714">
        <ele>1310.41</ele>
        <time>2019-04-06T16:09:09Z</time>
      </trkpt>
      <trkpt lat="60.58065" lon="7.49722">
        <ele>1309.45</ele>
        <time>2019-04-06T16:09:10Z</time>
      </trkpt>
      <trkpt lat="60.58067" lon="7.49727">
        <ele>1309.93</ele>
        <time>2019-04-06T16:09:11Z</time>
      </trkpt>
      <trkpt lat="60.58069" lon="7.49729">
        <ele>1308.97</ele>
        <time>2019-04-06T16:09:12Z</time>
      </trkpt>
      <trkpt lat="60.58073" lon="7.4973">
        <ele>1308.97</ele>
        <time>2019-04-06T16:09:13Z</time>
      </trkpt>
      <trkpt lat="60.58077" lon="7.49731">
        <ele>1308.97</ele>
        <time>2019-04-06T16:09:14Z</time>
      </trkpt>
      <trkpt lat="60.58081" lon="7.49732">
        <ele>1308.49</ele>
        <time>2019-04-06T16:09:15Z</time>
      </trkpt>
      <trkpt lat="60.58088" lon="7.49735">
        <ele>1307.05</ele>
        <time>2019-04-06T16:09:18Z</time>
      </trkpt>
      <trkpt lat="60.58091" lon="7.49736">
        <ele>1307.53</ele>
        <time>2019-04-06T16:09:30Z</time>
      </trkpt>
      <trkpt lat="60.58093" lon="7.49737">
        <ele>1306.09</ele>
        <time>2019-04-06T16:09:41Z</time>
      </trkpt>
      <trkpt lat="60.58094" lon="7.49736">
        <ele>1305.61</ele>
        <time>2019-04-06T16:09:42Z</time>
      </trkpt>
      <trkpt lat="60.58096" lon="7.49736">
        <ele>1305.61</ele>
        <time>2019-04-06T16:09:43Z</time>
      </trkpt>
      <trkpt lat="60.58097" lon="7.49737">
        <ele>1305.13</ele>
        <time>2019-04-06T16:09:44Z</time>
      </trkpt>
      <trkpt lat="60.58099" lon="7.49738">
        <ele>1304.65</ele>
        <time>2019-04-06T16:09:45Z</time>
      </trkpt>
      <trkpt lat="60.581" lon="7.49739">
        <ele>1304.17</ele>
        <time>2019-04-06T16:09:46Z</time>
      </trkpt>
      <trkpt lat="60.58102" lon="7.49738">
        <ele>1303.2</ele>
        <time>2019-04-06T16:09:47Z</time>
      </trkpt>
      <trkpt lat="60.58104" lon="7.49735">
        <ele>1303.2</ele>
        <time>2019-04-06T16:09:48Z</time>
      </trkpt>
      <trkpt lat="60.58108" lon="7.49732">
        <ele>1301.76</ele>
        <time>2019-04-06T16:09:49Z</time>
      </trkpt>
      <trkpt lat="60.58112" lon="7.49727">
        <ele>1301.76</ele>
        <time>2019-04-06T16:09:50Z</time>
      </trkpt>
      <trkpt lat="60.58117" lon="7.49722">
        <ele>1301.76</ele>
        <time>2019-04-06T16:09:51Z</time>
      </trkpt>
      <trkpt lat="60.58122" lon="7.49715">
        <ele>1300.32</ele>
        <time>2019-04-06T16:09:52Z</time>
      </trkpt>
      <trkpt lat="60.58134" lon="7.49697">
        <ele>1293.59</ele>
        <time>2019-04-06T16:09:55Z</time>
      </trkpt>
      <trkpt lat="60.58149" lon="7.49685">
        <ele>1289.75</ele>
        <time>2019-04-06T16:09:58Z</time>
      </trkpt>
      <trkpt lat="60.58155" lon="7.4968">
        <ele>1288.78</ele>
        <time>2019-04-06T16:09:59Z</time>
      </trkpt>
      <trkpt lat="60.58176" lon="7.49673">
        <ele>1286.86</ele>
        <time>2019-04-06T16:10:02Z</time>
      </trkpt>
      <trkpt lat="60.58202" lon="7.49665">
        <ele>1283.5</ele>
        <time>2019-04-06T16:10:06Z</time>
      </trkpt>
      <trkpt lat="60.58208" lon="7.49663">
        <ele>1282.54</ele>
        <time>2019-04-06T16:10:07Z</time>
      </trkpt>
      <trkpt lat="60.58249" lon="7.49636">
        <ele>1279.17</ele>
        <time>2019-04-06T16:10:13Z</time>
      </trkpt>
      <trkpt lat="60.58261" lon="7.49629">
        <ele>1277.25</ele>
        <time>2019-04-06T16:10:15Z</time>
      </trkpt>
      <trkpt lat="60.58285" lon="7.49609">
        <ele>1272.44</ele>
        <time>2019-04-06T16:10:19Z</time>
      </trkpt>
      <trkpt lat="60.58291" lon="7.49604">
        <ele>1272.44</ele>
        <time>2019-04-06T16:10:20Z</time>
      </trkpt>
      <trkpt lat="60.58298" lon="7.49599">
        <ele>1272.44</ele>
        <time>2019-04-06T16:10:21Z</time>
      </trkpt>
      <trkpt lat="60.58327" lon="7.49572">
        <ele>1271</ele>
        <time>2019-04-06T16:10:26Z</time>
      </trkpt>
      <trkpt lat="60.58345" lon="7.49556">
        <ele>1263.79</ele>
        <time>2019-04-06T16:10:29Z</time>
      </trkpt>
      <trkpt lat="60.58359" lon="7.49543">
        <ele>1260.91</ele>
        <time>2019-04-06T16:10:31Z</time>
      </trkpt>
      <trkpt lat="60.5838" lon="7.49537">
        <ele>1255.62</ele>
        <time>2019-04-06T16:10:34Z</time>
      </trkpt>
      <trkpt lat="60.58417" lon="7.49555">
        <ele>1250.33</ele>
        <time>2019-04-06T16:10:38Z</time>
      </trkpt>
      <trkpt lat="60.58443" lon="7.49577">
        <ele>1250.81</ele>
        <time>2019-04-06T16:10:41Z</time>
      </trkpt>
      <trkpt lat="60.58476" lon="7.49592">
        <ele>1247.93</ele>
        <time>2019-04-06T16:10:48Z</time>
      </trkpt>
      <trkpt lat="60.58505" lon="7.49581">
        <ele>1247.45</ele>
        <time>2019-04-06T16:10:53Z</time>
      </trkpt>
      <trkpt lat="60.58511" lon="7.49579">
        <ele>1246.97</ele>
        <time>2019-04-06T16:10:54Z</time>
      </trkpt>
      <trkpt lat="60.58525" lon="7.49575">
        <ele>1246.49</ele>
        <time>2019-04-06T16:10:56Z</time>
      </trkpt>
      <trkpt lat="60.58544" lon="7.49563">
        <ele>1242.64</ele>
        <time>2019-04-06T16:11:00Z</time>
      </trkpt>
      <trkpt lat="60.58542" lon="7.49564">
        <ele>1242.64</ele>
        <time>2019-04-06T16:11:01Z</time>
      </trkpt>
      <trkpt lat="60.58543" lon="7.49563">
        <ele>1242.64</ele>
        <time>2019-04-06T16:11:07Z</time>
      </trkpt>
      <trkpt lat="60.58544" lon="7.49576">
        <ele>1244.08</ele>
        <time>2019-04-06T16:11:10Z</time>
      </trkpt>
      <trkpt lat="60.58563" lon="7.4959">
        <ele>1245.04</ele>
        <time>2019-04-06T16:11:15Z</time>
      </trkpt>
      <trkpt lat="60.58592" lon="7.49578">
        <ele>1238.8</ele>
        <time>2019-04-06T16:11:19Z</time>
      </trkpt>
      <trkpt lat="60.58618" lon="7.49586">
        <ele>1238.32</ele>
        <time>2019-04-06T16:11:23Z</time>
      </trkpt>
      <trkpt lat="60.58626" lon="7.49595">
        <ele>1237.35</ele>
        <time>2019-04-06T16:11:25Z</time>
      </trkpt>
      <trkpt lat="60.58644" lon="7.49603">
        <ele>1233.99</ele>
        <time>2019-04-06T16:11:28Z</time>
      </trkpt>
      <trkpt lat="60.58655" lon="7.49613">
        <ele>1235.43</ele>
        <time>2019-04-06T16:11:30Z</time>
      </trkpt>
      <trkpt lat="60.58664" lon="7.49624">
        <ele>1239.28</ele>
        <time>2019-04-06T16:11:34Z</time>
      </trkpt>
      <trkpt lat="60.58664" lon="7.49627">
        <ele>1239.28</ele>
        <time>2019-04-06T16:11:35Z</time>
      </trkpt>
      <trkpt lat="60.58674" lon="7.49646">
        <ele>1241.68</ele>
        <time>2019-04-06T16:11:40Z</time>
      </trkpt>
      <trkpt lat="60.58676" lon="7.49649">
        <ele>1241.68</ele>
        <time>2019-04-06T16:11:41Z</time>
      </trkpt>
      <trkpt lat="60.58697" lon="7.49662">
        <ele>1242.16</ele>
        <time>2019-04-06T16:11:46Z</time>
      </trkpt>
      <trkpt lat="60.58714" lon="7.49669">
        <ele>1241.2</ele>
        <time>2019-04-06T16:11:49Z</time>
      </trkpt>
      <trkpt lat="60.58735" lon="7.49679">
        <ele>1241.2</ele>
        <time>2019-04-06T16:11:52Z</time>
      </trkpt>
      <trkpt lat="60.58756" lon="7.49697">
        <ele>1238.32</ele>
        <time>2019-04-06T16:11:55Z</time>
      </trkpt>
      <trkpt lat="60.58781" lon="7.49717">
        <ele>1236.39</ele>
        <time>2019-04-06T16:11:58Z</time>
      </trkpt>
      <trkpt lat="60.58798" lon="7.49731">
        <ele>1233.99</ele>
        <time>2019-04-06T16:12:00Z</time>
      </trkpt>
      <trkpt lat="60.58822" lon="7.4975">
        <ele>1235.43</ele>
        <time>2019-04-06T16:12:03Z</time>
      </trkpt>
      <trkpt lat="60.58829" lon="7.49754">
        <ele>1235.91</ele>
        <time>2019-04-06T16:12:04Z</time>
      </trkpt>
      <trkpt lat="60.58844" lon="7.49771">
        <ele>1238.8</ele>
        <time>2019-04-06T16:12:07Z</time>
      </trkpt>
      <trkpt lat="60.58864" lon="7.49797">
        <ele>1242.64</ele>
        <time>2019-04-06T16:12:13Z</time>
      </trkpt>
      <trkpt lat="60.58868" lon="7.49817">
        <ele>1241.2</ele>
        <time>2019-04-06T16:12:17Z</time>
      </trkpt>
      <trkpt lat="60.58877" lon="7.49843">
        <ele>1241.2</ele>
        <time>2019-04-06T16:12:21Z</time>
      </trkpt>
      <trkpt lat="60.58886" lon="7.49858">
        <ele>1240.72</ele>
        <time>2019-04-06T16:12:23Z</time>
      </trkpt>
      <trkpt lat="60.58902" lon="7.49884">
        <ele>1239.28</ele>
        <time>2019-04-06T16:12:27Z</time>
      </trkpt>
      <trkpt lat="60.5892" lon="7.49909">
        <ele>1238.32</ele>
        <time>2019-04-06T16:12:31Z</time>
      </trkpt>
      <trkpt lat="60.58947" lon="7.49929">
        <ele>1235.91</ele>
        <time>2019-04-06T16:12:35Z</time>
      </trkpt>
      <trkpt lat="60.58954" lon="7.49931">
        <ele>1235.91</ele>
        <time>2019-04-06T16:12:36Z</time>
      </trkpt>
      <trkpt lat="60.58982" lon="7.49955">
        <ele>1232.55</ele>
        <time>2019-04-06T16:12:40Z</time>
      </trkpt>
      <trkpt lat="60.59013" lon="7.49978">
        <ele>1229.18</ele>
        <time>2019-04-06T16:12:44Z</time>
      </trkpt>
      <trkpt lat="60.59036" lon="7.50001">
        <ele>1225.82</ele>
        <time>2019-04-06T16:12:47Z</time>
      </trkpt>
      <trkpt lat="60.59054" lon="7.50015">
        <ele>1223.9</ele>
        <time>2019-04-06T16:12:49Z</time>
      </trkpt>
      <trkpt lat="60.59073" lon="7.50033">
        <ele>1218.61</ele>
        <time>2019-04-06T16:12:51Z</time>
      </trkpt>
      <trkpt lat="60.59092" lon="7.50051">
        <ele>1215.72</ele>
        <time>2019-04-06T16:12:53Z</time>
      </trkpt>
      <trkpt lat="60.5917" lon="7.50149">
        <ele>1211.88</ele>
        <time>2019-04-06T16:13:04Z</time>
      </trkpt>
      <trkpt lat="60.59194" lon="7.50178">
        <ele>1211.4</ele>
        <time>2019-04-06T16:13:07Z</time>
      </trkpt>
      <trkpt lat="60.59235" lon="7.50263">
        <ele>1210.92</ele>
        <time>2019-04-06T16:13:13Z</time>
      </trkpt>
      <trkpt lat="60.59284" lon="7.50367">
        <ele>1209.48</ele>
        <time>2019-04-06T16:13:20Z</time>
      </trkpt>
      <trkpt lat="60.59302" lon="7.50412">
        <ele>1207.07</ele>
        <time>2019-04-06T16:13:23Z</time>
      </trkpt>
      <trkpt lat="60.59316" lon="7.50445">
        <ele>1206.11</ele>
        <time>2019-04-06T16:13:25Z</time>
      </trkpt>
      <trkpt lat="60.59323" lon="7.50462">
        <ele>1205.63</ele>
        <time>2019-04-06T16:13:26Z</time>
      </trkpt>
      <trkpt lat="60.59333" lon="7.50495">
        <ele>1205.63</ele>
        <time>2019-04-06T16:13:28Z</time>
      </trkpt>
      <trkpt lat="60.59369" lon="7.50639">
        <ele>1204.19</ele>
        <time>2019-04-06T16:13:36Z</time>
      </trkpt>
      <trkpt lat="60.59383" lon="7.50708">
        <ele>1204.19</ele>
        <time>2019-04-06T16:13:42Z</time>
      </trkpt>
      <trkpt lat="60.59392" lon="7.5074">
        <ele>1204.67</ele>
        <time>2019-04-06T16:13:45Z</time>
      </trkpt>
      <trkpt lat="60.5941" lon="7.50848">
        <ele>1204.67</ele>
        <time>2019-04-06T16:13:56Z</time>
      </trkpt>
      <trkpt lat="60.59402" lon="7.5086">
        <ele>1206.11</ele>
        <time>2019-04-06T16:14:04Z</time>
      </trkpt>
      <trkpt lat="60.59403" lon="7.50862">
        <ele>1206.59</ele>
        <time>2019-04-06T16:14:20Z</time>
      </trkpt>
      <trkpt lat="60.59401" lon="7.50861">
        <ele>1206.59</ele>
        <time>2019-04-06T16:14:38Z</time>
      </trkpt>
      <trkpt lat="60.59401" lon="7.50863">
        <ele>1206.59</ele>
        <time>2019-04-06T16:14:53Z</time>
      </trkpt>
      <trkpt lat="60.59401" lon="7.50866">
        <ele>1206.59</ele>
        <time>2019-04-06T16:15:06Z</time>
      </trkpt>
      <trkpt lat="60.59402" lon="7.50862">
        <ele>1206.59</ele>
        <time>2019-04-06T16:15:22Z</time>
      </trkpt>
      <trkpt lat="60.59403" lon="7.50863">
        <ele>1206.59</ele>
        <time>2019-04-06T16:15:50Z</time>
      </trkpt>
      <trkpt lat="60.59403" lon="7.50862">
        <ele>1206.11</ele>
        <time>2019-04-06T16:16:18Z</time>
      </trkpt>
      <trkpt lat="60.59404" lon="7.5086">
        <ele>1205.63</ele>
        <time>2019-04-06T16:16:51Z</time>
      </trkpt>
    </trkseg>
  </trk>
</gpx>